<?xml version='1.0' encoding='UTF-8'?><gpx version="1.1" creator="JPX - https://github.com/jenetics/jpx" xmlns="http://www.topografix.com/GPX/1/1"><trk><trkseg><trkpt lat="43.641132343693265" lon="3.6958135116556257"><ele>121.99999999999999</ele><time>2026-04-28T06:52:51.995Z</time></trkpt><trkpt lat="43.64119638405505" lon="3.6958433683535024"><ele>122.0</ele><time>2026-04-28T06:53:28.995Z</time></trkpt><trkpt lat="43.641147246277654" lon="3.6957883678737846"><ele>121.99999999999999</ele><time>2026-04-28T06:54:00.994Z</time></trkpt><trkpt lat="43.641206662361355" lon="3.695822578514374"><ele>121.99999999999999</ele><time>2026-04-28T06:55:25.994Z</time></trkpt><trkpt lat="43.641191737731496" lon="3.6959317356977417"><ele>122.0</ele><time>2026-04-28T06:57:19.993Z</time></trkpt><trkpt lat="43.64119080439575" lon="3.6958420226517603"><ele>121.99999999999999</ele><time>2026-04-28T06:57:30.993Z</time></trkpt><trkpt lat="43.6412101648811" lon="3.6957576364824445"><ele>121.99999999999999</ele><time>2026-04-28T06:58:00.993Z</time></trkpt><trkpt lat="43.64121983307374" lon="3.695863966384103"><ele>121.99999999999999</ele><time>2026-04-28T07:04:07.99Z</time></trkpt><trkpt lat="43.64125816302605" lon="3.6959449950920034"><ele>122.0</ele><time>2026-04-28T07:04:10.99Z</time></trkpt><trkpt lat="43.641346936301446" lon="3.695933174351142"><ele>122.0</ele><time>2026-04-28T07:04:13.99Z</time></trkpt><trkpt lat="43.641381272923816" lon="3.6958263432983727"><ele>122.0</ele><time>2026-04-28T07:04:16.99Z</time></trkpt><trkpt lat="43.64135247006421" lon="3.695724054839093"><ele>121.99999999999999</ele><time>2026-04-28T07:04:19.99Z</time></trkpt><trkpt lat="43.64126632880444" lon="3.6957252172818187"><ele>122.0</ele><time>2026-04-28T07:04:22.99Z</time></trkpt><trkpt lat="43.641208001337375" lon="3.6957726663833164"><ele>121.99999999999999</ele><time>2026-04-28T07:04:25.99Z</time></trkpt><trkpt lat="43.64118957173268" lon="3.6958607991822277"><ele>122.0</ele><time>2026-04-28T07:11:21.989Z</time></trkpt><trkpt lat="43.64124343552224" lon="3.695807605936136"><ele>121.99999999999999</ele><time>2026-04-28T07:11:26.989Z</time></trkpt><trkpt lat="43.641243144389634" lon="3.6957199649812695"><ele>121.99999999999999</ele><time>2026-04-28T07:11:32.989Z</time></trkpt><trkpt lat="43.641282214786834" lon="3.6957891080452145"><ele>122.0</ele><time>2026-04-28T07:11:37.989Z</time></trkpt><trkpt lat="43.64131318662447" lon="3.6957042346468407"><ele>121.99999999999999</ele><time>2026-04-28T07:11:40.989Z</time></trkpt><trkpt lat="43.64131850688026" lon="3.6956021264684438"><ele>121.99999999999999</ele><time>2026-04-28T07:11:43.989Z</time></trkpt><trkpt lat="43.64137119829495" lon="3.6955495065623984"><ele>121.99999999999999</ele><time>2026-04-28T07:11:50.99Z</time></trkpt><trkpt lat="43.6414526176339" lon="3.6955407580169357"><ele>122.0</ele><time>2026-04-28T07:11:53.989Z</time></trkpt><trkpt lat="43.641535576397665" lon="3.695556993075839"><ele>122.0</ele><time>2026-04-28T07:11:56.989Z</time></trkpt><trkpt lat="43.64159766537615" lon="3.695578924677603"><ele>122.0</ele><time>2026-04-28T07:11:58.989Z</time></trkpt><trkpt lat="43.64167082414548" lon="3.6955982837794474"><ele>121.99999999999999</ele><time>2026-04-28T07:12:00.989Z</time></trkpt><trkpt lat="43.64175403726663" lon="3.695614151722781"><ele>122.0</ele><time>2026-04-28T07:12:02.989Z</time></trkpt><trkpt lat="43.64184166884008" lon="3.69564955655377"><ele>122.0</ele><time>2026-04-28T07:12:04.989Z</time></trkpt><trkpt lat="43.64192696118183" lon="3.695673042674596"><ele>121.99999999999999</ele><time>2026-04-28T07:12:06.989Z</time></trkpt><trkpt lat="43.64202121377029" lon="3.6957122134049647"><ele>121.99999999999999</ele><time>2026-04-28T07:12:08.989Z</time></trkpt><trkpt lat="43.64208987671916" lon="3.695746078437858"><ele>122.0</ele><time>2026-04-28T07:12:10.989Z</time></trkpt><trkpt lat="43.64219904676911" lon="3.6957638612576793"><ele>122.0</ele><time>2026-04-28T07:12:13.989Z</time></trkpt><trkpt lat="43.642275914830016" lon="3.6958089576404918"><ele>121.16666666666666</ele><time>2026-04-28T07:12:15.989Z</time></trkpt><trkpt lat="43.64235427818893" lon="3.6958391128939554"><ele>120.33333333333333</ele><time>2026-04-28T07:12:17.989Z</time></trkpt><trkpt lat="43.6424397614308" lon="3.695870770134314"><ele>119.5</ele><time>2026-04-28T07:12:19.989Z</time></trkpt><trkpt lat="43.64250026413808" lon="3.6959004995651967"><ele>118.66666666666666</ele><time>2026-04-28T07:12:21.989Z</time></trkpt><trkpt lat="43.642580993710745" lon="3.6959400832295177"><ele>117.83333333333333</ele><time>2026-04-28T07:12:24.989Z</time></trkpt><trkpt lat="43.642646829309165" lon="3.6959629417060142"><ele>117.0</ele><time>2026-04-28T07:12:26.989Z</time></trkpt><trkpt lat="43.64268593145378" lon="3.696067541388566"><ele>117.0</ele><time>2026-04-28T07:12:29.989Z</time></trkpt><trkpt lat="43.64272949460302" lon="3.69613117372108"><ele>117.00000000000001</ele><time>2026-04-28T07:12:31.989Z</time></trkpt><trkpt lat="43.64279174401199" lon="3.696196080970707"><ele>117.0</ele><time>2026-04-28T07:12:34.988Z</time></trkpt><trkpt lat="43.64285010169971" lon="3.6962395038798954"><ele>117.0</ele><time>2026-04-28T07:12:36.988Z</time></trkpt><trkpt lat="43.642919135997104" lon="3.6962452316176093"><ele>117.00000000000001</ele><time>2026-04-28T07:12:39.988Z</time></trkpt><trkpt lat="43.64297694620981" lon="3.696208748824117"><ele>117.0</ele><time>2026-04-28T07:12:42.988Z</time></trkpt><trkpt lat="43.64305216350948" lon="3.696200268243868"><ele>117.0</ele><time>2026-04-28T07:12:45.988Z</time></trkpt><trkpt lat="43.643130301429146" lon="3.6961785203192004"><ele>117.0</ele><time>2026-04-28T07:12:48.988Z</time></trkpt><trkpt lat="43.64320723107597" lon="3.696166418501154"><ele>117.00000000000001</ele><time>2026-04-28T07:12:51.988Z</time></trkpt><trkpt lat="43.64327642651857" lon="3.6961744163935553"><ele>117.0</ele><time>2026-04-28T07:12:54.988Z</time></trkpt><trkpt lat="43.643351291179535" lon="3.696189176450297"><ele>117.0</ele><time>2026-04-28T07:12:57.988Z</time></trkpt><trkpt lat="43.64343737770216" lon="3.6962049753154615"><ele>117.00000000000001</ele><time>2026-04-28T07:13:00.988Z</time></trkpt><trkpt lat="43.643502515559724" lon="3.696216211823527"><ele>117.0</ele><time>2026-04-28T07:13:02.988Z</time></trkpt><trkpt lat="43.64357237816176" lon="3.6962200566488534"><ele>117.0</ele><time>2026-04-28T07:13:04.988Z</time></trkpt><trkpt lat="43.64364185312289" lon="3.696241276369258"><ele>117.16666666666667</ele><time>2026-04-28T07:13:06.988Z</time></trkpt><trkpt lat="43.64372941346905" lon="3.696267613638123"><ele>117.33333333333334</ele><time>2026-04-28T07:13:09.988Z</time></trkpt><trkpt lat="43.643792310304214" lon="3.696280772527677"><ele>117.5</ele><time>2026-04-28T07:13:11.988Z</time></trkpt><trkpt lat="43.64387295865268" lon="3.6962960899621757"><ele>117.66666666666667</ele><time>2026-04-28T07:13:14.988Z</time></trkpt><trkpt lat="43.64394860134897" lon="3.696319093495144"><ele>117.83333333333334</ele><time>2026-04-28T07:13:16.988Z</time></trkpt><trkpt lat="43.64403624952814" lon="3.6963156706083646"><ele>118.0</ele><time>2026-04-28T07:13:19.988Z</time></trkpt><trkpt lat="43.644098881272576" lon="3.69633496246931"><ele>118.00000000000001</ele><time>2026-04-28T07:13:21.988Z</time></trkpt><trkpt lat="43.64416067178658" lon="3.696356806005639"><ele>118.0</ele><time>2026-04-28T07:13:23.988Z</time></trkpt><trkpt lat="43.644248886422" lon="3.6963725035270047"><ele>118.0</ele><time>2026-04-28T07:13:26.988Z</time></trkpt><trkpt lat="43.64432501858772" lon="3.6963935449235668"><ele>118.0</ele><time>2026-04-28T07:13:29.988Z</time></trkpt><trkpt lat="43.64440805293942" lon="3.6964338472900837"><ele>118.00000000000001</ele><time>2026-04-28T07:13:32.988Z</time></trkpt><trkpt lat="43.64447015307633" lon="3.696455177013054"><ele>118.0</ele><time>2026-04-28T07:13:34.988Z</time></trkpt><trkpt lat="43.644542475807704" lon="3.6964934678212025"><ele>118.33333333333334</ele><time>2026-04-28T07:13:37.988Z</time></trkpt><trkpt lat="43.644617189848795" lon="3.696519636520363"><ele>118.66666666666667</ele><time>2026-04-28T07:13:40.988Z</time></trkpt><trkpt lat="43.64470158710412" lon="3.6965502873525304"><ele>119.0</ele><time>2026-04-28T07:13:43.988Z</time></trkpt><trkpt lat="43.644784216054006" lon="3.6965810518432978"><ele>119.33333333333334</ele><time>2026-04-28T07:13:46.988Z</time></trkpt><trkpt lat="43.644874415902365" lon="3.69661523667644"><ele>119.66666666666667</ele><time>2026-04-28T07:13:49.988Z</time></trkpt><trkpt lat="43.64493710806034" lon="3.696638996369056"><ele>120.0</ele><time>2026-04-28T07:13:51.989Z</time></trkpt><trkpt lat="43.6450108299282" lon="3.6966675463990826"><ele>120.0</ele><time>2026-04-28T07:13:54.988Z</time></trkpt><trkpt lat="43.645093085975184" lon="3.6967003604988578"><ele>120.0</ele><time>2026-04-28T07:13:57.989Z</time></trkpt><trkpt lat="43.645181655224505" lon="3.6967356931015747"><ele>120.0</ele><time>2026-04-28T07:14:00.989Z</time></trkpt><trkpt lat="43.64526655418827" lon="3.6967695615281184"><ele>120.0</ele><time>2026-04-28T07:14:03.989Z</time></trkpt><trkpt lat="43.645333235135844" lon="3.696796162311729"><ele>120.0</ele><time>2026-04-28T07:14:05.989Z</time></trkpt><trkpt lat="43.64539420436737" lon="3.6968204845391477"><ele>120.0</ele><time>2026-04-28T07:14:07.989Z</time></trkpt><trkpt lat="43.64549147846053" lon="3.696860121681096"><ele>119.83333333333333</ele><time>2026-04-28T07:14:10.989Z</time></trkpt><trkpt lat="43.64557716466863" lon="3.696892501016833"><ele>119.66666666666666</ele><time>2026-04-28T07:14:13.989Z</time></trkpt><trkpt lat="43.64566955607119" lon="3.6969285616607173"><ele>119.5</ele><time>2026-04-28T07:14:16.989Z</time></trkpt><trkpt lat="43.6457470996613" lon="3.6969578249472566"><ele>119.33333333333333</ele><time>2026-04-28T07:14:19.989Z</time></trkpt><trkpt lat="43.64581769729625" lon="3.6969833645772967"><ele>119.16666666666666</ele><time>2026-04-28T07:14:22.988Z</time></trkpt><trkpt lat="43.64588533011859" lon="3.697006183397987"><ele>119.0</ele><time>2026-04-28T07:14:24.988Z</time></trkpt><trkpt lat="43.645947736546866" lon="3.6970247692845413"><ele>118.99999999999999</ele><time>2026-04-28T07:14:26.988Z</time></trkpt><trkpt lat="43.64603088760992" lon="3.697045672719612"><ele>119.0</ele><time>2026-04-28T07:14:29.988Z</time></trkpt><trkpt lat="43.646094750655195" lon="3.6970545457748134"><ele>119.0</ele><time>2026-04-28T07:14:31.988Z</time></trkpt><trkpt lat="43.64615986362416" lon="3.697064343313255"><ele>119.0</ele><time>2026-04-28T07:14:33.988Z</time></trkpt><trkpt lat="43.64623170189107" lon="3.697080077501452"><ele>118.99999999999999</ele><time>2026-04-28T07:14:35.988Z</time></trkpt><trkpt lat="43.646321527416" lon="3.697102229829889"><ele>119.0</ele><time>2026-04-28T07:14:38.988Z</time></trkpt><trkpt lat="43.64641664935499" lon="3.6971253621057865"><ele>118.99999999999999</ele><time>2026-04-28T07:14:41.988Z</time></trkpt><trkpt lat="43.64650248562716" lon="3.6971446625695314"><ele>119.0</ele><time>2026-04-28T07:14:44.988Z</time></trkpt><trkpt lat="43.6465901046316" lon="3.697164363884283"><ele>119.0</ele><time>2026-04-28T07:14:47.988Z</time></trkpt><trkpt lat="43.64665857869412" lon="3.6971781144706504"><ele>119.0</ele><time>2026-04-28T07:14:49.988Z</time></trkpt><trkpt lat="43.64672468145003" lon="3.6971908272789866"><ele>118.99999999999999</ele><time>2026-04-28T07:14:51.988Z</time></trkpt><trkpt lat="43.64679376167649" lon="3.697206319442178"><ele>119.0</ele><time>2026-04-28T07:14:53.988Z</time></trkpt><trkpt lat="43.64686082848603" lon="3.6972266959072253"><ele>118.99999999999999</ele><time>2026-04-28T07:14:55.988Z</time></trkpt><trkpt lat="43.646932991772196" lon="3.697256826529747"><ele>119.0</ele><time>2026-04-28T07:14:58.988Z</time></trkpt><trkpt lat="43.64700702299225" lon="3.697293409932671"><ele>119.0</ele><time>2026-04-28T07:15:01.988Z</time></trkpt><trkpt lat="43.647073799520975" lon="3.697337152425708"><ele>119.0</ele><time>2026-04-28T07:15:06.988Z</time></trkpt><trkpt lat="43.64713401443706" lon="3.697380542457141"><ele>118.99999999999999</ele><time>2026-04-28T07:15:11.988Z</time></trkpt><trkpt lat="43.64721439270945" lon="3.6973315951914394"><ele>119.0</ele><time>2026-04-28T07:15:14.988Z</time></trkpt><trkpt lat="43.64730446674386" lon="3.697363011825867"><ele>119.80000000000001</ele><time>2026-04-28T07:15:17.988Z</time></trkpt><trkpt lat="43.64739035118381" lon="3.6974122080973477"><ele>120.60000000000001</ele><time>2026-04-28T07:15:20.988Z</time></trkpt><trkpt lat="43.64747960901031" lon="3.697468757717109"><ele>121.4</ele><time>2026-04-28T07:15:23.988Z</time></trkpt><trkpt lat="43.64757638467687" lon="3.6975249285574665"><ele>122.2</ele><time>2026-04-28T07:15:26.988Z</time></trkpt><trkpt lat="43.64764382254962" lon="3.6975762801534944"><ele>123.0</ele><time>2026-04-28T07:15:28.988Z</time></trkpt><trkpt lat="43.647710555028844" lon="3.6976282604711503"><ele>123.0</ele><time>2026-04-28T07:15:30.988Z</time></trkpt><trkpt lat="43.647784769796935" lon="3.6976832364940586"><ele>123.0</ele><time>2026-04-28T07:15:32.988Z</time></trkpt><trkpt lat="43.647856773674356" lon="3.6977375431968924"><ele>123.0</ele><time>2026-04-28T07:15:34.988Z</time></trkpt><trkpt lat="43.64792177010778" lon="3.6978082190184582"><ele>123.0</ele><time>2026-04-28T07:15:36.988Z</time></trkpt><trkpt lat="43.647993978245644" lon="3.6978560694837785"><ele>123.0</ele><time>2026-04-28T07:15:38.988Z</time></trkpt><trkpt lat="43.64805669317705" lon="3.697910756243735"><ele>123.0</ele><time>2026-04-28T07:15:40.988Z</time></trkpt><trkpt lat="43.64812025217991" lon="3.697951560649387"><ele>123.5</ele><time>2026-04-28T07:15:42.987Z</time></trkpt><trkpt lat="43.64818431918097" lon="3.697999152946809"><ele>124.0</ele><time>2026-04-28T07:15:44.987Z</time></trkpt><trkpt lat="43.64824631309131" lon="3.6980588904893885"><ele>124.5</ele><time>2026-04-28T07:15:46.987Z</time></trkpt><trkpt lat="43.648339736781864" lon="3.6981168435709764"><ele>125.0</ele><time>2026-04-28T07:15:49.987Z</time></trkpt><trkpt lat="43.64839458219234" lon="3.6981627767383114"><ele>125.5</ele><time>2026-04-28T07:15:51.987Z</time></trkpt><trkpt lat="43.648471129224056" lon="3.69821725082682"><ele>126.0</ele><time>2026-04-28T07:15:54.987Z</time></trkpt><trkpt lat="43.64851294653069" lon="3.698289311064892"><ele>126.0</ele><time>2026-04-28T07:15:57.988Z</time></trkpt><trkpt lat="43.64860004881202" lon="3.6982818408919336"><ele>126.0</ele><time>2026-04-28T07:16:00.988Z</time></trkpt><trkpt lat="43.648678550430915" lon="3.698281836428088"><ele>126.0</ele><time>2026-04-28T07:16:03.988Z</time></trkpt><trkpt lat="43.64876133104696" lon="3.6983321610888105"><ele>126.0</ele><time>2026-04-28T07:16:06.988Z</time></trkpt><trkpt lat="43.648831141626054" lon="3.698327676499576"><ele>126.0</ele><time>2026-04-28T07:16:08.988Z</time></trkpt><trkpt lat="43.64889523879556" lon="3.698323683462501"><ele>126.0</ele><time>2026-04-28T07:16:10.988Z</time></trkpt><trkpt lat="43.6489855860746" lon="3.6983394534216276"><ele>125.83333333333333</ele><time>2026-04-28T07:16:13.988Z</time></trkpt><trkpt lat="43.64905188135839" lon="3.698342647426224"><ele>125.66666666666666</ele><time>2026-04-28T07:16:15.988Z</time></trkpt><trkpt lat="43.64912014444492" lon="3.6983424386770754"><ele>125.5</ele><time>2026-04-28T07:16:17.988Z</time></trkpt><trkpt lat="43.64921099014819" lon="3.6983322298808545"><ele>125.33333333333333</ele><time>2026-04-28T07:16:19.988Z</time></trkpt><trkpt lat="43.649327516601744" lon="3.6983771018556526"><ele>125.16666666666666</ele><time>2026-04-28T07:16:22.988Z</time></trkpt><trkpt lat="43.649423087750236" lon="3.6983879375433877"><ele>125.0</ele><time>2026-04-28T07:16:24.988Z</time></trkpt><trkpt lat="43.64952297486312" lon="3.6983706140132795"><ele>124.99999999999999</ele><time>2026-04-28T07:16:26.988Z</time></trkpt><trkpt lat="43.649609528942456" lon="3.698344724094947"><ele>125.0</ele><time>2026-04-28T07:16:28.988Z</time></trkpt><trkpt lat="43.64965749928102" lon="3.6982764335349"><ele>125.0</ele><time>2026-04-28T07:16:30.988Z</time></trkpt><trkpt lat="43.64972164760616" lon="3.698231230538992"><ele>125.0</ele><time>2026-04-28T07:16:32.988Z</time></trkpt><trkpt lat="43.649771568294916" lon="3.69816092841034"><ele>124.99999999999999</ele><time>2026-04-28T07:16:34.988Z</time></trkpt><trkpt lat="43.649851171411775" lon="3.6981200122331646"><ele>125.0</ele><time>2026-04-28T07:16:36.988Z</time></trkpt><trkpt lat="43.64991811744853" lon="3.6981063578286864"><ele>125.0</ele><time>2026-04-28T07:16:38.988Z</time></trkpt><trkpt lat="43.64996256245381" lon="3.6980413769144245"><ele>125.0</ele><time>2026-04-28T07:16:40.988Z</time></trkpt><trkpt lat="43.65001838466537" lon="3.6979947204254078"><ele>125.0</ele><time>2026-04-28T07:16:42.987Z</time></trkpt><trkpt lat="43.65007721817523" lon="3.697955646496805"><ele>125.0</ele><time>2026-04-28T07:16:44.987Z</time></trkpt><trkpt lat="43.65014492276314" lon="3.697930091471316"><ele>125.0</ele><time>2026-04-28T07:16:46.987Z</time></trkpt><trkpt lat="43.65021439952913" lon="3.6978770828566248"><ele>125.0</ele><time>2026-04-28T07:16:48.987Z</time></trkpt><trkpt lat="43.650286525116734" lon="3.697781745446911"><ele>125.0</ele><time>2026-04-28T07:16:51.987Z</time></trkpt><trkpt lat="43.65035015568238" lon="3.6977509895569916"><ele>125.42857142857142</ele><time>2026-04-28T07:16:53.987Z</time></trkpt><trkpt lat="43.65041055717808" lon="3.6976961734594336"><ele>125.85714285714286</ele><time>2026-04-28T07:16:55.987Z</time></trkpt><trkpt lat="43.65047349400451" lon="3.6976441159011784"><ele>126.28571428571428</ele><time>2026-04-28T07:16:57.987Z</time></trkpt><trkpt lat="43.650528509970705" lon="3.697587144589335"><ele>126.71428571428571</ele><time>2026-04-28T07:16:59.987Z</time></trkpt><trkpt lat="43.65058858824062" lon="3.697554658664147"><ele>127.14285714285714</ele><time>2026-04-28T07:17:01.987Z</time></trkpt><trkpt lat="43.650644537606695" lon="3.697490414139055"><ele>127.57142857142857</ele><time>2026-04-28T07:17:03.987Z</time></trkpt><trkpt lat="43.65071021383991" lon="3.6974449457524097"><ele>128.0</ele><time>2026-04-28T07:17:05.987Z</time></trkpt><trkpt lat="43.65077185112537" lon="3.6974036650899125"><ele>127.99999999999999</ele><time>2026-04-28T07:17:07.987Z</time></trkpt><trkpt lat="43.65082280308699" lon="3.697341732209103"><ele>128.0</ele><time>2026-04-28T07:17:09.987Z</time></trkpt><trkpt lat="43.65090203564011" lon="3.697286693423768"><ele>128.0</ele><time>2026-04-28T07:17:12.987Z</time></trkpt><trkpt lat="43.65098413692543" lon="3.6972355741467173"><ele>128.0</ele><time>2026-04-28T07:17:15.987Z</time></trkpt><trkpt lat="43.65105762767902" lon="3.6971794276888272"><ele>127.99999999999999</ele><time>2026-04-28T07:17:18.987Z</time></trkpt><trkpt lat="43.65114137175217" lon="3.697164660964142"><ele>128.0</ele><time>2026-04-28T07:17:21.987Z</time></trkpt><trkpt lat="43.65120677337573" lon="3.697135483961773"><ele>128.5</ele><time>2026-04-28T07:17:24.987Z</time></trkpt><trkpt lat="43.651275594282346" lon="3.6971503631382663"><ele>129.0</ele><time>2026-04-28T07:17:27.987Z</time></trkpt><trkpt lat="43.65137048622563" lon="3.6971690848897922"><ele>129.5</ele><time>2026-04-28T07:17:30.987Z</time></trkpt><trkpt lat="43.65143368286535" lon="3.697176187180163"><ele>130.0</ele><time>2026-04-28T07:17:32.987Z</time></trkpt><trkpt lat="43.65152821841446" lon="3.697227242726428"><ele>130.5</ele><time>2026-04-28T07:17:35.987Z</time></trkpt><trkpt lat="43.65160165161066" lon="3.6972420921548257"><ele>131.0</ele><time>2026-04-28T07:17:37.987Z</time></trkpt><trkpt lat="43.65167312236768" lon="3.6972730205287596"><ele>131.0</ele><time>2026-04-28T07:17:39.987Z</time></trkpt><trkpt lat="43.65174165415141" lon="3.6973154058391486"><ele>131.0</ele><time>2026-04-28T07:17:41.987Z</time></trkpt><trkpt lat="43.651807783439104" lon="3.6973713163344972"><ele>131.0</ele><time>2026-04-28T07:17:43.987Z</time></trkpt><trkpt lat="43.65188197232522" lon="3.697433386584365"><ele>131.0</ele><time>2026-04-28T07:17:45.987Z</time></trkpt><trkpt lat="43.65195237329262" lon="3.697472227669729"><ele>131.0</ele><time>2026-04-28T07:17:47.987Z</time></trkpt><trkpt lat="43.652033286939776" lon="3.697509316516052"><ele>131.0</ele><time>2026-04-28T07:17:49.987Z</time></trkpt><trkpt lat="43.652113661062565" lon="3.6975763728678217"><ele>131.0</ele><time>2026-04-28T07:17:51.987Z</time></trkpt><trkpt lat="43.65218445284518" lon="3.6976116404856803"><ele>131.0</ele><time>2026-04-28T07:17:53.987Z</time></trkpt><trkpt lat="43.65225457996322" lon="3.697662295611179"><ele>131.0</ele><time>2026-04-28T07:17:55.987Z</time></trkpt><trkpt lat="43.65231216211389" lon="3.6977022955102545"><ele>131.0</ele><time>2026-04-28T07:17:56.987Z</time></trkpt><trkpt lat="43.65239309765551" lon="3.697744849867727"><ele>131.0</ele><time>2026-04-28T07:17:58.987Z</time></trkpt><trkpt lat="43.65250206657402" lon="3.697794657719297"><ele>131.0</ele><time>2026-04-28T07:18:00.987Z</time></trkpt><trkpt lat="43.65262254989902" lon="3.697878784081068"><ele>131.0</ele><time>2026-04-28T07:18:02.987Z</time></trkpt><trkpt lat="43.652698282824225" lon="3.6979277147559158"><ele>131.0</ele><time>2026-04-28T07:18:03.987Z</time></trkpt><trkpt lat="43.65281511430308" lon="3.698004466110559"><ele>131.0</ele><time>2026-04-28T07:18:05.988Z</time></trkpt><trkpt lat="43.65288183737412" lon="3.6980416216703147"><ele>131.0</ele><time>2026-04-28T07:18:06.987Z</time></trkpt><trkpt lat="43.65293925310063" lon="3.698083588204973"><ele>131.0</ele><time>2026-04-28T07:18:07.987Z</time></trkpt><trkpt lat="43.65300812530586" lon="3.6981193912459878"><ele>131.0</ele><time>2026-04-28T07:18:08.987Z</time></trkpt><trkpt lat="43.65312318456799" lon="3.69819858514603"><ele>129.5</ele><time>2026-04-28T07:18:10.987Z</time></trkpt><trkpt lat="43.653198075874904" lon="3.69824378315292"><ele>128.0</ele><time>2026-04-28T07:18:11.988Z</time></trkpt><trkpt lat="43.65325645722154" lon="3.698289906546585"><ele>126.5</ele><time>2026-04-28T07:18:12.988Z</time></trkpt><trkpt lat="43.653327217563394" lon="3.6983356060060313"><ele>125.0</ele><time>2026-04-28T07:18:13.988Z</time></trkpt><trkpt lat="43.653393275418345" lon="3.6983814117500398"><ele>123.49999999999999</ele><time>2026-04-28T07:18:14.988Z</time></trkpt><trkpt lat="43.65346532028689" lon="3.698435932168518"><ele>122.0</ele><time>2026-04-28T07:18:15.988Z</time></trkpt><trkpt lat="43.65352913597624" lon="3.6984709705516314"><ele>121.99999999999999</ele><time>2026-04-28T07:18:16.988Z</time></trkpt><trkpt lat="43.653586261304504" lon="3.6985140241779915"><ele>122.0</ele><time>2026-04-28T07:18:17.988Z</time></trkpt><trkpt lat="43.65365863675367" lon="3.698570950336711"><ele>121.99999999999999</ele><time>2026-04-28T07:18:18.988Z</time></trkpt><trkpt lat="43.65372142409827" lon="3.698604677955045"><ele>121.99999999999999</ele><time>2026-04-28T07:18:19.988Z</time></trkpt><trkpt lat="43.65379336268589" lon="3.6986528719752747"><ele>122.0</ele><time>2026-04-28T07:18:20.988Z</time></trkpt><trkpt lat="43.653860696121086" lon="3.6986874257609323"><ele>121.99999999999999</ele><time>2026-04-28T07:18:21.988Z</time></trkpt><trkpt lat="43.65393051437365" lon="3.698701610522539"><ele>121.99999999999999</ele><time>2026-04-28T07:18:22.988Z</time></trkpt><trkpt lat="43.65399906289913" lon="3.698715240943834"><ele>121.6</ele><time>2026-04-28T07:18:23.988Z</time></trkpt><trkpt lat="43.65410347516793" lon="3.6986878065955486"><ele>121.19999999999999</ele><time>2026-04-28T07:18:25.988Z</time></trkpt><trkpt lat="43.65419114158805" lon="3.698642176573195"><ele>120.8</ele><time>2026-04-28T07:18:27.988Z</time></trkpt><trkpt lat="43.654261702258765" lon="3.698592385855195"><ele>120.4</ele><time>2026-04-28T07:18:29.988Z</time></trkpt><trkpt lat="43.654333484280976" lon="3.698529474286123"><ele>120.0</ele><time>2026-04-28T07:18:31.988Z</time></trkpt><trkpt lat="43.654411094692335" lon="3.698476176947695"><ele>120.83333333333333</ele><time>2026-04-28T07:18:33.988Z</time></trkpt><trkpt lat="43.6544831252612" lon="3.69840902912207"><ele>121.66666666666666</ele><time>2026-04-28T07:18:35.988Z</time></trkpt><trkpt lat="43.65454907394239" lon="3.698349914198867"><ele>122.5</ele><time>2026-04-28T07:18:37.988Z</time></trkpt><trkpt lat="43.65462849646488" lon="3.69829074626337"><ele>123.33333333333333</ele><time>2026-04-28T07:18:39.988Z</time></trkpt><trkpt lat="43.65469536131297" lon="3.6982457482508715"><ele>124.16666666666666</ele><time>2026-04-28T07:18:41.988Z</time></trkpt><trkpt lat="43.65476779688269" lon="3.698186779226024"><ele>125.0</ele><time>2026-04-28T07:18:43.988Z</time></trkpt><trkpt lat="43.654853580381804" lon="3.698146709697776"><ele>124.99999999999999</ele><time>2026-04-28T07:18:45.988Z</time></trkpt><trkpt lat="43.654918942603544" lon="3.698083752281576"><ele>125.0</ele><time>2026-04-28T07:18:47.988Z</time></trkpt><trkpt lat="43.65498505189219" lon="3.698017095102961"><ele>125.0</ele><time>2026-04-28T07:18:49.988Z</time></trkpt><trkpt lat="43.655059929437066" lon="3.697955819627549"><ele>125.0</ele><time>2026-04-28T07:18:51.988Z</time></trkpt><trkpt lat="43.65513437746987" lon="3.6978945876728093"><ele>124.99999999999999</ele><time>2026-04-28T07:18:53.988Z</time></trkpt><trkpt lat="43.65519818251594" lon="3.697828802518485"><ele>125.0</ele><time>2026-04-28T07:18:55.988Z</time></trkpt><trkpt lat="43.6552639101025" lon="3.6977626265687493"><ele>124.99999999999999</ele><time>2026-04-28T07:18:57.988Z</time></trkpt><trkpt lat="43.655322503790465" lon="3.6977075159804906"><ele>125.0</ele><time>2026-04-28T07:18:59.987Z</time></trkpt><trkpt lat="43.65538178191092" lon="3.6976281300187863"><ele>125.0</ele><time>2026-04-28T07:19:01.987Z</time></trkpt><trkpt lat="43.65545007038763" lon="3.697574156536474"><ele>125.0</ele><time>2026-04-28T07:19:03.987Z</time></trkpt><trkpt lat="43.65550161240219" lon="3.6974950804643725"><ele>124.99999999999999</ele><time>2026-04-28T07:19:05.987Z</time></trkpt><trkpt lat="43.65554670528226" lon="3.6974096479303453"><ele>125.0</ele><time>2026-04-28T07:19:07.987Z</time></trkpt><trkpt lat="43.655608517733356" lon="3.6973340806902573"><ele>124.99999999999999</ele><time>2026-04-28T07:19:09.987Z</time></trkpt><trkpt lat="43.65567524626435" lon="3.6972691986062154"><ele>125.0</ele><time>2026-04-28T07:19:11.987Z</time></trkpt><trkpt lat="43.65575171128055" lon="3.697197450169486"><ele>125.0</ele><time>2026-04-28T07:19:13.987Z</time></trkpt><trkpt lat="43.655820225583405" lon="3.697119617272185"><ele>125.0</ele><time>2026-04-28T07:19:15.987Z</time></trkpt><trkpt lat="43.655895063794375" lon="3.697054825835421"><ele>124.99999999999999</ele><time>2026-04-28T07:19:17.987Z</time></trkpt><trkpt lat="43.65596315654477" lon="3.696977974713322"><ele>125.0</ele><time>2026-04-28T07:19:19.987Z</time></trkpt><trkpt lat="43.65603684582917" lon="3.696950430266368"><ele>125.0</ele><time>2026-04-28T07:19:21.987Z</time></trkpt><trkpt lat="43.65610903544985" lon="3.6969045928020994"><ele>125.0</ele><time>2026-04-28T07:19:23.987Z</time></trkpt><trkpt lat="43.65618242808143" lon="3.696866979957814"><ele>125.0</ele><time>2026-04-28T07:19:25.987Z</time></trkpt><trkpt lat="43.65627714318392" lon="3.6968480590498536"><ele>125.0</ele><time>2026-04-28T07:19:27.987Z</time></trkpt><trkpt lat="43.65637884580286" lon="3.6968393384524774"><ele>125.0</ele><time>2026-04-28T07:19:29.987Z</time></trkpt><trkpt lat="43.65648069814643" lon="3.6968330750579845"><ele>124.4</ele><time>2026-04-28T07:19:31.987Z</time></trkpt><trkpt lat="43.65657866533309" lon="3.6968288356175827"><ele>123.8</ele><time>2026-04-28T07:19:33.987Z</time></trkpt><trkpt lat="43.6566842200332" lon="3.696824974346865"><ele>123.19999999999999</ele><time>2026-04-28T07:19:35.987Z</time></trkpt><trkpt lat="43.65678631980688" lon="3.6968180292429644"><ele>122.6</ele><time>2026-04-28T07:19:37.987Z</time></trkpt><trkpt lat="43.656869111623294" lon="3.69680923529561"><ele>122.0</ele><time>2026-04-28T07:19:39.987Z</time></trkpt><trkpt lat="43.65695404162067" lon="3.6968015390798388"><ele>121.8</ele><time>2026-04-28T07:19:41.987Z</time></trkpt><trkpt lat="43.657046528014" lon="3.696782020262175"><ele>121.6</ele><time>2026-04-28T07:19:43.987Z</time></trkpt><trkpt lat="43.657136226079515" lon="3.6967725155697764"><ele>121.39999999999999</ele><time>2026-04-28T07:19:45.987Z</time></trkpt><trkpt lat="43.657227136101405" lon="3.6967481765802885"><ele>121.19999999999999</ele><time>2026-04-28T07:19:47.987Z</time></trkpt><trkpt lat="43.6573102471009" lon="3.6967338330464514"><ele>121.0</ele><time>2026-04-28T07:19:49.987Z</time></trkpt><trkpt lat="43.65741068122128" lon="3.696734506309218"><ele>121.00000000000001</ele><time>2026-04-28T07:19:51.987Z</time></trkpt><trkpt lat="43.65749890590497" lon="3.696739590139706"><ele>121.0</ele><time>2026-04-28T07:19:53.987Z</time></trkpt><trkpt lat="43.65759333104225" lon="3.696750036380184"><ele>121.0</ele><time>2026-04-28T07:19:55.987Z</time></trkpt><trkpt lat="43.65768399948161" lon="3.696763249568869"><ele>121.0</ele><time>2026-04-28T07:19:57.987Z</time></trkpt><trkpt lat="43.65776212999503" lon="3.6967823490375435"><ele>121.00000000000001</ele><time>2026-04-28T07:19:59.987Z</time></trkpt><trkpt lat="43.657843425988204" lon="3.6967973437347306"><ele>121.0</ele><time>2026-04-28T07:20:01.987Z</time></trkpt><trkpt lat="43.657916062923874" lon="3.6968225854115606"><ele>121.16666666666667</ele><time>2026-04-28T07:20:03.987Z</time></trkpt><trkpt lat="43.65798413448714" lon="3.696841938995896"><ele>121.33333333333334</ele><time>2026-04-28T07:20:05.987Z</time></trkpt><trkpt lat="43.65805201674092" lon="3.696855372096236"><ele>121.5</ele><time>2026-04-28T07:20:07.987Z</time></trkpt><trkpt lat="43.658124783474825" lon="3.6968957130834004"><ele>121.66666666666666</ele><time>2026-04-28T07:20:09.986Z</time></trkpt><trkpt lat="43.65816912996517" lon="3.6969766426819386"><ele>121.83333333333333</ele><time>2026-04-28T07:20:11.986Z</time></trkpt><trkpt lat="43.658208858163626" lon="3.6970787413381863"><ele>122.0</ele><time>2026-04-28T07:20:13.987Z</time></trkpt><trkpt lat="43.65825308107039" lon="3.6971827037315426"><ele>122.14285714285712</ele><time>2026-04-28T07:20:16.986Z</time></trkpt><trkpt lat="43.658299680290604" lon="3.69724435448767"><ele>122.28571428571428</ele><time>2026-04-28T07:20:18.986Z</time></trkpt><trkpt lat="43.65836830822773" lon="3.6972771734703205"><ele>122.42857142857143</ele><time>2026-04-28T07:20:20.986Z</time></trkpt><trkpt lat="43.658436865068055" lon="3.6972870164372345"><ele>122.57142857142857</ele><time>2026-04-28T07:20:22.986Z</time></trkpt><trkpt lat="43.65851211048357" lon="3.6972903610095917"><ele>122.71428571428572</ele><time>2026-04-28T07:20:25.986Z</time></trkpt><trkpt lat="43.658594223592864" lon="3.6973079035762186"><ele>122.85714285714288</ele><time>2026-04-28T07:20:28.986Z</time></trkpt><trkpt lat="43.65866056256674" lon="3.6973162811044045"><ele>123.00000000000001</ele><time>2026-04-28T07:20:30.986Z</time></trkpt><trkpt lat="43.65872442558132" lon="3.6973396762613"><ele>123.16666666666667</ele><time>2026-04-28T07:20:32.986Z</time></trkpt><trkpt lat="43.65879208253671" lon="3.697346382565306"><ele>123.33333333333334</ele><time>2026-04-28T07:20:34.986Z</time></trkpt><trkpt lat="43.658870366435266" lon="3.6973669822248385"><ele>123.5</ele><time>2026-04-28T07:20:37.986Z</time></trkpt><trkpt lat="43.658955508128756" lon="3.697372938189418"><ele>123.66666666666667</ele><time>2026-04-28T07:20:40.986Z</time></trkpt><trkpt lat="43.65903711562756" lon="3.697390452834584"><ele>123.83333333333334</ele><time>2026-04-28T07:20:43.986Z</time></trkpt><trkpt lat="43.659105086647365" lon="3.69738907237286"><ele>124.0</ele><time>2026-04-28T07:20:46.986Z</time></trkpt><trkpt lat="43.65918683086283" lon="3.697432873845821"><ele>124.00000000000001</ele><time>2026-04-28T07:20:49.985Z</time></trkpt><trkpt lat="43.65924329729035" lon="3.6974794499117056"><ele>124.0</ele><time>2026-04-28T07:20:52.985Z</time></trkpt><trkpt lat="43.65931785828915" lon="3.6975282377827448"><ele>124.0</ele><time>2026-04-28T07:20:55.985Z</time></trkpt><trkpt lat="43.65939016687825" lon="3.6975706209355454"><ele>124.0</ele><time>2026-04-28T07:20:58.985Z</time></trkpt><trkpt lat="43.65947470283266" lon="3.6975522576977164"><ele>124.00000000000001</ele><time>2026-04-28T07:21:01.985Z</time></trkpt><trkpt lat="43.65955387355013" lon="3.697570244042892"><ele>124.0</ele><time>2026-04-28T07:21:04.985Z</time></trkpt><trkpt lat="43.65962621192256" lon="3.6975732342035603"><ele>124.28571428571429</ele><time>2026-04-28T07:21:07.985Z</time></trkpt><trkpt lat="43.659692540499364" lon="3.697621517349109"><ele>124.57142857142858</ele><time>2026-04-28T07:21:10.985Z</time></trkpt><trkpt lat="43.65974231341662" lon="3.697710606214647"><ele>124.85714285714286</ele><time>2026-04-28T07:21:14.985Z</time></trkpt><trkpt lat="43.659799055813906" lon="3.6977541531963984"><ele>125.14285714285714</ele><time>2026-04-28T07:21:19.985Z</time></trkpt><trkpt lat="43.65985960142012" lon="3.6978125876373804"><ele>125.42857142857143</ele><time>2026-04-28T07:21:23.985Z</time></trkpt><trkpt lat="43.65992199129626" lon="3.6978576667412657"><ele>125.71428571428572</ele><time>2026-04-28T07:21:27.985Z</time></trkpt><trkpt lat="43.65997816932084" lon="3.697930623204888"><ele>126.0</ele><time>2026-04-28T07:21:31.985Z</time></trkpt><trkpt lat="43.660048042429295" lon="3.6979823114312724"><ele>126.85714285714286</ele><time>2026-04-28T07:21:35.985Z</time></trkpt><trkpt lat="43.66011944668107" lon="3.698049057861246"><ele>127.71428571428572</ele><time>2026-04-28T07:21:40.985Z</time></trkpt><trkpt lat="43.66017838958318" lon="3.698100733779455"><ele>128.57142857142856</ele><time>2026-04-28T07:21:44.985Z</time></trkpt><trkpt lat="43.660213995153725" lon="3.6981727805449993"><ele>129.42857142857144</ele><time>2026-04-28T07:21:47.985Z</time></trkpt><trkpt lat="43.6602719717126" lon="3.6982531709909146"><ele>130.28571428571428</ele><time>2026-04-28T07:21:51.985Z</time></trkpt><trkpt lat="43.66033132075757" lon="3.6983031942019933"><ele>131.14285714285714</ele><time>2026-04-28T07:21:55.985Z</time></trkpt><trkpt lat="43.66037937977285" lon="3.6983635575181366"><ele>132.0</ele><time>2026-04-28T07:21:58.985Z</time></trkpt><trkpt lat="43.66044827639767" lon="3.698415126852024"><ele>132.28571428571428</ele><time>2026-04-28T07:22:02.985Z</time></trkpt><trkpt lat="43.66050905288095" lon="3.6984597341227086"><ele>132.57142857142858</ele><time>2026-04-28T07:22:05.985Z</time></trkpt><trkpt lat="43.6605775706873" lon="3.6985251589770938"><ele>132.85714285714286</ele><time>2026-04-28T07:22:09.985Z</time></trkpt><trkpt lat="43.66063598927809" lon="3.6985734452453096"><ele>133.14285714285714</ele><time>2026-04-28T07:22:12.984Z</time></trkpt><trkpt lat="43.660685087901896" lon="3.698636149962624"><ele>133.42857142857142</ele><time>2026-04-28T07:22:15.986Z</time></trkpt><trkpt lat="43.66074139062995" lon="3.6987002416791994"><ele>133.71428571428572</ele><time>2026-04-28T07:22:18.986Z</time></trkpt><trkpt lat="43.66078766746015" lon="3.6987694623702905"><ele>134.0</ele><time>2026-04-28T07:22:21.985Z</time></trkpt><trkpt lat="43.66082632880181" lon="3.698851156287101"><ele>134.42857142857144</ele><time>2026-04-28T07:22:24.985Z</time></trkpt><trkpt lat="43.66087073422234" lon="3.6989280866092034"><ele>134.85714285714286</ele><time>2026-04-28T07:22:27.986Z</time></trkpt><trkpt lat="43.66092543721824" lon="3.6990042750293934"><ele>135.28571428571428</ele><time>2026-04-28T07:22:30.986Z</time></trkpt><trkpt lat="43.66097180956982" lon="3.699079377116946"><ele>135.71428571428572</ele><time>2026-04-28T07:22:33.986Z</time></trkpt><trkpt lat="43.661019225699434" lon="3.699139776299687"><ele>136.14285714285714</ele><time>2026-04-28T07:22:36.986Z</time></trkpt><trkpt lat="43.66106052943942" lon="3.699226142103118"><ele>136.57142857142858</ele><time>2026-04-28T07:22:39.986Z</time></trkpt><trkpt lat="43.66109817196327" lon="3.6993057174800397"><ele>137.0</ele><time>2026-04-28T07:22:42.986Z</time></trkpt><trkpt lat="43.66113355197446" lon="3.699392494288247"><ele>137.71428571428572</ele><time>2026-04-28T07:22:45.986Z</time></trkpt><trkpt lat="43.66117411786881" lon="3.6994935552776087"><ele>138.42857142857144</ele><time>2026-04-28T07:22:49.986Z</time></trkpt><trkpt lat="43.66120812161614" lon="3.6996051912636596"><ele>139.14285714285714</ele><time>2026-04-28T07:22:53.986Z</time></trkpt><trkpt lat="43.661243079063475" lon="3.699681008731535"><ele>139.85714285714286</ele><time>2026-04-28T07:22:56.986Z</time></trkpt><trkpt lat="43.66127687487524" lon="3.699755779422347"><ele>140.57142857142856</ele><time>2026-04-28T07:22:59.986Z</time></trkpt><trkpt lat="43.66132255938298" lon="3.699830551750984"><ele>141.28571428571428</ele><time>2026-04-28T07:23:02.986Z</time></trkpt><trkpt lat="43.661371117448134" lon="3.6998971629344055"><ele>142.0</ele><time>2026-04-28T07:23:05.985Z</time></trkpt><trkpt lat="43.66141676403241" lon="3.6999677754534703"><ele>142.0</ele><time>2026-04-28T07:23:08.985Z</time></trkpt><trkpt lat="43.66147254035272" lon="3.700045088646114"><ele>142.0</ele><time>2026-04-28T07:23:12.985Z</time></trkpt><trkpt lat="43.66152014943038" lon="3.7001227566411674"><ele>142.0</ele><time>2026-04-28T07:23:15.985Z</time></trkpt><trkpt lat="43.661571065846374" lon="3.700174299962791"><ele>142.0</ele><time>2026-04-28T07:23:18.985Z</time></trkpt><trkpt lat="43.661636823953906" lon="3.7002599239885403"><ele>142.0</ele><time>2026-04-28T07:23:22.985Z</time></trkpt><trkpt lat="43.661700661506835" lon="3.700322519785582"><ele>142.0</ele><time>2026-04-28T07:23:26.985Z</time></trkpt><trkpt lat="43.66176939835768" lon="3.700358477095913"><ele>142.85714285714286</ele><time>2026-04-28T07:23:29.985Z</time></trkpt><trkpt lat="43.66183037298647" lon="3.700390305872675"><ele>143.7142857142857</ele><time>2026-04-28T07:23:32.985Z</time></trkpt><trkpt lat="43.66188885387448" lon="3.700433809304351"><ele>144.57142857142856</ele><time>2026-04-28T07:23:35.985Z</time></trkpt><trkpt lat="43.66196595609895" lon="3.7004625400674023"><ele>145.42857142857142</ele><time>2026-04-28T07:23:39.985Z</time></trkpt><trkpt lat="43.66203569806115" lon="3.700499547364985"><ele>146.28571428571428</ele><time>2026-04-28T07:23:43.985Z</time></trkpt><trkpt lat="43.662107800404364" lon="3.7005187635551042"><ele>147.14285714285714</ele><time>2026-04-28T07:23:46.985Z</time></trkpt><trkpt lat="43.662174273975374" lon="3.7005652368404878"><ele>148.0</ele><time>2026-04-28T07:23:49.985Z</time></trkpt><trkpt lat="43.66224074777103" lon="3.700608259541417"><ele>148.0</ele><time>2026-04-28T07:23:52.985Z</time></trkpt><trkpt lat="43.6623195252158" lon="3.700625768511944"><ele>148.0</ele><time>2026-04-28T07:23:55.985Z</time></trkpt><trkpt lat="43.66237503287338" lon="3.700675849070934"><ele>148.0</ele><time>2026-04-28T07:23:58.985Z</time></trkpt><trkpt lat="43.66243449879941" lon="3.700704560045288"><ele>148.0</ele><time>2026-04-28T07:24:02.985Z</time></trkpt><trkpt lat="43.66250700669883" lon="3.700741350921273"><ele>148.0</ele><time>2026-04-28T07:24:05.985Z</time></trkpt><trkpt lat="43.66257334679587" lon="3.700750925319392"><ele>148.0</ele><time>2026-04-28T07:24:08.985Z</time></trkpt><trkpt lat="43.662634586509505" lon="3.7007752822730398"><ele>148.0</ele><time>2026-04-28T07:24:11.985Z</time></trkpt><trkpt lat="43.66271306377037" lon="3.700809514487549"><ele>148.0</ele><time>2026-04-28T07:24:15.985Z</time></trkpt><trkpt lat="43.66278483350605" lon="3.700831956478656"><ele>148.0</ele><time>2026-04-28T07:24:18.985Z</time></trkpt><trkpt lat="43.662844027828605" lon="3.7008619084540166"><ele>148.0</ele><time>2026-04-28T07:24:21.985Z</time></trkpt><trkpt lat="43.66290471676214" lon="3.700897651382523"><ele>148.0</ele><time>2026-04-28T07:24:24.985Z</time></trkpt><trkpt lat="43.66297032495352" lon="3.700931446000027"><ele>148.0</ele><time>2026-04-28T07:24:27.985Z</time></trkpt><trkpt lat="43.66305349175444" lon="3.7009596794680153"><ele>148.0</ele><time>2026-04-28T07:24:31.986Z</time></trkpt><trkpt lat="43.6631181302939" lon="3.700977058457102"><ele>148.0</ele><time>2026-04-28T07:24:34.985Z</time></trkpt><trkpt lat="43.66318946375934" lon="3.700962212959218"><ele>148.0</ele><time>2026-04-28T07:24:37.985Z</time></trkpt><trkpt lat="43.663283062718044" lon="3.700967199890895"><ele>148.0</ele><time>2026-04-28T07:24:40.985Z</time></trkpt><trkpt lat="43.663364533571986" lon="3.700986558433608"><ele>148.0</ele><time>2026-04-28T07:24:43.985Z</time></trkpt><trkpt lat="43.66342415948799" lon="3.701018515817502"><ele>148.0</ele><time>2026-04-28T07:24:45.985Z</time></trkpt><trkpt lat="43.663509252803195" lon="3.701064421525871"><ele>148.0</ele><time>2026-04-28T07:24:48.985Z</time></trkpt><trkpt lat="43.66357433643954" lon="3.7011247360928294"><ele>148.0</ele><time>2026-04-28T07:24:51.985Z</time></trkpt><trkpt lat="43.66364534560367" lon="3.701176861720132"><ele>148.5</ele><time>2026-04-28T07:24:54.985Z</time></trkpt><trkpt lat="43.663714575396895" lon="3.701217611186203"><ele>149.0</ele><time>2026-04-28T07:24:57.985Z</time></trkpt><trkpt lat="43.66379290034344" lon="3.7012531351740483"><ele>149.5</ele><time>2026-04-28T07:25:00.985Z</time></trkpt><trkpt lat="43.66385871615164" lon="3.7012916110526835"><ele>150.0</ele><time>2026-04-28T07:25:03.985Z</time></trkpt><trkpt lat="43.663933688346496" lon="3.7013290078185217"><ele>150.5</ele><time>2026-04-28T07:25:06.985Z</time></trkpt><trkpt lat="43.66401685878953" lon="3.701371103942649"><ele>151.0</ele><time>2026-04-28T07:25:09.985Z</time></trkpt><trkpt lat="43.664095467189675" lon="3.7014352037114384"><ele>151.0</ele><time>2026-04-28T07:25:12.985Z</time></trkpt><trkpt lat="43.66416673350604" lon="3.701488404966756"><ele>151.0</ele><time>2026-04-28T07:25:16.985Z</time></trkpt><trkpt lat="43.66422820859512" lon="3.7015164526898094"><ele>151.0</ele><time>2026-04-28T07:25:19.985Z</time></trkpt><trkpt lat="43.66429349993491" lon="3.701552623149447"><ele>151.0</ele><time>2026-04-28T07:25:22.985Z</time></trkpt><trkpt lat="43.66437274457281" lon="3.701595563807233"><ele>151.0</ele><time>2026-04-28T07:25:25.985Z</time></trkpt><trkpt lat="43.66443208222743" lon="3.7016378425713556"><ele>151.0</ele><time>2026-04-28T07:25:28.985Z</time></trkpt><trkpt lat="43.664496705236296" lon="3.7017155515508335"><ele>151.5</ele><time>2026-04-28T07:25:31.985Z</time></trkpt><trkpt lat="43.66457167533468" lon="3.701782535272179"><ele>152.0</ele><time>2026-04-28T07:25:34.984Z</time></trkpt><trkpt lat="43.664628121906695" lon="3.701822396651195"><ele>152.5</ele><time>2026-04-28T07:25:36.984Z</time></trkpt><trkpt lat="43.66469830071561" lon="3.701858570595472"><ele>153.0</ele><time>2026-04-28T07:25:39.984Z</time></trkpt><trkpt lat="43.66478459073555" lon="3.7019260795900357"><ele>153.5</ele><time>2026-04-28T07:25:43.984Z</time></trkpt><trkpt lat="43.66485304575321" lon="3.701959503788887"><ele>154.0</ele><time>2026-04-28T07:25:46.984Z</time></trkpt><trkpt lat="43.66493293833019" lon="3.7019852969882217"><ele>154.83333333333334</ele><time>2026-04-28T07:25:49.984Z</time></trkpt><trkpt lat="43.66501627531474" lon="3.7020124407778883"><ele>155.66666666666669</ele><time>2026-04-28T07:25:52.984Z</time></trkpt><trkpt lat="43.66509323288793" lon="3.7020456910876307"><ele>156.5</ele><time>2026-04-28T07:25:55.984Z</time></trkpt><trkpt lat="43.66518045125786" lon="3.7020494276095985"><ele>157.33333333333334</ele><time>2026-04-28T07:25:59.984Z</time></trkpt><trkpt lat="43.665257514417505" lon="3.702059948135541"><ele>158.16666666666666</ele><time>2026-04-28T07:26:03.984Z</time></trkpt><trkpt lat="43.66533343399051" lon="3.7020703463390343"><ele>159.0</ele><time>2026-04-28T07:26:06.984Z</time></trkpt><trkpt lat="43.66540568816999" lon="3.7020894980442525"><ele>159.14285714285714</ele><time>2026-04-28T07:26:09.984Z</time></trkpt><trkpt lat="43.66546703345641" lon="3.7021097535942684"><ele>159.2857142857143</ele><time>2026-04-28T07:26:12.984Z</time></trkpt><trkpt lat="43.665539328864085" lon="3.7021011144497398"><ele>159.42857142857144</ele><time>2026-04-28T07:26:15.984Z</time></trkpt><trkpt lat="43.66561314056596" lon="3.7020982969057727"><ele>159.57142857142856</ele><time>2026-04-28T07:26:18.984Z</time></trkpt><trkpt lat="43.665685438012815" lon="3.7020933636336144"><ele>159.71428571428572</ele><time>2026-04-28T07:26:21.984Z</time></trkpt><trkpt lat="43.66576954401846" lon="3.702093852837107"><ele>159.85714285714286</ele><time>2026-04-28T07:26:24.984Z</time></trkpt><trkpt lat="43.66584787840568" lon="3.702079953404509"><ele>160.0</ele><time>2026-04-28T07:26:27.984Z</time></trkpt><trkpt lat="43.66594426117243" lon="3.70206566566249"><ele>160.0</ele><time>2026-04-28T07:26:30.985Z</time></trkpt><trkpt lat="43.6660247499481" lon="3.7020489864973842"><ele>160.0</ele><time>2026-04-28T07:26:33.985Z</time></trkpt><trkpt lat="43.66611537079929" lon="3.7020460911784383"><ele>160.0</ele><time>2026-04-28T07:26:36.985Z</time></trkpt><trkpt lat="43.66619907952288" lon="3.7020283621820997"><ele>160.0</ele><time>2026-04-28T07:26:39.985Z</time></trkpt><trkpt lat="43.666265842923735" lon="3.702021623513918"><ele>160.0</ele><time>2026-04-28T07:26:41.984Z</time></trkpt><trkpt lat="43.66636256977701" lon="3.7019839302799977"><ele>160.0</ele><time>2026-04-28T07:26:44.984Z</time></trkpt><trkpt lat="43.666448826556824" lon="3.7019349074067156"><ele>159.85714285714286</ele><time>2026-04-28T07:26:47.984Z</time></trkpt><trkpt lat="43.66651135154562" lon="3.701910283197036"><ele>159.71428571428572</ele><time>2026-04-28T07:26:49.984Z</time></trkpt><trkpt lat="43.666594541297876" lon="3.701888120043286"><ele>159.57142857142856</ele><time>2026-04-28T07:26:52.984Z</time></trkpt><trkpt lat="43.66667600860581" lon="3.701871898177173"><ele>159.42857142857144</ele><time>2026-04-28T07:26:55.984Z</time></trkpt><trkpt lat="43.66674700641643" lon="3.7018598398125344"><ele>159.2857142857143</ele><time>2026-04-28T07:26:58.984Z</time></trkpt><trkpt lat="43.66681074959662" lon="3.7018590383884082"><ele>159.14285714285714</ele><time>2026-04-28T07:27:00.984Z</time></trkpt><trkpt lat="43.66687433815107" lon="3.701851734862023"><ele>159.0</ele><time>2026-04-28T07:27:02.984Z</time></trkpt><trkpt lat="43.66696138257984" lon="3.7018518101034728"><ele>159.0</ele><time>2026-04-28T07:27:05.984Z</time></trkpt><trkpt lat="43.66704913592834" lon="3.701830652733081"><ele>159.0</ele><time>2026-04-28T07:27:08.984Z</time></trkpt><trkpt lat="43.66711552954329" lon="3.7018120196830027"><ele>159.0</ele><time>2026-04-28T07:27:10.984Z</time></trkpt><trkpt lat="43.6671762449695" lon="3.7017821576514676"><ele>159.0</ele><time>2026-04-28T07:27:12.984Z</time></trkpt><trkpt lat="43.667238373987544" lon="3.7017496965617878"><ele>159.0</ele><time>2026-04-28T07:27:14.984Z</time></trkpt><trkpt lat="43.6673000093983" lon="3.7017291044537735"><ele>159.0</ele><time>2026-04-28T07:27:16.984Z</time></trkpt><trkpt lat="43.66738690371439" lon="3.7017018151107464"><ele>159.0</ele><time>2026-04-28T07:27:19.984Z</time></trkpt><trkpt lat="43.667463617953246" lon="3.7017001648073222"><ele>159.0</ele><time>2026-04-28T07:27:22.984Z</time></trkpt><trkpt lat="43.66753781269591" lon="3.7016891577605886"><ele>159.0</ele><time>2026-04-28T07:27:25.984Z</time></trkpt><trkpt lat="43.66761630540556" lon="3.7016744951414413"><ele>159.0</ele><time>2026-04-28T07:27:28.984Z</time></trkpt><trkpt lat="43.66769129731266" lon="3.7016463397972745"><ele>159.0</ele><time>2026-04-28T07:27:31.984Z</time></trkpt><trkpt lat="43.667781333736826" lon="3.701631614667541"><ele>159.0</ele><time>2026-04-28T07:27:34.984Z</time></trkpt><trkpt lat="43.667857270794116" lon="3.701610666046473"><ele>159.0</ele><time>2026-04-28T07:27:37.984Z</time></trkpt><trkpt lat="43.66792808222955" lon="3.70160019375575"><ele>159.33333333333334</ele><time>2026-04-28T07:27:40.984Z</time></trkpt><trkpt lat="43.66800326863907" lon="3.7016099700239566"><ele>159.66666666666666</ele><time>2026-04-28T07:27:43.984Z</time></trkpt><trkpt lat="43.66809340952958" lon="3.7016090510296675"><ele>160.0</ele><time>2026-04-28T07:27:46.984Z</time></trkpt><trkpt lat="43.668163812896516" lon="3.7016198167351355"><ele>160.33333333333331</ele><time>2026-04-28T07:27:49.984Z</time></trkpt><trkpt lat="43.668248299386995" lon="3.70162218828244"><ele>160.66666666666666</ele><time>2026-04-28T07:27:52.984Z</time></trkpt><trkpt lat="43.668328736095454" lon="3.7016101109182915"><ele>161.0</ele><time>2026-04-28T07:27:55.984Z</time></trkpt><trkpt lat="43.66840614067692" lon="3.701612465292371"><ele>161.0</ele><time>2026-04-28T07:27:58.984Z</time></trkpt><trkpt lat="43.66849373226577" lon="3.701600885345528"><ele>161.0</ele><time>2026-04-28T07:28:01.984Z</time></trkpt><trkpt lat="43.66857626060187" lon="3.701578556942445"><ele>161.0</ele><time>2026-04-28T07:28:04.983Z</time></trkpt><trkpt lat="43.6686589966585" lon="3.701571868925702"><ele>161.0</ele><time>2026-04-28T07:28:07.983Z</time></trkpt><trkpt lat="43.66874086035679" lon="3.701550149639882"><ele>161.0</ele><time>2026-04-28T07:28:10.983Z</time></trkpt><trkpt lat="43.66881832723707" lon="3.701526410870305"><ele>161.0</ele><time>2026-04-28T07:28:13.983Z</time></trkpt><trkpt lat="43.66889766798694" lon="3.701504780744411"><ele>161.5</ele><time>2026-04-28T07:28:16.983Z</time></trkpt><trkpt lat="43.668964690180324" lon="3.701480285769781"><ele>162.0</ele><time>2026-04-28T07:28:19.983Z</time></trkpt><trkpt lat="43.66904546757733" lon="3.701470467349915"><ele>162.5</ele><time>2026-04-28T07:28:22.983Z</time></trkpt><trkpt lat="43.66912724063788" lon="3.701454615935109"><ele>163.0</ele><time>2026-04-28T07:28:25.983Z</time></trkpt><trkpt lat="43.669227174136836" lon="3.701433743042269"><ele>163.5</ele><time>2026-04-28T07:28:28.983Z</time></trkpt><trkpt lat="43.66929327902465" lon="3.701406219965476"><ele>164.0</ele><time>2026-04-28T07:28:30.983Z</time></trkpt><trkpt lat="43.66938211727596" lon="3.701368529238625"><ele>164.5</ele><time>2026-04-28T07:28:33.985Z</time></trkpt><trkpt lat="43.66945091959744" lon="3.701350155061112"><ele>165.0</ele><time>2026-04-28T07:28:35.984Z</time></trkpt><trkpt lat="43.66951871644779" lon="3.7013327929554256"><ele>165.5</ele><time>2026-04-28T07:28:37.984Z</time></trkpt><trkpt lat="43.66958177835026" lon="3.701345990257491"><ele>166.0</ele><time>2026-04-28T07:28:39.984Z</time></trkpt><trkpt lat="43.66968980208165" lon="3.70135827674856"><ele>166.5</ele><time>2026-04-28T07:28:42.984Z</time></trkpt><trkpt lat="43.669761072354675" lon="3.7013498276995955"><ele>167.0</ele><time>2026-04-28T07:28:44.984Z</time></trkpt><trkpt lat="43.66983564143016" lon="3.701347456058334"><ele>167.0</ele><time>2026-04-28T07:28:46.984Z</time></trkpt><trkpt lat="43.66993013297521" lon="3.7013476084984647"><ele>167.0</ele><time>2026-04-28T07:28:49.984Z</time></trkpt><trkpt lat="43.67000604055704" lon="3.7013216545127006"><ele>167.0</ele><time>2026-04-28T07:28:51.984Z</time></trkpt><trkpt lat="43.67007720568838" lon="3.701291234741548"><ele>167.0</ele><time>2026-04-28T07:28:53.984Z</time></trkpt><trkpt lat="43.670150969763164" lon="3.7012506005650216"><ele>167.0</ele><time>2026-04-28T07:28:55.984Z</time></trkpt><trkpt lat="43.670211570531734" lon="3.701201512644967"><ele>167.0</ele><time>2026-04-28T07:28:57.984Z</time></trkpt><trkpt lat="43.67026691885414" lon="3.7011483481169574"><ele>167.5</ele><time>2026-04-28T07:28:59.984Z</time></trkpt><trkpt lat="43.67034814376389" lon="3.701096609777683"><ele>168.0</ele><time>2026-04-28T07:29:02.984Z</time></trkpt><trkpt lat="43.67041215184063" lon="3.7010601308445876"><ele>168.5</ele><time>2026-04-28T07:29:04.984Z</time></trkpt><trkpt lat="43.6705043527389" lon="3.7010272456427544"><ele>169.0</ele><time>2026-04-28T07:29:07.984Z</time></trkpt><trkpt lat="43.67056714711849" lon="3.701012874027249"><ele>169.5</ele><time>2026-04-28T07:29:09.984Z</time></trkpt><trkpt lat="43.67065446993968" lon="3.7009999021326747"><ele>170.0</ele><time>2026-04-28T07:29:12.984Z</time></trkpt><trkpt lat="43.67073488613996" lon="3.700962930224995"><ele>169.57142857142858</ele><time>2026-04-28T07:29:15.983Z</time></trkpt><trkpt lat="43.67080218553062" lon="3.700935606052997"><ele>169.14285714285714</ele><time>2026-04-28T07:29:17.983Z</time></trkpt><trkpt lat="43.67086697549356" lon="3.70090390492263"><ele>168.71428571428572</ele><time>2026-04-28T07:29:19.983Z</time></trkpt><trkpt lat="43.670930318050644" lon="3.700881147565371"><ele>168.28571428571428</ele><time>2026-04-28T07:29:21.983Z</time></trkpt><trkpt lat="43.67102477389538" lon="3.700835905003653"><ele>167.85714285714286</ele><time>2026-04-28T07:29:24.983Z</time></trkpt><trkpt lat="43.67108643461558" lon="3.700805501805565"><ele>167.42857142857142</ele><time>2026-04-28T07:29:26.983Z</time></trkpt><trkpt lat="43.67115070771428" lon="3.7007886772776084"><ele>167.0</ele><time>2026-04-28T07:29:28.983Z</time></trkpt><trkpt lat="43.67121126303104" lon="3.7007631011735365"><ele>167.0</ele><time>2026-04-28T07:29:30.983Z</time></trkpt><trkpt lat="43.67128077051322" lon="3.700735856746962"><ele>167.0</ele><time>2026-04-28T07:29:32.983Z</time></trkpt><trkpt lat="43.67135148486746" lon="3.700729037046549"><ele>167.0</ele><time>2026-04-28T07:29:35.983Z</time></trkpt><trkpt lat="43.67141978780391" lon="3.7007284288043323"><ele>167.0</ele><time>2026-04-28T07:29:37.983Z</time></trkpt><trkpt lat="43.67148839493336" lon="3.7007122207679024"><ele>167.0</ele><time>2026-04-28T07:29:39.983Z</time></trkpt><trkpt lat="43.671556035433845" lon="3.7006975241524223"><ele>167.0</ele><time>2026-04-28T07:29:41.983Z</time></trkpt><trkpt lat="43.67162999207128" lon="3.70068494071718"><ele>167.0</ele><time>2026-04-28T07:29:44.983Z</time></trkpt><trkpt lat="43.67170140344987" lon="3.7006940123088743"><ele>167.0</ele><time>2026-04-28T07:29:46.983Z</time></trkpt><trkpt lat="43.6717822994137" lon="3.7006718964571483"><ele>167.0</ele><time>2026-04-28T07:29:49.983Z</time></trkpt><trkpt lat="43.671856892193276" lon="3.7006561105173317"><ele>167.0</ele><time>2026-04-28T07:29:52.983Z</time></trkpt><trkpt lat="43.671948563437326" lon="3.7006729941720877"><ele>167.0</ele><time>2026-04-28T07:29:55.983Z</time></trkpt><trkpt lat="43.67201402690134" lon="3.700679889953735"><ele>167.0</ele><time>2026-04-28T07:29:58.983Z</time></trkpt><trkpt lat="43.672085143023025" lon="3.7007067688957407"><ele>167.0</ele><time>2026-04-28T07:30:00.983Z</time></trkpt><trkpt lat="43.67216043085015" lon="3.700754914158274"><ele>167.0</ele><time>2026-04-28T07:30:04.983Z</time></trkpt><trkpt lat="43.6722050912642" lon="3.7008193473878697"><ele>167.0</ele><time>2026-04-28T07:30:08.983Z</time></trkpt><trkpt lat="43.672148958987115" lon="3.700736452633334"><ele>167.0</ele><time>2026-04-28T07:30:22.983Z</time></trkpt><trkpt lat="43.67206560580725" lon="3.700701727753069"><ele>167.0</ele><time>2026-04-28T07:30:25.983Z</time></trkpt><trkpt lat="43.67198959931644" lon="3.700675965057104"><ele>167.0</ele><time>2026-04-28T07:30:27.983Z</time></trkpt><trkpt lat="43.67190583187771" lon="3.7006636228753114"><ele>167.0</ele><time>2026-04-28T07:30:29.983Z</time></trkpt><trkpt lat="43.67181788560799" lon="3.7006701879011055"><ele>167.0</ele><time>2026-04-28T07:30:31.983Z</time></trkpt><trkpt lat="43.67173970913194" lon="3.7007167241118557"><ele>167.0</ele><time>2026-04-28T07:30:34.983Z</time></trkpt><trkpt lat="43.67164888344815" lon="3.70070890895598"><ele>167.0</ele><time>2026-04-28T07:30:36.982Z</time></trkpt><trkpt lat="43.671542816130064" lon="3.7007048649652288"><ele>167.0</ele><time>2026-04-28T07:30:38.983Z</time></trkpt><trkpt lat="43.67147391002846" lon="3.7007120045070607"><ele>167.0</ele><time>2026-04-28T07:30:42.984Z</time></trkpt><trkpt lat="43.67148261411871" lon="3.7006236043852523"><ele>167.0</ele><time>2026-04-28T07:31:12.984Z</time></trkpt><trkpt lat="43.671525941147216" lon="3.7005164761942075"><ele>167.0</ele><time>2026-04-28T07:31:16.984Z</time></trkpt><trkpt lat="43.67157602964728" lon="3.70045408565443"><ele>167.0</ele><time>2026-04-28T07:31:19.984Z</time></trkpt><trkpt lat="43.67162174011726" lon="3.7003908241991836"><ele>167.0</ele><time>2026-04-28T07:31:22.984Z</time></trkpt><trkpt lat="43.67165503997024" lon="3.700299474317158"><ele>167.0</ele><time>2026-04-28T07:31:26.984Z</time></trkpt><trkpt lat="43.67169379572878" lon="3.700221376852341"><ele>167.0</ele><time>2026-04-28T07:31:29.984Z</time></trkpt><trkpt lat="43.67173116656634" lon="3.700148319389717"><ele>167.0</ele><time>2026-04-28T07:31:31.984Z</time></trkpt><trkpt lat="43.67178708996316" lon="3.70006564657684"><ele>167.0</ele><time>2026-04-28T07:31:34.984Z</time></trkpt><trkpt lat="43.67186459871834" lon="3.699987589732856"><ele>166.16666666666666</ele><time>2026-04-28T07:31:37.984Z</time></trkpt><trkpt lat="43.67192054410493" lon="3.6998896423617613"><ele>165.33333333333331</ele><time>2026-04-28T07:31:40.984Z</time></trkpt><trkpt lat="43.67194986947167" lon="3.6997821509888293"><ele>164.5</ele><time>2026-04-28T07:31:42.984Z</time></trkpt><trkpt lat="43.67199394260898" lon="3.699691846472551"><ele>163.66666666666666</ele><time>2026-04-28T07:31:44.984Z</time></trkpt><trkpt lat="43.67204582620389" lon="3.6996253075682777"><ele>162.83333333333334</ele><time>2026-04-28T07:31:46.984Z</time></trkpt><trkpt lat="43.672128312572376" lon="3.6995660851419987"><ele>162.0</ele><time>2026-04-28T07:31:48.984Z</time></trkpt><trkpt lat="43.67220042941939" lon="3.6995256909804723"><ele>162.0</ele><time>2026-04-28T07:31:50.984Z</time></trkpt><trkpt lat="43.67229887374921" lon="3.6994572997496165"><ele>162.0</ele><time>2026-04-28T07:31:53.984Z</time></trkpt><trkpt lat="43.67236971566621" lon="3.6994346202699195"><ele>162.0</ele><time>2026-04-28T07:31:55.983Z</time></trkpt><trkpt lat="43.672430222485765" lon="3.6994052330945815"><ele>162.0</ele><time>2026-04-28T07:31:57.983Z</time></trkpt><trkpt lat="43.672507458815126" lon="3.6993805275478393"><ele>162.0</ele><time>2026-04-28T07:31:59.983Z</time></trkpt><trkpt lat="43.672587499176124" lon="3.699357908656642"><ele>162.0</ele><time>2026-04-28T07:32:01.983Z</time></trkpt><trkpt lat="43.67266539620775" lon="3.699337712561711"><ele>161.33333333333334</ele><time>2026-04-28T07:32:03.983Z</time></trkpt><trkpt lat="43.67273047515701" lon="3.6993287537587674"><ele>160.66666666666666</ele><time>2026-04-28T07:32:05.983Z</time></trkpt><trkpt lat="43.672818409239234" lon="3.699290437028897"><ele>160.0</ele><time>2026-04-28T07:32:08.983Z</time></trkpt><trkpt lat="43.6728981046976" lon="3.699262419612177"><ele>159.33333333333331</ele><time>2026-04-28T07:32:10.983Z</time></trkpt><trkpt lat="43.67298664953993" lon="3.699233988945285"><ele>158.66666666666666</ele><time>2026-04-28T07:32:13.983Z</time></trkpt><trkpt lat="43.6730656620446" lon="3.6991946118828833"><ele>158.0</ele><time>2026-04-28T07:32:16.983Z</time></trkpt><trkpt lat="43.67313317254726" lon="3.699174258889637"><ele>158.0</ele><time>2026-04-28T07:32:18.983Z</time></trkpt><trkpt lat="43.67319975695813" lon="3.699162232777371"><ele>158.0</ele><time>2026-04-28T07:32:20.983Z</time></trkpt><trkpt lat="43.67326594907552" lon="3.69915075086514"><ele>158.0</ele><time>2026-04-28T07:32:22.983Z</time></trkpt><trkpt lat="43.67334987678733" lon="3.6991087874753084"><ele>158.0</ele><time>2026-04-28T07:32:25.983Z</time></trkpt><trkpt lat="43.673428588035364" lon="3.69909956393223"><ele>158.0</ele><time>2026-04-28T07:32:27.983Z</time></trkpt><trkpt lat="43.67351154054761" lon="3.6990815600603875"><ele>158.0</ele><time>2026-04-28T07:32:30.983Z</time></trkpt><trkpt lat="43.67358032679594" lon="3.6990693853984418"><ele>158.33333333333331</ele><time>2026-04-28T07:32:32.983Z</time></trkpt><trkpt lat="43.67365403439552" lon="3.6990517932719165"><ele>158.66666666666666</ele><time>2026-04-28T07:32:34.983Z</time></trkpt><trkpt lat="43.67372582676304" lon="3.6990505163604146"><ele>159.0</ele><time>2026-04-28T07:32:36.983Z</time></trkpt><trkpt lat="43.673787932533955" lon="3.699021737342259"><ele>159.33333333333334</ele><time>2026-04-28T07:32:38.983Z</time></trkpt><trkpt lat="43.67387462178804" lon="3.699000955911197"><ele>159.66666666666669</ele><time>2026-04-28T07:32:41.983Z</time></trkpt><trkpt lat="43.67395150202225" lon="3.6989781967932194"><ele>160.0</ele><time>2026-04-28T07:32:43.983Z</time></trkpt><trkpt lat="43.67404077352709" lon="3.6989409097926234"><ele>160.0</ele><time>2026-04-28T07:32:46.984Z</time></trkpt><trkpt lat="43.674105478896024" lon="3.698930821087995"><ele>160.0</ele><time>2026-04-28T07:32:47.983Z</time></trkpt><trkpt lat="43.6741775002431" lon="3.6988972992375317"><ele>160.0</ele><time>2026-04-28T07:32:49.983Z</time></trkpt><trkpt lat="43.6742409460992" lon="3.6988742723036805"><ele>160.0</ele><time>2026-04-28T07:32:51.983Z</time></trkpt><trkpt lat="43.674314631600176" lon="3.6988304364101134"><ele>160.0</ele><time>2026-04-28T07:32:53.984Z</time></trkpt><trkpt lat="43.6743742936854" lon="3.698789138599731"><ele>160.0</ele><time>2026-04-28T07:32:55.983Z</time></trkpt><trkpt lat="43.67444143611307" lon="3.6987337993153413"><ele>160.0</ele><time>2026-04-28T07:32:57.983Z</time></trkpt><trkpt lat="43.67450503268938" lon="3.6986738098636915"><ele>160.33333333333334</ele><time>2026-04-28T07:32:59.983Z</time></trkpt><trkpt lat="43.67458790770261" lon="3.698636146763966"><ele>160.66666666666669</ele><time>2026-04-28T07:33:01.983Z</time></trkpt><trkpt lat="43.67467615491692" lon="3.6986070598632588"><ele>161.0</ele><time>2026-04-28T07:33:03.983Z</time></trkpt><trkpt lat="43.67474327234504" lon="3.6985884778866476"><ele>161.33333333333334</ele><time>2026-04-28T07:33:05.983Z</time></trkpt><trkpt lat="43.67480637919183" lon="3.6985528899177265"><ele>161.66666666666666</ele><time>2026-04-28T07:33:07.983Z</time></trkpt><trkpt lat="43.67488754389288" lon="3.6985288844290447"><ele>162.0</ele><time>2026-04-28T07:33:09.983Z</time></trkpt><trkpt lat="43.674973312951195" lon="3.6984667844177412"><ele>161.42857142857144</ele><time>2026-04-28T07:33:11.983Z</time></trkpt><trkpt lat="43.67504270427465" lon="3.698444277019668"><ele>160.85714285714286</ele><time>2026-04-28T07:33:13.983Z</time></trkpt><trkpt lat="43.675121755889755" lon="3.6984338363774207"><ele>160.28571428571428</ele><time>2026-04-28T07:33:16.983Z</time></trkpt><trkpt lat="43.67518542390524" lon="3.698419254543345"><ele>159.71428571428572</ele><time>2026-04-28T07:33:18.983Z</time></trkpt><trkpt lat="43.67525077776237" lon="3.698391240197482"><ele>159.14285714285714</ele><time>2026-04-28T07:33:20.982Z</time></trkpt><trkpt lat="43.67531657690864" lon="3.698357660395542"><ele>158.57142857142858</ele><time>2026-04-28T07:33:22.982Z</time></trkpt><trkpt lat="43.67539063294251" lon="3.6983394147332374"><ele>158.0</ele><time>2026-04-28T07:33:24.982Z</time></trkpt><trkpt lat="43.675469070315415" lon="3.69832785125138"><ele>158.0</ele><time>2026-04-28T07:33:27.982Z</time></trkpt><trkpt lat="43.67556596619383" lon="3.6983339576341447"><ele>158.0</ele><time>2026-04-28T07:33:30.982Z</time></trkpt><trkpt lat="43.67564452950629" lon="3.6983318588374043"><ele>158.0</ele><time>2026-04-28T07:33:33.982Z</time></trkpt><trkpt lat="43.67571972908481" lon="3.6983646660125946"><ele>158.0</ele><time>2026-04-28T07:33:35.982Z</time></trkpt><trkpt lat="43.67578701096757" lon="3.6983670710603027"><ele>158.0</ele><time>2026-04-28T07:33:37.982Z</time></trkpt><trkpt lat="43.67586899961865" lon="3.698382665788222"><ele>158.0</ele><time>2026-04-28T07:33:39.982Z</time></trkpt><trkpt lat="43.6759470548264" lon="3.6983780785521403"><ele>158.0</ele><time>2026-04-28T07:33:41.982Z</time></trkpt><trkpt lat="43.676020758479766" lon="3.6983642231008798"><ele>158.0</ele><time>2026-04-28T07:33:43.982Z</time></trkpt><trkpt lat="43.676095614372436" lon="3.698347480810909"><ele>158.0</ele><time>2026-04-28T07:33:45.982Z</time></trkpt><trkpt lat="43.67618183003752" lon="3.698370511757251"><ele>158.0</ele><time>2026-04-28T07:33:48.982Z</time></trkpt><trkpt lat="43.676259989191514" lon="3.6983642849784766"><ele>158.0</ele><time>2026-04-28T07:33:50.982Z</time></trkpt><trkpt lat="43.67634979270637" lon="3.698357892143031"><ele>158.0</ele><time>2026-04-28T07:33:52.982Z</time></trkpt><trkpt lat="43.67644394089121" lon="3.698326935153122"><ele>158.00000000000003</ele><time>2026-04-28T07:33:54.982Z</time></trkpt><trkpt lat="43.6765333749041" lon="3.698312828159999"><ele>158.0</ele><time>2026-04-28T07:33:57.982Z</time></trkpt><trkpt lat="43.67659917073382" lon="3.698316840534545"><ele>158.0</ele><time>2026-04-28T07:33:59.982Z</time></trkpt><trkpt lat="43.676661658168825" lon="3.698354362521171"><ele>158.0</ele><time>2026-04-28T07:34:01.982Z</time></trkpt><trkpt lat="43.67672714258478" lon="3.6983476235444486"><ele>158.0</ele><time>2026-04-28T07:34:03.982Z</time></trkpt><trkpt lat="43.676808766766094" lon="3.6983351662431514"><ele>158.00000000000003</ele><time>2026-04-28T07:34:05.982Z</time></trkpt><trkpt lat="43.67687614283522" lon="3.6983081139297083"><ele>158.0</ele><time>2026-04-28T07:34:07.982Z</time></trkpt><trkpt lat="43.67694947713843" lon="3.6982922990412783"><ele>158.66666666666666</ele><time>2026-04-28T07:34:10.982Z</time></trkpt><trkpt lat="43.677013787736335" lon="3.69831699738755"><ele>159.33333333333331</ele><time>2026-04-28T07:34:13.982Z</time></trkpt><trkpt lat="43.67709447479875" lon="3.698295926070567"><ele>160.0</ele><time>2026-04-28T07:34:16.982Z</time></trkpt><trkpt lat="43.677183349597655" lon="3.6982881108909402"><ele>160.66666666666666</ele><time>2026-04-28T07:34:19.982Z</time></trkpt><trkpt lat="43.67725837009847" lon="3.698334815983744"><ele>161.33333333333334</ele><time>2026-04-28T07:34:22.982Z</time></trkpt><trkpt lat="43.677320850284254" lon="3.698321007283646"><ele>162.0</ele><time>2026-04-28T07:34:24.982Z</time></trkpt><trkpt lat="43.67739403350177" lon="3.698304310160343"><ele>162.0</ele><time>2026-04-28T07:34:26.982Z</time></trkpt><trkpt lat="43.67748727277723" lon="3.6982821504980703"><ele>162.0</ele><time>2026-04-28T07:34:28.982Z</time></trkpt><trkpt lat="43.67756751164355" lon="3.6982252359836685"><ele>162.0</ele><time>2026-04-28T07:34:30.982Z</time></trkpt><trkpt lat="43.67764750892284" lon="3.698187861581049"><ele>162.0</ele><time>2026-04-28T07:34:32.982Z</time></trkpt><trkpt lat="43.67771009575984" lon="3.698145240856643"><ele>162.0</ele><time>2026-04-28T07:34:34.982Z</time></trkpt><trkpt lat="43.67779528999742" lon="3.698111563470465"><ele>162.0</ele><time>2026-04-28T07:34:36.982Z</time></trkpt><trkpt lat="43.67788342605642" lon="3.6981199800560454"><ele>162.16666666666666</ele><time>2026-04-28T07:34:39.981Z</time></trkpt><trkpt lat="43.67794709791899" lon="3.6981425909649253"><ele>162.33333333333334</ele><time>2026-04-28T07:34:43.981Z</time></trkpt><trkpt lat="43.67801782636258" lon="3.6981069352693066"><ele>162.5</ele><time>2026-04-28T07:34:47.981Z</time></trkpt><trkpt lat="43.67808429743175" lon="3.6980626260278013"><ele>162.66666666666669</ele><time>2026-04-28T07:34:51.982Z</time></trkpt><trkpt lat="43.67817090767912" lon="3.6980646184653705"><ele>162.83333333333334</ele><time>2026-04-28T07:34:55.983Z</time></trkpt><trkpt lat="43.67825062456848" lon="3.698054507315912"><ele>163.0</ele><time>2026-04-28T07:34:58.982Z</time></trkpt><trkpt lat="43.6783308321837" lon="3.6980436611763174"><ele>163.0</ele><time>2026-04-28T07:35:01.982Z</time></trkpt><trkpt lat="43.678422522057986" lon="3.6980182179509553"><ele>163.0</ele><time>2026-04-28T07:35:04.983Z</time></trkpt><trkpt lat="43.678489209150335" lon="3.697973608331692"><ele>163.0</ele><time>2026-04-28T07:35:07.983Z</time></trkpt><trkpt lat="43.67855981311647" lon="3.6979482757720032"><ele>163.0</ele><time>2026-04-28T07:35:09.983Z</time></trkpt><trkpt lat="43.67864482228232" lon="3.6979395338242127"><ele>163.0</ele><time>2026-04-28T07:35:12.983Z</time></trkpt><trkpt lat="43.67873514498254" lon="3.69794295243241"><ele>163.0</ele><time>2026-04-28T07:35:16.983Z</time></trkpt><trkpt lat="43.67881246445945" lon="3.69793868872189"><ele>163.5</ele><time>2026-04-28T07:35:19.983Z</time></trkpt><trkpt lat="43.67889019364223" lon="3.6979295635086404"><ele>164.0</ele><time>2026-04-28T07:35:22.983Z</time></trkpt><trkpt lat="43.67895649526539" lon="3.6979125413712297"><ele>164.5</ele><time>2026-04-28T07:35:24.983Z</time></trkpt><trkpt lat="43.67903026554788" lon="3.6978999714174887"><ele>165.0</ele><time>2026-04-28T07:35:27.983Z</time></trkpt><trkpt lat="43.67911430236498" lon="3.697856309380961"><ele>165.5</ele><time>2026-04-28T07:35:30.983Z</time></trkpt><trkpt lat="43.67919481383969" lon="3.6977985268744087"><ele>166.0</ele><time>2026-04-28T07:35:33.983Z</time></trkpt><trkpt lat="43.67928009204347" lon="3.697762713142952"><ele>165.33333333333334</ele><time>2026-04-28T07:35:35.983Z</time></trkpt><trkpt lat="43.679365767132246" lon="3.6977104525326676"><ele>164.66666666666669</ele><time>2026-04-28T07:35:37.983Z</time></trkpt><trkpt lat="43.679450581917564" lon="3.6976694329220114"><ele>164.0</ele><time>2026-04-28T07:35:39.983Z</time></trkpt><trkpt lat="43.679513357265535" lon="3.6976223801284616"><ele>163.33333333333334</ele><time>2026-04-28T07:35:41.983Z</time></trkpt><trkpt lat="43.67959206665066" lon="3.6975509641634727"><ele>162.66666666666666</ele><time>2026-04-28T07:35:44.983Z</time></trkpt><trkpt lat="43.6796414686438" lon="3.6974807788570145"><ele>162.0</ele><time>2026-04-28T07:35:46.983Z</time></trkpt><trkpt lat="43.67971086105489" lon="3.6974239897422847"><ele>162.0</ele><time>2026-04-28T07:35:48.983Z</time></trkpt><trkpt lat="43.67977935098191" lon="3.6973420794240663"><ele>162.0</ele><time>2026-04-28T07:35:50.982Z</time></trkpt><trkpt lat="43.679859934822154" lon="3.697244223733732"><ele>162.0</ele><time>2026-04-28T07:35:52.982Z</time></trkpt><trkpt lat="43.679945138591236" lon="3.697171393720553"><ele>162.0</ele><time>2026-04-28T07:35:54.982Z</time></trkpt><trkpt lat="43.680015534799935" lon="3.6971598700650636"><ele>162.0</ele><time>2026-04-28T07:35:55.982Z</time></trkpt><trkpt lat="43.680127580074526" lon="3.697130302935212"><ele>162.0</ele><time>2026-04-28T07:35:57.982Z</time></trkpt><trkpt lat="43.68021656370989" lon="3.697109820031747"><ele>162.0</ele><time>2026-04-28T07:35:59.982Z</time></trkpt><trkpt lat="43.68030482058586" lon="3.697028915438531"><ele>162.0</ele><time>2026-04-28T07:36:01.982Z</time></trkpt><trkpt lat="43.68040529728772" lon="3.6970061265223304"><ele>162.0</ele><time>2026-04-28T07:36:03.982Z</time></trkpt><trkpt lat="43.680478301132204" lon="3.6969852790753133"><ele>162.0</ele><time>2026-04-28T07:36:05.982Z</time></trkpt><trkpt lat="43.68054896556775" lon="3.696955436555212"><ele>162.0</ele><time>2026-04-28T07:36:07.982Z</time></trkpt><trkpt lat="43.68061767410943" lon="3.6969355868048184"><ele>161.71428571428572</ele><time>2026-04-28T07:36:09.982Z</time></trkpt><trkpt lat="43.680686460314696" lon="3.6968967972690936"><ele>161.42857142857142</ele><time>2026-04-28T07:36:11.982Z</time></trkpt><trkpt lat="43.68075750664405" lon="3.696865328825671"><ele>161.14285714285714</ele><time>2026-04-28T07:36:13.982Z</time></trkpt><trkpt lat="43.68082263536794" lon="3.696821082813796"><ele>160.85714285714286</ele><time>2026-04-28T07:36:15.982Z</time></trkpt><trkpt lat="43.68089616308035" lon="3.6967839011842445"><ele>160.57142857142858</ele><time>2026-04-28T07:36:17.982Z</time></trkpt><trkpt lat="43.68095411389287" lon="3.696741771207186"><ele>160.28571428571428</ele><time>2026-04-28T07:36:19.982Z</time></trkpt><trkpt lat="43.68102480715658" lon="3.6967067083563654"><ele>160.0</ele><time>2026-04-28T07:36:21.982Z</time></trkpt><trkpt lat="43.6810898940387" lon="3.6966664204863946"><ele>160.33333333333334</ele><time>2026-04-28T07:36:23.982Z</time></trkpt><trkpt lat="43.68115875439757" lon="3.696640445697757"><ele>160.66666666666669</ele><time>2026-04-28T07:36:25.982Z</time></trkpt><trkpt lat="43.68121861888227" lon="3.6966054065904577"><ele>161.0</ele><time>2026-04-28T07:36:27.982Z</time></trkpt><trkpt lat="43.681296063243735" lon="3.6965509233537097"><ele>161.33333333333334</ele><time>2026-04-28T07:36:29.982Z</time></trkpt><trkpt lat="43.68136166746738" lon="3.6965019942111472"><ele>161.66666666666666</ele><time>2026-04-28T07:36:31.982Z</time></trkpt><trkpt lat="43.68143187684205" lon="3.696433131365041"><ele>162.0</ele><time>2026-04-28T07:36:34.982Z</time></trkpt><trkpt lat="43.68149991931589" lon="3.696388554779543"><ele>162.0</ele><time>2026-04-28T07:36:36.982Z</time></trkpt><trkpt lat="43.681566098374546" lon="3.696350765689551"><ele>162.0</ele><time>2026-04-28T07:36:38.982Z</time></trkpt><trkpt lat="43.68163110104678" lon="3.6963071967574077"><ele>162.0</ele><time>2026-04-28T07:36:40.982Z</time></trkpt><trkpt lat="43.68171443169336" lon="3.696255476897306"><ele>162.0</ele><time>2026-04-28T07:36:43.982Z</time></trkpt><trkpt lat="43.68177741560955" lon="3.6962102745689074"><ele>162.0</ele><time>2026-04-28T07:36:45.982Z</time></trkpt><trkpt lat="43.68185284068955" lon="3.696152041737134"><ele>162.0</ele><time>2026-04-28T07:36:48.982Z</time></trkpt><trkpt lat="43.68194227209263" lon="3.696109995436664"><ele>162.16666666666666</ele><time>2026-04-28T07:36:51.982Z</time></trkpt><trkpt lat="43.68202110569596" lon="3.6960922629185435"><ele>162.33333333333334</ele><time>2026-04-28T07:36:54.982Z</time></trkpt><trkpt lat="43.68211617935269" lon="3.6960632169547885"><ele>162.5</ele><time>2026-04-28T07:36:57.982Z</time></trkpt><trkpt lat="43.682192009751134" lon="3.6960959806006537"><ele>162.66666666666669</ele><time>2026-04-28T07:37:00.982Z</time></trkpt><trkpt lat="43.68226265530409" lon="3.696129640956248"><ele>162.83333333333334</ele><time>2026-04-28T07:37:02.982Z</time></trkpt><trkpt lat="43.68234576123993" lon="3.6961730118957856"><ele>163.0</ele><time>2026-04-28T07:37:05.982Z</time></trkpt><trkpt lat="43.68243390595573" lon="3.6961487039787966"><ele>163.0</ele><time>2026-04-28T07:37:08.983Z</time></trkpt><trkpt lat="43.682514592379164" lon="3.6961148355757247"><ele>163.0</ele><time>2026-04-28T07:37:10.982Z</time></trkpt><trkpt lat="43.68259921397083" lon="3.696031563106432"><ele>163.0</ele><time>2026-04-28T07:37:13.982Z</time></trkpt><trkpt lat="43.682647637059404" lon="3.6959626045167897"><ele>163.0</ele><time>2026-04-28T07:37:15.982Z</time></trkpt><trkpt lat="43.68270135501678" lon="3.695858270092145"><ele>163.0</ele><time>2026-04-28T07:37:18.982Z</time></trkpt><trkpt lat="43.68274689154647" lon="3.695784099276155"><ele>163.0</ele><time>2026-04-28T07:37:20.982Z</time></trkpt><trkpt lat="43.682810663835355" lon="3.695711151201559"><ele>163.0</ele><time>2026-04-28T07:37:23.982Z</time></trkpt><trkpt lat="43.682850840021196" lon="3.6955849885589993"><ele>163.0</ele><time>2026-04-28T07:37:26.982Z</time></trkpt><trkpt lat="43.682917791793976" lon="3.6954979832711317"><ele>163.0</ele><time>2026-04-28T07:37:29.982Z</time></trkpt><trkpt lat="43.68297167450754" lon="3.6954371524812215"><ele>163.0</ele><time>2026-04-28T07:37:31.982Z</time></trkpt><trkpt lat="43.683023201214105" lon="3.6953836272588965"><ele>163.0</ele><time>2026-04-28T07:37:33.982Z</time></trkpt><trkpt lat="43.68307035898183" lon="3.6953230624111275"><ele>163.0</ele><time>2026-04-28T07:37:35.982Z</time></trkpt><trkpt lat="43.68312236695632" lon="3.695270576131087"><ele>162.66666666666669</ele><time>2026-04-28T07:37:37.982Z</time></trkpt><trkpt lat="43.683198518597514" lon="3.6952058844645577"><ele>162.33333333333334</ele><time>2026-04-28T07:37:40.982Z</time></trkpt><trkpt lat="43.68326242133831" lon="3.6951794687231097"><ele>162.0</ele><time>2026-04-28T07:37:42.982Z</time></trkpt><trkpt lat="43.68333384393677" lon="3.695152915309147"><ele>161.66666666666666</ele><time>2026-04-28T07:37:44.981Z</time></trkpt><trkpt lat="43.68339955518467" lon="3.6951260126304866"><ele>161.33333333333331</ele><time>2026-04-28T07:37:46.981Z</time></trkpt><trkpt lat="43.68349189646286" lon="3.6951018208595214"><ele>161.0</ele><time>2026-04-28T07:37:49.981Z</time></trkpt><trkpt lat="43.683553125841826" lon="3.6950722687345676"><ele>160.83333333333331</ele><time>2026-04-28T07:37:51.981Z</time></trkpt><trkpt lat="43.68363751592646" lon="3.695070414427148"><ele>160.66666666666666</ele><time>2026-04-28T07:37:53.981Z</time></trkpt><trkpt lat="43.683714111846584" lon="3.6950414487656946"><ele>160.5</ele><time>2026-04-28T07:37:56.981Z</time></trkpt><trkpt lat="43.683804202902245" lon="3.6949974066574853"><ele>160.33333333333334</ele><time>2026-04-28T07:37:59.981Z</time></trkpt><trkpt lat="43.68387423555503" lon="3.694961045238615"><ele>160.16666666666669</ele><time>2026-04-28T07:38:01.981Z</time></trkpt><trkpt lat="43.683944013318744" lon="3.694942488840837"><ele>160.0</ele><time>2026-04-28T07:38:03.981Z</time></trkpt><trkpt lat="43.68403190003868" lon="3.694946350574614"><ele>160.0</ele><time>2026-04-28T07:38:06.981Z</time></trkpt><trkpt lat="43.684113785165565" lon="3.694958852426783"><ele>160.0</ele><time>2026-04-28T07:38:09.981Z</time></trkpt><trkpt lat="43.68418844481762" lon="3.694939347284821"><ele>160.0</ele><time>2026-04-28T07:38:12.981Z</time></trkpt><trkpt lat="43.68425569146378" lon="3.6949136502650655"><ele>160.0</ele><time>2026-04-28T07:38:15.981Z</time></trkpt><trkpt lat="43.68432479287728" lon="3.6948805036507317"><ele>160.0</ele><time>2026-04-28T07:38:18.981Z</time></trkpt><trkpt lat="43.6844190886371" lon="3.694862128872299"><ele>160.0</ele><time>2026-04-28T07:38:21.981Z</time></trkpt><trkpt lat="43.68451238924037" lon="3.6948468373077357"><ele>160.16666666666669</ele><time>2026-04-28T07:38:24.981Z</time></trkpt><trkpt lat="43.68457446788266" lon="3.6948153682987677"><ele>160.33333333333334</ele><time>2026-04-28T07:38:26.981Z</time></trkpt><trkpt lat="43.68466454243108" lon="3.6947891357930662"><ele>160.5</ele><time>2026-04-28T07:38:28.981Z</time></trkpt><trkpt lat="43.68473565566403" lon="3.694761789196397"><ele>160.66666666666666</ele><time>2026-04-28T07:38:30.981Z</time></trkpt><trkpt lat="43.68480390385536" lon="3.6947283244619764"><ele>160.83333333333331</ele><time>2026-04-28T07:38:32.981Z</time></trkpt><trkpt lat="43.68487991691404" lon="3.6946841164688533"><ele>161.0</ele><time>2026-04-28T07:38:34.981Z</time></trkpt><trkpt lat="43.68494026079835" lon="3.694639036781606"><ele>161.0</ele><time>2026-04-28T07:38:36.981Z</time></trkpt><trkpt lat="43.68500316187607" lon="3.6945919618556244"><ele>161.0</ele><time>2026-04-28T07:38:38.981Z</time></trkpt><trkpt lat="43.68506446188606" lon="3.6945546555084308"><ele>161.0</ele><time>2026-04-28T07:38:40.981Z</time></trkpt><trkpt lat="43.68512616531008" lon="3.6945021488489425"><ele>161.0</ele><time>2026-04-28T07:38:42.981Z</time></trkpt><trkpt lat="43.68519667969296" lon="3.6944680598364235"><ele>161.0</ele><time>2026-04-28T07:38:44.981Z</time></trkpt><trkpt lat="43.68526728195814" lon="3.6944002071300854"><ele>161.0</ele><time>2026-04-28T07:38:47.981Z</time></trkpt><trkpt lat="43.685338843343956" lon="3.694335647099045"><ele>161.66666666666666</ele><time>2026-04-28T07:38:50.981Z</time></trkpt><trkpt lat="43.68542723641727" lon="3.6942885496976468"><ele>162.33333333333331</ele><time>2026-04-28T07:38:53.981Z</time></trkpt><trkpt lat="43.68552292518602" lon="3.694265316456361"><ele>163.0</ele><time>2026-04-28T07:38:56.981Z</time></trkpt><trkpt lat="43.685602575462184" lon="3.694297247361082"><ele>163.66666666666666</ele><time>2026-04-28T07:38:59.981Z</time></trkpt><trkpt lat="43.685666172758324" lon="3.6943836500890574"><ele>164.33333333333334</ele><time>2026-04-28T07:39:02.982Z</time></trkpt><trkpt lat="43.685694389848" lon="3.694472503619574"><ele>165.0</ele><time>2026-04-28T07:39:05.982Z</time></trkpt><trkpt lat="43.68576342983088" lon="3.694559490305672"><ele>165.0</ele><time>2026-04-28T07:39:08.982Z</time></trkpt><trkpt lat="43.68582846225195" lon="3.6946574572078723"><ele>165.0</ele><time>2026-04-28T07:39:11.981Z</time></trkpt><trkpt lat="43.685901189444685" lon="3.6946629527558175"><ele>165.0</ele><time>2026-04-28T07:39:14.982Z</time></trkpt><trkpt lat="43.68598635988278" lon="3.694636786575123"><ele>165.0</ele><time>2026-04-28T07:39:17.982Z</time></trkpt><trkpt lat="43.68604265064891" lon="3.6946813525711946"><ele>165.0</ele><time>2026-04-28T07:39:20.982Z</time></trkpt><trkpt lat="43.68609796483046" lon="3.6947498689195184"><ele>165.0</ele><time>2026-04-28T07:39:23.981Z</time></trkpt><trkpt lat="43.686166789394264" lon="3.694763943606551"><ele>166.71428571428572</ele><time>2026-04-28T07:39:26.981Z</time></trkpt><trkpt lat="43.68622340865632" lon="3.694818305471019"><ele>168.42857142857144</ele><time>2026-04-28T07:39:29.981Z</time></trkpt><trkpt lat="43.68627799908223" lon="3.6948782689683095"><ele>170.14285714285717</ele><time>2026-04-28T07:39:33.981Z</time></trkpt><trkpt lat="43.68635165753851" lon="3.6948973308341846"><ele>171.85714285714286</ele><time>2026-04-28T07:39:37.981Z</time></trkpt><trkpt lat="43.68642728991446" lon="3.6949084569058566"><ele>173.57142857142856</ele><time>2026-04-28T07:39:41.981Z</time></trkpt><trkpt lat="43.68650404554877" lon="3.6948797036826404"><ele>175.2857142857143</ele><time>2026-04-28T07:39:45.981Z</time></trkpt><trkpt lat="43.68656876814738" lon="3.694872274861782"><ele>177.0</ele><time>2026-04-28T07:39:49.981Z</time></trkpt><trkpt lat="43.68662449030883" lon="3.694935458713741"><ele>177.0</ele><time>2026-04-28T07:39:52.981Z</time></trkpt><trkpt lat="43.68668756026103" lon="3.694978969378537"><ele>177.0</ele><time>2026-04-28T07:39:55.981Z</time></trkpt><trkpt lat="43.68674841114734" lon="3.6950033874801314"><ele>177.0</ele><time>2026-04-28T07:39:59.981Z</time></trkpt><trkpt lat="43.68681020340663" lon="3.695029088883669"><ele>177.0</ele><time>2026-04-28T07:40:13.981Z</time></trkpt><trkpt lat="43.68685975652967" lon="3.6950951199664597"><ele>177.0</ele><time>2026-04-28T07:40:34.981Z</time></trkpt><trkpt lat="43.68693541805234" lon="3.695157084732496"><ele>177.0</ele><time>2026-04-28T07:40:54.98Z</time></trkpt><trkpt lat="43.68700593271788" lon="3.6952271486946477"><ele>177.0</ele><time>2026-04-28T07:40:59.98Z</time></trkpt><trkpt lat="43.68706847539493" lon="3.695269972276038"><ele>178.42857142857144</ele><time>2026-04-28T07:41:26.982Z</time></trkpt><trkpt lat="43.687138922674215" lon="3.6952992362055155"><ele>179.85714285714283</ele><time>2026-04-28T07:41:36.981Z</time></trkpt><trkpt lat="43.68719949155375" lon="3.6953472274580914"><ele>181.28571428571428</ele><time>2026-04-28T07:41:40.981Z</time></trkpt><trkpt lat="43.68726931958407" lon="3.6953631443769073"><ele>182.71428571428572</ele><time>2026-04-28T07:41:45.981Z</time></trkpt><trkpt lat="43.68732805939911" lon="3.6954152746734854"><ele>184.14285714285717</ele><time>2026-04-28T07:41:56.981Z</time></trkpt><trkpt lat="43.687393785592874" lon="3.6954184161471098"><ele>185.57142857142856</ele><time>2026-04-28T07:42:08.981Z</time></trkpt><trkpt lat="43.68745488949661" lon="3.6954453385933594"><ele>187.0</ele><time>2026-04-28T07:42:19.981Z</time></trkpt><trkpt lat="43.68754282268222" lon="3.695430052270288"><ele>187.0</ele><time>2026-04-28T07:42:45.981Z</time></trkpt><trkpt lat="43.68761176352039" lon="3.6954134096330447"><ele>187.0</ele><time>2026-04-28T07:43:03.98Z</time></trkpt><trkpt lat="43.68766482111976" lon="3.695461820104328"><ele>187.0</ele><time>2026-04-28T07:43:11.98Z</time></trkpt><trkpt lat="43.68772334395917" lon="3.695510912476396"><ele>187.0</ele><time>2026-04-28T07:43:17.981Z</time></trkpt><trkpt lat="43.68772143192893" lon="3.695609053069175"><ele>187.0</ele><time>2026-04-28T07:43:34.981Z</time></trkpt><trkpt lat="43.68769269753767" lon="3.6956924248320653"><ele>187.0</ele><time>2026-04-28T07:43:39.981Z</time></trkpt><trkpt lat="43.68772040597847" lon="3.695786137700237"><ele>187.0</ele><time>2026-04-28T07:43:45.981Z</time></trkpt><trkpt lat="43.68773255637159" lon="3.695883207011067"><ele>187.0</ele><time>2026-04-28T07:43:50.981Z</time></trkpt><trkpt lat="43.68772290647696" lon="3.6959706957847946"><ele>187.0</ele><time>2026-04-28T07:43:55.981Z</time></trkpt><trkpt lat="43.687738655355325" lon="3.696068838734322"><ele>187.0</ele><time>2026-04-28T07:43:59.981Z</time></trkpt><trkpt lat="43.68776610630048" lon="3.696178952597143"><ele>187.0</ele><time>2026-04-28T07:44:03.981Z</time></trkpt><trkpt lat="43.68779313160528" lon="3.696276019512994"><ele>187.0</ele><time>2026-04-28T07:44:06.981Z</time></trkpt><trkpt lat="43.68782395456137" lon="3.6963545712459815"><ele>187.0</ele><time>2026-04-28T07:44:09.981Z</time></trkpt><trkpt lat="43.687847194736676" lon="3.6964414012721747"><ele>187.0</ele><time>2026-04-28T07:44:12.981Z</time></trkpt><trkpt lat="43.687878981544046" lon="3.6965191594035964"><ele>187.7142857142857</ele><time>2026-04-28T07:44:19.981Z</time></trkpt><trkpt lat="43.68785476001955" lon="3.696422671298975"><ele>188.42857142857144</ele><time>2026-04-28T07:44:25.981Z</time></trkpt><trkpt lat="43.68789502086223" lon="3.6963374486987908"><ele>189.14285714285714</ele><time>2026-04-28T07:44:30.981Z</time></trkpt><trkpt lat="43.68796044994771" lon="3.6962958390026484"><ele>189.85714285714283</ele><time>2026-04-28T07:44:34.981Z</time></trkpt><trkpt lat="43.68800422566057" lon="3.696370060453471"><ele>190.57142857142856</ele><time>2026-04-28T07:44:41.98Z</time></trkpt><trkpt lat="43.68805605617733" lon="3.696431026878963"><ele>191.28571428571428</ele><time>2026-04-28T07:44:46.98Z</time></trkpt><trkpt lat="43.68808995465358" lon="3.6965112719445457"><ele>192.0</ele><time>2026-04-28T07:44:51.98Z</time></trkpt><trkpt lat="43.68813631778066" lon="3.6966194310807214"><ele>191.99999999999997</ele><time>2026-04-28T07:44:56.98Z</time></trkpt><trkpt lat="43.68816933133263" lon="3.696707780486762"><ele>192.0</ele><time>2026-04-28T07:45:00.98Z</time></trkpt><trkpt lat="43.68822195849479" lon="3.6967662623648008"><ele>192.0</ele><time>2026-04-28T07:45:04.98Z</time></trkpt><trkpt lat="43.68826400008695" lon="3.696844057879234"><ele>192.0</ele><time>2026-04-28T07:45:08.98Z</time></trkpt><trkpt lat="43.688306981808836" lon="3.6969318059923144"><ele>192.0</ele><time>2026-04-28T07:45:12.98Z</time></trkpt><trkpt lat="43.68833489254493" lon="3.6970206879076923"><ele>191.99999999999997</ele><time>2026-04-28T07:45:16.98Z</time></trkpt><trkpt lat="43.68836892645551" lon="3.6971042414059814"><ele>192.0</ele><time>2026-04-28T07:45:19.98Z</time></trkpt><trkpt lat="43.688433647104915" lon="3.6971313513912816"><ele>192.14285714285714</ele><time>2026-04-28T07:45:23.981Z</time></trkpt><trkpt lat="43.688503763966466" lon="3.697127748625755"><ele>192.28571428571428</ele><time>2026-04-28T07:45:27.981Z</time></trkpt><trkpt lat="43.68857823233958" lon="3.697144005876836"><ele>192.42857142857144</ele><time>2026-04-28T07:45:31.981Z</time></trkpt><trkpt lat="43.68864296080921" lon="3.697157963663757"><ele>192.57142857142856</ele><time>2026-04-28T07:45:34.981Z</time></trkpt><trkpt lat="43.688704475233024" lon="3.6972113262385102"><ele>192.71428571428572</ele><time>2026-04-28T07:45:36.981Z</time></trkpt><trkpt lat="43.68878621395509" lon="3.697227661795246"><ele>192.85714285714286</ele><time>2026-04-28T07:45:40.981Z</time></trkpt><trkpt lat="43.68885556942164" lon="3.6972289141010366"><ele>193.0</ele><time>2026-04-28T07:45:43.981Z</time></trkpt><trkpt lat="43.68891934412785" lon="3.6972481287375616"><ele>192.49999999999997</ele><time>2026-04-28T07:45:45.981Z</time></trkpt><trkpt lat="43.68899830508179" lon="3.6972695917190768"><ele>192.0</ele><time>2026-04-28T07:45:48.98Z</time></trkpt><trkpt lat="43.689065781648786" lon="3.69731334195197"><ele>191.5</ele><time>2026-04-28T07:45:51.98Z</time></trkpt><trkpt lat="43.68912948532813" lon="3.6973592519609477"><ele>191.0</ele><time>2026-04-28T07:45:54.98Z</time></trkpt><trkpt lat="43.68920773458097" lon="3.6974096642774383"><ele>190.5</ele><time>2026-04-28T07:45:57.98Z</time></trkpt><trkpt lat="43.68927694637808" lon="3.697453890786799"><ele>190.0</ele><time>2026-04-28T07:46:00.98Z</time></trkpt><trkpt lat="43.689349018220746" lon="3.6974992326623632"><ele>190.0</ele><time>2026-04-28T07:46:03.98Z</time></trkpt><trkpt lat="43.68942481010442" lon="3.6975514718266416"><ele>190.0</ele><time>2026-04-28T07:46:06.98Z</time></trkpt><trkpt lat="43.68951464339844" lon="3.6975776743583753"><ele>190.0</ele><time>2026-04-28T07:46:10.98Z</time></trkpt><trkpt lat="43.68959558458925" lon="3.6976001969635908"><ele>190.0</ele><time>2026-04-28T07:46:13.98Z</time></trkpt><trkpt lat="43.68967636086486" lon="3.697651301922921"><ele>190.0</ele><time>2026-04-28T07:46:16.98Z</time></trkpt><trkpt lat="43.68973714205479" lon="3.697697370061156"><ele>190.0</ele><time>2026-04-28T07:46:18.98Z</time></trkpt><trkpt lat="43.68979820111286" lon="3.697740184783925"><ele>190.83333333333334</ele><time>2026-04-28T07:46:20.98Z</time></trkpt><trkpt lat="43.68988004714398" lon="3.6977993494279735"><ele>191.66666666666669</ele><time>2026-04-28T07:46:24.98Z</time></trkpt><trkpt lat="43.689960923644165" lon="3.697851227679611"><ele>192.5</ele><time>2026-04-28T07:46:27.98Z</time></trkpt><trkpt lat="43.69003260775353" lon="3.6978767109684623"><ele>193.33333333333334</ele><time>2026-04-28T07:46:30.98Z</time></trkpt><trkpt lat="43.690089590327965" lon="3.6979159111704787"><ele>194.16666666666666</ele><time>2026-04-28T07:46:32.98Z</time></trkpt><trkpt lat="43.69015686509884" lon="3.6979354377737503"><ele>195.0</ele><time>2026-04-28T07:46:35.98Z</time></trkpt><trkpt lat="43.690235561252564" lon="3.697974153568023"><ele>194.16666666666666</ele><time>2026-04-28T07:46:37.98Z</time></trkpt><trkpt lat="43.69032847966123" lon="3.698027782521243"><ele>193.33333333333334</ele><time>2026-04-28T07:46:40.98Z</time></trkpt><trkpt lat="43.6904066635301" lon="3.6980965027956074"><ele>192.5</ele><time>2026-04-28T07:46:43.98Z</time></trkpt><trkpt lat="43.69047685166781" lon="3.6981320641604682"><ele>191.66666666666669</ele><time>2026-04-28T07:46:46.98Z</time></trkpt><trkpt lat="43.69055331263009" lon="3.6981849548156394"><ele>190.83333333333334</ele><time>2026-04-28T07:46:49.98Z</time></trkpt><trkpt lat="43.69063129230031" lon="3.6982095786412406"><ele>190.0</ele><time>2026-04-28T07:46:52.98Z</time></trkpt><trkpt lat="43.69072277327513" lon="3.698231738752046"><ele>190.0</ele><time>2026-04-28T07:46:55.98Z</time></trkpt><trkpt lat="43.69079620585042" lon="3.69826027541297"><ele>190.0</ele><time>2026-04-28T07:46:57.98Z</time></trkpt><trkpt lat="43.69087499423163" lon="3.6982871520690033"><ele>190.0</ele><time>2026-04-28T07:47:00.98Z</time></trkpt><trkpt lat="43.69095069022181" lon="3.6983238863491357"><ele>190.0</ele><time>2026-04-28T07:47:03.98Z</time></trkpt><trkpt lat="43.69102033134437" lon="3.698350664280735"><ele>190.0</ele><time>2026-04-28T07:47:08.979Z</time></trkpt><trkpt lat="43.691085453102296" lon="3.6983752920359567"><ele>190.0</ele><time>2026-04-28T07:47:16.979Z</time></trkpt><trkpt lat="43.69115268101764" lon="3.698395277300668"><ele>190.0</ele><time>2026-04-28T07:47:19.979Z</time></trkpt><trkpt lat="43.69121780065668" lon="3.6984154252809627"><ele>190.14285714285714</ele><time>2026-04-28T07:47:22.979Z</time></trkpt><trkpt lat="43.69128448745508" lon="3.6984426209808157"><ele>190.28571428571428</ele><time>2026-04-28T07:47:24.979Z</time></trkpt><trkpt lat="43.69136539153183" lon="3.69848180048201"><ele>190.42857142857144</ele><time>2026-04-28T07:47:26.981Z</time></trkpt><trkpt lat="43.691412781315336" lon="3.6985429478275442"><ele>190.57142857142856</ele><time>2026-04-28T07:47:28.981Z</time></trkpt><trkpt lat="43.691467863250466" lon="3.6985863649242177"><ele>190.7142857142857</ele><time>2026-04-28T07:47:30.981Z</time></trkpt><trkpt lat="43.6915213593233" lon="3.698643614490593"><ele>190.85714285714286</ele><time>2026-04-28T07:47:33.98Z</time></trkpt><trkpt lat="43.69158498975514" lon="3.6986779083306045"><ele>191.0</ele><time>2026-04-28T07:47:37.981Z</time></trkpt><trkpt lat="43.691624222023506" lon="3.6985947744016543"><ele>190.0</ele><time>2026-04-28T07:47:40.981Z</time></trkpt><trkpt lat="43.69163619265919" lon="3.6984702894886716"><ele>189.0</ele><time>2026-04-28T07:47:43.98Z</time></trkpt><trkpt lat="43.69167149397418" lon="3.698390839608735"><ele>188.0</ele><time>2026-04-28T07:47:45.98Z</time></trkpt><trkpt lat="43.69172449568975" lon="3.6982654162149156"><ele>187.0</ele><time>2026-04-28T07:47:48.98Z</time></trkpt><trkpt lat="43.69174501272081" lon="3.6981561700267322"><ele>186.0</ele><time>2026-04-28T07:47:50.98Z</time></trkpt><trkpt lat="43.69175303515806" lon="3.6980684679269737"><ele>185.0</ele><time>2026-04-28T07:47:52.98Z</time></trkpt><trkpt lat="43.69176649051271" lon="3.697975734143465"><ele>185.0</ele><time>2026-04-28T07:47:54.98Z</time></trkpt><trkpt lat="43.69184208194386" lon="3.6978895735747486"><ele>185.0</ele><time>2026-04-28T07:47:56.98Z</time></trkpt><trkpt lat="43.691888156287064" lon="3.6978209177167263"><ele>185.0</ele><time>2026-04-28T07:47:58.98Z</time></trkpt><trkpt lat="43.691945818987826" lon="3.6977436123695684"><ele>185.0</ele><time>2026-04-28T07:48:00.98Z</time></trkpt><trkpt lat="43.69199882404936" lon="3.697669634588789"><ele>185.0</ele><time>2026-04-28T07:48:03.98Z</time></trkpt><trkpt lat="43.6920728681536" lon="3.6975912491145047"><ele>185.0</ele><time>2026-04-28T07:48:06.98Z</time></trkpt><trkpt lat="43.69214439094923" lon="3.6975451277347897"><ele>184.5</ele><time>2026-04-28T07:48:09.98Z</time></trkpt><trkpt lat="43.69221957818347" lon="3.6975055883921524"><ele>184.0</ele><time>2026-04-28T07:48:11.98Z</time></trkpt><trkpt lat="43.69230250601672" lon="3.6974342936988216"><ele>183.5</ele><time>2026-04-28T07:48:14.98Z</time></trkpt><trkpt lat="43.69237711345611" lon="3.6974280829761934"><ele>183.0</ele><time>2026-04-28T07:48:16.98Z</time></trkpt><trkpt lat="43.69244781789251" lon="3.697411509493603"><ele>182.5</ele><time>2026-04-28T07:48:18.98Z</time></trkpt><trkpt lat="43.69251562272863" lon="3.6973782806688194"><ele>182.0</ele><time>2026-04-28T07:48:20.98Z</time></trkpt><trkpt lat="43.69258531689971" lon="3.6973473002179387"><ele>182.0</ele><time>2026-04-28T07:48:22.98Z</time></trkpt><trkpt lat="43.69264989594491" lon="3.697337733850227"><ele>182.0</ele><time>2026-04-28T07:48:24.98Z</time></trkpt><trkpt lat="43.6927214865898" lon="3.6973418759797494"><ele>182.0</ele><time>2026-04-28T07:48:26.98Z</time></trkpt><trkpt lat="43.69278447366166" lon="3.697323764860001"><ele>182.0</ele><time>2026-04-28T07:48:28.98Z</time></trkpt><trkpt lat="43.692851712929915" lon="3.6973080791366875"><ele>182.0</ele><time>2026-04-28T07:48:30.98Z</time></trkpt><trkpt lat="43.692919226567966" lon="3.6972815258733744"><ele>182.0</ele><time>2026-04-28T07:48:32.98Z</time></trkpt><trkpt lat="43.69299520824026" lon="3.697297115727635"><ele>182.0</ele><time>2026-04-28T07:48:34.98Z</time></trkpt><trkpt lat="43.693080177012966" lon="3.697268822573374"><ele>181.85714285714286</ele><time>2026-04-28T07:48:36.98Z</time></trkpt><trkpt lat="43.69314330188524" lon="3.697283853658972"><ele>181.71428571428572</ele><time>2026-04-28T07:48:38.98Z</time></trkpt><trkpt lat="43.693210725944496" lon="3.6972933179286263"><ele>181.57142857142856</ele><time>2026-04-28T07:48:40.98Z</time></trkpt><trkpt lat="43.693281365775114" lon="3.69733457845271"><ele>181.42857142857144</ele><time>2026-04-28T07:48:42.98Z</time></trkpt><trkpt lat="43.693361700600505" lon="3.6973520744695167"><ele>181.28571428571428</ele><time>2026-04-28T07:48:45.98Z</time></trkpt><trkpt lat="43.69343527471937" lon="3.697343429402405"><ele>181.14285714285714</ele><time>2026-04-28T07:48:47.98Z</time></trkpt><trkpt lat="43.69350949387083" lon="3.6973413349095106"><ele>181.0</ele><time>2026-04-28T07:48:49.98Z</time></trkpt><trkpt lat="43.69360027789266" lon="3.6973415912243186"><ele>181.0</ele><time>2026-04-28T07:48:51.98Z</time></trkpt><trkpt lat="43.693674614126394" lon="3.6973285681215815"><ele>181.0</ele><time>2026-04-28T07:48:53.98Z</time></trkpt><trkpt lat="43.693725908369416" lon="3.697274789368341"><ele>181.0</ele><time>2026-04-28T07:48:55.98Z</time></trkpt><trkpt lat="43.693797960423844" lon="3.6972181991947957"><ele>181.0</ele><time>2026-04-28T07:48:57.98Z</time></trkpt><trkpt lat="43.693878815170265" lon="3.697190867521753"><ele>181.0</ele><time>2026-04-28T07:48:59.98Z</time></trkpt><trkpt lat="43.693954363491265" lon="3.6971696286762983"><ele>181.0</ele><time>2026-04-28T07:49:01.98Z</time></trkpt><trkpt lat="43.69403116808549" lon="3.6971477839248985"><ele>181.0</ele><time>2026-04-28T07:49:03.979Z</time></trkpt><trkpt lat="43.69410011970924" lon="3.697129122815874"><ele>181.0</ele><time>2026-04-28T07:49:05.979Z</time></trkpt><trkpt lat="43.69418839041093" lon="3.6971136307417125"><ele>181.0</ele><time>2026-04-28T07:49:07.979Z</time></trkpt><trkpt lat="43.69425861712043" lon="3.6971045848363304"><ele>181.0</ele><time>2026-04-28T07:49:09.979Z</time></trkpt><trkpt lat="43.69432520959947" lon="3.697098278126064"><ele>181.0</ele><time>2026-04-28T07:49:11.979Z</time></trkpt><trkpt lat="43.69440308637963" lon="3.697109869679193"><ele>181.0</ele><time>2026-04-28T07:49:13.979Z</time></trkpt><trkpt lat="43.694486163406175" lon="3.697126957976343"><ele>180.71428571428572</ele><time>2026-04-28T07:49:15.979Z</time></trkpt><trkpt lat="43.69454546129371" lon="3.6971681895483544"><ele>180.42857142857142</ele><time>2026-04-28T07:49:17.979Z</time></trkpt><trkpt lat="43.69462623901574" lon="3.6972304151665556"><ele>180.14285714285717</ele><time>2026-04-28T07:49:19.979Z</time></trkpt><trkpt lat="43.69468707838113" lon="3.6972548244772145"><ele>179.85714285714286</ele><time>2026-04-28T07:49:21.979Z</time></trkpt><trkpt lat="43.69475049564254" lon="3.697300287477095"><ele>179.57142857142858</ele><time>2026-04-28T07:49:23.979Z</time></trkpt><trkpt lat="43.69482707439158" lon="3.6973506848542663"><ele>179.2857142857143</ele><time>2026-04-28T07:49:25.979Z</time></trkpt><trkpt lat="43.69488700484228" lon="3.6974001325540153"><ele>179.0</ele><time>2026-04-28T07:49:27.979Z</time></trkpt><trkpt lat="43.69495853227967" lon="3.6974421093584326"><ele>179.0</ele><time>2026-04-28T07:49:29.979Z</time></trkpt><trkpt lat="43.69503211176857" lon="3.6974890041609805"><ele>179.0</ele><time>2026-04-28T07:49:31.979Z</time></trkpt><trkpt lat="43.69510325931076" lon="3.6975279729578028"><ele>179.0</ele><time>2026-04-28T07:49:33.98Z</time></trkpt><trkpt lat="43.69519122117318" lon="3.6975803714754734"><ele>179.0</ele><time>2026-04-28T07:49:36.979Z</time></trkpt><trkpt lat="43.69528100611246" lon="3.697646482632183"><ele>179.0</ele><time>2026-04-28T07:49:39.98Z</time></trkpt><trkpt lat="43.69535237910004" lon="3.6976791627855055"><ele>179.0</ele><time>2026-04-28T07:49:41.98Z</time></trkpt><trkpt lat="43.69541226049919" lon="3.6977231814082274"><ele>179.0</ele><time>2026-04-28T07:49:43.98Z</time></trkpt><trkpt lat="43.6955055544025" lon="3.6977679313381446"><ele>179.0</ele><time>2026-04-28T07:49:45.98Z</time></trkpt><trkpt lat="43.69557414888343" lon="3.6978296456447217"><ele>179.0</ele><time>2026-04-28T07:49:47.98Z</time></trkpt><trkpt lat="43.69566079256316" lon="3.6978391265197375"><ele>179.0</ele><time>2026-04-28T07:49:49.98Z</time></trkpt><trkpt lat="43.69575679477647" lon="3.6978709542390313"><ele>179.0</ele><time>2026-04-28T07:49:51.98Z</time></trkpt><trkpt lat="43.69582257680083" lon="3.697899338901671"><ele>179.0</ele><time>2026-04-28T07:49:53.98Z</time></trkpt><trkpt lat="43.695901383947295" lon="3.697953568966879"><ele>179.0</ele><time>2026-04-28T07:49:56.98Z</time></trkpt><trkpt lat="43.695997874051876" lon="3.698005695323031"><ele>179.0</ele><time>2026-04-28T07:49:59.98Z</time></trkpt><trkpt lat="43.69607759152396" lon="3.6980528198515277"><ele>179.0</ele><time>2026-04-28T07:50:02.98Z</time></trkpt><trkpt lat="43.696145512056205" lon="3.698080882949302"><ele>179.0</ele><time>2026-04-28T07:50:04.98Z</time></trkpt><trkpt lat="43.69624164867747" lon="3.698111506250364"><ele>179.0</ele><time>2026-04-28T07:50:07.98Z</time></trkpt><trkpt lat="43.69632536205334" lon="3.6981590909006337"><ele>178.0</ele><time>2026-04-28T07:50:09.98Z</time></trkpt><trkpt lat="43.69640456513142" lon="3.6981613300599094"><ele>177.0</ele><time>2026-04-28T07:50:11.98Z</time></trkpt><trkpt lat="43.69648662906443" lon="3.69816533311793"><ele>176.0</ele><time>2026-04-28T07:50:13.98Z</time></trkpt><trkpt lat="43.69656254963877" lon="3.698165259403644"><ele>175.0</ele><time>2026-04-28T07:50:15.98Z</time></trkpt><trkpt lat="43.6966310111543" lon="3.698135432995385"><ele>174.0</ele><time>2026-04-28T07:50:17.98Z</time></trkpt><trkpt lat="43.696688155580595" lon="3.698090304362403"><ele>173.0</ele><time>2026-04-28T07:50:20.98Z</time></trkpt><trkpt lat="43.69679699150593" lon="3.6980912541559903"><ele>173.0</ele><time>2026-04-28T07:50:58.979Z</time></trkpt><trkpt lat="43.69687858560307" lon="3.698029719773702"><ele>173.0</ele><time>2026-04-28T07:53:36.978Z</time></trkpt><trkpt lat="43.6969455120068" lon="3.6979704814597323"><ele>173.0</ele><time>2026-04-28T07:53:39.978Z</time></trkpt><trkpt lat="43.69701870131162" lon="3.6979438723129068"><ele>173.0</ele><time>2026-04-28T07:53:42.978Z</time></trkpt><trkpt lat="43.69708842188562" lon="3.697884595586928"><ele>173.0</ele><time>2026-04-28T07:53:45.98Z</time></trkpt><trkpt lat="43.69713804398238" lon="3.6978217512239144"><ele>173.0</ele><time>2026-04-28T07:53:47.979Z</time></trkpt><trkpt lat="43.69719404323812" lon="3.697732208510699"><ele>173.16666666666666</ele><time>2026-04-28T07:53:50.98Z</time></trkpt><trkpt lat="43.69725048777973" lon="3.697639741247821"><ele>173.33333333333331</ele><time>2026-04-28T07:53:53.979Z</time></trkpt><trkpt lat="43.69728995136026" lon="3.6975694206143643"><ele>173.5</ele><time>2026-04-28T07:53:55.979Z</time></trkpt><trkpt lat="43.697350869965085" lon="3.697486051126131"><ele>173.66666666666666</ele><time>2026-04-28T07:53:58.98Z</time></trkpt><trkpt lat="43.69739340907833" lon="3.6974084502228712"><ele>173.83333333333334</ele><time>2026-04-28T07:54:01.979Z</time></trkpt><trkpt lat="43.697435164967324" lon="3.697340320766244"><ele>174.0</ele><time>2026-04-28T07:54:04.979Z</time></trkpt><trkpt lat="43.69749298997671" lon="3.697265740038681"><ele>174.0</ele><time>2026-04-28T07:54:08.979Z</time></trkpt><trkpt lat="43.697534423676316" lon="3.6971919241676114"><ele>174.0</ele><time>2026-04-28T07:54:12.979Z</time></trkpt><trkpt lat="43.69757347652013" lon="3.6972695231765758"><ele>174.0</ele><time>2026-04-28T07:54:17.979Z</time></trkpt><trkpt lat="43.697589068357395" lon="3.6973663052009442"><ele>174.0</ele><time>2026-04-28T07:54:20.979Z</time></trkpt><trkpt lat="43.6976105776919" lon="3.6974912325483316"><ele>174.0</ele><time>2026-04-28T07:54:23.979Z</time></trkpt><trkpt lat="43.69762360057823" lon="3.697587587482664"><ele>174.0</ele><time>2026-04-28T07:54:26.979Z</time></trkpt><trkpt lat="43.697643129823675" lon="3.697697976673286"><ele>174.0</ele><time>2026-04-28T07:54:29.979Z</time></trkpt><trkpt lat="43.69765681550793" lon="3.697788176548372"><ele>174.0</ele><time>2026-04-28T07:54:31.979Z</time></trkpt><trkpt lat="43.69767943339853" lon="3.697892955110972"><ele>174.0</ele><time>2026-04-28T07:54:34.979Z</time></trkpt><trkpt lat="43.697704519899766" lon="3.6980157710638437"><ele>174.0</ele><time>2026-04-28T07:54:37.979Z</time></trkpt><trkpt lat="43.69772500287584" lon="3.698107581597728"><ele>174.0</ele><time>2026-04-28T07:54:40.979Z</time></trkpt><trkpt lat="43.69773992173542" lon="3.6982332715270525"><ele>174.0</ele><time>2026-04-28T07:54:43.979Z</time></trkpt><trkpt lat="43.69773999190659" lon="3.698327139226085"><ele>174.0</ele><time>2026-04-28T07:54:45.979Z</time></trkpt><trkpt lat="43.69774238351076" lon="3.6982321687480146"><ele>174.0</ele><time>2026-04-28T07:55:08.979Z</time></trkpt><trkpt lat="43.69772016925966" lon="3.69815023420878"><ele>174.0</ele><time>2026-04-28T07:55:11.979Z</time></trkpt><trkpt lat="43.69768694036995" lon="3.6980509580877157"><ele>174.0</ele><time>2026-04-28T07:55:14.979Z</time></trkpt><trkpt lat="43.69766977056431" lon="3.697963123783255"><ele>174.0</ele><time>2026-04-28T07:55:16.979Z</time></trkpt><trkpt lat="43.69764881897756" lon="3.697877875365312"><ele>174.0</ele><time>2026-04-28T07:55:18.978Z</time></trkpt><trkpt lat="43.69763582294992" lon="3.697791809593241"><ele>174.0</ele><time>2026-04-28T07:55:20.978Z</time></trkpt><trkpt lat="43.69762837829497" lon="3.697697145485976"><ele>174.0</ele><time>2026-04-28T07:55:22.978Z</time></trkpt><trkpt lat="43.69761205436688" lon="3.69757086701428"><ele>174.0</ele><time>2026-04-28T07:55:25.978Z</time></trkpt><trkpt lat="43.69760206652077" lon="3.6974503078871006"><ele>174.0</ele><time>2026-04-28T07:55:28.978Z</time></trkpt><trkpt lat="43.69758218861181" lon="3.6973532739911823"><ele>174.0</ele><time>2026-04-28T07:55:32.978Z</time></trkpt><trkpt lat="43.69756420213521" lon="3.6972496642505486"><ele>174.0</ele><time>2026-04-28T07:55:35.978Z</time></trkpt><trkpt lat="43.69754556264006" lon="3.6971618421747787"><ele>174.0</ele><time>2026-04-28T07:55:38.978Z</time></trkpt><trkpt lat="43.6975415430201" lon="3.697046544640698"><ele>174.0</ele><time>2026-04-28T07:55:42.978Z</time></trkpt><trkpt lat="43.69753796350711" lon="3.6969573773624256"><ele>174.0</ele><time>2026-04-28T07:55:48.978Z</time></trkpt><trkpt lat="43.697536148876154" lon="3.6968667507617647"><ele>174.0</ele><time>2026-04-28T07:55:52.978Z</time></trkpt><trkpt lat="43.69753985711202" lon="3.6967668775808873"><ele>174.0</ele><time>2026-04-28T07:55:56.978Z</time></trkpt><trkpt lat="43.69756419150528" lon="3.6966722921607973"><ele>174.0</ele><time>2026-04-28T07:55:59.978Z</time></trkpt><trkpt lat="43.697573110908806" lon="3.6965290007414313"><ele>174.0</ele><time>2026-04-28T07:56:27.978Z</time></trkpt><trkpt lat="43.69764460981958" lon="3.696501910053857"><ele>174.42857142857142</ele><time>2026-04-28T07:56:31.978Z</time></trkpt><trkpt lat="43.69767246922941" lon="3.6965867375609918"><ele>174.85714285714286</ele><time>2026-04-28T07:56:34.978Z</time></trkpt><trkpt lat="43.69769335924616" lon="3.6966792344456016"><ele>175.28571428571428</ele><time>2026-04-28T07:56:37.978Z</time></trkpt><trkpt lat="43.69773076654859" lon="3.696762481393774"><ele>175.71428571428572</ele><time>2026-04-28T07:56:40.978Z</time></trkpt><trkpt lat="43.697784887061864" lon="3.6968512562561333"><ele>176.14285714285714</ele><time>2026-04-28T07:56:43.978Z</time></trkpt><trkpt lat="43.69783909896653" lon="3.696915379026737"><ele>176.57142857142858</ele><time>2026-04-28T07:56:46.978Z</time></trkpt><trkpt lat="43.69791583582204" lon="3.696940723657454"><ele>177.0</ele><time>2026-04-28T07:56:50.978Z</time></trkpt><trkpt lat="43.697983001270316" lon="3.696942002357401"><ele>177.85714285714286</ele><time>2026-04-28T07:56:53.978Z</time></trkpt><trkpt lat="43.69805005814079" lon="3.696959051872615"><ele>178.7142857142857</ele><time>2026-04-28T07:56:56.978Z</time></trkpt><trkpt lat="43.69811557233723" lon="3.6969783033963894"><ele>179.57142857142856</ele><time>2026-04-28T07:56:59.978Z</time></trkpt><trkpt lat="43.698185578069605" lon="3.697014988324221"><ele>180.42857142857144</ele><time>2026-04-28T07:57:03.978Z</time></trkpt><trkpt lat="43.69824789736234" lon="3.697054880568599"><ele>181.28571428571428</ele><time>2026-04-28T07:57:06.978Z</time></trkpt><trkpt lat="43.69830281435597" lon="3.697108978294874"><ele>182.14285714285714</ele><time>2026-04-28T07:57:09.978Z</time></trkpt><trkpt lat="43.69835242674111" lon="3.697172955377983"><ele>183.0</ele><time>2026-04-28T07:57:12.978Z</time></trkpt><trkpt lat="43.69840266673144" lon="3.697230646055918"><ele>183.0</ele><time>2026-04-28T07:57:15.978Z</time></trkpt><trkpt lat="43.69847234588651" lon="3.697298538717087"><ele>183.0</ele><time>2026-04-28T07:57:19.978Z</time></trkpt><trkpt lat="43.69854280952" lon="3.6973558252922736"><ele>183.0</ele><time>2026-04-28T07:57:23.978Z</time></trkpt><trkpt lat="43.69861010395788" lon="3.6974059294733532"><ele>183.0</ele><time>2026-04-28T07:57:27.977Z</time></trkpt><trkpt lat="43.69866695646384" lon="3.6974741835115457"><ele>183.0</ele><time>2026-04-28T07:57:30.977Z</time></trkpt><trkpt lat="43.69872501618383" lon="3.697538861088984"><ele>183.0</ele><time>2026-04-28T07:57:33.977Z</time></trkpt><trkpt lat="43.698785137879895" lon="3.6976206569055106"><ele>184.14285714285714</ele><time>2026-04-28T07:57:37.977Z</time></trkpt><trkpt lat="43.69885083208542" lon="3.697695947534091"><ele>185.28571428571428</ele><time>2026-04-28T07:57:40.977Z</time></trkpt><trkpt lat="43.69890048607306" lon="3.697762256538924"><ele>186.42857142857144</ele><time>2026-04-28T07:57:43.977Z</time></trkpt><trkpt lat="43.69895759710534" lon="3.6978242052891748"><ele>187.57142857142856</ele><time>2026-04-28T07:57:46.977Z</time></trkpt><trkpt lat="43.69901899394269" lon="3.6978850016981055"><ele>188.7142857142857</ele><time>2026-04-28T07:57:49.977Z</time></trkpt><trkpt lat="43.69905587551615" lon="3.69796819576882"><ele>189.85714285714286</ele><time>2026-04-28T07:57:52.977Z</time></trkpt><trkpt lat="43.699097063701586" lon="3.6980528058075044"><ele>191.0</ele><time>2026-04-28T07:57:55.977Z</time></trkpt><trkpt lat="43.69913636379386" lon="3.698136416798124"><ele>191.0</ele><time>2026-04-28T07:57:58.977Z</time></trkpt><trkpt lat="43.69917695756137" lon="3.6982228261952894"><ele>191.0</ele><time>2026-04-28T07:58:01.977Z</time></trkpt><trkpt lat="43.699225762568254" lon="3.698290207696904"><ele>191.0</ele><time>2026-04-28T07:58:04.977Z</time></trkpt><trkpt lat="43.699286132518445" lon="3.6983235943979293"><ele>191.0</ele><time>2026-04-28T07:58:07.977Z</time></trkpt><trkpt lat="43.69934696461771" lon="3.6983695239925427"><ele>191.0</ele><time>2026-04-28T07:58:10.977Z</time></trkpt><trkpt lat="43.69941460965869" lon="3.6984142917247214"><ele>191.0</ele><time>2026-04-28T07:58:13.977Z</time></trkpt><trkpt lat="43.699471251327495" lon="3.6984662584156647"><ele>191.0</ele><time>2026-04-28T07:58:16.977Z</time></trkpt><trkpt lat="43.699553259958726" lon="3.6985077168223772"><ele>191.57142857142858</ele><time>2026-04-28T07:58:20.977Z</time></trkpt><trkpt lat="43.69961462055702" lon="3.6985510231731915"><ele>192.14285714285714</ele><time>2026-04-28T07:58:23.977Z</time></trkpt><trkpt lat="43.69967652769774" lon="3.6985997737068637"><ele>192.71428571428572</ele><time>2026-04-28T07:58:26.977Z</time></trkpt><trkpt lat="43.69974115155337" lon="3.698633075274646"><ele>193.28571428571428</ele><time>2026-04-28T07:58:29.977Z</time></trkpt><trkpt lat="43.6998180012634" lon="3.6986409932669044"><ele>193.85714285714283</ele><time>2026-04-28T07:58:32.977Z</time></trkpt><trkpt lat="43.69988708161003" lon="3.698637012722953"><ele>194.42857142857142</ele><time>2026-04-28T07:58:35.977Z</time></trkpt><trkpt lat="43.69997019834037" lon="3.698648043554056"><ele>195.0</ele><time>2026-04-28T07:58:38.977Z</time></trkpt><trkpt lat="43.70004610576355" lon="3.698678687516007"><ele>195.0</ele><time>2026-04-28T07:58:41.977Z</time></trkpt><trkpt lat="43.700117121711926" lon="3.698705324920896"><ele>195.0</ele><time>2026-04-28T07:58:44.977Z</time></trkpt><trkpt lat="43.70019362738935" lon="3.6987668241631684"><ele>195.0</ele><time>2026-04-28T07:58:47.977Z</time></trkpt><trkpt lat="43.70027235779204" lon="3.698802285568175"><ele>195.0</ele><time>2026-04-28T07:58:50.977Z</time></trkpt><trkpt lat="43.70036988235699" lon="3.6987969401988985"><ele>195.0</ele><time>2026-04-28T07:58:53.977Z</time></trkpt><trkpt lat="43.70042566472645" lon="3.698743011493293"><ele>195.0</ele><time>2026-04-28T07:58:56.977Z</time></trkpt><trkpt lat="43.700464288134064" lon="3.6986714973851256"><ele>195.33333333333334</ele><time>2026-04-28T07:58:59.977Z</time></trkpt><trkpt lat="43.70052071261527" lon="3.698608844370146"><ele>195.66666666666669</ele><time>2026-04-28T07:59:03.977Z</time></trkpt><trkpt lat="43.70059729004774" lon="3.6985597614902455"><ele>196.0</ele><time>2026-04-28T07:59:07.977Z</time></trkpt><trkpt lat="43.70066183856219" lon="3.6985402368344467"><ele>196.33333333333334</ele><time>2026-04-28T07:59:10.977Z</time></trkpt><trkpt lat="43.70074519189211" lon="3.698526984806869"><ele>196.66666666666669</ele><time>2026-04-28T07:59:13.977Z</time></trkpt><trkpt lat="43.700808464589436" lon="3.698458683535359"><ele>197.0</ele><time>2026-04-28T07:59:16.977Z</time></trkpt><trkpt lat="43.700856590122356" lon="3.6983853743317354"><ele>197.28571428571428</ele><time>2026-04-28T07:59:19.977Z</time></trkpt><trkpt lat="43.700893321645076" lon="3.698312638737072"><ele>197.57142857142858</ele><time>2026-04-28T07:59:22.977Z</time></trkpt><trkpt lat="43.70095621901956" lon="3.698232589433365"><ele>197.85714285714283</ele><time>2026-04-28T07:59:26.977Z</time></trkpt><trkpt lat="43.70098871815447" lon="3.6981545301107457"><ele>198.14285714285714</ele><time>2026-04-28T07:59:29.976Z</time></trkpt><trkpt lat="43.70103172930788" lon="3.698080616090359"><ele>198.42857142857142</ele><time>2026-04-28T07:59:32.976Z</time></trkpt><trkpt lat="43.70107971671865" lon="3.6979847741451684"><ele>198.7142857142857</ele><time>2026-04-28T07:59:35.976Z</time></trkpt><trkpt lat="43.701137888969484" lon="3.697912169005214"><ele>199.0</ele><time>2026-04-28T07:59:38.976Z</time></trkpt><trkpt lat="43.70119261959231" lon="3.69783525298525"><ele>198.99999999999997</ele><time>2026-04-28T07:59:41.976Z</time></trkpt><trkpt lat="43.701241271521944" lon="3.6977732205919818"><ele>199.0</ele><time>2026-04-28T07:59:44.976Z</time></trkpt><trkpt lat="43.701307149489914" lon="3.6977025121066824"><ele>199.0</ele><time>2026-04-28T07:59:47.976Z</time></trkpt><trkpt lat="43.701367235144545" lon="3.6976202823482986"><ele>199.0</ele><time>2026-04-28T07:59:50.976Z</time></trkpt><trkpt lat="43.701409008986296" lon="3.697536054083205"><ele>198.99999999999997</ele><time>2026-04-28T07:59:53.976Z</time></trkpt><trkpt lat="43.701454418686325" lon="3.697432319127874"><ele>199.0</ele><time>2026-04-28T07:59:56.976Z</time></trkpt><trkpt lat="43.701506318005336" lon="3.6973421237265636"><ele>198.99999999999997</ele><time>2026-04-28T07:59:59.976Z</time></trkpt><trkpt lat="43.70156399254194" lon="3.6972589794620445"><ele>199.0</ele><time>2026-04-28T08:00:02.976Z</time></trkpt><trkpt lat="43.701624926101594" lon="3.6971614902144174"><ele>199.0</ele><time>2026-04-28T08:00:05.976Z</time></trkpt><trkpt lat="43.701685379752625" lon="3.69707131975215"><ele>199.0</ele><time>2026-04-28T08:00:08.976Z</time></trkpt><trkpt lat="43.70172181268471" lon="3.6970000170552884"><ele>198.99999999999997</ele><time>2026-04-28T08:00:10.976Z</time></trkpt><trkpt lat="43.70178134573102" lon="3.696917251993542"><ele>199.0</ele><time>2026-04-28T08:00:13.976Z</time></trkpt><trkpt lat="43.701821865762035" lon="3.696835489146527"><ele>199.33333333333331</ele><time>2026-04-28T08:00:16.977Z</time></trkpt><trkpt lat="43.701857197439125" lon="3.696730831097585"><ele>199.66666666666666</ele><time>2026-04-28T08:00:20.977Z</time></trkpt><trkpt lat="43.70189777489839" lon="3.6966588541928354"><ele>200.0</ele><time>2026-04-28T08:00:25.977Z</time></trkpt><trkpt lat="43.701961977240096" lon="3.6966210551705254"><ele>200.33333333333331</ele><time>2026-04-28T08:00:29.977Z</time></trkpt><trkpt lat="43.70208217162148" lon="3.6966287598319756"><ele>200.66666666666666</ele><time>2026-04-28T08:01:07.976Z</time></trkpt><trkpt lat="43.70209669028683" lon="3.696725543709565"><ele>201.0</ele><time>2026-04-28T08:01:10.976Z</time></trkpt><trkpt lat="43.70209788100147" lon="3.6968589994914063"><ele>200.33333333333334</ele><time>2026-04-28T08:01:13.976Z</time></trkpt><trkpt lat="43.7021039117187" lon="3.696984648224888"><ele>199.66666666666669</ele><time>2026-04-28T08:01:15.976Z</time></trkpt><trkpt lat="43.702110218206144" lon="3.697081105978842"><ele>199.0</ele><time>2026-04-28T08:01:17.976Z</time></trkpt><trkpt lat="43.702112469752755" lon="3.697189350633161"><ele>198.33333333333334</ele><time>2026-04-28T08:01:19.976Z</time></trkpt><trkpt lat="43.7021043799202" lon="3.697318708934604"><ele>197.66666666666669</ele><time>2026-04-28T08:01:21.976Z</time></trkpt><trkpt lat="43.7021037001688" lon="3.6974619353836085"><ele>197.0</ele><time>2026-04-28T08:01:23.976Z</time></trkpt><trkpt lat="43.70210501877016" lon="3.69759677790067"><ele>196.0</ele><time>2026-04-28T08:01:25.976Z</time></trkpt><trkpt lat="43.7021164810176" lon="3.697755663495132"><ele>195.0</ele><time>2026-04-28T08:01:27.976Z</time></trkpt><trkpt lat="43.702118898225606" lon="3.6978884661365625"><ele>194.0</ele><time>2026-04-28T08:01:29.976Z</time></trkpt><trkpt lat="43.70213563259385" lon="3.6980293099622696"><ele>193.0</ele><time>2026-04-28T08:01:31.976Z</time></trkpt><trkpt lat="43.70215054399489" lon="3.698168375928933"><ele>192.0</ele><time>2026-04-28T08:01:33.976Z</time></trkpt><trkpt lat="43.70216331662151" lon="3.6983266820025706"><ele>192.0</ele><time>2026-04-28T08:01:35.976Z</time></trkpt><trkpt lat="43.70219455643659" lon="3.698461372568901"><ele>192.0</ele><time>2026-04-28T08:01:37.976Z</time></trkpt><trkpt lat="43.702221287888705" lon="3.698628360376596"><ele>192.0</ele><time>2026-04-28T08:01:39.976Z</time></trkpt><trkpt lat="43.70226595407633" lon="3.6987979028341527"><ele>192.0</ele><time>2026-04-28T08:01:41.976Z</time></trkpt><trkpt lat="43.702315412983396" lon="3.698952537514524"><ele>191.5</ele><time>2026-04-28T08:01:43.976Z</time></trkpt><trkpt lat="43.70235232814501" lon="3.699038963952421"><ele>191.0</ele><time>2026-04-28T08:01:44.976Z</time></trkpt><trkpt lat="43.70239220326143" lon="3.699123386479804"><ele>190.5</ele><time>2026-04-28T08:01:45.976Z</time></trkpt><trkpt lat="43.70242007837056" lon="3.6992195317801073"><ele>190.0</ele><time>2026-04-28T08:01:46.976Z</time></trkpt><trkpt lat="43.70245206029511" lon="3.6993151375033846"><ele>189.5</ele><time>2026-04-28T08:01:47.976Z</time></trkpt><trkpt lat="43.70246382741416" lon="3.699408443276859"><ele>189.0</ele><time>2026-04-28T08:01:48.976Z</time></trkpt><trkpt lat="43.7024947537183" lon="3.6995198844707304"><ele>188.33333333333334</ele><time>2026-04-28T08:01:49.976Z</time></trkpt><trkpt lat="43.70252355980484" lon="3.6996222712879394"><ele>187.66666666666666</ele><time>2026-04-28T08:01:50.975Z</time></trkpt><trkpt lat="43.70256153152116" lon="3.6997307076640156"><ele>187.0</ele><time>2026-04-28T08:01:51.975Z</time></trkpt><trkpt lat="43.702604699592634" lon="3.6998394070851095"><ele>186.33333333333331</ele><time>2026-04-28T08:01:52.975Z</time></trkpt><trkpt lat="43.70263908544505" lon="3.699940711713995"><ele>185.66666666666666</ele><time>2026-04-28T08:01:53.975Z</time></trkpt><trkpt lat="43.70268035803574" lon="3.700057682615186"><ele>185.0</ele><time>2026-04-28T08:01:54.975Z</time></trkpt><trkpt lat="43.70271587636324" lon="3.700171507644257"><ele>184.8</ele><time>2026-04-28T08:01:55.975Z</time></trkpt><trkpt lat="43.702743469144366" lon="3.7002852895567866"><ele>184.6</ele><time>2026-04-28T08:01:56.975Z</time></trkpt><trkpt lat="43.70277734363729" lon="3.700420989041632"><ele>184.39999999999998</ele><time>2026-04-28T08:01:57.975Z</time></trkpt><trkpt lat="43.70282455195732" lon="3.7005317525824526"><ele>184.2</ele><time>2026-04-28T08:01:58.975Z</time></trkpt><trkpt lat="43.70288773243195" lon="3.700631024581807"><ele>184.0</ele><time>2026-04-28T08:01:59.975Z</time></trkpt><trkpt lat="43.702966686045905" lon="3.7007141065482108"><ele>183.2</ele><time>2026-04-28T08:02:00.975Z</time></trkpt><trkpt lat="43.7030444821059" lon="3.700797932703122"><ele>182.39999999999998</ele><time>2026-04-28T08:02:01.975Z</time></trkpt><trkpt lat="43.70311975149054" lon="3.7008768915289036"><ele>181.6</ele><time>2026-04-28T08:02:02.975Z</time></trkpt><trkpt lat="43.7031946633992" lon="3.700959344316562"><ele>180.8</ele><time>2026-04-28T08:02:03.975Z</time></trkpt><trkpt lat="43.70326879037039" lon="3.7010534643503"><ele>180.0</ele><time>2026-04-28T08:02:04.975Z</time></trkpt><trkpt lat="43.70335310755952" lon="3.7011346382648878"><ele>179.8</ele><time>2026-04-28T08:02:05.975Z</time></trkpt><trkpt lat="43.70343198759428" lon="3.7012139159325024"><ele>179.6</ele><time>2026-04-28T08:02:06.975Z</time></trkpt><trkpt lat="43.70351446180386" lon="3.701294553561551"><ele>179.39999999999998</ele><time>2026-04-28T08:02:07.975Z</time></trkpt><trkpt lat="43.703593052862345" lon="3.701378472646202"><ele>179.2</ele><time>2026-04-28T08:02:08.976Z</time></trkpt><trkpt lat="43.70365938376863" lon="3.7014647563074594"><ele>179.0</ele><time>2026-04-28T08:02:09.976Z</time></trkpt><trkpt lat="43.70371942528919" lon="3.701553253355224"><ele>179.0</ele><time>2026-04-28T08:02:10.976Z</time></trkpt><trkpt lat="43.7037591676897" lon="3.7016463056894815"><ele>179.0</ele><time>2026-04-28T08:02:11.976Z</time></trkpt><trkpt lat="43.703795030410845" lon="3.7017320837794085"><ele>179.0</ele><time>2026-04-28T08:02:12.976Z</time></trkpt><trkpt lat="43.703848145628285" lon="3.7018073658663027"><ele>179.0</ele><time>2026-04-28T08:02:13.976Z</time></trkpt><trkpt lat="43.70391943989622" lon="3.7018822819032553"><ele>179.0</ele><time>2026-04-28T08:02:14.976Z</time></trkpt><trkpt lat="43.703978741214286" lon="3.7019535926655327"><ele>179.0</ele><time>2026-04-28T08:02:15.975Z</time></trkpt><trkpt lat="43.7040374084329" lon="3.702037699649704"><ele>177.66666666666666</ele><time>2026-04-28T08:02:16.975Z</time></trkpt><trkpt lat="43.70408360028178" lon="3.7021361280298164"><ele>176.33333333333331</ele><time>2026-04-28T08:02:17.976Z</time></trkpt><trkpt lat="43.70412455039305" lon="3.702246355951325"><ele>175.0</ele><time>2026-04-28T08:02:18.976Z</time></trkpt><trkpt lat="43.70415907336087" lon="3.702361191432387"><ele>173.66666666666666</ele><time>2026-04-28T08:02:19.976Z</time></trkpt><trkpt lat="43.70420550453544" lon="3.702456050321741"><ele>172.33333333333334</ele><time>2026-04-28T08:02:20.976Z</time></trkpt><trkpt lat="43.70427120296377" lon="3.702554753062729"><ele>171.0</ele><time>2026-04-28T08:02:21.976Z</time></trkpt><trkpt lat="43.70434430929682" lon="3.7026434988398513"><ele>171.5</ele><time>2026-04-28T08:02:22.976Z</time></trkpt><trkpt lat="43.70442241249742" lon="3.7027130184050865"><ele>172.0</ele><time>2026-04-28T08:02:23.976Z</time></trkpt><trkpt lat="43.70449758258746" lon="3.702753585704722"><ele>172.5</ele><time>2026-04-28T08:02:24.976Z</time></trkpt><trkpt lat="43.70458725203274" lon="3.7027779281087687"><ele>173.0</ele><time>2026-04-28T08:02:26.976Z</time></trkpt><trkpt lat="43.70465759612971" lon="3.7027943209687697"><ele>173.5</ele><time>2026-04-28T08:02:30.976Z</time></trkpt><trkpt lat="43.70472440387666" lon="3.70280445130888"><ele>174.0</ele><time>2026-04-28T08:02:33.976Z</time></trkpt><trkpt lat="43.70478902797339" lon="3.702827510870157"><ele>171.33333333333334</ele><time>2026-04-28T08:02:35.976Z</time></trkpt><trkpt lat="43.70485292166703" lon="3.702842028643945"><ele>168.66666666666666</ele><time>2026-04-28T08:02:37.976Z</time></trkpt><trkpt lat="43.70493390954364" lon="3.7028717642150926"><ele>166.0</ele><time>2026-04-28T08:02:39.976Z</time></trkpt><trkpt lat="43.70501944895647" lon="3.702894558543802"><ele>163.33333333333331</ele><time>2026-04-28T08:02:41.976Z</time></trkpt><trkpt lat="43.70510790704672" lon="3.702926591224991"><ele>160.66666666666666</ele><time>2026-04-28T08:02:43.976Z</time></trkpt><trkpt lat="43.70521051817555" lon="3.7029736068962205"><ele>158.0</ele><time>2026-04-28T08:02:45.976Z</time></trkpt><trkpt lat="43.70532038974763" lon="3.703011429603631"><ele>158.0</ele><time>2026-04-28T08:02:47.976Z</time></trkpt><trkpt lat="43.70538671061842" lon="3.7030390573894603"><ele>158.0</ele><time>2026-04-28T08:02:48.976Z</time></trkpt><trkpt lat="43.7054533290461" lon="3.7030717277102587"><ele>158.0</ele><time>2026-04-28T08:02:49.975Z</time></trkpt><trkpt lat="43.70551911932932" lon="3.7030994766612007"><ele>158.0</ele><time>2026-04-28T08:02:50.975Z</time></trkpt><trkpt lat="43.705580176738074" lon="3.7031209487735723"><ele>158.0</ele><time>2026-04-28T08:02:51.975Z</time></trkpt><trkpt lat="43.70568804748665" lon="3.703168622240555"><ele>158.0</ele><time>2026-04-28T08:02:53.975Z</time></trkpt><trkpt lat="43.705786581904015" lon="3.7032204625712923"><ele>158.0</ele><time>2026-04-28T08:02:55.975Z</time></trkpt><trkpt lat="43.70590562082283" lon="3.7032765674030723"><ele>158.0</ele><time>2026-04-28T08:02:57.975Z</time></trkpt><trkpt lat="43.70600812183295" lon="3.703324260849848"><ele>158.0</ele><time>2026-04-28T08:02:59.975Z</time></trkpt><trkpt lat="43.7061078332022" lon="3.703368098706181"><ele>158.0</ele><time>2026-04-28T08:03:01.975Z</time></trkpt><trkpt lat="43.706207321341154" lon="3.7034378745117618"><ele>158.0</ele><time>2026-04-28T08:03:03.975Z</time></trkpt><trkpt lat="43.706268994101364" lon="3.703486116083869"><ele>158.0</ele><time>2026-04-28T08:03:04.975Z</time></trkpt><trkpt lat="43.706323085451565" lon="3.7035390520540004"><ele>158.0</ele><time>2026-04-28T08:03:05.975Z</time></trkpt><trkpt lat="43.70637823904446" lon="3.7035920276151977"><ele>158.0</ele><time>2026-04-28T08:03:06.975Z</time></trkpt><trkpt lat="43.70643459687267" lon="3.7037060150132706"><ele>158.0</ele><time>2026-04-28T08:03:08.975Z</time></trkpt><trkpt lat="43.70642149791312" lon="3.703795107351852"><ele>158.0</ele><time>2026-04-28T08:03:10.975Z</time></trkpt><trkpt lat="43.706494438734204" lon="3.703839767684172"><ele>158.00000000000003</ele><time>2026-04-28T08:03:15.975Z</time></trkpt><trkpt lat="43.706564195055805" lon="3.703839543809084"><ele>158.0</ele><time>2026-04-28T08:03:19.975Z</time></trkpt><trkpt lat="43.70662393339435" lon="3.703879412191149"><ele>158.0</ele><time>2026-04-28T08:03:22.975Z</time></trkpt><trkpt lat="43.706689814662674" lon="3.7038925756187466"><ele>158.0</ele><time>2026-04-28T08:03:25.975Z</time></trkpt><trkpt lat="43.70676195180378" lon="3.703904977753332"><ele>158.0</ele><time>2026-04-28T08:03:29.975Z</time></trkpt><trkpt lat="43.70683123994338" lon="3.703877246265426"><ele>158.00000000000003</ele><time>2026-04-28T08:03:32.975Z</time></trkpt><trkpt lat="43.70689362511536" lon="3.703838911728217"><ele>158.0</ele><time>2026-04-28T08:03:36.975Z</time></trkpt><trkpt lat="43.70694865160026" lon="3.7037954407122937"><ele>158.42857142857144</ele><time>2026-04-28T08:03:40.975Z</time></trkpt><trkpt lat="43.70701230875393" lon="3.7037682214456846"><ele>158.85714285714286</ele><time>2026-04-28T08:03:43.975Z</time></trkpt><trkpt lat="43.707077942789205" lon="3.703722501900488"><ele>159.28571428571428</ele><time>2026-04-28T08:03:46.975Z</time></trkpt><trkpt lat="43.7071480577514" lon="3.7036939052718685"><ele>159.71428571428572</ele><time>2026-04-28T08:03:50.975Z</time></trkpt><trkpt lat="43.70721242685691" lon="3.703693098637044"><ele>160.14285714285714</ele><time>2026-04-28T08:03:52.975Z</time></trkpt><trkpt lat="43.70728808901091" lon="3.703670487852721"><ele>160.57142857142858</ele><time>2026-04-28T08:03:55.975Z</time></trkpt><trkpt lat="43.707360736651744" lon="3.7036477992328356"><ele>161.0</ele><time>2026-04-28T08:03:58.975Z</time></trkpt><trkpt lat="43.70745683833194" lon="3.703629732310291"><ele>161.0</ele><time>2026-04-28T08:04:02.975Z</time></trkpt><trkpt lat="43.70752425469934" lon="3.7036046998101577"><ele>161.0</ele><time>2026-04-28T08:04:04.975Z</time></trkpt><trkpt lat="43.70760271535239" lon="3.703561123191243"><ele>161.0</ele><time>2026-04-28T08:04:07.975Z</time></trkpt><trkpt lat="43.70766075775609" lon="3.7035143075079424"><ele>161.0</ele><time>2026-04-28T08:04:09.974Z</time></trkpt><trkpt lat="43.70771871597617" lon="3.7034660643283517"><ele>161.0</ele><time>2026-04-28T08:04:11.974Z</time></trkpt><trkpt lat="43.70778391752782" lon="3.7034151766347936"><ele>161.0</ele><time>2026-04-28T08:04:14.976Z</time></trkpt><trkpt lat="43.707857967511295" lon="3.7033412404960346"><ele>162.33333333333331</ele><time>2026-04-28T08:04:17.975Z</time></trkpt><trkpt lat="43.70791092980457" lon="3.703263395898028"><ele>163.66666666666666</ele><time>2026-04-28T08:04:20.975Z</time></trkpt><trkpt lat="43.70796915130749" lon="3.7032059738188914"><ele>165.0</ele><time>2026-04-28T08:04:23.975Z</time></trkpt><trkpt lat="43.70803082491452" lon="3.7031162190629727"><ele>166.33333333333334</ele><time>2026-04-28T08:04:27.975Z</time></trkpt><trkpt lat="43.708050962822846" lon="3.703023989572363"><ele>167.66666666666669</ele><time>2026-04-28T08:04:30.975Z</time></trkpt><trkpt lat="43.70808023081671" lon="3.7029368454031877"><ele>169.0</ele><time>2026-04-28T08:04:33.975Z</time></trkpt><trkpt lat="43.70812681244639" lon="3.7028297781472785"><ele>169.42857142857144</ele><time>2026-04-28T08:04:36.975Z</time></trkpt><trkpt lat="43.70815073984978" lon="3.7027471517255104"><ele>169.85714285714286</ele><time>2026-04-28T08:04:39.975Z</time></trkpt><trkpt lat="43.70817381634263" lon="3.7026583041803884"><ele>170.28571428571428</ele><time>2026-04-28T08:04:42.975Z</time></trkpt><trkpt lat="43.708201433414146" lon="3.7025669221111275"><ele>170.71428571428572</ele><time>2026-04-28T08:04:45.975Z</time></trkpt><trkpt lat="43.70822082559851" lon="3.7024700579047134"><ele>171.14285714285714</ele><time>2026-04-28T08:04:48.975Z</time></trkpt><trkpt lat="43.7082408783505" lon="3.702373663347148"><ele>171.57142857142858</ele><time>2026-04-28T08:04:50.975Z</time></trkpt><trkpt lat="43.70826047037765" lon="3.7022700534077524"><ele>172.0</ele><time>2026-04-28T08:04:53.975Z</time></trkpt><trkpt lat="43.70826539183545" lon="3.702153191043504"><ele>172.0</ele><time>2026-04-28T08:04:56.975Z</time></trkpt><trkpt lat="43.708285009567675" lon="3.702052682741493"><ele>172.0</ele><time>2026-04-28T08:04:59.975Z</time></trkpt><trkpt lat="43.708319431119385" lon="3.701941329968129"><ele>172.0</ele><time>2026-04-28T08:05:02.974Z</time></trkpt><trkpt lat="43.70833702402295" lon="3.7018389234441256"><ele>172.0</ele><time>2026-04-28T08:05:05.974Z</time></trkpt><trkpt lat="43.70837710602708" lon="3.701736198232702"><ele>172.0</ele><time>2026-04-28T08:05:09.974Z</time></trkpt><trkpt lat="43.708395242331584" lon="3.7016319798454016"><ele>172.0</ele><time>2026-04-28T08:05:12.974Z</time></trkpt><trkpt lat="43.70841694202288" lon="3.7015265662960664"><ele>172.0</ele><time>2026-04-28T08:05:15.974Z</time></trkpt><trkpt lat="43.708427770972854" lon="3.7014372002648583"><ele>172.0</ele><time>2026-04-28T08:05:20.974Z</time></trkpt><trkpt lat="43.70850913237136" lon="3.7013559570970913"><ele>172.0</ele><time>2026-04-28T08:05:48.974Z</time></trkpt><trkpt lat="43.70857678702242" lon="3.7013125816312478"><ele>172.0</ele><time>2026-04-28T08:05:51.974Z</time></trkpt><trkpt lat="43.70863920760328" lon="3.701254693884219"><ele>172.0</ele><time>2026-04-28T08:06:05.974Z</time></trkpt><trkpt lat="43.70869694381203" lon="3.701205407792673"><ele>172.0</ele><time>2026-04-28T08:06:26.974Z</time></trkpt><trkpt lat="43.7087632841765" lon="3.701148657123353"><ele>172.85714285714286</ele><time>2026-04-28T08:06:30.974Z</time></trkpt><trkpt lat="43.70882751157675" lon="3.70114045244009"><ele>173.71428571428572</ele><time>2026-04-28T08:06:33.974Z</time></trkpt><trkpt lat="43.70890231751174" lon="3.7011049315778926"><ele>174.57142857142856</ele><time>2026-04-28T08:06:37.974Z</time></trkpt><trkpt lat="43.708963828260906" lon="3.701061266401153"><ele>175.42857142857144</ele><time>2026-04-28T08:06:41.974Z</time></trkpt><trkpt lat="43.70904329907557" lon="3.701025487706698"><ele>176.28571428571428</ele><time>2026-04-28T08:06:45.974Z</time></trkpt><trkpt lat="43.7091029576971" lon="3.700983304240838"><ele>177.14285714285714</ele><time>2026-04-28T08:06:48.974Z</time></trkpt><trkpt lat="43.70916547179344" lon="3.700949931747698"><ele>178.0</ele><time>2026-04-28T08:06:52.974Z</time></trkpt><trkpt lat="43.70923763133374" lon="3.7008976354205907"><ele>177.99999999999997</ele><time>2026-04-28T08:06:57.974Z</time></trkpt><trkpt lat="43.7092947876824" lon="3.7008485778748605"><ele>178.0</ele><time>2026-04-28T08:07:00.974Z</time></trkpt><trkpt lat="43.70934891099853" lon="3.700791215311017"><ele>178.0</ele><time>2026-04-28T08:07:04.974Z</time></trkpt><trkpt lat="43.70940900872225" lon="3.700725053083055"><ele>178.0</ele><time>2026-04-28T08:07:08.974Z</time></trkpt><trkpt lat="43.70947228295719" lon="3.7006775209368485"><ele>178.0</ele><time>2026-04-28T08:07:11.974Z</time></trkpt><trkpt lat="43.70953016356675" lon="3.70060612237457"><ele>177.99999999999997</ele><time>2026-04-28T08:07:15.974Z</time></trkpt><trkpt lat="43.709579019361136" lon="3.7005484231269183"><ele>178.0</ele><time>2026-04-28T08:07:18.974Z</time></trkpt><trkpt lat="43.70963850402946" lon="3.700478541868379"><ele>179.33333333333334</ele><time>2026-04-28T08:07:22.974Z</time></trkpt><trkpt lat="43.709702328269906" lon="3.700442915811707"><ele>180.66666666666669</ele><time>2026-04-28T08:07:26.974Z</time></trkpt><trkpt lat="43.70975963669335" lon="3.7003913918344247"><ele>182.0</ele><time>2026-04-28T08:07:30.974Z</time></trkpt><trkpt lat="43.70981091581801" lon="3.700325416044063"><ele>183.33333333333334</ele><time>2026-04-28T08:07:33.974Z</time></trkpt><trkpt lat="43.709861904328235" lon="3.7002337939601304"><ele>184.66666666666666</ele><time>2026-04-28T08:07:37.974Z</time></trkpt><trkpt lat="43.709874904877836" lon="3.70013879031296"><ele>186.0</ele><time>2026-04-28T08:07:40.974Z</time></trkpt><trkpt lat="43.70990619201549" lon="3.700022695466651"><ele>186.00000000000003</ele><time>2026-04-28T08:07:43.974Z</time></trkpt><trkpt lat="43.70993262594568" lon="3.6999277271913296"><ele>186.0</ele><time>2026-04-28T08:07:47.974Z</time></trkpt><trkpt lat="43.709981596206056" lon="3.6998655702737384"><ele>186.0</ele><time>2026-04-28T08:07:50.974Z</time></trkpt><trkpt lat="43.71002267444642" lon="3.6997844009393366"><ele>186.0</ele><time>2026-04-28T08:07:53.973Z</time></trkpt><trkpt lat="43.71005682812793" lon="3.6997032411641597"><ele>186.0</ele><time>2026-04-28T08:07:56.973Z</time></trkpt><trkpt lat="43.71008548580719" lon="3.6996187193324284"><ele>186.00000000000003</ele><time>2026-04-28T08:07:59.973Z</time></trkpt><trkpt lat="43.71012052583168" lon="3.6995191450430145"><ele>186.0</ele><time>2026-04-28T08:08:02.973Z</time></trkpt><trkpt lat="43.71014575798427" lon="3.699439009263593"><ele>186.5</ele><time>2026-04-28T08:08:04.973Z</time></trkpt><trkpt lat="43.71020780633781" lon="3.6993551895106824"><ele>187.0</ele><time>2026-04-28T08:08:08.973Z</time></trkpt><trkpt lat="43.710244056949826" lon="3.699273772796761"><ele>187.5</ele><time>2026-04-28T08:08:14.973Z</time></trkpt><trkpt lat="43.71031470919881" lon="3.699167719321981"><ele>188.0</ele><time>2026-04-28T08:08:34.974Z</time></trkpt><trkpt lat="43.710391036047" lon="3.6991629010634584"><ele>188.5</ele><time>2026-04-28T08:08:38.974Z</time></trkpt><trkpt lat="43.71047491256886" lon="3.6991391095838058"><ele>189.0</ele><time>2026-04-28T08:08:42.974Z</time></trkpt><trkpt lat="43.71054136875521" lon="3.6991179013071034"><ele>189.14285714285714</ele><time>2026-04-28T08:08:45.974Z</time></trkpt><trkpt lat="43.71060431249673" lon="3.6990757706858024"><ele>189.28571428571428</ele><time>2026-04-28T08:08:48.974Z</time></trkpt><trkpt lat="43.71066715991949" lon="3.6990486314015345"><ele>189.42857142857144</ele><time>2026-04-28T08:08:51.974Z</time></trkpt><trkpt lat="43.71073677025951" lon="3.6990153545530413"><ele>189.57142857142856</ele><time>2026-04-28T08:08:55.974Z</time></trkpt><trkpt lat="43.7108068734358" lon="3.6989847738474824"><ele>189.71428571428572</ele><time>2026-04-28T08:08:59.974Z</time></trkpt><trkpt lat="43.71088366778495" lon="3.6989732291516826"><ele>189.85714285714286</ele><time>2026-04-28T08:09:03.974Z</time></trkpt><trkpt lat="43.710951970288825" lon="3.6989781838846807"><ele>190.0</ele><time>2026-04-28T08:09:06.974Z</time></trkpt><trkpt lat="43.71099756446564" lon="3.6990392783068238"><ele>190.0</ele><time>2026-04-28T08:09:09.974Z</time></trkpt><trkpt lat="43.71104805091111" lon="3.699140669623861"><ele>190.0</ele><time>2026-04-28T08:09:13.974Z</time></trkpt><trkpt lat="43.7110741851443" lon="3.699224272607871"><ele>190.0</ele><time>2026-04-28T08:09:16.974Z</time></trkpt><trkpt lat="43.711107494684796" lon="3.6993120549674736"><ele>190.0</ele><time>2026-04-28T08:09:19.974Z</time></trkpt><trkpt lat="43.71114335252502" lon="3.6994125249516774"><ele>190.0</ele><time>2026-04-28T08:09:22.974Z</time></trkpt><trkpt lat="43.71117782895699" lon="3.699495747815813"><ele>190.0</ele><time>2026-04-28T08:09:25.974Z</time></trkpt><trkpt lat="43.71124003634924" lon="3.6995722317663544"><ele>190.14285714285714</ele><time>2026-04-28T08:09:28.974Z</time></trkpt><trkpt lat="43.71130964566337" lon="3.699593492759145"><ele>190.28571428571428</ele><time>2026-04-28T08:09:31.974Z</time></trkpt><trkpt lat="43.71137783099848" lon="3.699586758679348"><ele>190.42857142857144</ele><time>2026-04-28T08:09:34.974Z</time></trkpt><trkpt lat="43.71144804269011" lon="3.699567817832825"><ele>190.57142857142856</ele><time>2026-04-28T08:09:36.973Z</time></trkpt><trkpt lat="43.71151738824949" lon="3.699551433165653"><ele>190.7142857142857</ele><time>2026-04-28T08:09:39.973Z</time></trkpt><trkpt lat="43.7115861560292" lon="3.6995299244459168"><ele>190.85714285714286</ele><time>2026-04-28T08:09:42.973Z</time></trkpt><trkpt lat="43.711651660434974" lon="3.6995116954564526"><ele>191.0</ele><time>2026-04-28T08:09:44.973Z</time></trkpt><trkpt lat="43.71171309687036" lon="3.699439182023212"><ele>191.5</ele><time>2026-04-28T08:09:47.973Z</time></trkpt><trkpt lat="43.71176973400819" lon="3.6993863860107297"><ele>192.0</ele><time>2026-04-28T08:09:50.973Z</time></trkpt><trkpt lat="43.71182524956941" lon="3.6993411724169785"><ele>192.5</ele><time>2026-04-28T08:09:53.973Z</time></trkpt><trkpt lat="43.711900477153016" lon="3.6992892374054027"><ele>193.0</ele><time>2026-04-28T08:09:56.973Z</time></trkpt><trkpt lat="43.711967669177554" lon="3.699254524269781"><ele>193.50000000000003</ele><time>2026-04-28T08:10:02.973Z</time></trkpt><trkpt lat="43.71206129515869" lon="3.69923810142517"><ele>194.0</ele><time>2026-04-28T08:10:52.973Z</time></trkpt><trkpt lat="43.71209948192642" lon="3.699161317135762"><ele>195.33333333333334</ele><time>2026-04-28T08:11:00.973Z</time></trkpt><trkpt lat="43.712146300428024" lon="3.6990687606684"><ele>196.66666666666669</ele><time>2026-04-28T08:11:04.973Z</time></trkpt><trkpt lat="43.71219896656777" lon="3.6990074021620303"><ele>198.0</ele><time>2026-04-28T08:11:08.973Z</time></trkpt><trkpt lat="43.712239759937866" lon="3.698932956628823"><ele>199.33333333333331</ele><time>2026-04-28T08:11:11.973Z</time></trkpt><trkpt lat="43.71228492140676" lon="3.6988486932032525"><ele>200.66666666666666</ele><time>2026-04-28T08:11:15.973Z</time></trkpt><trkpt lat="43.71233553073243" lon="3.698757971240618"><ele>202.0</ele><time>2026-04-28T08:11:19.972Z</time></trkpt><trkpt lat="43.71238965932844" lon="3.6986878247000092"><ele>202.0</ele><time>2026-04-28T08:11:22.972Z</time></trkpt><trkpt lat="43.71244758270522" lon="3.698615970309988"><ele>202.0</ele><time>2026-04-28T08:11:26.972Z</time></trkpt><trkpt lat="43.71250736528054" lon="3.698580344650232"><ele>202.0</ele><time>2026-04-28T08:11:30.972Z</time></trkpt><trkpt lat="43.71256796194195" lon="3.6985518847831704"><ele>202.0</ele><time>2026-04-28T08:11:33.972Z</time></trkpt><trkpt lat="43.712632741709875" lon="3.6985232157301517"><ele>202.0</ele><time>2026-04-28T08:11:36.972Z</time></trkpt><trkpt lat="43.712690604730454" lon="3.698488551682891"><ele>202.0</ele><time>2026-04-28T08:11:39.972Z</time></trkpt><trkpt lat="43.71275678902538" lon="3.6984811931617467"><ele>202.0</ele><time>2026-04-28T08:11:42.972Z</time></trkpt><trkpt lat="43.7128212228583" lon="3.698455850354345"><ele>203.2</ele><time>2026-04-28T08:11:45.972Z</time></trkpt><trkpt lat="43.71295208853125" lon="3.698455239999419"><ele>204.39999999999998</ele><time>2026-04-28T08:11:49.972Z</time></trkpt><trkpt lat="43.713015599785976" lon="3.698452588131314"><ele>205.60000000000002</ele><time>2026-04-28T08:11:52.972Z</time></trkpt><trkpt lat="43.71311064008564" lon="3.698444290985303"><ele>206.8</ele><time>2026-04-28T08:11:56.972Z</time></trkpt><trkpt lat="43.71319000834532" lon="3.6984295423133893"><ele>208.0</ele><time>2026-04-28T08:12:00.972Z</time></trkpt><trkpt lat="43.71327578368044" lon="3.698425611964142"><ele>208.0</ele><time>2026-04-28T08:12:03.972Z</time></trkpt><trkpt lat="43.713440325225726" lon="3.6984325142033727"><ele>208.0</ele><time>2026-04-28T08:12:10.972Z</time></trkpt><trkpt lat="43.71353016018223" lon="3.6984586048012535"><ele>208.0</ele><time>2026-04-28T08:12:14.972Z</time></trkpt><trkpt lat="43.71361074669523" lon="3.698491018502926"><ele>208.0</ele><time>2026-04-28T08:12:17.972Z</time></trkpt><trkpt lat="43.71369248096381" lon="3.6985077459331377"><ele>208.0</ele><time>2026-04-28T08:12:20.972Z</time></trkpt><trkpt lat="43.71377083296066" lon="3.69854818276589"><ele>209.16666666666666</ele><time>2026-04-28T08:12:23.972Z</time></trkpt><trkpt lat="43.71383524174482" lon="3.69860171277014"><ele>210.33333333333331</ele><time>2026-04-28T08:12:26.972Z</time></trkpt><trkpt lat="43.71389825343448" lon="3.6986610676913054"><ele>211.5</ele><time>2026-04-28T08:12:29.972Z</time></trkpt><trkpt lat="43.71397154697893" lon="3.698699539291632"><ele>212.66666666666669</ele><time>2026-04-28T08:12:32.972Z</time></trkpt><trkpt lat="43.71403426291917" lon="3.6987534508928026"><ele>213.83333333333334</ele><time>2026-04-28T08:12:35.972Z</time></trkpt><trkpt lat="43.71409761686431" lon="3.6988135220301075"><ele>215.0</ele><time>2026-04-28T08:12:38.973Z</time></trkpt><trkpt lat="43.7141650137147" lon="3.6988940466284976"><ele>215.00000000000003</ele><time>2026-04-28T08:12:42.973Z</time></trkpt><trkpt lat="43.714227448000436" lon="3.6989474584174866"><ele>215.0</ele><time>2026-04-28T08:12:45.972Z</time></trkpt><trkpt lat="43.71430472073742" lon="3.698975524102493"><ele>215.0</ele><time>2026-04-28T08:12:48.973Z</time></trkpt><trkpt lat="43.7143715684917" lon="3.6989987309084116"><ele>215.0</ele><time>2026-04-28T08:12:50.973Z</time></trkpt><trkpt lat="43.714449973231396" lon="3.6990517491623818"><ele>215.00000000000003</ele><time>2026-04-28T08:12:54.972Z</time></trkpt><trkpt lat="43.71451513431155" lon="3.699085363048567"><ele>215.0</ele><time>2026-04-28T08:12:57.972Z</time></trkpt><trkpt lat="43.714576916818544" lon="3.6991421458649163"><ele>215.16666666666669</ele><time>2026-04-28T08:13:00.972Z</time></trkpt><trkpt lat="43.71463345533868" lon="3.6991867064193387"><ele>215.33333333333334</ele><time>2026-04-28T08:13:02.972Z</time></trkpt><trkpt lat="43.71470971218935" lon="3.699239022737745"><ele>215.5</ele><time>2026-04-28T08:13:05.972Z</time></trkpt><trkpt lat="43.714786594259046" lon="3.6992707923367356"><ele>215.66666666666669</ele><time>2026-04-28T08:13:08.972Z</time></trkpt><trkpt lat="43.71486694070803" lon="3.69930807278515"><ele>215.83333333333334</ele><time>2026-04-28T08:13:11.972Z</time></trkpt><trkpt lat="43.71493488535819" lon="3.699371900126398"><ele>216.0</ele><time>2026-04-28T08:13:14.972Z</time></trkpt><trkpt lat="43.714994659190644" lon="3.6994192927996"><ele>217.5</ele><time>2026-04-28T08:13:17.972Z</time></trkpt><trkpt lat="43.71508493827555" lon="3.699435187042891"><ele>219.0</ele><time>2026-04-28T08:13:20.972Z</time></trkpt><trkpt lat="43.715149723592674" lon="3.6994420903311918"><ele>220.5</ele><time>2026-04-28T08:13:23.972Z</time></trkpt><trkpt lat="43.715231764340054" lon="3.6994895602690923"><ele>222.0</ele><time>2026-04-28T08:13:26.972Z</time></trkpt><trkpt lat="43.71529033071271" lon="3.6995307954714396"><ele>223.5</ele><time>2026-04-28T08:13:28.972Z</time></trkpt><trkpt lat="43.71538762873837" lon="3.69953866181601"><ele>225.0</ele><time>2026-04-28T08:13:32.972Z</time></trkpt><trkpt lat="43.715496045733325" lon="3.6995475729107925"><ele>225.0</ele><time>2026-04-28T08:13:36.972Z</time></trkpt><trkpt lat="43.71565885736373" lon="3.699543738615341"><ele>225.0</ele><time>2026-04-28T08:13:42.972Z</time></trkpt><trkpt lat="43.71571680165675" lon="3.6995044668500667"><ele>225.0</ele><time>2026-04-28T08:13:44.972Z</time></trkpt><trkpt lat="43.71579765835101" lon="3.699475140142404"><ele>225.0</ele><time>2026-04-28T08:13:47.972Z</time></trkpt><trkpt lat="43.715870880618695" lon="3.6994251736957495"><ele>225.0</ele><time>2026-04-28T08:13:50.972Z</time></trkpt><trkpt lat="43.71592734190022" lon="3.6993718865618477"><ele>224.0</ele><time>2026-04-28T08:13:53.972Z</time></trkpt><trkpt lat="43.71600166332802" lon="3.699335671999136"><ele>223.0</ele><time>2026-04-28T08:13:56.972Z</time></trkpt><trkpt lat="43.71607628158237" lon="3.699293731480872"><ele>222.0</ele><time>2026-04-28T08:13:59.972Z</time></trkpt><trkpt lat="43.716144672257585" lon="3.6992464446203233"><ele>221.0</ele><time>2026-04-28T08:14:02.972Z</time></trkpt><trkpt lat="43.716205845911645" lon="3.6992041832858837"><ele>220.0</ele><time>2026-04-28T08:14:05.972Z</time></trkpt><trkpt lat="43.716266164970484" lon="3.699148014028322"><ele>219.0</ele><time>2026-04-28T08:14:08.972Z</time></trkpt><trkpt lat="43.7163266995553" lon="3.6990754174932783"><ele>218.85714285714286</ele><time>2026-04-28T08:14:11.972Z</time></trkpt><trkpt lat="43.716376684559165" lon="3.6990186883837177"><ele>218.7142857142857</ele><time>2026-04-28T08:14:14.972Z</time></trkpt><trkpt lat="43.71642086961639" lon="3.6989526777488133"><ele>218.57142857142856</ele><time>2026-04-28T08:14:17.971Z</time></trkpt><trkpt lat="43.71647411235474" lon="3.6989046376647536"><ele>218.42857142857144</ele><time>2026-04-28T08:14:20.971Z</time></trkpt><trkpt lat="43.716535920900355" lon="3.698863333982988"><ele>218.28571428571428</ele><time>2026-04-28T08:14:23.971Z</time></trkpt><trkpt lat="43.71661666993457" lon="3.6988348314506165"><ele>218.14285714285714</ele><time>2026-04-28T08:14:26.971Z</time></trkpt><trkpt lat="43.71669719075903" lon="3.6988116096590837"><ele>218.0</ele><time>2026-04-28T08:14:29.971Z</time></trkpt><trkpt lat="43.71676406060492" lon="3.698806669181773"><ele>218.0</ele><time>2026-04-28T08:14:31.971Z</time></trkpt><trkpt lat="43.71684156656471" lon="3.698788133032944"><ele>218.0</ele><time>2026-04-28T08:14:34.971Z</time></trkpt><trkpt lat="43.71703699002355" lon="3.698817200325905"><ele>218.0</ele><time>2026-04-28T08:14:42.971Z</time></trkpt><trkpt lat="43.71711263236031" lon="3.6988693206494885"><ele>218.0</ele><time>2026-04-28T08:14:46.971Z</time></trkpt><trkpt lat="43.717175144361995" lon="3.6989290376978827"><ele>218.0</ele><time>2026-04-28T08:14:49.972Z</time></trkpt><trkpt lat="43.717232805963086" lon="3.6989834990309287"><ele>218.14285714285714</ele><time>2026-04-28T08:14:52.972Z</time></trkpt><trkpt lat="43.717294700848676" lon="3.6990194523800595"><ele>218.28571428571428</ele><time>2026-04-28T08:14:55.972Z</time></trkpt><trkpt lat="43.71735777667877" lon="3.69904312575124"><ele>218.42857142857144</ele><time>2026-04-28T08:14:58.971Z</time></trkpt><trkpt lat="43.71741419483525" lon="3.6990947624269377"><ele>218.57142857142856</ele><time>2026-04-28T08:15:01.971Z</time></trkpt><trkpt lat="43.71744818957486" lon="3.699174802156612"><ele>218.7142857142857</ele><time>2026-04-28T08:15:04.971Z</time></trkpt><trkpt lat="43.71745638659541" lon="3.6992812589916646"><ele>218.85714285714286</ele><time>2026-04-28T08:15:07.971Z</time></trkpt><trkpt lat="43.71748541813012" lon="3.6993841421814957"><ele>219.0</ele><time>2026-04-28T08:15:10.971Z</time></trkpt><trkpt lat="43.717500166849966" lon="3.699490029943003"><ele>219.14285714285714</ele><time>2026-04-28T08:15:13.971Z</time></trkpt><trkpt lat="43.717499502459106" lon="3.6995962150941724"><ele>219.28571428571428</ele><time>2026-04-28T08:15:16.971Z</time></trkpt><trkpt lat="43.7175338620417" lon="3.699683830345472"><ele>219.42857142857142</ele><time>2026-04-28T08:15:19.971Z</time></trkpt><trkpt lat="43.71758437949537" lon="3.6997691226337155"><ele>219.57142857142856</ele><time>2026-04-28T08:15:22.971Z</time></trkpt><trkpt lat="43.71764834055954" lon="3.699822181419357"><ele>219.71428571428572</ele><time>2026-04-28T08:15:26.971Z</time></trkpt><trkpt lat="43.71770758518142" lon="3.699865011078132"><ele>219.85714285714283</ele><time>2026-04-28T08:15:29.971Z</time></trkpt><trkpt lat="43.71776728690261" lon="3.6999301730068948"><ele>220.0</ele><time>2026-04-28T08:15:32.971Z</time></trkpt><trkpt lat="43.717834410855595" lon="3.6999475888393922"><ele>219.99999999999997</ele><time>2026-04-28T08:15:35.971Z</time></trkpt><trkpt lat="43.71789584387546" lon="3.699976402561775"><ele>220.0</ele><time>2026-04-28T08:15:37.971Z</time></trkpt><trkpt lat="43.71795619286186" lon="3.700037552544291"><ele>220.0</ele><time>2026-04-28T08:15:40.971Z</time></trkpt><trkpt lat="43.718004875615556" lon="3.700112475032619"><ele>220.0</ele><time>2026-04-28T08:15:43.971Z</time></trkpt><trkpt lat="43.71806182954795" lon="3.7001831474466846"><ele>220.0</ele><time>2026-04-28T08:15:47.971Z</time></trkpt><trkpt lat="43.71813385746807" lon="3.7002155943828"><ele>219.99999999999997</ele><time>2026-04-28T08:15:52.971Z</time></trkpt><trkpt lat="43.71815960346743" lon="3.700298541990893"><ele>220.0</ele><time>2026-04-28T08:15:58.971Z</time></trkpt><trkpt lat="43.71818181253503" lon="3.700397574752988"><ele>220.49999999999997</ele><time>2026-04-28T08:17:15.971Z</time></trkpt><trkpt lat="43.71820685268231" lon="3.700493420142238"><ele>221.0</ele><time>2026-04-28T08:17:20.971Z</time></trkpt><trkpt lat="43.71823153812186" lon="3.7006093686288115"><ele>221.5</ele><time>2026-04-28T08:17:25.971Z</time></trkpt><trkpt lat="43.71824974714598" lon="3.700697943009804"><ele>222.0</ele><time>2026-04-28T08:17:28.971Z</time></trkpt><trkpt lat="43.71826475388266" lon="3.7008140493298867"><ele>222.49999999999997</ele><time>2026-04-28T08:17:33.971Z</time></trkpt><trkpt lat="43.718292981637894" lon="3.7009164783527817"><ele>223.0</ele><time>2026-04-28T08:17:36.971Z</time></trkpt><trkpt lat="43.71828706657659" lon="3.7010295761631755"><ele>223.42857142857142</ele><time>2026-04-28T08:17:39.971Z</time></trkpt><trkpt lat="43.71829378262648" lon="3.7011249999411207"><ele>223.85714285714283</ele><time>2026-04-28T08:17:42.971Z</time></trkpt><trkpt lat="43.71831434084475" lon="3.701209600027194"><ele>224.28571428571428</ele><time>2026-04-28T08:17:45.971Z</time></trkpt><trkpt lat="43.718349669744036" lon="3.701291804972506"><ele>224.71428571428572</ele><time>2026-04-28T08:17:48.971Z</time></trkpt><trkpt lat="43.7183700529956" lon="3.701397275517845"><ele>225.14285714285714</ele><time>2026-04-28T08:17:52.97Z</time></trkpt><trkpt lat="43.718374324670584" lon="3.7014909793558965"><ele>225.57142857142858</ele><time>2026-04-28T08:17:55.97Z</time></trkpt><trkpt lat="43.71839189000684" lon="3.7016063329280877"><ele>226.0</ele><time>2026-04-28T08:17:59.97Z</time></trkpt><trkpt lat="43.718384813715645" lon="3.7016954327691973"><ele>225.99999999999997</ele><time>2026-04-28T08:18:02.97Z</time></trkpt><trkpt lat="43.71839006265705" lon="3.701800740685859"><ele>226.0</ele><time>2026-04-28T08:18:05.97Z</time></trkpt><trkpt lat="43.71841210172481" lon="3.7019099697258606"><ele>226.0</ele><time>2026-04-28T08:18:09.97Z</time></trkpt><trkpt lat="43.71843948889496" lon="3.7019952265575853"><ele>226.0</ele><time>2026-04-28T08:18:12.97Z</time></trkpt><trkpt lat="43.71847681939107" lon="3.702089036495389"><ele>225.99999999999997</ele><time>2026-04-28T08:18:15.97Z</time></trkpt><trkpt lat="43.71852504122722" lon="3.7021726201470178"><ele>226.0</ele><time>2026-04-28T08:18:18.97Z</time></trkpt><trkpt lat="43.71856955726356" lon="3.702248254194054"><ele>225.99999999999997</ele><time>2026-04-28T08:18:21.97Z</time></trkpt><trkpt lat="43.71860742398298" lon="3.7023439636363205"><ele>226.0</ele><time>2026-04-28T08:18:24.97Z</time></trkpt><trkpt lat="43.718638545111865" lon="3.7024486745675205"><ele>226.0</ele><time>2026-04-28T08:18:28.97Z</time></trkpt><trkpt lat="43.71865706412985" lon="3.702549400727239"><ele>226.0</ele><time>2026-04-28T08:18:31.97Z</time></trkpt><trkpt lat="43.7186792426157" lon="3.7026723214730923"><ele>225.99999999999997</ele><time>2026-04-28T08:18:35.97Z</time></trkpt><trkpt lat="43.71869726302965" lon="3.7027626835963914"><ele>226.0</ele><time>2026-04-28T08:18:38.97Z</time></trkpt><trkpt lat="43.71871410623646" lon="3.702858290940285"><ele>226.0</ele><time>2026-04-28T08:18:41.97Z</time></trkpt><trkpt lat="43.718730587019465" lon="3.702964614021738"><ele>226.0</ele><time>2026-04-28T08:18:44.97Z</time></trkpt><trkpt lat="43.718727814372386" lon="3.7030793987802038"><ele>226.0</ele><time>2026-04-28T08:18:47.97Z</time></trkpt><trkpt lat="43.71871127138478" lon="3.703172927648067"><ele>226.0</ele><time>2026-04-28T08:18:50.97Z</time></trkpt><trkpt lat="43.718691541488205" lon="3.703267926475179"><ele>226.0</ele><time>2026-04-28T08:18:54.97Z</time></trkpt><trkpt lat="43.71873865503021" lon="3.7033476262026603"><ele>226.0</ele><time>2026-04-28T08:19:00.971Z</time></trkpt><trkpt lat="43.71880497140896" lon="3.7033801613201636"><ele>226.0</ele><time>2026-04-28T08:19:05.969Z</time></trkpt><trkpt lat="43.718877251612746" lon="3.703376092532242"><ele>225.99999999999997</ele><time>2026-04-28T08:19:09.969Z</time></trkpt><trkpt lat="43.71895133809141" lon="3.703403359318325"><ele>226.0</ele><time>2026-04-28T08:19:13.969Z</time></trkpt><trkpt lat="43.71901929693877" lon="3.703448089869221"><ele>226.0</ele><time>2026-04-28T08:19:17.969Z</time></trkpt><trkpt lat="43.71909846866361" lon="3.7034618679608817"><ele>226.0</ele><time>2026-04-28T08:19:20.969Z</time></trkpt><trkpt lat="43.71917134168751" lon="3.703460735201663"><ele>225.99999999999997</ele><time>2026-04-28T08:19:23.969Z</time></trkpt><trkpt lat="43.719254762553454" lon="3.7034641331042297"><ele>226.0</ele><time>2026-04-28T08:19:27.969Z</time></trkpt><trkpt lat="43.71932734761752" lon="3.703464200036793"><ele>226.83333333333331</ele><time>2026-04-28T08:19:30.969Z</time></trkpt><trkpt lat="43.719410575381104" lon="3.7034830942403794"><ele>227.66666666666666</ele><time>2026-04-28T08:19:34.969Z</time></trkpt><trkpt lat="43.719476139458195" lon="3.7034894761892327"><ele>228.5</ele><time>2026-04-28T08:19:37.969Z</time></trkpt><trkpt lat="43.71955170995184" lon="3.703461952162546"><ele>229.33333333333331</ele><time>2026-04-28T08:19:41.969Z</time></trkpt><trkpt lat="43.719627462963054" lon="3.7034554396679895"><ele>230.16666666666666</ele><time>2026-04-28T08:19:44.969Z</time></trkpt><trkpt lat="43.719694598602324" lon="3.703449317486254"><ele>231.0</ele><time>2026-04-28T08:19:47.969Z</time></trkpt><trkpt lat="43.71977821398552" lon="3.703419349306154"><ele>231.0</ele><time>2026-04-28T08:19:51.969Z</time></trkpt><trkpt lat="43.719853764827164" lon="3.703403696953259"><ele>231.0</ele><time>2026-04-28T08:19:55.968Z</time></trkpt><trkpt lat="43.71993706457713" lon="3.703365136418034"><ele>231.0</ele><time>2026-04-28T08:19:58.968Z</time></trkpt><trkpt lat="43.72000855454977" lon="3.703338046432957"><ele>231.0</ele><time>2026-04-28T08:20:01.968Z</time></trkpt><trkpt lat="43.720067079033264" lon="3.703299789903217"><ele>231.0</ele><time>2026-04-28T08:20:04.968Z</time></trkpt><trkpt lat="43.72014848560567" lon="3.7032775028096174"><ele>231.0</ele><time>2026-04-28T08:20:08.968Z</time></trkpt><trkpt lat="43.720223217844584" lon="3.703233788061295"><ele>231.42857142857144</ele><time>2026-04-28T08:20:12.968Z</time></trkpt><trkpt lat="43.72028633265447" lon="3.7032087726231104"><ele>231.85714285714286</ele><time>2026-04-28T08:20:15.968Z</time></trkpt><trkpt lat="43.72037402200778" lon="3.703170866030857"><ele>232.28571428571428</ele><time>2026-04-28T08:20:19.968Z</time></trkpt><trkpt lat="43.720435837730356" lon="3.7031262935305262"><ele>232.71428571428572</ele><time>2026-04-28T08:20:22.968Z</time></trkpt><trkpt lat="43.720498526547416" lon="3.7030709825839727"><ele>233.14285714285717</ele><time>2026-04-28T08:20:25.968Z</time></trkpt><trkpt lat="43.72055760968569" lon="3.7030163495807065"><ele>233.57142857142858</ele><time>2026-04-28T08:20:28.968Z</time></trkpt><trkpt lat="43.720625387117096" lon="3.7029729153430995"><ele>234.0</ele><time>2026-04-28T08:20:31.968Z</time></trkpt><trkpt lat="43.72068422105524" lon="3.702910046833675"><ele>234.0</ele><time>2026-04-28T08:20:35.968Z</time></trkpt><trkpt lat="43.72074896251686" lon="3.7028802442386457"><ele>234.00000000000003</ele><time>2026-04-28T08:20:39.968Z</time></trkpt><trkpt lat="43.72081458850751" lon="3.702851159068014"><ele>234.0</ele><time>2026-04-28T08:20:42.968Z</time></trkpt><trkpt lat="43.72088749598359" lon="3.7028389694642057"><ele>234.0</ele><time>2026-04-28T08:20:45.968Z</time></trkpt><trkpt lat="43.72096155247362" lon="3.7028290090537115"><ele>234.00000000000003</ele><time>2026-04-28T08:20:49.968Z</time></trkpt><trkpt lat="43.7210228826952" lon="3.702795505442826"><ele>234.0</ele><time>2026-04-28T08:20:52.968Z</time></trkpt><trkpt lat="43.72109296348467" lon="3.7027555971310413"><ele>234.0</ele><time>2026-04-28T08:20:55.968Z</time></trkpt><trkpt lat="43.72116428668126" lon="3.702717920393075"><ele>234.14285714285717</ele><time>2026-04-28T08:20:58.968Z</time></trkpt><trkpt lat="43.72122333728351" lon="3.7026777401735207"><ele>234.2857142857143</ele><time>2026-04-28T08:21:01.968Z</time></trkpt><trkpt lat="43.72128640063513" lon="3.70266884286322"><ele>234.42857142857144</ele><time>2026-04-28T08:21:04.968Z</time></trkpt><trkpt lat="43.72135235927832" lon="3.702637294131167"><ele>234.57142857142856</ele><time>2026-04-28T08:21:07.969Z</time></trkpt><trkpt lat="43.72142242187278" lon="3.7026434531482533"><ele>234.7142857142857</ele><time>2026-04-28T08:21:10.968Z</time></trkpt><trkpt lat="43.72150334059648" lon="3.702652175845911"><ele>234.85714285714283</ele><time>2026-04-28T08:21:14.968Z</time></trkpt><trkpt lat="43.72156291366847" lon="3.702611811746103"><ele>235.0</ele><time>2026-04-28T08:21:17.968Z</time></trkpt><trkpt lat="43.72163045084309" lon="3.702584621947846"><ele>235.0</ele><time>2026-04-28T08:21:20.968Z</time></trkpt><trkpt lat="43.72171099367982" lon="3.702591842072465"><ele>234.99999999999997</ele><time>2026-04-28T08:21:23.968Z</time></trkpt><trkpt lat="43.72177430297504" lon="3.702632262567785"><ele>235.0</ele><time>2026-04-28T08:21:26.968Z</time></trkpt><trkpt lat="43.72185860782454" lon="3.702640227592238"><ele>235.0</ele><time>2026-04-28T08:21:30.968Z</time></trkpt><trkpt lat="43.72192204217445" lon="3.7026522863726052"><ele>234.99999999999997</ele><time>2026-04-28T08:21:33.968Z</time></trkpt><trkpt lat="43.7219870080753" lon="3.7026943426294014"><ele>235.0</ele><time>2026-04-28T08:21:36.968Z</time></trkpt><trkpt lat="43.72205851758574" lon="3.7027372845269886"><ele>235.0</ele><time>2026-04-28T08:21:39.967Z</time></trkpt><trkpt lat="43.72212896366356" lon="3.702748997612122"><ele>235.33333333333331</ele><time>2026-04-28T08:21:42.967Z</time></trkpt><trkpt lat="43.72219452312552" lon="3.7027991465464036"><ele>235.66666666666666</ele><time>2026-04-28T08:21:45.967Z</time></trkpt><trkpt lat="43.72226337844195" lon="3.702831956218547"><ele>236.0</ele><time>2026-04-28T08:21:48.967Z</time></trkpt><trkpt lat="43.72233326741591" lon="3.702842537558582"><ele>236.33333333333331</ele><time>2026-04-28T08:21:51.967Z</time></trkpt><trkpt lat="43.72241775566172" lon="3.7028495921692497"><ele>236.66666666666666</ele><time>2026-04-28T08:21:54.967Z</time></trkpt><trkpt lat="43.72250252537694" lon="3.7028344760374066"><ele>237.0</ele><time>2026-04-28T08:21:57.967Z</time></trkpt><trkpt lat="43.7225658974859" lon="3.702822470040384"><ele>237.0</ele><time>2026-04-28T08:21:59.967Z</time></trkpt><trkpt lat="43.722682248697915" lon="3.70280888884792"><ele>237.0</ele><time>2026-04-28T08:22:03.967Z</time></trkpt><trkpt lat="43.72275434195296" lon="3.7028066487473072"><ele>237.0</ele><time>2026-04-28T08:22:06.967Z</time></trkpt><trkpt lat="43.7228236091677" lon="3.7028016574818508"><ele>237.0</ele><time>2026-04-28T08:22:08.967Z</time></trkpt><trkpt lat="43.722888550248044" lon="3.7027725638727795"><ele>237.0</ele><time>2026-04-28T08:22:10.967Z</time></trkpt><trkpt lat="43.72295056943363" lon="3.702733838770803"><ele>237.0</ele><time>2026-04-28T08:22:12.967Z</time></trkpt><trkpt lat="43.723032301587835" lon="3.7026737207684826"><ele>236.71428571428567</ele><time>2026-04-28T08:22:15.967Z</time></trkpt><trkpt lat="43.72309682459469" lon="3.7026578954959883"><ele>236.42857142857142</ele><time>2026-04-28T08:22:17.967Z</time></trkpt><trkpt lat="43.72315739795584" lon="3.7026294043270753"><ele>236.1428571428571</ele><time>2026-04-28T08:22:19.967Z</time></trkpt><trkpt lat="43.7232169764442" lon="3.7025949252246306"><ele>235.85714285714283</ele><time>2026-04-28T08:22:21.967Z</time></trkpt><trkpt lat="43.72330495199761" lon="3.7025719581286967"><ele>235.57142857142856</ele><time>2026-04-28T08:22:24.967Z</time></trkpt><trkpt lat="43.72336715598792" lon="3.7025273562103855"><ele>235.28571428571428</ele><time>2026-04-28T08:22:26.967Z</time></trkpt><trkpt lat="43.72342630452491" lon="3.7024824737928856"><ele>235.0</ele><time>2026-04-28T08:22:28.967Z</time></trkpt><trkpt lat="43.72350174091633" lon="3.702446511996153"><ele>234.66666666666666</ele><time>2026-04-28T08:22:31.967Z</time></trkpt><trkpt lat="43.72358364147989" lon="3.7023882233985552"><ele>234.33333333333331</ele><time>2026-04-28T08:22:34.967Z</time></trkpt><trkpt lat="43.723660903658114" lon="3.702346988029573"><ele>234.0</ele><time>2026-04-28T08:22:37.967Z</time></trkpt><trkpt lat="43.723740723948985" lon="3.7023490086214377"><ele>233.66666666666669</ele><time>2026-04-28T08:22:40.967Z</time></trkpt><trkpt lat="43.72380389944914" lon="3.702364797213447"><ele>233.33333333333334</ele><time>2026-04-28T08:22:42.967Z</time></trkpt><trkpt lat="43.723895885428455" lon="3.7023224869981743"><ele>233.0</ele><time>2026-04-28T08:22:45.967Z</time></trkpt><trkpt lat="43.723959450295794" lon="3.702237189496632"><ele>233.00000000000003</ele><time>2026-04-28T08:22:48.967Z</time></trkpt><trkpt lat="43.72400151811831" lon="3.702151330360985"><ele>233.0</ele><time>2026-04-28T08:22:51.967Z</time></trkpt><trkpt lat="43.72406785041238" lon="3.70206420033902"><ele>233.0</ele><time>2026-04-28T08:22:54.967Z</time></trkpt><trkpt lat="43.72412456928601" lon="3.702001688984944"><ele>233.0</ele><time>2026-04-28T08:22:57.967Z</time></trkpt><trkpt lat="43.72419140016783" lon="3.701947574317843"><ele>233.00000000000003</ele><time>2026-04-28T08:23:00.966Z</time></trkpt><trkpt lat="43.724254797037474" lon="3.7018881711236267"><ele>233.0</ele><time>2026-04-28T08:23:02.966Z</time></trkpt><trkpt lat="43.724324788028916" lon="3.7018743414787845"><ele>233.57142857142858</ele><time>2026-04-28T08:23:04.966Z</time></trkpt><trkpt lat="43.7243867282386" lon="3.701828189627858"><ele>234.1428571428571</ele><time>2026-04-28T08:23:07.966Z</time></trkpt><trkpt lat="43.72445504832633" lon="3.701825553090939"><ele>234.7142857142857</ele><time>2026-04-28T08:23:10.968Z</time></trkpt><trkpt lat="43.724529516011394" lon="3.7017879718234674"><ele>235.28571428571428</ele><time>2026-04-28T08:23:13.968Z</time></trkpt><trkpt lat="43.72458630095063" lon="3.701748963797564"><ele>235.85714285714283</ele><time>2026-04-28T08:23:15.968Z</time></trkpt><trkpt lat="43.72465247734282" lon="3.70170480765821"><ele>236.4285714285714</ele><time>2026-04-28T08:23:18.967Z</time></trkpt><trkpt lat="43.724720846057544" lon="3.7016756737840506"><ele>236.99999999999997</ele><time>2026-04-28T08:23:21.967Z</time></trkpt><trkpt lat="43.724792822769444" lon="3.701647067533604"><ele>237.16666666666666</ele><time>2026-04-28T08:23:24.967Z</time></trkpt><trkpt lat="43.724860357578834" lon="3.701621584814009"><ele>237.33333333333331</ele><time>2026-04-28T08:23:26.967Z</time></trkpt><trkpt lat="43.72494337004117" lon="3.701595149952854"><ele>237.5</ele><time>2026-04-28T08:23:29.967Z</time></trkpt><trkpt lat="43.72500872860219" lon="3.701585916287184"><ele>237.66666666666666</ele><time>2026-04-28T08:23:32.967Z</time></trkpt><trkpt lat="43.725094157744024" lon="3.7015674823444358"><ele>237.83333333333331</ele><time>2026-04-28T08:23:35.967Z</time></trkpt><trkpt lat="43.72516024285542" lon="3.7015864964150147"><ele>238.0</ele><time>2026-04-28T08:23:38.967Z</time></trkpt><trkpt lat="43.72528843542782" lon="3.7015981384910064"><ele>237.99999999999997</ele><time>2026-04-28T08:23:42.967Z</time></trkpt><trkpt lat="43.72538727688765" lon="3.7015932039757926"><ele>238.0</ele><time>2026-04-28T08:23:45.967Z</time></trkpt><trkpt lat="43.725447449487" lon="3.7015673694073277"><ele>238.0</ele><time>2026-04-28T08:23:47.967Z</time></trkpt><trkpt lat="43.72553776174474" lon="3.7015458227323896"><ele>238.0</ele><time>2026-04-28T08:23:50.967Z</time></trkpt><trkpt lat="43.7256087278475" lon="3.701512930998233"><ele>237.99999999999997</ele><time>2026-04-28T08:23:53.967Z</time></trkpt><trkpt lat="43.725675716987645" lon="3.7014829791717347"><ele>238.0</ele><time>2026-04-28T08:23:55.967Z</time></trkpt><trkpt lat="43.725756964540736" lon="3.701461113142988"><ele>237.99999999999997</ele><time>2026-04-28T08:23:58.967Z</time></trkpt><trkpt lat="43.72582817871215" lon="3.7014363024738"><ele>238.0</ele><time>2026-04-28T08:24:01.967Z</time></trkpt><trkpt lat="43.72591007252602" lon="3.701408516194888"><ele>238.0</ele><time>2026-04-28T08:24:04.967Z</time></trkpt><trkpt lat="43.72598781410147" lon="3.701384850822684"><ele>238.0</ele><time>2026-04-28T08:24:07.967Z</time></trkpt><trkpt lat="43.72607526076989" lon="3.701384660952043"><ele>237.99999999999997</ele><time>2026-04-28T08:24:10.967Z</time></trkpt><trkpt lat="43.72614303118822" lon="3.7013763833945363"><ele>238.0</ele><time>2026-04-28T08:24:13.967Z</time></trkpt><trkpt lat="43.72623095496189" lon="3.7013987749110373"><ele>238.0</ele><time>2026-04-28T08:24:16.967Z</time></trkpt><trkpt lat="43.72631931786613" lon="3.701376771843338"><ele>238.0</ele><time>2026-04-28T08:24:19.967Z</time></trkpt><trkpt lat="43.72638133028042" lon="3.7013581199226113"><ele>238.0</ele><time>2026-04-28T08:24:21.967Z</time></trkpt><trkpt lat="43.72644401195753" lon="3.701323456278139"><ele>238.0</ele><time>2026-04-28T08:24:23.967Z</time></trkpt><trkpt lat="43.72650724703112" lon="3.701269660339942"><ele>238.0</ele><time>2026-04-28T08:24:26.967Z</time></trkpt><trkpt lat="43.726573386841764" lon="3.7012254244762235"><ele>238.0</ele><time>2026-04-28T08:24:29.967Z</time></trkpt><trkpt lat="43.72664375307257" lon="3.701180283092828"><ele>238.0</ele><time>2026-04-28T08:24:32.967Z</time></trkpt><trkpt lat="43.726706894733844" lon="3.7011412196230125"><ele>237.99999999999997</ele><time>2026-04-28T08:24:35.966Z</time></trkpt><trkpt lat="43.72678716191761" lon="3.7011070557067316"><ele>238.0</ele><time>2026-04-28T08:24:38.966Z</time></trkpt><trkpt lat="43.726875528112735" lon="3.7010933648689184"><ele>238.0</ele><time>2026-04-28T08:24:41.966Z</time></trkpt><trkpt lat="43.726955642724754" lon="3.7010635770741978"><ele>238.0</ele><time>2026-04-28T08:24:44.966Z</time></trkpt><trkpt lat="43.727017464750965" lon="3.7010353146625077"><ele>237.99999999999997</ele><time>2026-04-28T08:24:46.966Z</time></trkpt><trkpt lat="43.72712009419657" lon="3.700996685247865"><ele>238.0</ele><time>2026-04-28T08:24:49.966Z</time></trkpt><trkpt lat="43.72720393817082" lon="3.7009953052530657"><ele>238.33333333333331</ele><time>2026-04-28T08:24:52.966Z</time></trkpt><trkpt lat="43.72728618907969" lon="3.7010094132234457"><ele>238.66666666666666</ele><time>2026-04-28T08:24:56.966Z</time></trkpt><trkpt lat="43.72736355546476" lon="3.7010471245121446"><ele>239.0</ele><time>2026-04-28T08:25:00.966Z</time></trkpt><trkpt lat="43.72744388242769" lon="3.701081462027699"><ele>239.33333333333331</ele><time>2026-04-28T08:25:03.966Z</time></trkpt><trkpt lat="43.727512776200165" lon="3.7011251999004022"><ele>239.66666666666666</ele><time>2026-04-28T08:25:06.966Z</time></trkpt><trkpt lat="43.72759110732861" lon="3.701176614063497"><ele>240.0</ele><time>2026-04-28T08:25:09.966Z</time></trkpt><trkpt lat="43.72765223455837" lon="3.701234718691919"><ele>239.16666666666666</ele><time>2026-04-28T08:25:12.966Z</time></trkpt><trkpt lat="43.727724448317204" lon="3.701252649994084"><ele>238.33333333333331</ele><time>2026-04-28T08:25:14.968Z</time></trkpt><trkpt lat="43.72780980610531" lon="3.7012422821559015"><ele>237.5</ele><time>2026-04-28T08:25:17.968Z</time></trkpt><trkpt lat="43.7278955143184" lon="3.7012344220900886"><ele>236.66666666666666</ele><time>2026-04-28T08:25:20.967Z</time></trkpt><trkpt lat="43.7279587252858" lon="3.7012297911555554"><ele>235.83333333333331</ele><time>2026-04-28T08:25:22.967Z</time></trkpt><trkpt lat="43.72802884005215" lon="3.7011930793570196"><ele>235.0</ele><time>2026-04-28T08:25:25.967Z</time></trkpt><trkpt lat="43.728088364240335" lon="3.7011200195369254"><ele>235.66666666666666</ele><time>2026-04-28T08:25:28.967Z</time></trkpt><trkpt lat="43.7281385367515" lon="3.7010474508105093"><ele>236.33333333333331</ele><time>2026-04-28T08:25:31.967Z</time></trkpt><trkpt lat="43.728192032813766" lon="3.7009772584124767"><ele>237.0</ele><time>2026-04-28T08:25:34.967Z</time></trkpt><trkpt lat="43.72825132831098" lon="3.7009002075841777"><ele>237.66666666666669</ele><time>2026-04-28T08:25:38.967Z</time></trkpt><trkpt lat="43.728300378176094" lon="3.700845048914966"><ele>238.33333333333334</ele><time>2026-04-28T08:25:41.967Z</time></trkpt><trkpt lat="43.728365384218115" lon="3.700795026115155"><ele>239.0</ele><time>2026-04-28T08:25:44.967Z</time></trkpt><trkpt lat="43.72844101493949" lon="3.7007314232733917"><ele>239.00000000000003</ele><time>2026-04-28T08:25:47.967Z</time></trkpt><trkpt lat="43.728506156430484" lon="3.7006581656612694"><ele>239.0</ele><time>2026-04-28T08:25:50.967Z</time></trkpt><trkpt lat="43.72856927693285" lon="3.700587428312651"><ele>239.00000000000003</ele><time>2026-04-28T08:25:54.967Z</time></trkpt><trkpt lat="43.728615897463776" lon="3.700525176370826"><ele>239.00000000000003</ele><time>2026-04-28T08:25:57.967Z</time></trkpt><trkpt lat="43.72866758706603" lon="3.7004507389588013"><ele>239.0</ele><time>2026-04-28T08:26:01.967Z</time></trkpt><trkpt lat="43.728695567943674" lon="3.7003612222226057"><ele>239.00000000000003</ele><time>2026-04-28T08:26:04.967Z</time></trkpt><trkpt lat="43.72871082723939" lon="3.700262281009724"><ele>239.00000000000003</ele><time>2026-04-28T08:26:07.967Z</time></trkpt><trkpt lat="43.72866931009197" lon="3.7001685944019287"><ele>239.42857142857144</ele><time>2026-04-28T08:26:11.967Z</time></trkpt><trkpt lat="43.728613161677934" lon="3.7001030277607176"><ele>239.85714285714286</ele><time>2026-04-28T08:26:14.968Z</time></trkpt><trkpt lat="43.72853311490428" lon="3.7000762952676927"><ele>240.28571428571428</ele><time>2026-04-28T08:26:19.97Z</time></trkpt><trkpt lat="43.728463734788264" lon="3.700036982826499"><ele>240.71428571428572</ele><time>2026-04-28T08:26:23.971Z</time></trkpt><trkpt lat="43.72841130149678" lon="3.699984949495264"><ele>241.1428571428571</ele><time>2026-04-28T08:26:27.972Z</time></trkpt><trkpt lat="43.72837278581292" lon="3.699910093210155"><ele>241.57142857142856</ele><time>2026-04-28T08:26:32.972Z</time></trkpt><trkpt lat="43.72833541116315" lon="3.699822965208548"><ele>242.0</ele><time>2026-04-28T08:26:36.973Z</time></trkpt><trkpt lat="43.72830548718262" lon="3.6997305811594132"><ele>242.0</ele><time>2026-04-28T08:26:39.973Z</time></trkpt><trkpt lat="43.728293365524095" lon="3.699627690869134"><ele>241.99999999999997</ele><time>2026-04-28T08:26:43.973Z</time></trkpt><trkpt lat="43.7282767174693" lon="3.699519038347984"><ele>242.0</ele><time>2026-04-28T08:26:47.974Z</time></trkpt><trkpt lat="43.728256417158796" lon="3.699425623068183"><ele>242.0</ele><time>2026-04-28T08:26:51.974Z</time></trkpt><trkpt lat="43.728243384502534" lon="3.6993185977307417"><ele>241.99999999999997</ele><time>2026-04-28T08:26:55.974Z</time></trkpt><trkpt lat="43.72823203363191" lon="3.6992278883751912"><ele>242.0</ele><time>2026-04-28T08:26:58.974Z</time></trkpt><trkpt lat="43.728213795861976" lon="3.6991319239559197"><ele>242.0</ele><time>2026-04-28T08:27:03.974Z</time></trkpt><trkpt lat="43.72820501537722" lon="3.6990400529109344"><ele>242.66666666666669</ele><time>2026-04-28T08:27:06.974Z</time></trkpt><trkpt lat="43.7282121867019" lon="3.6989424575359835"><ele>243.33333333333334</ele><time>2026-04-28T08:27:09.974Z</time></trkpt><trkpt lat="43.728232568945664" lon="3.698838264760472"><ele>244.0</ele><time>2026-04-28T08:27:12.974Z</time></trkpt><trkpt lat="43.7282458916518" lon="3.6987316548255857"><ele>244.66666666666669</ele><time>2026-04-28T08:27:16.974Z</time></trkpt><trkpt lat="43.728273859291875" lon="3.698645714366596"><ele>245.33333333333334</ele><time>2026-04-28T08:27:19.974Z</time></trkpt><trkpt lat="43.72830228859761" lon="3.698537227847188"><ele>246.0</ele><time>2026-04-28T08:27:22.975Z</time></trkpt><trkpt lat="43.728341408517664" lon="3.6984314815205366"><ele>246.5</ele><time>2026-04-28T08:27:25.975Z</time></trkpt><trkpt lat="43.72836533853108" lon="3.698350828908243"><ele>247.0</ele><time>2026-04-28T08:27:27.975Z</time></trkpt><trkpt lat="43.72840977416934" lon="3.6982462725152514"><ele>247.5</ele><time>2026-04-28T08:27:30.976Z</time></trkpt><trkpt lat="43.728440702360416" lon="3.6981625655698394"><ele>248.0</ele><time>2026-04-28T08:27:32.975Z</time></trkpt><trkpt lat="43.72845346628112" lon="3.698060093315354"><ele>248.5</ele><time>2026-04-28T08:27:35.975Z</time></trkpt><trkpt lat="43.72845898442596" lon="3.6979399975117797"><ele>249.0</ele><time>2026-04-28T08:27:38.975Z</time></trkpt><trkpt lat="43.72846776623033" lon="3.697838787785085"><ele>249.42857142857142</ele><time>2026-04-28T08:27:41.975Z</time></trkpt><trkpt lat="43.72846556297459" lon="3.6977502799898305"><ele>249.85714285714283</ele><time>2026-04-28T08:27:43.975Z</time></trkpt><trkpt lat="43.72846634283416" lon="3.6976611492935927"><ele>250.28571428571428</ele><time>2026-04-28T08:27:46.975Z</time></trkpt><trkpt lat="43.728462823939736" lon="3.6975667038918627"><ele>250.71428571428572</ele><time>2026-04-28T08:27:48.975Z</time></trkpt><trkpt lat="43.72845885873956" lon="3.697454315481886"><ele>251.14285714285714</ele><time>2026-04-28T08:27:51.975Z</time></trkpt><trkpt lat="43.728457499178205" lon="3.6973656392643797"><ele>251.57142857142856</ele><time>2026-04-28T08:27:54.975Z</time></trkpt><trkpt lat="43.728454771076684" lon="3.6972558632271495"><ele>252.0</ele><time>2026-04-28T08:27:57.975Z</time></trkpt><trkpt lat="43.72845644798003" lon="3.6971678398156946"><ele>252.0</ele><time>2026-04-28T08:28:00.975Z</time></trkpt><trkpt lat="43.72849056735793" lon="3.6970508164736158"><ele>252.0</ele><time>2026-04-28T08:28:03.975Z</time></trkpt><trkpt lat="43.72851417059665" lon="3.6969662800638017"><ele>252.0</ele><time>2026-04-28T08:28:05.975Z</time></trkpt><trkpt lat="43.7285195334327" lon="3.6968707299790124"><ele>252.0</ele><time>2026-04-28T08:28:07.975Z</time></trkpt><trkpt lat="43.72856271598348" lon="3.6967777789455303"><ele>252.0</ele><time>2026-04-28T08:28:09.975Z</time></trkpt><trkpt lat="43.72860021083754" lon="3.696684934156767"><ele>252.0</ele><time>2026-04-28T08:28:11.975Z</time></trkpt><trkpt lat="43.72864199134102" lon="3.696589556237768"><ele>252.0</ele><time>2026-04-28T08:28:14.975Z</time></trkpt><trkpt lat="43.72862683879687" lon="3.6964981221094306"><ele>252.0</ele><time>2026-04-28T08:28:17.975Z</time></trkpt><trkpt lat="43.72856535051719" lon="3.6964533789045477"><ele>252.0</ele><time>2026-04-28T08:28:20.975Z</time></trkpt><trkpt lat="43.72849061726337" lon="3.6964267423936947"><ele>252.0</ele><time>2026-04-28T08:28:24.975Z</time></trkpt><trkpt lat="43.72842474100023" lon="3.69640402240021"><ele>252.0</ele><time>2026-04-28T08:28:27.975Z</time></trkpt><trkpt lat="43.72837054002293" lon="3.6963479403367168"><ele>252.0</ele><time>2026-04-28T08:28:31.975Z</time></trkpt><trkpt lat="43.72834325194555" lon="3.6962570750686314"><ele>252.0</ele><time>2026-04-28T08:28:34.975Z</time></trkpt><trkpt lat="43.728312754699076" lon="3.696150681368266"><ele>251.66666666666666</ele><time>2026-04-28T08:28:38.975Z</time></trkpt><trkpt lat="43.72828495226494" lon="3.6960588030410064"><ele>251.33333333333331</ele><time>2026-04-28T08:28:41.975Z</time></trkpt><trkpt lat="43.72825890862051" lon="3.6959625107829894"><ele>251.0</ele><time>2026-04-28T08:28:44.975Z</time></trkpt><trkpt lat="43.72823338008036" lon="3.69585887053843"><ele>250.66666666666666</ele><time>2026-04-28T08:28:47.975Z</time></trkpt><trkpt lat="43.728199087687514" lon="3.6957598889191874"><ele>250.33333333333331</ele><time>2026-04-28T08:28:50.975Z</time></trkpt><trkpt lat="43.72815381005042" lon="3.6956836642845294"><ele>250.0</ele><time>2026-04-28T08:28:53.975Z</time></trkpt><trkpt lat="43.728097741320695" lon="3.695605714598135"><ele>249.99999999999997</ele><time>2026-04-28T08:28:56.975Z</time></trkpt><trkpt lat="43.72804666399354" lon="3.6955342503991817"><ele>250.0</ele><time>2026-04-28T08:28:59.975Z</time></trkpt><trkpt lat="43.72799203491565" lon="3.695457477661521"><ele>250.0</ele><time>2026-04-28T08:29:02.975Z</time></trkpt><trkpt lat="43.72793793263842" lon="3.6953848014562527"><ele>250.0</ele><time>2026-04-28T08:29:05.974Z</time></trkpt><trkpt lat="43.72788362296513" lon="3.695303827830986"><ele>249.99999999999997</ele><time>2026-04-28T08:29:08.974Z</time></trkpt><trkpt lat="43.72782031496636" lon="3.695233767079265"><ele>250.0</ele><time>2026-04-28T08:29:11.974Z</time></trkpt><trkpt lat="43.72777559927472" lon="3.695170876996714"><ele>249.85714285714283</ele><time>2026-04-28T08:29:14.974Z</time></trkpt><trkpt lat="43.72773295996517" lon="3.6950971672767543"><ele>249.71428571428572</ele><time>2026-04-28T08:29:17.974Z</time></trkpt><trkpt lat="43.72767700509878" lon="3.695010417263513"><ele>249.57142857142856</ele><time>2026-04-28T08:29:21.974Z</time></trkpt><trkpt lat="43.72761897428911" lon="3.6949340349353292"><ele>249.42857142857142</ele><time>2026-04-28T08:29:24.974Z</time></trkpt><trkpt lat="43.72755506561052" lon="3.6948933850502654"><ele>249.28571428571428</ele><time>2026-04-28T08:29:27.975Z</time></trkpt><trkpt lat="43.72750095701811" lon="3.69484720235561"><ele>249.14285714285714</ele><time>2026-04-28T08:29:30.975Z</time></trkpt><trkpt lat="43.727453367572636" lon="3.6947772222191717"><ele>249.0</ele><time>2026-04-28T08:29:32.975Z</time></trkpt><trkpt lat="43.72737508338844" lon="3.6947010942451355"><ele>250.0</ele><time>2026-04-28T08:29:35.975Z</time></trkpt><trkpt lat="43.727295900394175" lon="3.694652196188549"><ele>251.0</ele><time>2026-04-28T08:29:38.975Z</time></trkpt><trkpt lat="43.72722600973847" lon="3.6946131546111016"><ele>252.0</ele><time>2026-04-28T08:29:41.974Z</time></trkpt><trkpt lat="43.727142622852874" lon="3.6945729353745844"><ele>253.0</ele><time>2026-04-28T08:29:44.974Z</time></trkpt><trkpt lat="43.727055864168825" lon="3.6945897205468565"><ele>254.0</ele><time>2026-04-28T08:29:47.974Z</time></trkpt><trkpt lat="43.7269890109861" lon="3.694643864201422"><ele>255.0</ele><time>2026-04-28T08:29:50.974Z</time></trkpt><trkpt lat="43.7269261391032" lon="3.6947301769122287"><ele>255.57142857142858</ele><time>2026-04-28T08:29:54.974Z</time></trkpt><trkpt lat="43.726869851838046" lon="3.694791800810482"><ele>256.14285714285717</ele><time>2026-04-28T08:29:57.974Z</time></trkpt><trkpt lat="43.72681384433899" lon="3.6948439656691034"><ele>256.7142857142857</ele><time>2026-04-28T08:30:01.974Z</time></trkpt><trkpt lat="43.72674714706085" lon="3.6948744510579505"><ele>257.2857142857143</ele><time>2026-04-28T08:30:04.974Z</time></trkpt><trkpt lat="43.72667417050485" lon="3.6948631941013668"><ele>257.8571428571429</ele><time>2026-04-28T08:30:08.974Z</time></trkpt><trkpt lat="43.72661361129258" lon="3.6948875163159265"><ele>258.42857142857144</ele><time>2026-04-28T08:30:14.974Z</time></trkpt><trkpt lat="43.72667837774001" lon="3.694877207005897"><ele>259.0</ele><time>2026-04-28T08:30:21.974Z</time></trkpt><trkpt lat="43.726736701217625" lon="3.694836186438201"><ele>259.0</ele><time>2026-04-28T08:30:27.974Z</time></trkpt><trkpt lat="43.72680429580074" lon="3.69480871461655"><ele>259.0</ele><time>2026-04-28T08:30:32.974Z</time></trkpt><trkpt lat="43.726873206651725" lon="3.6947409043744988"><ele>259.0</ele><time>2026-04-28T08:30:38.974Z</time></trkpt><trkpt lat="43.72694748734561" lon="3.6946435984501997"><ele>259.0</ele><time>2026-04-28T08:30:41.974Z</time></trkpt><trkpt lat="43.727007453794904" lon="3.694573574741337"><ele>259.0</ele><time>2026-04-28T08:30:43.974Z</time></trkpt><trkpt lat="43.727071961421004" lon="3.6945494240266856"><ele>259.0</ele><time>2026-04-28T08:30:46.974Z</time></trkpt><trkpt lat="43.727081150213216" lon="3.694416392188653"><ele>258.0</ele><time>2026-04-28T08:31:22.973Z</time></trkpt><trkpt lat="43.7270662769198" lon="3.694307216475384"><ele>257.0</ele><time>2026-04-28T08:31:26.973Z</time></trkpt><trkpt lat="43.72700402510688" lon="3.6942539449906358"><ele>256.0</ele><time>2026-04-28T08:31:31.973Z</time></trkpt><trkpt lat="43.72699530997382" lon="3.6941603287545437"><ele>255.0</ele><time>2026-04-28T08:31:46.975Z</time></trkpt><trkpt lat="43.7269730666289" lon="3.6940667892024184"><ele>254.0</ele><time>2026-04-28T08:32:17.975Z</time></trkpt><trkpt lat="43.72697165765145" lon="3.694173125798476"><ele>253.0</ele><time>2026-04-28T08:32:42.974Z</time></trkpt><trkpt lat="43.7270134211616" lon="3.6942441368478556"><ele>252.0</ele><time>2026-04-28T08:33:11.974Z</time></trkpt><trkpt lat="43.72694488103519" lon="3.694206169968291"><ele>252.0</ele><time>2026-04-28T08:33:39.974Z</time></trkpt><trkpt lat="43.72697741817238" lon="3.694130372041444"><ele>252.0</ele><time>2026-04-28T08:36:11.974Z</time></trkpt><trkpt lat="43.72696231542143" lon="3.6940297686041466"><ele>252.0</ele><time>2026-04-28T08:36:35.974Z</time></trkpt><trkpt lat="43.72691552909329" lon="3.6939672052894443"><ele>252.0</ele><time>2026-04-28T08:36:39.974Z</time></trkpt><trkpt lat="43.726855292388485" lon="3.6939196144747553"><ele>252.0</ele><time>2026-04-28T08:36:43.974Z</time></trkpt><trkpt lat="43.72680344855736" lon="3.6938471964962023"><ele>252.0</ele><time>2026-04-28T08:36:47.974Z</time></trkpt><trkpt lat="43.726764777791225" lon="3.6937718077580564"><ele>252.0</ele><time>2026-04-28T08:36:50.974Z</time></trkpt><trkpt lat="43.726722538297814" lon="3.6936939237076514"><ele>252.57142857142856</ele><time>2026-04-28T08:36:55.974Z</time></trkpt><trkpt lat="43.726700490729776" lon="3.6935928268198004"><ele>253.14285714285714</ele><time>2026-04-28T08:37:00.974Z</time></trkpt><trkpt lat="43.726677251641426" lon="3.6935103976212758"><ele>253.71428571428572</ele><time>2026-04-28T08:37:04.974Z</time></trkpt><trkpt lat="43.726656247477706" lon="3.6934110551413077"><ele>254.28571428571428</ele><time>2026-04-28T08:37:08.973Z</time></trkpt><trkpt lat="43.72662982614715" lon="3.693312606465992"><ele>254.85714285714283</ele><time>2026-04-28T08:37:13.973Z</time></trkpt><trkpt lat="43.72661460908775" lon="3.693219390313025"><ele>255.42857142857142</ele><time>2026-04-28T08:37:17.973Z</time></trkpt><trkpt lat="43.72660066206089" lon="3.6931154402064634"><ele>256.0</ele><time>2026-04-28T08:37:22.973Z</time></trkpt><trkpt lat="43.72655696960928" lon="3.6930236708649313"><ele>256.1428571428571</ele><time>2026-04-28T08:37:27.973Z</time></trkpt><trkpt lat="43.72655800659974" lon="3.692918234197562"><ele>256.2857142857143</ele><time>2026-04-28T08:37:31.973Z</time></trkpt><trkpt lat="43.72654234859833" lon="3.6928236062163227"><ele>256.42857142857144</ele><time>2026-04-28T08:37:35.973Z</time></trkpt><trkpt lat="43.72652825249887" lon="3.692728010323104"><ele>256.57142857142856</ele><time>2026-04-28T08:37:39.973Z</time></trkpt><trkpt lat="43.726518686084816" lon="3.692619756708366"><ele>256.7142857142857</ele><time>2026-04-28T08:37:44.973Z</time></trkpt><trkpt lat="43.72652904859062" lon="3.692528297440761"><ele>256.85714285714283</ele><time>2026-04-28T08:37:48.973Z</time></trkpt><trkpt lat="43.72651178733788" lon="3.692440043657852"><ele>257.0</ele><time>2026-04-28T08:37:53.973Z</time></trkpt><trkpt lat="43.72652978131345" lon="3.692350121544616"><ele>257.1428571428571</ele><time>2026-04-28T08:37:57.974Z</time></trkpt><trkpt lat="43.726558731939946" lon="3.6922694614922342"><ele>257.2857142857143</ele><time>2026-04-28T08:38:01.974Z</time></trkpt><trkpt lat="43.72658911539494" lon="3.692183253406844"><ele>257.42857142857144</ele><time>2026-04-28T08:38:06.974Z</time></trkpt><trkpt lat="43.72661329969918" lon="3.6920982777996616"><ele>257.57142857142856</ele><time>2026-04-28T08:38:11.973Z</time></trkpt><trkpt lat="43.726603155061696" lon="3.6919971840743013"><ele>257.7142857142857</ele><time>2026-04-28T08:38:16.973Z</time></trkpt><trkpt lat="43.72659658484939" lon="3.69189481659249"><ele>257.85714285714283</ele><time>2026-04-28T08:38:21.973Z</time></trkpt><trkpt lat="43.726581186207916" lon="3.691806628122671"><ele>258.0</ele><time>2026-04-28T08:38:25.973Z</time></trkpt><trkpt lat="43.72654746795319" lon="3.6917078858899974"><ele>258.4285714285714</ele><time>2026-04-28T08:38:30.973Z</time></trkpt><trkpt lat="43.7265445958013" lon="3.6916054573842416"><ele>258.85714285714283</ele><time>2026-04-28T08:38:35.973Z</time></trkpt><trkpt lat="43.72654515516504" lon="3.6915087160478506"><ele>259.2857142857143</ele><time>2026-04-28T08:38:39.973Z</time></trkpt><trkpt lat="43.72654486080827" lon="3.6914000443272452"><ele>259.71428571428567</ele><time>2026-04-28T08:38:44.973Z</time></trkpt><trkpt lat="43.726546241818056" lon="3.6912915966730355"><ele>260.1428571428571</ele><time>2026-04-28T08:38:49.973Z</time></trkpt><trkpt lat="43.72654276920337" lon="3.6912020846965916"><ele>260.57142857142856</ele><time>2026-04-28T08:38:53.973Z</time></trkpt><trkpt lat="43.72654417467565" lon="3.69111039477852"><ele>261.0</ele><time>2026-04-28T08:38:57.973Z</time></trkpt><trkpt lat="43.72653866937987" lon="3.6910049154317917"><ele>262.0</ele><time>2026-04-28T08:39:02.973Z</time></trkpt><trkpt lat="43.72654192688099" lon="3.6909076179870715"><ele>263.0</ele><time>2026-04-28T08:39:06.973Z</time></trkpt><trkpt lat="43.726554577102604" lon="3.6908087094616597"><ele>264.0</ele><time>2026-04-28T08:39:11.973Z</time></trkpt><trkpt lat="43.726572675645265" lon="3.6907233373245325"><ele>265.0</ele><time>2026-04-28T08:39:15.973Z</time></trkpt><trkpt lat="43.72658605262575" lon="3.6906276532172613"><ele>266.0</ele><time>2026-04-28T08:39:19.973Z</time></trkpt><trkpt lat="43.726594066567436" lon="3.6905402872545543"><ele>267.0</ele><time>2026-04-28T08:39:23.973Z</time></trkpt><trkpt lat="43.72658842017865" lon="3.690443365648751"><ele>268.0</ele><time>2026-04-28T08:39:27.973Z</time></trkpt><trkpt lat="43.72659358958334" lon="3.690343416461017"><ele>268.0</ele><time>2026-04-28T08:39:32.973Z</time></trkpt><trkpt lat="43.726611482531055" lon="3.6902400453855413"><ele>268.0</ele><time>2026-04-28T08:39:36.973Z</time></trkpt><trkpt lat="43.72660484656345" lon="3.690150036456228"><ele>268.0</ele><time>2026-04-28T08:39:40.973Z</time></trkpt><trkpt lat="43.726570566237115" lon="3.690062259351583"><ele>268.0</ele><time>2026-04-28T08:39:45.972Z</time></trkpt><trkpt lat="43.72650687118371" lon="3.690129249383845"><ele>268.0</ele><time>2026-04-28T08:39:50.972Z</time></trkpt><trkpt lat="43.726457047582436" lon="3.6902051915529057"><ele>268.0</ele><time>2026-04-28T08:39:53.972Z</time></trkpt><trkpt lat="43.726425508120634" lon="3.6902972537662606"><ele>268.0</ele><time>2026-04-28T08:39:56.973Z</time></trkpt><trkpt lat="43.726402239245466" lon="3.6903972632363904"><ele>268.0</ele><time>2026-04-28T08:39:59.973Z</time></trkpt><trkpt lat="43.726391763101965" lon="3.690491524897885"><ele>268.0</ele><time>2026-04-28T08:40:02.973Z</time></trkpt><trkpt lat="43.726362552584426" lon="3.690595756702667"><ele>268.0</ele><time>2026-04-28T08:40:05.973Z</time></trkpt><trkpt lat="43.72633835790501" lon="3.6906919485395027"><ele>268.0</ele><time>2026-04-28T08:40:07.972Z</time></trkpt><trkpt lat="43.72632582008323" lon="3.6908338569252463"><ele>268.0</ele><time>2026-04-28T08:40:10.973Z</time></trkpt><trkpt lat="43.726313887730605" lon="3.6909196560919817"><ele>268.0</ele><time>2026-04-28T08:40:12.973Z</time></trkpt><trkpt lat="43.72628468805308" lon="3.6910285416172526"><ele>267.66666666666663</ele><time>2026-04-28T08:40:14.973Z</time></trkpt><trkpt lat="43.72623708345403" lon="3.6911160733086246"><ele>267.3333333333333</ele><time>2026-04-28T08:40:16.973Z</time></trkpt><trkpt lat="43.726179586801074" lon="3.6911845760299093"><ele>267.0</ele><time>2026-04-28T08:40:18.973Z</time></trkpt><trkpt lat="43.72611029791006" lon="3.6912295210171777"><ele>266.6666666666667</ele><time>2026-04-28T08:40:21.973Z</time></trkpt><trkpt lat="43.72605308674688" lon="3.6912964417869376"><ele>266.33333333333337</ele><time>2026-04-28T08:40:24.973Z</time></trkpt><trkpt lat="43.72598130355458" lon="3.691366176948707"><ele>266.0</ele><time>2026-04-28T08:40:27.973Z</time></trkpt><trkpt lat="43.725904442487604" lon="3.691421912225596"><ele>266.0</ele><time>2026-04-28T08:40:30.973Z</time></trkpt><trkpt lat="43.7258402831508" lon="3.6914804714140583"><ele>266.0</ele><time>2026-04-28T08:40:33.973Z</time></trkpt><trkpt lat="43.72578603385396" lon="3.6915258607927486"><ele>266.0</ele><time>2026-04-28T08:40:36.973Z</time></trkpt><trkpt lat="43.72573519850837" lon="3.691595204275131"><ele>266.0</ele><time>2026-04-28T08:40:39.972Z</time></trkpt><trkpt lat="43.72568728876856" lon="3.691663778827881"><ele>266.0</ele><time>2026-04-28T08:40:42.972Z</time></trkpt><trkpt lat="43.72563604428869" lon="3.6917433766066794"><ele>266.0</ele><time>2026-04-28T08:40:45.972Z</time></trkpt><trkpt lat="43.725586183483415" lon="3.6918315683445453"><ele>266.0</ele><time>2026-04-28T08:40:48.972Z</time></trkpt><trkpt lat="43.72553492500511" lon="3.691882324548243"><ele>265.83333333333337</ele><time>2026-04-28T08:40:50.972Z</time></trkpt><trkpt lat="43.725452676400735" lon="3.69194483532317"><ele>265.6666666666667</ele><time>2026-04-28T08:40:53.972Z</time></trkpt><trkpt lat="43.7253891506945" lon="3.691991978681658"><ele>265.5</ele><time>2026-04-28T08:40:56.972Z</time></trkpt><trkpt lat="43.725330233512594" lon="3.692061826846231"><ele>265.3333333333333</ele><time>2026-04-28T08:40:58.972Z</time></trkpt><trkpt lat="43.72527694783305" lon="3.692156595514424"><ele>265.16666666666663</ele><time>2026-04-28T08:41:00.972Z</time></trkpt><trkpt lat="43.72523268759606" lon="3.6922803078530295"><ele>265.0</ele><time>2026-04-28T08:41:03.972Z</time></trkpt><trkpt lat="43.72520732981185" lon="3.6923712369953923"><ele>265.0</ele><time>2026-04-28T08:41:05.972Z</time></trkpt><trkpt lat="43.72516283794795" lon="3.6924611269408563"><ele>265.0</ele><time>2026-04-28T08:41:07.972Z</time></trkpt><trkpt lat="43.725118387164756" lon="3.6925445230415637"><ele>265.0</ele><time>2026-04-28T08:41:09.972Z</time></trkpt><trkpt lat="43.72506274097754" lon="3.6926314827059845"><ele>265.0</ele><time>2026-04-28T08:41:11.972Z</time></trkpt><trkpt lat="43.72497930599658" lon="3.692689246883934"><ele>265.0</ele><time>2026-04-28T08:41:14.972Z</time></trkpt><trkpt lat="43.72488192637655" lon="3.6927205352701105"><ele>265.0</ele><time>2026-04-28T08:41:16.972Z</time></trkpt><trkpt lat="43.724803009237014" lon="3.6927237071056758"><ele>265.0</ele><time>2026-04-28T08:41:18.972Z</time></trkpt><trkpt lat="43.724731661950926" lon="3.6927157095388456"><ele>265.0</ele><time>2026-04-28T08:41:20.972Z</time></trkpt><trkpt lat="43.724648051631284" lon="3.692747282507844"><ele>265.0</ele><time>2026-04-28T08:41:23.972Z</time></trkpt><trkpt lat="43.72456854271695" lon="3.6927542860669003"><ele>265.0</ele><time>2026-04-28T08:41:25.972Z</time></trkpt><trkpt lat="43.72448165997833" lon="3.6927713043143404"><ele>265.0</ele><time>2026-04-28T08:41:28.972Z</time></trkpt><trkpt lat="43.724406921997414" lon="3.6927688192607913"><ele>265.0</ele><time>2026-04-28T08:41:30.972Z</time></trkpt><trkpt lat="43.72433783686892" lon="3.6927819516183558"><ele>263.99999999999994</ele><time>2026-04-28T08:41:32.972Z</time></trkpt><trkpt lat="43.72425182812326" lon="3.6927952205504897"><ele>263.0</ele><time>2026-04-28T08:41:34.972Z</time></trkpt><trkpt lat="43.72419080214306" lon="3.692816968983728"><ele>262.0</ele><time>2026-04-28T08:41:36.972Z</time></trkpt><trkpt lat="43.724104785671514" lon="3.6928087260213993"><ele>261.0</ele><time>2026-04-28T08:41:38.972Z</time></trkpt><trkpt lat="43.72402417394058" lon="3.692808087154022"><ele>260.0</ele><time>2026-04-28T08:41:40.972Z</time></trkpt><trkpt lat="43.72395712605145" lon="3.6928030911294147"><ele>258.99999999999994</ele><time>2026-04-28T08:41:42.972Z</time></trkpt><trkpt lat="43.72389189068577" lon="3.692813971239508"><ele>258.0</ele><time>2026-04-28T08:41:44.972Z</time></trkpt><trkpt lat="43.72379753002618" lon="3.6927875067822584"><ele>257.99999999999994</ele><time>2026-04-28T08:41:47.972Z</time></trkpt><trkpt lat="43.723732227166686" lon="3.6927604724099186"><ele>258.0</ele><time>2026-04-28T08:41:49.972Z</time></trkpt><trkpt lat="43.72366030386783" lon="3.692766264913424"><ele>258.0</ele><time>2026-04-28T08:41:52.972Z</time></trkpt><trkpt lat="43.723588172530334" lon="3.6928056734602692"><ele>258.0</ele><time>2026-04-28T08:41:55.972Z</time></trkpt><trkpt lat="43.72352397941116" lon="3.6928007838548167"><ele>258.0</ele><time>2026-04-28T08:41:57.972Z</time></trkpt><trkpt lat="43.72346355665106" lon="3.6927725414195"><ele>257.99999999999994</ele><time>2026-04-28T08:41:59.972Z</time></trkpt><trkpt lat="43.72339507200311" lon="3.6927879180703447"><ele>258.0</ele><time>2026-04-28T08:42:02.972Z</time></trkpt><trkpt lat="43.723314396674674" lon="3.6927844697387675"><ele>257.57142857142856</ele><time>2026-04-28T08:42:05.973Z</time></trkpt><trkpt lat="43.72325274936521" lon="3.692763196091043"><ele>257.1428571428571</ele><time>2026-04-28T08:42:07.972Z</time></trkpt><trkpt lat="43.72318130370375" lon="3.6927468859341093"><ele>256.7142857142857</ele><time>2026-04-28T08:42:10.972Z</time></trkpt><trkpt lat="43.72310647336937" lon="3.6927771868300594"><ele>256.2857142857143</ele><time>2026-04-28T08:42:13.972Z</time></trkpt><trkpt lat="43.72303222714232" lon="3.692770437401564"><ele>255.8571428571429</ele><time>2026-04-28T08:42:16.972Z</time></trkpt><trkpt lat="43.72295548833935" lon="3.6928146009019605"><ele>255.42857142857144</ele><time>2026-04-28T08:42:19.972Z</time></trkpt><trkpt lat="43.722883161476254" lon="3.692810968993871"><ele>255.0</ele><time>2026-04-28T08:42:22.972Z</time></trkpt><trkpt lat="43.722796143481396" lon="3.692815550104271"><ele>255.0</ele><time>2026-04-28T08:42:25.972Z</time></trkpt><trkpt lat="43.72271732998137" lon="3.692827410518749"><ele>255.0</ele><time>2026-04-28T08:42:28.972Z</time></trkpt><trkpt lat="43.72264298922039" lon="3.692836749979184"><ele>255.0</ele><time>2026-04-28T08:42:31.972Z</time></trkpt><trkpt lat="43.7225646187642" lon="3.692811143803964"><ele>255.0</ele><time>2026-04-28T08:42:33.972Z</time></trkpt><trkpt lat="43.722484434476684" lon="3.692798289938009"><ele>255.0</ele><time>2026-04-28T08:42:36.972Z</time></trkpt><trkpt lat="43.722409602472105" lon="3.6928023968559636"><ele>255.0</ele><time>2026-04-28T08:42:39.972Z</time></trkpt><trkpt lat="43.7223327078503" lon="3.6928167298623262"><ele>255.0</ele><time>2026-04-28T08:42:42.972Z</time></trkpt><trkpt lat="43.72225373287479" lon="3.6928023246191453"><ele>255.0</ele><time>2026-04-28T08:42:45.972Z</time></trkpt><trkpt lat="43.72217494741778" lon="3.692767910036196"><ele>255.0</ele><time>2026-04-28T08:42:48.972Z</time></trkpt><trkpt lat="43.72210487622942" lon="3.6927627147744606"><ele>255.0</ele><time>2026-04-28T08:42:52.972Z</time></trkpt><trkpt lat="43.72202043650801" lon="3.692732504728561"><ele>255.0</ele><time>2026-04-28T08:42:56.972Z</time></trkpt><trkpt lat="43.721950268839606" lon="3.6927196923659853"><ele>255.0</ele><time>2026-04-28T08:43:00.972Z</time></trkpt><trkpt lat="43.721886260593216" lon="3.692711886502902"><ele>257.6666666666667</ele><time>2026-04-28T08:43:03.972Z</time></trkpt><trkpt lat="43.721803324193274" lon="3.692688866694994"><ele>260.3333333333333</ele><time>2026-04-28T08:43:06.972Z</time></trkpt><trkpt lat="43.721729926682855" lon="3.6926885080494523"><ele>263.0</ele><time>2026-04-28T08:43:09.972Z</time></trkpt><trkpt lat="43.72164911636462" lon="3.692700369472211"><ele>265.66666666666663</ele><time>2026-04-28T08:43:12.972Z</time></trkpt><trkpt lat="43.72157490518523" lon="3.692705475352574"><ele>268.3333333333333</ele><time>2026-04-28T08:43:15.972Z</time></trkpt><trkpt lat="43.72150611528405" lon="3.6926920565872727"><ele>271.0</ele><time>2026-04-28T08:43:18.972Z</time></trkpt><trkpt lat="43.72143043284194" lon="3.692686264670296"><ele>271.0</ele><time>2026-04-28T08:43:21.972Z</time></trkpt><trkpt lat="43.72135329377615" lon="3.692625086722921"><ele>271.0</ele><time>2026-04-28T08:43:24.972Z</time></trkpt><trkpt lat="43.7212911425934" lon="3.6925590508198542"><ele>271.0</ele><time>2026-04-28T08:43:27.972Z</time></trkpt><trkpt lat="43.721212117416584" lon="3.6925192545104313"><ele>271.0</ele><time>2026-04-28T08:43:30.972Z</time></trkpt><trkpt lat="43.72114087906968" lon="3.6924819455822058"><ele>271.0</ele><time>2026-04-28T08:43:33.972Z</time></trkpt><trkpt lat="43.72107395338319" lon="3.692432825072016"><ele>271.0</ele><time>2026-04-28T08:43:36.972Z</time></trkpt><trkpt lat="43.72102524612631" lon="3.6923708394859407"><ele>271.7142857142857</ele><time>2026-04-28T08:43:39.972Z</time></trkpt><trkpt lat="43.720963339568215" lon="3.692337240947965"><ele>272.42857142857144</ele><time>2026-04-28T08:43:41.972Z</time></trkpt><trkpt lat="43.720905026543136" lon="3.692292751216421"><ele>273.14285714285717</ele><time>2026-04-28T08:43:44.972Z</time></trkpt><trkpt lat="43.72085676240489" lon="3.692211121242393"><ele>273.8571428571429</ele><time>2026-04-28T08:43:47.972Z</time></trkpt><trkpt lat="43.720797995391536" lon="3.6921590085218687"><ele>274.5714285714286</ele><time>2026-04-28T08:43:50.972Z</time></trkpt><trkpt lat="43.72073703569197" lon="3.6921007414821387"><ele>275.2857142857143</ele><time>2026-04-28T08:43:53.972Z</time></trkpt><trkpt lat="43.72066798787658" lon="3.692053435383634"><ele>276.0</ele><time>2026-04-28T08:43:56.972Z</time></trkpt><trkpt lat="43.72058667258759" lon="3.6920725330585427"><ele>276.0</ele><time>2026-04-28T08:43:59.972Z</time></trkpt><trkpt lat="43.7205114282012" lon="3.692106147315886"><ele>276.0</ele><time>2026-04-28T08:44:03.972Z</time></trkpt><trkpt lat="43.72042326893736" lon="3.6921211374283143"><ele>276.0</ele><time>2026-04-28T08:44:06.972Z</time></trkpt><trkpt lat="43.72035638968957" lon="3.6921211129451277"><ele>276.0</ele><time>2026-04-28T08:44:09.972Z</time></trkpt><trkpt lat="43.72027345119431" lon="3.6921576477077696"><ele>276.0</ele><time>2026-04-28T08:44:12.972Z</time></trkpt><trkpt lat="43.72020503271582" lon="3.6921561509503382"><ele>276.0</ele><time>2026-04-28T08:44:15.972Z</time></trkpt><trkpt lat="43.720134864391284" lon="3.692164083681384"><ele>276.0</ele><time>2026-04-28T08:44:18.972Z</time></trkpt><trkpt lat="43.72004795911612" lon="3.692165612711906"><ele>276.0</ele><time>2026-04-28T08:44:21.972Z</time></trkpt><trkpt lat="43.71995938471967" lon="3.692147999824317"><ele>276.0</ele><time>2026-04-28T08:44:24.972Z</time></trkpt><trkpt lat="43.7198673291747" lon="3.692159091020723"><ele>276.0</ele><time>2026-04-28T08:44:27.972Z</time></trkpt><trkpt lat="43.719799807179534" lon="3.6921656232473072"><ele>276.0</ele><time>2026-04-28T08:44:29.972Z</time></trkpt><trkpt lat="43.71971585602958" lon="3.6921512684598325"><ele>276.0</ele><time>2026-04-28T08:44:31.972Z</time></trkpt><trkpt lat="43.71964717572172" lon="3.692154910746242"><ele>276.0</ele><time>2026-04-28T08:44:33.972Z</time></trkpt><trkpt lat="43.71958340964264" lon="3.6921623978703337"><ele>276.0</ele><time>2026-04-28T08:44:35.972Z</time></trkpt><trkpt lat="43.719486269323795" lon="3.6921839566230847"><ele>276.0</ele><time>2026-04-28T08:44:38.972Z</time></trkpt><trkpt lat="43.71940610564407" lon="3.69217188712434"><ele>276.0</ele><time>2026-04-28T08:44:40.972Z</time></trkpt><trkpt lat="43.719339708273495" lon="3.692188634258597"><ele>276.0</ele><time>2026-04-28T08:44:42.972Z</time></trkpt><trkpt lat="43.71927310962495" lon="3.6922287296845293"><ele>276.0</ele><time>2026-04-28T08:44:44.972Z</time></trkpt><trkpt lat="43.71919761471261" lon="3.6923065648750293"><ele>274.1666666666667</ele><time>2026-04-28T08:44:47.972Z</time></trkpt><trkpt lat="43.71910742198988" lon="3.692354403830074"><ele>272.3333333333333</ele><time>2026-04-28T08:44:49.972Z</time></trkpt><trkpt lat="43.71903916163238" lon="3.692436173921873"><ele>270.5</ele><time>2026-04-28T08:44:51.972Z</time></trkpt><trkpt lat="43.71897224558303" lon="3.692487181726271"><ele>268.66666666666663</ele><time>2026-04-28T08:44:53.972Z</time></trkpt><trkpt lat="43.71889652539254" lon="3.6925370872822607"><ele>266.8333333333333</ele><time>2026-04-28T08:44:55.972Z</time></trkpt><trkpt lat="43.7188158890717" lon="3.692600047511698"><ele>265.0</ele><time>2026-04-28T08:44:57.972Z</time></trkpt><trkpt lat="43.71875166381233" lon="3.6926642904042217"><ele>265.0</ele><time>2026-04-28T08:44:59.972Z</time></trkpt><trkpt lat="43.71865843119386" lon="3.6927097361455177"><ele>265.0</ele><time>2026-04-28T08:45:02.972Z</time></trkpt><trkpt lat="43.7185642815696" lon="3.6927279959132187"><ele>265.0</ele><time>2026-04-28T08:45:04.972Z</time></trkpt><trkpt lat="43.718480700067005" lon="3.692717414138213"><ele>265.0</ele><time>2026-04-28T08:45:06.972Z</time></trkpt><trkpt lat="43.718401075648806" lon="3.692711756950703"><ele>265.0</ele><time>2026-04-28T08:45:08.972Z</time></trkpt><trkpt lat="43.71829303058065" lon="3.6926733148623545"><ele>263.4</ele><time>2026-04-28T08:45:10.972Z</time></trkpt><trkpt lat="43.718220100329155" lon="3.692618952034419"><ele>261.8</ele><time>2026-04-28T08:45:12.972Z</time></trkpt><trkpt lat="43.71813078200499" lon="3.6925719997475683"><ele>260.2</ele><time>2026-04-28T08:45:14.972Z</time></trkpt><trkpt lat="43.71803028286941" lon="3.6925088486292594"><ele>258.6</ele><time>2026-04-28T08:45:16.972Z</time></trkpt><trkpt lat="43.71794465910918" lon="3.692451648771984"><ele>257.0</ele><time>2026-04-28T08:45:18.972Z</time></trkpt><trkpt lat="43.71786274430411" lon="3.6924147050514553"><ele>257.0</ele><time>2026-04-28T08:45:20.972Z</time></trkpt><trkpt lat="43.71779359071738" lon="3.6923696226904665"><ele>257.0</ele><time>2026-04-28T08:45:22.971Z</time></trkpt><trkpt lat="43.71772346449047" lon="3.692303493427417"><ele>257.0</ele><time>2026-04-28T08:45:24.971Z</time></trkpt><trkpt lat="43.71763744623084" lon="3.6922631192880084"><ele>257.0</ele><time>2026-04-28T08:45:26.971Z</time></trkpt><trkpt lat="43.71756787481204" lon="3.6922182872606393"><ele>257.0</ele><time>2026-04-28T08:45:28.971Z</time></trkpt><trkpt lat="43.717486480654614" lon="3.69218654049152"><ele>257.0</ele><time>2026-04-28T08:45:30.971Z</time></trkpt><trkpt lat="43.71739400122351" lon="3.69212192249039"><ele>256.6666666666667</ele><time>2026-04-28T08:45:33.971Z</time></trkpt><trkpt lat="43.717330478495974" lon="3.692055149246671"><ele>256.33333333333337</ele><time>2026-04-28T08:45:35.971Z</time></trkpt><trkpt lat="43.71728037688469" lon="3.6919776950473775"><ele>256.0</ele><time>2026-04-28T08:45:37.971Z</time></trkpt><trkpt lat="43.71725459687434" lon="3.691887187964"><ele>255.66666666666669</ele><time>2026-04-28T08:45:39.971Z</time></trkpt><trkpt lat="43.71723894454746" lon="3.691797920746072"><ele>255.33333333333334</ele><time>2026-04-28T08:45:41.971Z</time></trkpt><trkpt lat="43.71722578120472" lon="3.691669263893879"><ele>255.0</ele><time>2026-04-28T08:45:44.971Z</time></trkpt><trkpt lat="43.717206776688904" lon="3.6915657006980798"><ele>254.71428571428572</ele><time>2026-04-28T08:45:46.971Z</time></trkpt><trkpt lat="43.71719796752996" lon="3.6914749499765"><ele>254.42857142857144</ele><time>2026-04-28T08:45:48.971Z</time></trkpt><trkpt lat="43.71717886309467" lon="3.691386079922157"><ele>254.14285714285717</ele><time>2026-04-28T08:45:50.971Z</time></trkpt><trkpt lat="43.71716488853496" lon="3.6912988060279956"><ele>253.8571428571429</ele><time>2026-04-28T08:45:52.971Z</time></trkpt><trkpt lat="43.71713908126494" lon="3.691193679749089"><ele>253.57142857142858</ele><time>2026-04-28T08:45:55.971Z</time></trkpt><trkpt lat="43.717144001211075" lon="3.6910952276245377"><ele>253.28571428571433</ele><time>2026-04-28T08:45:57.971Z</time></trkpt><trkpt lat="43.71715628058944" lon="3.6910049382589936"><ele>253.00000000000003</ele><time>2026-04-28T08:45:59.971Z</time></trkpt><trkpt lat="43.717155004707884" lon="3.690881180286976"><ele>252.66666666666666</ele><time>2026-04-28T08:46:02.971Z</time></trkpt><trkpt lat="43.71716750636865" lon="3.690794587786079"><ele>252.33333333333331</ele><time>2026-04-28T08:46:04.971Z</time></trkpt><trkpt lat="43.7171767007059" lon="3.6906645792023154"><ele>252.0</ele><time>2026-04-28T08:46:07.971Z</time></trkpt><trkpt lat="43.717198462107454" lon="3.6905767082700796"><ele>251.66666666666669</ele><time>2026-04-28T08:46:09.971Z</time></trkpt><trkpt lat="43.71719392054009" lon="3.690448468415025"><ele>251.33333333333334</ele><time>2026-04-28T08:46:12.971Z</time></trkpt><trkpt lat="43.7171919158017" lon="3.6903534297037557"><ele>251.0</ele><time>2026-04-28T08:46:14.972Z</time></trkpt><trkpt lat="43.7171925196098" lon="3.690221960837422"><ele>250.85714285714283</ele><time>2026-04-28T08:46:17.972Z</time></trkpt><trkpt lat="43.71720315958222" lon="3.690114220827691"><ele>250.71428571428572</ele><time>2026-04-28T08:46:20.973Z</time></trkpt><trkpt lat="43.71714919869172" lon="3.6900607670434056"><ele>250.57142857142856</ele><time>2026-04-28T08:46:25.972Z</time></trkpt><trkpt lat="43.71708542623789" lon="3.690042671301779"><ele>250.42857142857142</ele><time>2026-04-28T08:46:30.972Z</time></trkpt><trkpt lat="43.7170195217028" lon="3.6900270685672347"><ele>250.28571428571428</ele><time>2026-04-28T08:46:33.972Z</time></trkpt><trkpt lat="43.71695233182523" lon="3.690005562147709"><ele>250.14285714285714</ele><time>2026-04-28T08:46:36.972Z</time></trkpt><trkpt lat="43.71687962768798" lon="3.6899941863011323"><ele>250.0</ele><time>2026-04-28T08:46:39.972Z</time></trkpt><trkpt lat="43.716803723917224" lon="3.689965587293906"><ele>250.33333333333331</ele><time>2026-04-28T08:46:42.972Z</time></trkpt><trkpt lat="43.7167251961895" lon="3.689943509318562"><ele>250.66666666666666</ele><time>2026-04-28T08:46:45.972Z</time></trkpt><trkpt lat="43.71664797811257" lon="3.6899143387673514"><ele>251.0</ele><time>2026-04-28T08:46:48.972Z</time></trkpt><trkpt lat="43.71657028064334" lon="3.689882846840858"><ele>251.33333333333331</ele><time>2026-04-28T08:46:51.972Z</time></trkpt><trkpt lat="43.71651493068551" lon="3.6898351235819598"><ele>251.66666666666666</ele><time>2026-04-28T08:46:54.972Z</time></trkpt><trkpt lat="43.716453211541115" lon="3.689805795002481"><ele>252.0</ele><time>2026-04-28T08:46:57.972Z</time></trkpt><trkpt lat="43.716386619833635" lon="3.6897485795347067"><ele>252.0</ele><time>2026-04-28T08:47:00.972Z</time></trkpt><trkpt lat="43.71632731519605" lon="3.689692878223032"><ele>252.0</ele><time>2026-04-28T08:47:03.972Z</time></trkpt><trkpt lat="43.71625982729895" lon="3.689619535907812"><ele>252.0</ele><time>2026-04-28T08:47:06.972Z</time></trkpt><trkpt lat="43.716195401271655" lon="3.6895409393749303"><ele>252.0</ele><time>2026-04-28T08:47:09.972Z</time></trkpt><trkpt lat="43.716136512556744" lon="3.6894835974315447"><ele>252.0</ele><time>2026-04-28T08:47:12.972Z</time></trkpt><trkpt lat="43.716075823585314" lon="3.6894182176539023"><ele>252.0</ele><time>2026-04-28T08:47:15.972Z</time></trkpt><trkpt lat="43.71600996063004" lon="3.689353308394019"><ele>252.83333333333334</ele><time>2026-04-28T08:47:18.972Z</time></trkpt><trkpt lat="43.71595455908553" lon="3.6892798339216615"><ele>253.66666666666669</ele><time>2026-04-28T08:47:21.972Z</time></trkpt><trkpt lat="43.71591448330784" lon="3.6891787413893318"><ele>254.5</ele><time>2026-04-28T08:47:24.972Z</time></trkpt><trkpt lat="43.715865219683735" lon="3.689088361899931"><ele>255.33333333333334</ele><time>2026-04-28T08:47:27.972Z</time></trkpt><trkpt lat="43.71580272014948" lon="3.689006539575629"><ele>256.1666666666667</ele><time>2026-04-28T08:47:30.972Z</time></trkpt><trkpt lat="43.71574317170157" lon="3.688923094093338"><ele>257.0</ele><time>2026-04-28T08:47:33.971Z</time></trkpt><trkpt lat="43.71569596184261" lon="3.688829164624146"><ele>257.0</ele><time>2026-04-28T08:47:36.971Z</time></trkpt><trkpt lat="43.71565832186679" lon="3.6887523647113647"><ele>257.0</ele><time>2026-04-28T08:47:38.971Z</time></trkpt><trkpt lat="43.71562169083958" lon="3.688673678815762"><ele>257.0</ele><time>2026-04-28T08:47:41.971Z</time></trkpt><trkpt lat="43.715565497274305" lon="3.6885992529959974"><ele>257.0</ele><time>2026-04-28T08:47:44.971Z</time></trkpt><trkpt lat="43.71548362805253" lon="3.6885742673041317"><ele>257.0</ele><time>2026-04-28T08:47:47.971Z</time></trkpt><trkpt lat="43.715422110079636" lon="3.6885534589244875"><ele>257.0</ele><time>2026-04-28T08:47:51.971Z</time></trkpt><trkpt lat="43.71535891488265" lon="3.6885244373714166"><ele>257.0</ele><time>2026-04-28T08:47:55.971Z</time></trkpt><trkpt lat="43.71529369406955" lon="3.688481841727376"><ele>258.1666666666667</ele><time>2026-04-28T08:47:59.971Z</time></trkpt><trkpt lat="43.71523137696058" lon="3.688454189257358"><ele>259.33333333333337</ele><time>2026-04-28T08:48:02.971Z</time></trkpt><trkpt lat="43.71514373197714" lon="3.6884374472839285"><ele>260.5</ele><time>2026-04-28T08:48:06.971Z</time></trkpt><trkpt lat="43.71508080026395" lon="3.68849594302123"><ele>261.6666666666667</ele><time>2026-04-28T08:48:10.971Z</time></trkpt><trkpt lat="43.71505426484707" lon="3.6885992825721026"><ele>262.8333333333333</ele><time>2026-04-28T08:48:15.971Z</time></trkpt><trkpt lat="43.71503479969352" lon="3.6887100822680443"><ele>264.0</ele><time>2026-04-28T08:48:20.973Z</time></trkpt><trkpt lat="43.714991517455196" lon="3.688782159678275"><ele>264.2857142857143</ele><time>2026-04-28T08:48:23.972Z</time></trkpt><trkpt lat="43.71496838080109" lon="3.6888828523242085"><ele>264.57142857142856</ele><time>2026-04-28T08:48:26.972Z</time></trkpt><trkpt lat="43.7149576647103" lon="3.688986201193439"><ele>264.8571428571429</ele><time>2026-04-28T08:48:29.972Z</time></trkpt><trkpt lat="43.71494225428913" lon="3.6890793973510503"><ele>265.1428571428571</ele><time>2026-04-28T08:48:32.972Z</time></trkpt><trkpt lat="43.71493081389737" lon="3.689165827414557"><ele>265.42857142857144</ele><time>2026-04-28T08:48:35.972Z</time></trkpt><trkpt lat="43.71492743670724" lon="3.689291557360163"><ele>265.7142857142857</ele><time>2026-04-28T08:48:38.971Z</time></trkpt><trkpt lat="43.714919744895866" lon="3.6893798680672485"><ele>266.0</ele><time>2026-04-28T08:48:41.971Z</time></trkpt><trkpt lat="43.71494025827613" lon="3.6894699410761826"><ele>266.14285714285717</ele><time>2026-04-28T08:48:44.971Z</time></trkpt><trkpt lat="43.71492603309274" lon="3.6895773064600927"><ele>266.2857142857143</ele><time>2026-04-28T08:48:48.971Z</time></trkpt><trkpt lat="43.71490326760785" lon="3.6896634385522753"><ele>266.42857142857144</ele><time>2026-04-28T08:48:51.971Z</time></trkpt><trkpt lat="43.714885278855085" lon="3.689753788847081"><ele>266.57142857142856</ele><time>2026-04-28T08:48:54.971Z</time></trkpt><trkpt lat="43.7148731443597" lon="3.689862970666774"><ele>266.7142857142857</ele><time>2026-04-28T08:48:59.971Z</time></trkpt><trkpt lat="43.714899980428875" lon="3.689956988140797"><ele>266.8571428571429</ele><time>2026-04-28T08:49:02.971Z</time></trkpt><trkpt lat="43.71490419010698" lon="3.690056759977045"><ele>267.0</ele><time>2026-04-28T08:49:05.971Z</time></trkpt><trkpt lat="43.71489744452861" lon="3.6901577591265355"><ele>267.00000000000006</ele><time>2026-04-28T08:49:08.971Z</time></trkpt><trkpt lat="43.714880853150184" lon="3.690248714681576"><ele>267.0</ele><time>2026-04-28T08:49:12.971Z</time></trkpt><trkpt lat="43.71484017555613" lon="3.690332665134072"><ele>267.0</ele><time>2026-04-28T08:49:16.971Z</time></trkpt><trkpt lat="43.71477918681396" lon="3.690403833827572"><ele>267.0</ele><time>2026-04-28T08:49:21.971Z</time></trkpt><trkpt lat="43.71471261020663" lon="3.6903769692982964"><ele>267.0</ele><time>2026-04-28T08:49:25.971Z</time></trkpt><trkpt lat="43.71462862413879" lon="3.6903475972823925"><ele>267.00000000000006</ele><time>2026-04-28T08:49:28.971Z</time></trkpt><trkpt lat="43.71455990169793" lon="3.690322754446999"><ele>267.0</ele><time>2026-04-28T08:49:31.971Z</time></trkpt><trkpt lat="43.71449620917637" lon="3.6903250614945637"><ele>267.0</ele><time>2026-04-28T08:49:33.971Z</time></trkpt><trkpt lat="43.71443618411482" lon="3.6902928303540232"><ele>267.0</ele><time>2026-04-28T08:49:35.971Z</time></trkpt><trkpt lat="43.71435317239088" lon="3.6902547042623945"><ele>267.0</ele><time>2026-04-28T08:49:38.971Z</time></trkpt><trkpt lat="43.714271848265504" lon="3.690255731614092"><ele>267.0</ele><time>2026-04-28T08:49:40.971Z</time></trkpt><trkpt lat="43.71419387279302" lon="3.6902518106461546"><ele>267.0</ele><time>2026-04-28T08:49:43.971Z</time></trkpt><trkpt lat="43.714123306188334" lon="3.6902519237420512"><ele>267.0</ele><time>2026-04-28T08:49:45.971Z</time></trkpt><trkpt lat="43.714053247873224" lon="3.6903177416331348"><ele>266.0</ele><time>2026-04-28T08:49:48.971Z</time></trkpt><trkpt lat="43.71396656412383" lon="3.69032093075237"><ele>265.0</ele><time>2026-04-28T08:49:51.971Z</time></trkpt><trkpt lat="43.71388474684491" lon="3.690327749866463"><ele>264.0</ele><time>2026-04-28T08:49:53.971Z</time></trkpt><trkpt lat="43.713823157991804" lon="3.6903512628079467"><ele>263.0</ele><time>2026-04-28T08:49:55.971Z</time></trkpt><trkpt lat="43.71374319882329" lon="3.690378797129689"><ele>262.0</ele><time>2026-04-28T08:49:58.971Z</time></trkpt><trkpt lat="43.71365702854315" lon="3.690366088852946"><ele>261.0</ele><time>2026-04-28T08:50:00.971Z</time></trkpt><trkpt lat="43.71357935978072" lon="3.690379472074088"><ele>258.3333333333333</ele><time>2026-04-28T08:50:02.971Z</time></trkpt><trkpt lat="43.71350810038912" lon="3.690434376403186"><ele>255.66666666666669</ele><time>2026-04-28T08:50:04.971Z</time></trkpt><trkpt lat="43.71348587699691" lon="3.6905295412216454"><ele>253.0</ele><time>2026-04-28T08:50:07.971Z</time></trkpt><trkpt lat="43.71342601286319" lon="3.6905872790618846"><ele>250.33333333333334</ele><time>2026-04-28T08:50:11.971Z</time></trkpt><trkpt lat="43.71335071433151" lon="3.690578820588267"><ele>247.66666666666669</ele><time>2026-04-28T08:50:14.97Z</time></trkpt><trkpt lat="43.71328684770813" lon="3.6905146582770847"><ele>245.0</ele><time>2026-04-28T08:50:16.97Z</time></trkpt><trkpt lat="43.71324394699631" lon="3.6904398267094463"><ele>245.00000000000003</ele><time>2026-04-28T08:50:18.97Z</time></trkpt><trkpt lat="43.71320668174677" lon="3.6903535953321405"><ele>245.0</ele><time>2026-04-28T08:50:20.97Z</time></trkpt><trkpt lat="43.71311213431167" lon="3.6902658965284147"><ele>245.0</ele><time>2026-04-28T08:50:23.97Z</time></trkpt><trkpt lat="43.713034812757336" lon="3.6901924204295975"><ele>245.0</ele><time>2026-04-28T08:50:26.972Z</time></trkpt><trkpt lat="43.712970923877954" lon="3.6901251225119878"><ele>245.00000000000003</ele><time>2026-04-28T08:50:29.972Z</time></trkpt><trkpt lat="43.71289154676086" lon="3.690126782245105"><ele>245.0</ele><time>2026-04-28T08:50:32.971Z</time></trkpt><trkpt lat="43.71281832999003" lon="3.6901625761697567"><ele>242.33333333333334</ele><time>2026-04-28T08:50:35.972Z</time></trkpt><trkpt lat="43.71273619090628" lon="3.690231461383531"><ele>239.66666666666669</ele><time>2026-04-28T08:50:37.971Z</time></trkpt><trkpt lat="43.71265257711951" lon="3.690285348213311"><ele>237.0</ele><time>2026-04-28T08:50:39.971Z</time></trkpt><trkpt lat="43.71257683326162" lon="3.6903658539878306"><ele>234.33333333333331</ele><time>2026-04-28T08:50:42.971Z</time></trkpt><trkpt lat="43.71253478929628" lon="3.690431807525519"><ele>231.66666666666666</ele><time>2026-04-28T08:50:44.971Z</time></trkpt><trkpt lat="43.71246810982354" lon="3.690520937990121"><ele>229.0</ele><time>2026-04-28T08:50:47.971Z</time></trkpt><trkpt lat="43.71239624372394" lon="3.6905596787994055"><ele>228.99999999999997</ele><time>2026-04-28T08:50:50.971Z</time></trkpt><trkpt lat="43.71232787293904" lon="3.6905941388079677"><ele>229.0</ele><time>2026-04-28T08:50:52.971Z</time></trkpt><trkpt lat="43.712266003304855" lon="3.6906374252025103"><ele>229.0</ele><time>2026-04-28T08:50:54.971Z</time></trkpt><trkpt lat="43.71221465401141" lon="3.6907013961950668"><ele>229.0</ele><time>2026-04-28T08:50:56.971Z</time></trkpt><trkpt lat="43.71214081496251" lon="3.690772763521873"><ele>228.99999999999997</ele><time>2026-04-28T08:50:58.971Z</time></trkpt><trkpt lat="43.71206652580634" lon="3.690792008208616"><ele>229.0</ele><time>2026-04-28T08:51:00.971Z</time></trkpt><trkpt lat="43.711974210241735" lon="3.6908230054044804"><ele>226.66666666666666</ele><time>2026-04-28T08:51:03.971Z</time></trkpt><trkpt lat="43.7119018222672" lon="3.6908380033749038"><ele>224.33333333333331</ele><time>2026-04-28T08:51:05.971Z</time></trkpt><trkpt lat="43.71180125643983" lon="3.690832251840971"><ele>222.0</ele><time>2026-04-28T08:51:07.971Z</time></trkpt><trkpt lat="43.71173473766406" lon="3.6908318400647104"><ele>219.66666666666669</ele><time>2026-04-28T08:51:08.971Z</time></trkpt><trkpt lat="43.7116553817206" lon="3.6908512828134508"><ele>217.33333333333334</ele><time>2026-04-28T08:51:10.971Z</time></trkpt><trkpt lat="43.711569130037816" lon="3.6908725109284632"><ele>215.0</ele><time>2026-04-28T08:51:11.971Z</time></trkpt><trkpt lat="43.71148290415955" lon="3.6909004570430177"><ele>215.0</ele><time>2026-04-28T08:51:13.971Z</time></trkpt><trkpt lat="43.711417109740204" lon="3.6908987421186903"><ele>215.0</ele><time>2026-04-28T08:51:16.971Z</time></trkpt><trkpt lat="43.711352483375066" lon="3.690883172281085"><ele>215.0</ele><time>2026-04-28T08:52:57.971Z</time></trkpt><trkpt lat="43.711304042994236" lon="3.6908234573231633"><ele>215.0</ele><time>2026-04-28T08:53:01.971Z</time></trkpt><trkpt lat="43.711267520918085" lon="3.6907258273593238"><ele>215.0</ele><time>2026-04-28T08:53:05.971Z</time></trkpt><trkpt lat="43.71123345363491" lon="3.690627691877156"><ele>215.0</ele><time>2026-04-28T08:53:08.971Z</time></trkpt><trkpt lat="43.711224018686295" lon="3.690512605665061"><ele>215.0</ele><time>2026-04-28T08:53:12.971Z</time></trkpt><trkpt lat="43.71120228177195" lon="3.6903990938090407"><ele>215.00000000000003</ele><time>2026-04-28T08:53:15.971Z</time></trkpt><trkpt lat="43.71117961351399" lon="3.6902826670729847"><ele>215.0</ele><time>2026-04-28T08:53:18.971Z</time></trkpt><trkpt lat="43.71113104542866" lon="3.6901810904809995"><ele>215.0</ele><time>2026-04-28T08:53:22.971Z</time></trkpt><trkpt lat="43.71108024302142" lon="3.690104404287834"><ele>215.0</ele><time>2026-04-28T08:53:25.971Z</time></trkpt><trkpt lat="43.71102621046315" lon="3.689990525854302"><ele>215.00000000000003</ele><time>2026-04-28T08:53:28.971Z</time></trkpt><trkpt lat="43.71099664129513" lon="3.6898969056025996"><ele>215.0</ele><time>2026-04-28T08:53:30.971Z</time></trkpt><trkpt lat="43.710978543086554" lon="3.6897657637783317"><ele>212.83333333333334</ele><time>2026-04-28T08:53:32.971Z</time></trkpt><trkpt lat="43.71097512508837" lon="3.6896637780327284"><ele>210.66666666666669</ele><time>2026-04-28T08:53:34.971Z</time></trkpt><trkpt lat="43.71096797383782" lon="3.6895705407562525"><ele>208.5</ele><time>2026-04-28T08:53:36.971Z</time></trkpt><trkpt lat="43.71093859758299" lon="3.689482036503404"><ele>206.33333333333331</ele><time>2026-04-28T08:53:38.971Z</time></trkpt><trkpt lat="43.71091439400646" lon="3.6893671078294528"><ele>204.16666666666666</ele><time>2026-04-28T08:53:40.971Z</time></trkpt><trkpt lat="43.71089907215869" lon="3.6892267654483604"><ele>202.0</ele><time>2026-04-28T08:53:42.971Z</time></trkpt><trkpt lat="43.710908809425" lon="3.6891065118799093"><ele>201.49999999999997</ele><time>2026-04-28T08:53:44.97Z</time></trkpt><trkpt lat="43.71091889227792" lon="3.6890181923173913"><ele>201.0</ele><time>2026-04-28T08:53:46.97Z</time></trkpt><trkpt lat="43.71089072693161" lon="3.6889232917279915"><ele>200.5</ele><time>2026-04-28T08:53:49.97Z</time></trkpt><trkpt lat="43.710858898477994" lon="3.688809346077232"><ele>200.0</ele><time>2026-04-28T08:53:52.97Z</time></trkpt><trkpt lat="43.710848075288354" lon="3.688707262844347"><ele>199.49999999999997</ele><time>2026-04-28T08:53:55.97Z</time></trkpt><trkpt lat="43.71083481949701" lon="3.6885744086551093"><ele>199.0</ele><time>2026-04-28T08:53:59.97Z</time></trkpt><trkpt lat="43.710796396308595" lon="3.6884594413749117"><ele>198.83333333333331</ele><time>2026-04-28T08:54:02.97Z</time></trkpt><trkpt lat="43.71075237228285" lon="3.6883606440881587"><ele>198.66666666666666</ele><time>2026-04-28T08:54:05.97Z</time></trkpt><trkpt lat="43.71069887955871" lon="3.688268617150307"><ele>198.5</ele><time>2026-04-28T08:54:08.97Z</time></trkpt><trkpt lat="43.71067409523779" lon="3.688167509401353"><ele>198.33333333333331</ele><time>2026-04-28T08:54:10.97Z</time></trkpt><trkpt lat="43.71065919479008" lon="3.6880571307660244"><ele>198.16666666666666</ele><time>2026-04-28T08:54:12.97Z</time></trkpt><trkpt lat="43.71063104305587" lon="3.6879672109834263"><ele>198.0</ele><time>2026-04-28T08:54:14.97Z</time></trkpt><trkpt lat="43.71060075773716" lon="3.687845804774007"><ele>197.66666666666666</ele><time>2026-04-28T08:54:16.97Z</time></trkpt><trkpt lat="43.710596884780806" lon="3.6877564215320553"><ele>197.33333333333331</ele><time>2026-04-28T08:54:17.97Z</time></trkpt><trkpt lat="43.71060106096451" lon="3.6876316488024434"><ele>197.0</ele><time>2026-04-28T08:54:19.97Z</time></trkpt><trkpt lat="43.71065480194002" lon="3.687503786078366"><ele>196.66666666666666</ele><time>2026-04-28T08:54:21.97Z</time></trkpt><trkpt lat="43.71065784017268" lon="3.68738340010343"><ele>196.33333333333331</ele><time>2026-04-28T08:54:23.97Z</time></trkpt><trkpt lat="43.71065973933145" lon="3.6872697114573376"><ele>196.0</ele><time>2026-04-28T08:54:25.97Z</time></trkpt><trkpt lat="43.71066711682404" lon="3.687182082446068"><ele>195.99999999999997</ele><time>2026-04-28T08:54:27.97Z</time></trkpt><trkpt lat="43.7106785829265" lon="3.687048358108931"><ele>196.0</ele><time>2026-04-28T08:54:30.97Z</time></trkpt><trkpt lat="43.71068924086185" lon="3.686926355166888"><ele>196.0</ele><time>2026-04-28T08:54:32.97Z</time></trkpt><trkpt lat="43.710714260261604" lon="3.6867922159670146"><ele>196.0</ele><time>2026-04-28T08:54:35.97Z</time></trkpt><trkpt lat="43.71073728008991" lon="3.6867042779661885"><ele>195.99999999999997</ele><time>2026-04-28T08:54:37.97Z</time></trkpt><trkpt lat="43.7107557556013" lon="3.6866125180808127"><ele>196.0</ele><time>2026-04-28T08:54:39.971Z</time></trkpt><trkpt lat="43.71078534906075" lon="3.6865345604157005"><ele>195.99999999999997</ele><time>2026-04-28T08:54:41.971Z</time></trkpt><trkpt lat="43.71080350894216" lon="3.686441649891112"><ele>196.0</ele><time>2026-04-28T08:54:43.971Z</time></trkpt><trkpt lat="43.71084233158031" lon="3.68637297267575"><ele>196.0</ele><time>2026-04-28T08:54:45.971Z</time></trkpt><trkpt lat="43.7108713854366" lon="3.6862776829528925"><ele>196.0</ele><time>2026-04-28T08:54:47.971Z</time></trkpt><trkpt lat="43.71092458300581" lon="3.686157576743316"><ele>195.99999999999997</ele><time>2026-04-28T08:54:50.971Z</time></trkpt><trkpt lat="43.71097754622144" lon="3.686078812968396"><ele>196.0</ele><time>2026-04-28T08:54:52.971Z</time></trkpt><trkpt lat="43.71101775538612" lon="3.685991146711729"><ele>196.33333333333331</ele><time>2026-04-28T08:54:55.971Z</time></trkpt><trkpt lat="43.71106562105951" lon="3.6859210475923354"><ele>196.66666666666666</ele><time>2026-04-28T08:54:58.971Z</time></trkpt><trkpt lat="43.71112622164498" lon="3.685890587321821"><ele>197.0</ele><time>2026-04-28T08:55:00.971Z</time></trkpt><trkpt lat="43.71119108352183" lon="3.6858448776571793"><ele>197.33333333333331</ele><time>2026-04-28T08:55:03.971Z</time></trkpt><trkpt lat="43.71125495878302" lon="3.6857940771479027"><ele>197.66666666666666</ele><time>2026-04-28T08:55:06.971Z</time></trkpt><trkpt lat="43.71129892281738" lon="3.685692440954053"><ele>198.0</ele><time>2026-04-28T08:55:09.971Z</time></trkpt><trkpt lat="43.71130864591902" lon="3.6855668666411865"><ele>198.83333333333334</ele><time>2026-04-28T08:55:12.971Z</time></trkpt><trkpt lat="43.7113506927261" lon="3.6854541639191294"><ele>199.66666666666669</ele><time>2026-04-28T08:55:16.971Z</time></trkpt><trkpt lat="43.71139899701136" lon="3.685370108630606"><ele>200.5</ele><time>2026-04-28T08:55:19.971Z</time></trkpt><trkpt lat="43.71145758984741" lon="3.6852811469599924"><ele>201.33333333333334</ele><time>2026-04-28T08:55:22.971Z</time></trkpt><trkpt lat="43.71145738031931" lon="3.6851825675334795"><ele>202.16666666666669</ele><time>2026-04-28T08:55:25.971Z</time></trkpt><trkpt lat="43.711441966376114" lon="3.6850966814491692"><ele>203.0</ele><time>2026-04-28T08:55:28.971Z</time></trkpt><trkpt lat="43.71140573441709" lon="3.685007967715938"><ele>203.00000000000003</ele><time>2026-04-28T08:55:31.971Z</time></trkpt><trkpt lat="43.71136896554421" lon="3.6849162372439386"><ele>203.0</ele><time>2026-04-28T08:55:34.971Z</time></trkpt><trkpt lat="43.71134856676319" lon="3.68481053895038"><ele>203.0</ele><time>2026-04-28T08:55:37.97Z</time></trkpt><trkpt lat="43.71135685834789" lon="3.68468695465071"><ele>203.0</ele><time>2026-04-28T08:55:40.97Z</time></trkpt><trkpt lat="43.711352069818226" lon="3.684568001082662"><ele>203.00000000000003</ele><time>2026-04-28T08:55:43.97Z</time></trkpt><trkpt lat="43.71136441352758" lon="3.6844588530030524"><ele>203.0</ele><time>2026-04-28T08:55:46.97Z</time></trkpt><trkpt lat="43.711367262842074" lon="3.6843713438262986"><ele>203.14285714285714</ele><time>2026-04-28T08:55:48.97Z</time></trkpt><trkpt lat="43.71136355526376" lon="3.684270958194589"><ele>203.28571428571428</ele><time>2026-04-28T08:55:51.97Z</time></trkpt><trkpt lat="43.711358738333026" lon="3.6841704245513105"><ele>203.42857142857144</ele><time>2026-04-28T08:55:54.97Z</time></trkpt><trkpt lat="43.71137528753583" lon="3.6840608520882077"><ele>203.57142857142856</ele><time>2026-04-28T08:55:57.97Z</time></trkpt><trkpt lat="43.71137290452821" lon="3.6839725340758953"><ele>203.71428571428572</ele><time>2026-04-28T08:56:00.97Z</time></trkpt><trkpt lat="43.711361382853106" lon="3.683863234548106"><ele>203.85714285714286</ele><time>2026-04-28T08:56:03.97Z</time></trkpt><trkpt lat="43.7113269474649" lon="3.6837761884517586"><ele>204.0</ele><time>2026-04-28T08:56:05.97Z</time></trkpt><trkpt lat="43.711322625099676" lon="3.6836751805404213"><ele>203.66666666666666</ele><time>2026-04-28T08:56:08.97Z</time></trkpt><trkpt lat="43.71130425351858" lon="3.683577798994578"><ele>203.33333333333331</ele><time>2026-04-28T08:56:11.97Z</time></trkpt><trkpt lat="43.71126061273729" lon="3.6834875433547176"><ele>203.0</ele><time>2026-04-28T08:56:14.97Z</time></trkpt><trkpt lat="43.71119021710891" lon="3.6834965972131046"><ele>202.66666666666666</ele><time>2026-04-28T08:56:19.97Z</time></trkpt><trkpt lat="43.711123746039405" lon="3.6835060939925226"><ele>202.33333333333331</ele><time>2026-04-28T08:56:24.97Z</time></trkpt><trkpt lat="43.711053784691806" lon="3.683534585181304"><ele>202.0</ele><time>2026-04-28T08:56:27.97Z</time></trkpt><trkpt lat="43.71096620039758" lon="3.6835929888468826"><ele>201.83333333333331</ele><time>2026-04-28T08:56:30.97Z</time></trkpt><trkpt lat="43.71090653070411" lon="3.683626586824663"><ele>201.66666666666666</ele><time>2026-04-28T08:56:32.97Z</time></trkpt><trkpt lat="43.71084906730632" lon="3.6836640994758043"><ele>201.5</ele><time>2026-04-28T08:56:34.97Z</time></trkpt><trkpt lat="43.710780756589756" lon="3.6837066341885176"><ele>201.33333333333331</ele><time>2026-04-28T08:56:36.97Z</time></trkpt><trkpt lat="43.71071513560462" lon="3.6837710014447085"><ele>201.16666666666666</ele><time>2026-04-28T08:56:38.97Z</time></trkpt><trkpt lat="43.710627804720566" lon="3.683802793434513"><ele>201.0</ele><time>2026-04-28T08:56:40.97Z</time></trkpt><trkpt lat="43.71052006484615" lon="3.6837904334112714"><ele>201.0</ele><time>2026-04-28T08:56:42.97Z</time></trkpt><trkpt lat="43.71041432602525" lon="3.683792919750238"><ele>201.0</ele><time>2026-04-28T08:56:44.971Z</time></trkpt><trkpt lat="43.710310158967076" lon="3.6838083407771873"><ele>201.0</ele><time>2026-04-28T08:56:46.971Z</time></trkpt><trkpt lat="43.710215000250734" lon="3.6838321224175408"><ele>201.0</ele><time>2026-04-28T08:56:48.971Z</time></trkpt><trkpt lat="43.710150040717195" lon="3.683834949163135"><ele>201.0</ele><time>2026-04-28T08:56:50.97Z</time></trkpt><trkpt lat="43.71007984068734" lon="3.6838343820275243"><ele>201.0</ele><time>2026-04-28T08:56:53.971Z</time></trkpt><trkpt lat="43.70998939589045" lon="3.683842803623137"><ele>200.16666666666666</ele><time>2026-04-28T08:56:57.97Z</time></trkpt><trkpt lat="43.70987471772822" lon="3.683881409483171"><ele>199.33333333333331</ele><time>2026-04-28T08:57:59.97Z</time></trkpt><trkpt lat="43.709821630655654" lon="3.683940130644598"><ele>198.5</ele><time>2026-04-28T08:58:03.97Z</time></trkpt><trkpt lat="43.70975966104075" lon="3.6840006427784946"><ele>197.66666666666666</ele><time>2026-04-28T08:58:06.97Z</time></trkpt><trkpt lat="43.70968555193475" lon="3.6840686899132367"><ele>196.83333333333331</ele><time>2026-04-28T08:58:09.97Z</time></trkpt><trkpt lat="43.709620045859275" lon="3.684124987962085"><ele>196.0</ele><time>2026-04-28T08:58:11.97Z</time></trkpt><trkpt lat="43.70956467230169" lon="3.6842006123414026"><ele>195.99999999999997</ele><time>2026-04-28T08:58:13.97Z</time></trkpt><trkpt lat="43.709511022958175" lon="3.6842770346701537"><ele>196.0</ele><time>2026-04-28T08:58:15.97Z</time></trkpt><trkpt lat="43.70945720682535" lon="3.6843529836692985"><ele>196.0</ele><time>2026-04-28T08:58:17.97Z</time></trkpt><trkpt lat="43.709394369824814" lon="3.684426473614225"><ele>196.0</ele><time>2026-04-28T08:58:19.97Z</time></trkpt><trkpt lat="43.709327410876476" lon="3.6845209491108752"><ele>195.99999999999997</ele><time>2026-04-28T08:58:21.97Z</time></trkpt><trkpt lat="43.709263647612566" lon="3.684601837214162"><ele>196.0</ele><time>2026-04-28T08:58:23.97Z</time></trkpt><trkpt lat="43.70921084366745" lon="3.6846733352063046"><ele>196.16666666666666</ele><time>2026-04-28T08:58:25.97Z</time></trkpt><trkpt lat="43.70915028101117" lon="3.684756319334903"><ele>196.33333333333331</ele><time>2026-04-28T08:58:27.97Z</time></trkpt><trkpt lat="43.70909031460416" lon="3.6848199794835392"><ele>196.5</ele><time>2026-04-28T08:58:29.97Z</time></trkpt><trkpt lat="43.70903483233411" lon="3.684898839696348"><ele>196.66666666666669</ele><time>2026-04-28T08:58:31.971Z</time></trkpt><trkpt lat="43.70893673883986" lon="3.6849069189843835"><ele>196.83333333333334</ele><time>2026-04-28T08:58:34.971Z</time></trkpt><trkpt lat="43.70886746520072" lon="3.6848267753988617"><ele>197.0</ele><time>2026-04-28T08:58:37.971Z</time></trkpt><trkpt lat="43.70880689712433" lon="3.684747222333513"><ele>197.00000000000003</ele><time>2026-04-28T08:58:40.971Z</time></trkpt><trkpt lat="43.70873909441023" lon="3.6847060387105657"><ele>197.0</ele><time>2026-04-28T08:58:43.971Z</time></trkpt><trkpt lat="43.70868041963927" lon="3.684670241025891"><ele>197.0</ele><time>2026-04-28T08:58:45.971Z</time></trkpt><trkpt lat="43.70860988999333" lon="3.68460524130938"><ele>197.0</ele><time>2026-04-28T08:58:48.971Z</time></trkpt><trkpt lat="43.70856127797214" lon="3.684545653819131"><ele>197.00000000000003</ele><time>2026-04-28T08:58:50.971Z</time></trkpt><trkpt lat="43.708496284116976" lon="3.684496939459505"><ele>197.0</ele><time>2026-04-28T08:58:53.972Z</time></trkpt><trkpt lat="43.708409731816744" lon="3.684473714103561"><ele>197.0</ele><time>2026-04-28T08:58:56.972Z</time></trkpt><trkpt lat="43.70834216701205" lon="3.684435526180878"><ele>197.0</ele><time>2026-04-28T08:58:59.971Z</time></trkpt><trkpt lat="43.70828590541525" lon="3.6843956333107934"><ele>197.0</ele><time>2026-04-28T08:59:01.972Z</time></trkpt><trkpt lat="43.70820297685408" lon="3.684352611128763"><ele>197.0</ele><time>2026-04-28T08:59:04.972Z</time></trkpt><trkpt lat="43.70813852928383" lon="3.684326951520989"><ele>197.0</ele><time>2026-04-28T08:59:06.972Z</time></trkpt><trkpt lat="43.70807437088369" lon="3.684309094477456"><ele>197.0</ele><time>2026-04-28T08:59:08.972Z</time></trkpt><trkpt lat="43.707995654513105" lon="3.6842842096154027"><ele>197.0</ele><time>2026-04-28T08:59:10.972Z</time></trkpt><trkpt lat="43.70793200120787" lon="3.6842680339691323"><ele>197.00000000000003</ele><time>2026-04-28T08:59:12.972Z</time></trkpt><trkpt lat="43.70785106709952" lon="3.684292821760966"><ele>197.0</ele><time>2026-04-28T08:59:14.972Z</time></trkpt><trkpt lat="43.70776925367059" lon="3.6843604801772054"><ele>197.0</ele><time>2026-04-28T08:59:17.972Z</time></trkpt><trkpt lat="43.70772226257134" lon="3.684430523397175"><ele>197.0</ele><time>2026-04-28T08:59:19.972Z</time></trkpt><trkpt lat="43.70765512272819" lon="3.684511954213052"><ele>197.00000000000003</ele><time>2026-04-28T08:59:22.972Z</time></trkpt><trkpt lat="43.70760911447642" lon="3.684592100737171"><ele>197.0</ele><time>2026-04-28T08:59:24.972Z</time></trkpt><trkpt lat="43.707563617784" lon="3.684660486664663"><ele>196.66666666666669</ele><time>2026-04-28T08:59:26.972Z</time></trkpt><trkpt lat="43.70752136026149" lon="3.6847348780333293"><ele>196.33333333333334</ele><time>2026-04-28T08:59:28.972Z</time></trkpt><trkpt lat="43.70746407762457" lon="3.684843258592761"><ele>196.0</ele><time>2026-04-28T08:59:31.972Z</time></trkpt><trkpt lat="43.70741120881478" lon="3.684923713307319"><ele>195.66666666666669</ele><time>2026-04-28T08:59:33.972Z</time></trkpt><trkpt lat="43.7073555445643" lon="3.685031531849846"><ele>195.33333333333334</ele><time>2026-04-28T08:59:35.972Z</time></trkpt><trkpt lat="43.707305950813605" lon="3.685111193080667"><ele>195.0</ele><time>2026-04-28T08:59:37.972Z</time></trkpt><trkpt lat="43.7072555867201" lon="3.6851839496323726"><ele>195.0</ele><time>2026-04-28T08:59:39.972Z</time></trkpt><trkpt lat="43.70719613517153" lon="3.6852569133773314"><ele>195.0</ele><time>2026-04-28T08:59:42.972Z</time></trkpt><trkpt lat="43.707128935130626" lon="3.685267798777656"><ele>195.0</ele><time>2026-04-28T08:59:44.972Z</time></trkpt><trkpt lat="43.70706664964546" lon="3.6852279650765176"><ele>195.0</ele><time>2026-04-28T08:59:46.972Z</time></trkpt><trkpt lat="43.706989379551125" lon="3.685168651132331"><ele>195.0</ele><time>2026-04-28T08:59:49.972Z</time></trkpt><trkpt lat="43.70690775001464" lon="3.685107520820095"><ele>195.0</ele><time>2026-04-28T08:59:52.972Z</time></trkpt><trkpt lat="43.706811861099226" lon="3.6850448374307674"><ele>194.6</ele><time>2026-04-28T08:59:55.971Z</time></trkpt><trkpt lat="43.706751428648865" lon="3.684980883940387"><ele>194.2</ele><time>2026-04-28T08:59:57.971Z</time></trkpt><trkpt lat="43.70665591156048" lon="3.684898818524418"><ele>193.8</ele><time>2026-04-28T08:59:59.971Z</time></trkpt><trkpt lat="43.70656913751673" lon="3.6848119604163676"><ele>193.4</ele><time>2026-04-28T09:00:01.971Z</time></trkpt><trkpt lat="43.706464953265424" lon="3.6847032394343335"><ele>193.0</ele><time>2026-04-28T09:00:03.971Z</time></trkpt><trkpt lat="43.70637973464635" lon="3.6846011141855497"><ele>193.00000000000003</ele><time>2026-04-28T09:00:05.971Z</time></trkpt><trkpt lat="43.706334613378104" lon="3.684532165817102"><ele>193.0</ele><time>2026-04-28T09:00:06.971Z</time></trkpt><trkpt lat="43.70628809588225" lon="3.6844540307499285"><ele>193.0</ele><time>2026-04-28T09:00:07.971Z</time></trkpt><trkpt lat="43.70624054204503" lon="3.6843854172118244"><ele>193.0</ele><time>2026-04-28T09:00:08.971Z</time></trkpt><trkpt lat="43.70619681322987" lon="3.684321062840404"><ele>193.0</ele><time>2026-04-28T09:00:09.971Z</time></trkpt><trkpt lat="43.70612604061768" lon="3.6842624331598754"><ele>193.00000000000003</ele><time>2026-04-28T09:00:10.971Z</time></trkpt><trkpt lat="43.70607594816181" lon="3.6842077017546813"><ele>193.0</ele><time>2026-04-28T09:00:11.971Z</time></trkpt><trkpt lat="43.706015647409956" lon="3.6841495731120566"><ele>191.66666666666666</ele><time>2026-04-28T09:00:12.971Z</time></trkpt><trkpt lat="43.705948671149834" lon="3.68409708400729"><ele>190.33333333333331</ele><time>2026-04-28T09:00:13.971Z</time></trkpt><trkpt lat="43.70588537448048" lon="3.6840526529291644"><ele>189.0</ele><time>2026-04-28T09:00:14.971Z</time></trkpt><trkpt lat="43.70581742254259" lon="3.684053408844562"><ele>187.66666666666666</ele><time>2026-04-28T09:00:15.971Z</time></trkpt><trkpt lat="43.70574976049009" lon="3.6840580322396557"><ele>186.33333333333331</ele><time>2026-04-28T09:00:16.971Z</time></trkpt><trkpt lat="43.705681768196214" lon="3.684048178786979"><ele>185.0</ele><time>2026-04-28T09:00:17.971Z</time></trkpt><trkpt lat="43.70557874123223" lon="3.684051219128993"><ele>185.0</ele><time>2026-04-28T09:00:19.971Z</time></trkpt><trkpt lat="43.70549702199531" lon="3.6840760722825183"><ele>185.0</ele><time>2026-04-28T09:00:20.971Z</time></trkpt><trkpt lat="43.705374898007356" lon="3.6841162871730955"><ele>185.0</ele><time>2026-04-28T09:00:22.971Z</time></trkpt><trkpt lat="43.70527586721188" lon="3.6841190037360176"><ele>185.0</ele><time>2026-04-28T09:00:24.971Z</time></trkpt><trkpt lat="43.70520838109651" lon="3.6840960206739104"><ele>185.0</ele><time>2026-04-28T09:00:25.971Z</time></trkpt><trkpt lat="43.70510418004483" lon="3.6840770705669597"><ele>185.6</ele><time>2026-04-28T09:00:27.971Z</time></trkpt><trkpt lat="43.70499919836596" lon="3.6840609017495"><ele>186.2</ele><time>2026-04-28T09:00:29.971Z</time></trkpt><trkpt lat="43.704904298879995" lon="3.6840231889692956"><ele>186.8</ele><time>2026-04-28T09:00:31.971Z</time></trkpt><trkpt lat="43.704791786914456" lon="3.6840113756982524"><ele>187.4</ele><time>2026-04-28T09:00:33.971Z</time></trkpt><trkpt lat="43.704684607294475" lon="3.6840134191897396"><ele>188.0</ele><time>2026-04-28T09:00:35.971Z</time></trkpt><trkpt lat="43.70457996121427" lon="3.6840275208748157"><ele>188.0</ele><time>2026-04-28T09:00:37.971Z</time></trkpt><trkpt lat="43.70448052056097" lon="3.6840113790389686"><ele>188.0</ele><time>2026-04-28T09:00:39.971Z</time></trkpt><trkpt lat="43.70439460317498" lon="3.68399117738281"><ele>188.0</ele><time>2026-04-28T09:00:41.971Z</time></trkpt><trkpt lat="43.70430658995339" lon="3.6839570379053668"><ele>188.0</ele><time>2026-04-28T09:00:43.971Z</time></trkpt><trkpt lat="43.70422808507549" lon="3.6839390442254287"><ele>188.0</ele><time>2026-04-28T09:00:45.971Z</time></trkpt><trkpt lat="43.70415889924155" lon="3.6839258415647396"><ele>188.0</ele><time>2026-04-28T09:00:47.971Z</time></trkpt><trkpt lat="43.704145678664105" lon="3.684036356641102"><ele>187.5</ele><time>2026-04-28T09:00:50.971Z</time></trkpt><trkpt lat="43.704177061005936" lon="3.6841263036645677"><ele>187.0</ele><time>2026-04-28T09:00:53.971Z</time></trkpt><trkpt lat="43.70420639922671" lon="3.684243947604553"><ele>186.5</ele><time>2026-04-28T09:00:56.971Z</time></trkpt><trkpt lat="43.704210836982874" lon="3.684367323129847"><ele>186.0</ele><time>2026-04-28T09:00:59.971Z</time></trkpt><trkpt lat="43.70421187669746" lon="3.6844581008712276"><ele>185.5</ele><time>2026-04-28T09:01:01.971Z</time></trkpt><trkpt lat="43.704227054700326" lon="3.68454604825494"><ele>185.0</ele><time>2026-04-28T09:01:03.972Z</time></trkpt><trkpt lat="43.70424368132738" lon="3.6846660645810148"><ele>184.99999999999997</ele><time>2026-04-28T09:01:06.971Z</time></trkpt><trkpt lat="43.704253002938465" lon="3.684755741481752"><ele>185.0</ele><time>2026-04-28T09:01:08.971Z</time></trkpt><trkpt lat="43.70426107189901" lon="3.6848429498566704"><ele>185.0</ele><time>2026-04-28T09:01:10.971Z</time></trkpt><trkpt lat="43.70427689826803" lon="3.6849328379435997"><ele>185.0</ele><time>2026-04-28T09:01:12.971Z</time></trkpt><trkpt lat="43.70429135916855" lon="3.685024938591538"><ele>185.0</ele><time>2026-04-28T09:01:14.971Z</time></trkpt><trkpt lat="43.70430312234045" lon="3.685115234756876"><ele>184.99999999999997</ele><time>2026-04-28T09:01:16.971Z</time></trkpt><trkpt lat="43.70431923115837" lon="3.685211447292492"><ele>185.0</ele><time>2026-04-28T09:01:18.971Z</time></trkpt><trkpt lat="43.70430518547746" lon="3.6853401970973847"><ele>185.33333333333331</ele><time>2026-04-28T09:01:21.971Z</time></trkpt><trkpt lat="43.704292849838346" lon="3.685427236319647"><ele>185.66666666666666</ele><time>2026-04-28T09:01:23.971Z</time></trkpt><trkpt lat="43.70426387335666" lon="3.685506815110744"><ele>186.0</ele><time>2026-04-28T09:01:25.971Z</time></trkpt><trkpt lat="43.70422508010655" lon="3.6856096043703674"><ele>186.33333333333334</ele><time>2026-04-28T09:01:28.971Z</time></trkpt><trkpt lat="43.70417757291667" lon="3.685712631007039"><ele>186.66666666666669</ele><time>2026-04-28T09:01:31.971Z</time></trkpt><trkpt lat="43.70413249469412" lon="3.685796047510966"><ele>187.0</ele><time>2026-04-28T09:01:34.971Z</time></trkpt><trkpt lat="43.704077419808634" lon="3.685863944890282"><ele>187.0</ele><time>2026-04-28T09:01:37.971Z</time></trkpt><trkpt lat="43.704011237896694" lon="3.6858626716086"><ele>187.0</ele><time>2026-04-28T09:01:40.971Z</time></trkpt><trkpt lat="43.70398325607631" lon="3.6859488386575303"><ele>187.0</ele><time>2026-04-28T09:01:43.971Z</time></trkpt><trkpt lat="43.70405251097877" lon="3.6859301497857837"><ele>187.0</ele><time>2026-04-28T09:01:47.971Z</time></trkpt><trkpt lat="43.70411966515991" lon="3.6858250869105857"><ele>187.0</ele><time>2026-04-28T09:01:50.971Z</time></trkpt><trkpt lat="43.704170900612155" lon="3.6857320307621655"><ele>187.0</ele><time>2026-04-28T09:01:52.971Z</time></trkpt><trkpt lat="43.704213242246226" lon="3.685650035919642"><ele>187.0</ele><time>2026-04-28T09:01:54.971Z</time></trkpt><trkpt lat="43.70427752563567" lon="3.6856343334854635"><ele>187.0</ele><time>2026-04-28T09:01:56.971Z</time></trkpt><trkpt lat="43.7043309489998" lon="3.6857158220552875"><ele>187.0</ele><time>2026-04-28T09:01:59.971Z</time></trkpt><trkpt lat="43.70435393852473" lon="3.6858215681389868"><ele>187.0</ele><time>2026-04-28T09:02:02.971Z</time></trkpt><trkpt lat="43.70437431179294" lon="3.685924823476387"><ele>187.0</ele><time>2026-04-28T09:02:05.971Z</time></trkpt><trkpt lat="43.704407578155596" lon="3.6860443531506837"><ele>187.0</ele><time>2026-04-28T09:02:07.971Z</time></trkpt><trkpt lat="43.70441615709349" lon="3.6861434803837834"><ele>188.33333333333334</ele><time>2026-04-28T09:02:09.97Z</time></trkpt><trkpt lat="43.704451263907906" lon="3.686281145506744"><ele>189.66666666666669</ele><time>2026-04-28T09:02:12.97Z</time></trkpt><trkpt lat="43.70447553694781" lon="3.6863804279218026"><ele>191.0</ele><time>2026-04-28T09:02:15.97Z</time></trkpt><trkpt lat="43.704499903749195" lon="3.6864849904783488"><ele>192.33333333333334</ele><time>2026-04-28T09:02:19.97Z</time></trkpt><trkpt lat="43.70452251793981" lon="3.6865937454130915"><ele>193.66666666666666</ele><time>2026-04-28T09:02:22.97Z</time></trkpt><trkpt lat="43.704536750694224" lon="3.6867240750511034"><ele>195.0</ele><time>2026-04-28T09:02:25.97Z</time></trkpt><trkpt lat="43.704543515948316" lon="3.6868115689648415"><ele>195.0</ele><time>2026-04-28T09:02:27.97Z</time></trkpt><trkpt lat="43.70456873899843" lon="3.6869096065300115"><ele>195.0</ele><time>2026-04-28T09:02:29.97Z</time></trkpt><trkpt lat="43.70474818855115" lon="3.686958331489376"><ele>195.0</ele><time>2026-04-28T09:02:36.97Z</time></trkpt><trkpt lat="43.70493699455876" lon="3.6869617654689013"><ele>195.0</ele><time>2026-04-28T09:02:43.97Z</time></trkpt><trkpt lat="43.705076897328844" lon="3.686969381814112"><ele>195.28571428571428</ele><time>2026-04-28T09:02:47.97Z</time></trkpt><trkpt lat="43.70515264635931" lon="3.686932025402905"><ele>195.57142857142856</ele><time>2026-04-28T09:02:49.97Z</time></trkpt><trkpt lat="43.705231145969876" lon="3.6869763090049883"><ele>195.85714285714286</ele><time>2026-04-28T09:02:52.97Z</time></trkpt><trkpt lat="43.705291302703344" lon="3.6870045175055277"><ele>196.14285714285714</ele><time>2026-04-28T09:02:54.97Z</time></trkpt><trkpt lat="43.705351576410884" lon="3.6870485494158793"><ele>196.42857142857144</ele><time>2026-04-28T09:02:56.97Z</time></trkpt><trkpt lat="43.70537437508981" lon="3.6871322609085886"><ele>196.71428571428572</ele><time>2026-04-28T09:02:58.97Z</time></trkpt><trkpt lat="43.70541223924034" lon="3.687208547984226"><ele>197.0</ele><time>2026-04-28T09:03:00.97Z</time></trkpt><trkpt lat="43.70546693739175" lon="3.687300685740228"><ele>197.16666666666669</ele><time>2026-04-28T09:03:03.971Z</time></trkpt><trkpt lat="43.70549351577759" lon="3.687380211379314"><ele>197.33333333333334</ele><time>2026-04-28T09:03:06.971Z</time></trkpt><trkpt lat="43.70552505929935" lon="3.687460624033602"><ele>197.5</ele><time>2026-04-28T09:03:08.971Z</time></trkpt><trkpt lat="43.70559277493318" lon="3.687548654036888"><ele>197.66666666666669</ele><time>2026-04-28T09:03:11.971Z</time></trkpt><trkpt lat="43.70565099871836" lon="3.687622823028832"><ele>197.83333333333334</ele><time>2026-04-28T09:03:14.971Z</time></trkpt><trkpt lat="43.705714409311035" lon="3.6876856397911206"><ele>198.0</ele><time>2026-04-28T09:03:17.971Z</time></trkpt><trkpt lat="43.70576192567184" lon="3.687762607439661"><ele>198.66666666666666</ele><time>2026-04-28T09:03:20.971Z</time></trkpt><trkpt lat="43.7057957498933" lon="3.6878591286340296"><ele>199.33333333333331</ele><time>2026-04-28T09:03:23.971Z</time></trkpt><trkpt lat="43.70582107041171" lon="3.687957917546423"><ele>200.0</ele><time>2026-04-28T09:03:26.971Z</time></trkpt><trkpt lat="43.70583875154598" lon="3.6880416350427248"><ele>200.66666666666666</ele><time>2026-04-28T09:03:28.971Z</time></trkpt><trkpt lat="43.70591143618807" lon="3.688130836655034"><ele>201.33333333333331</ele><time>2026-04-28T09:03:31.971Z</time></trkpt><trkpt lat="43.705963681678924" lon="3.688206818589308"><ele>202.0</ele><time>2026-04-28T09:03:34.971Z</time></trkpt><trkpt lat="43.70597180286617" lon="3.6883012118230156"><ele>202.0</ele><time>2026-04-28T09:03:37.971Z</time></trkpt><trkpt lat="43.70594412163038" lon="3.688394959491693"><ele>202.0</ele><time>2026-04-28T09:03:40.971Z</time></trkpt><trkpt lat="43.70595076775239" lon="3.688486852856685"><ele>202.0</ele><time>2026-04-28T09:03:42.971Z</time></trkpt><trkpt lat="43.70599598674905" lon="3.688562089799946"><ele>202.0</ele><time>2026-04-28T09:03:46.971Z</time></trkpt><trkpt lat="43.70600666800182" lon="3.6886585017758264"><ele>202.0</ele><time>2026-04-28T09:03:49.971Z</time></trkpt><trkpt lat="43.70597675152802" lon="3.6887509637105893"><ele>202.0</ele><time>2026-04-28T09:03:53.971Z</time></trkpt><trkpt lat="43.70596514576979" lon="3.68884580774496"><ele>202.0</ele><time>2026-04-28T09:03:56.971Z</time></trkpt><trkpt lat="43.70596978297718" lon="3.6889381374381953"><ele>202.66666666666666</ele><time>2026-04-28T09:03:59.971Z</time></trkpt><trkpt lat="43.70596903880985" lon="3.689030048218865"><ele>203.33333333333331</ele><time>2026-04-28T09:04:01.97Z</time></trkpt><trkpt lat="43.70600086669857" lon="3.689144198792353"><ele>204.0</ele><time>2026-04-28T09:04:04.97Z</time></trkpt><trkpt lat="43.70600411529905" lon="3.689251510275773"><ele>204.66666666666669</ele><time>2026-04-28T09:04:07.97Z</time></trkpt><trkpt lat="43.70599960850887" lon="3.6893676325580538"><ele>205.33333333333334</ele><time>2026-04-28T09:04:10.97Z</time></trkpt><trkpt lat="43.70597924996236" lon="3.6894699167084393"><ele>206.0</ele><time>2026-04-28T09:04:13.97Z</time></trkpt><trkpt lat="43.70598318183983" lon="3.6895967340713045"><ele>206.00000000000003</ele><time>2026-04-28T09:04:16.97Z</time></trkpt><trkpt lat="43.7060281616051" lon="3.689668607857201"><ele>206.0</ele><time>2026-04-28T09:04:18.97Z</time></trkpt><trkpt lat="43.70606912947865" lon="3.6897363247709944"><ele>206.0</ele><time>2026-04-28T09:04:20.97Z</time></trkpt><trkpt lat="43.70611350943766" lon="3.6898221069294874"><ele>206.0</ele><time>2026-04-28T09:04:22.97Z</time></trkpt><trkpt lat="43.70614753614102" lon="3.6899109214757853"><ele>206.00000000000003</ele><time>2026-04-28T09:04:24.97Z</time></trkpt><trkpt lat="43.706222456655" lon="3.6900043662031283"><ele>206.0</ele><time>2026-04-28T09:04:44.97Z</time></trkpt><trkpt lat="43.706251759628856" lon="3.69008929109159"><ele>206.00000000000003</ele><time>2026-04-28T09:04:48.97Z</time></trkpt><trkpt lat="43.70626994082954" lon="3.6902137409503593"><ele>206.0</ele><time>2026-04-28T09:04:51.97Z</time></trkpt><trkpt lat="43.70630842343326" lon="3.690290063842963"><ele>206.0</ele><time>2026-04-28T09:04:54.97Z</time></trkpt><trkpt lat="43.706344443819496" lon="3.6903714498649713"><ele>206.0</ele><time>2026-04-28T09:04:56.97Z</time></trkpt><trkpt lat="43.70632108613462" lon="3.6904960235227238"><ele>206.00000000000003</ele><time>2026-04-28T09:04:59.97Z</time></trkpt><trkpt lat="43.706257399193255" lon="3.690584359698337"><ele>206.0</ele><time>2026-04-28T09:05:02.97Z</time></trkpt><trkpt lat="43.706222814081485" lon="3.690663461079044"><ele>205.50000000000003</ele><time>2026-04-28T09:05:04.97Z</time></trkpt><trkpt lat="43.706161991546004" lon="3.6907402376518625"><ele>205.0</ele><time>2026-04-28T09:05:07.97Z</time></trkpt><trkpt lat="43.70608807657286" lon="3.690798194597827"><ele>204.5</ele><time>2026-04-28T09:05:10.971Z</time></trkpt><trkpt lat="43.7060273797401" lon="3.6908526230128755"><ele>204.0</ele><time>2026-04-28T09:05:12.971Z</time></trkpt><trkpt lat="43.70597523496423" lon="3.690902383362432"><ele>203.50000000000003</ele><time>2026-04-28T09:05:14.971Z</time></trkpt><trkpt lat="43.705914813275335" lon="3.690974622371949"><ele>203.0</ele><time>2026-04-28T09:05:16.971Z</time></trkpt><trkpt lat="43.70583794975873" lon="3.691037360494355"><ele>203.00000000000003</ele><time>2026-04-28T09:05:19.971Z</time></trkpt><trkpt lat="43.705780413903184" lon="3.6910944387816462"><ele>203.0</ele><time>2026-04-28T09:05:21.971Z</time></trkpt><trkpt lat="43.70572407336691" lon="3.6911609098931244"><ele>203.0</ele><time>2026-04-28T09:05:23.971Z</time></trkpt><trkpt lat="43.70565982003457" lon="3.691238341881555"><ele>203.0</ele><time>2026-04-28T09:05:25.971Z</time></trkpt><trkpt lat="43.70558081798345" lon="3.6912818584311413"><ele>203.00000000000003</ele><time>2026-04-28T09:05:28.971Z</time></trkpt><trkpt lat="43.70552751350996" lon="3.6913331684485575"><ele>203.0</ele><time>2026-04-28T09:05:30.971Z</time></trkpt><trkpt lat="43.70544081946724" lon="3.691377750104695"><ele>203.00000000000003</ele><time>2026-04-28T09:05:33.971Z</time></trkpt><trkpt lat="43.70535416580879" lon="3.6913552766946998"><ele>203.0</ele><time>2026-04-28T09:05:36.971Z</time></trkpt><trkpt lat="43.70527990500395" lon="3.691353036991335"><ele>203.0</ele><time>2026-04-28T09:05:38.971Z</time></trkpt><trkpt lat="43.70520934329563" lon="3.6913687106425703"><ele>203.0</ele><time>2026-04-28T09:05:40.971Z</time></trkpt><trkpt lat="43.705114069900176" lon="3.6913677658165365"><ele>203.00000000000003</ele><time>2026-04-28T09:05:42.971Z</time></trkpt><trkpt lat="43.705032653742755" lon="3.691351802367266"><ele>203.0</ele><time>2026-04-28T09:05:44.971Z</time></trkpt><trkpt lat="43.70495149594386" lon="3.6913536280068713"><ele>203.16666666666669</ele><time>2026-04-28T09:05:47.971Z</time></trkpt><trkpt lat="43.704874871826725" lon="3.6913592222141713"><ele>203.33333333333334</ele><time>2026-04-28T09:05:49.971Z</time></trkpt><trkpt lat="43.70479579811436" lon="3.6913727504050504"><ele>203.5</ele><time>2026-04-28T09:05:51.971Z</time></trkpt><trkpt lat="43.70471813157444" lon="3.6913938473418995"><ele>203.66666666666669</ele><time>2026-04-28T09:05:53.971Z</time></trkpt><trkpt lat="43.70462220293215" lon="3.691384345239031"><ele>203.83333333333334</ele><time>2026-04-28T09:05:56.971Z</time></trkpt><trkpt lat="43.70455273274538" lon="3.691395297543041"><ele>204.0</ele><time>2026-04-28T09:05:58.971Z</time></trkpt><trkpt lat="43.70448783018922" lon="3.691421487507893"><ele>204.0</ele><time>2026-04-28T09:06:00.971Z</time></trkpt><trkpt lat="43.70442388055016" lon="3.691411711604487"><ele>204.0</ele><time>2026-04-28T09:06:02.971Z</time></trkpt><trkpt lat="43.704346028997506" lon="3.6914240860775576"><ele>204.0</ele><time>2026-04-28T09:06:05.971Z</time></trkpt><trkpt lat="43.70427391846167" lon="3.6914261190612603"><ele>204.0</ele><time>2026-04-28T09:06:08.97Z</time></trkpt><trkpt lat="43.70421018046744" lon="3.6914321660941907"><ele>204.0</ele><time>2026-04-28T09:06:11.97Z</time></trkpt><trkpt lat="43.70415159147401" lon="3.6914729583670405"><ele>204.0</ele><time>2026-04-28T09:06:14.97Z</time></trkpt><trkpt lat="43.704067289502625" lon="3.691498209247508"><ele>204.0</ele><time>2026-04-28T09:06:17.97Z</time></trkpt><trkpt lat="43.70398727235296" lon="3.691524493153338"><ele>204.33333333333334</ele><time>2026-04-28T09:06:20.97Z</time></trkpt><trkpt lat="43.70390933703284" lon="3.6915371746304846"><ele>204.66666666666669</ele><time>2026-04-28T09:06:22.97Z</time></trkpt><trkpt lat="43.70384512435069" lon="3.6915584022862036"><ele>205.0</ele><time>2026-04-28T09:06:24.97Z</time></trkpt><trkpt lat="43.70378163515295" lon="3.6915667671317274"><ele>205.33333333333334</ele><time>2026-04-28T09:06:26.97Z</time></trkpt><trkpt lat="43.703690620659785" lon="3.6915695107435185"><ele>205.66666666666669</ele><time>2026-04-28T09:06:29.97Z</time></trkpt><trkpt lat="43.70358092701464" lon="3.6915508420315186"><ele>206.0</ele><time>2026-04-28T09:06:32.97Z</time></trkpt><trkpt lat="43.70349949820234" lon="3.6915236025638345"><ele>205.14285714285714</ele><time>2026-04-28T09:06:34.97Z</time></trkpt><trkpt lat="43.7034281036343" lon="3.691529070266279"><ele>204.28571428571428</ele><time>2026-04-28T09:06:36.97Z</time></trkpt><trkpt lat="43.703334489961605" lon="3.691541994807196"><ele>203.42857142857144</ele><time>2026-04-28T09:06:39.97Z</time></trkpt><trkpt lat="43.7032711249788" lon="3.6915881318116925"><ele>202.57142857142856</ele><time>2026-04-28T09:06:41.97Z</time></trkpt><trkpt lat="43.703218600184755" lon="3.6916635128400657"><ele>201.71428571428572</ele><time>2026-04-28T09:06:43.97Z</time></trkpt><trkpt lat="43.7031607642084" lon="3.6917100035200923"><ele>200.85714285714286</ele><time>2026-04-28T09:06:45.97Z</time></trkpt><trkpt lat="43.703118082570626" lon="3.691781570562437"><ele>200.0</ele><time>2026-04-28T09:06:48.97Z</time></trkpt><trkpt lat="43.70307495266211" lon="3.691855338143737"><ele>200.00000000000003</ele><time>2026-04-28T09:06:51.97Z</time></trkpt><trkpt lat="43.70301662471656" lon="3.691925483903051"><ele>200.0</ele><time>2026-04-28T09:06:54.97Z</time></trkpt><trkpt lat="43.702955497844776" lon="3.6919929521728503"><ele>200.0</ele><time>2026-04-28T09:06:57.97Z</time></trkpt><trkpt lat="43.70289426727659" lon="3.6920612657755276"><ele>200.0</ele><time>2026-04-28T09:07:00.97Z</time></trkpt><trkpt lat="43.70284735511075" lon="3.6921284025639656"><ele>200.0</ele><time>2026-04-28T09:07:03.97Z</time></trkpt><trkpt lat="43.7028103655836" lon="3.6921991934141296"><ele>200.00000000000003</ele><time>2026-04-28T09:07:06.97Z</time></trkpt><trkpt lat="43.70276417295205" lon="3.69229317624247"><ele>200.0</ele><time>2026-04-28T09:07:09.97Z</time></trkpt><trkpt lat="43.70272708150486" lon="3.6923795309208494"><ele>200.00000000000003</ele><time>2026-04-28T09:07:12.97Z</time></trkpt><trkpt lat="43.70268073907367" lon="3.692486796662099"><ele>200.0</ele><time>2026-04-28T09:07:15.97Z</time></trkpt><trkpt lat="43.70262881164293" lon="3.6925832183410705"><ele>200.0</ele><time>2026-04-28T09:07:18.97Z</time></trkpt><trkpt lat="43.70259101106204" lon="3.692660522600171"><ele>200.0</ele><time>2026-04-28T09:07:20.971Z</time></trkpt><trkpt lat="43.70256179029945" lon="3.6927681609019354"><ele>200.00000000000003</ele><time>2026-04-28T09:07:23.97Z</time></trkpt><trkpt lat="43.70254124949965" lon="3.6928555219595265"><ele>200.0</ele><time>2026-04-28T09:07:25.971Z</time></trkpt><trkpt lat="43.70254283479187" lon="3.69294805983623"><ele>200.50000000000003</ele><time>2026-04-28T09:07:27.97Z</time></trkpt><trkpt lat="43.702509949547995" lon="3.6930599642764794"><ele>201.0</ele><time>2026-04-28T09:07:30.97Z</time></trkpt><trkpt lat="43.702484362511385" lon="3.693180980504826"><ele>201.5</ele><time>2026-04-28T09:07:33.97Z</time></trkpt><trkpt lat="43.70246076871608" lon="3.693302160297958"><ele>202.0</ele><time>2026-04-28T09:07:36.97Z</time></trkpt><trkpt lat="43.702435846636746" lon="3.6933959685969864"><ele>202.50000000000003</ele><time>2026-04-28T09:07:38.97Z</time></trkpt><trkpt lat="43.702408582252126" lon="3.6934882045749946"><ele>203.0</ele><time>2026-04-28T09:07:40.97Z</time></trkpt><trkpt lat="43.70238729492125" lon="3.6935833139400227"><ele>203.50000000000003</ele><time>2026-04-28T09:07:42.97Z</time></trkpt><trkpt lat="43.70237328037498" lon="3.6936788837830608"><ele>204.0</ele><time>2026-04-28T09:07:44.97Z</time></trkpt><trkpt lat="43.70234036688513" lon="3.6937950663782626"><ele>204.5</ele><time>2026-04-28T09:07:47.969Z</time></trkpt><trkpt lat="43.70232037797566" lon="3.6938802844408047"><ele>205.0</ele><time>2026-04-28T09:07:49.969Z</time></trkpt><trkpt lat="43.70229867585359" lon="3.6939938426810026"><ele>205.50000000000003</ele><time>2026-04-28T09:07:52.969Z</time></trkpt><trkpt lat="43.702274280279326" lon="3.6941149155670785"><ele>206.0</ele><time>2026-04-28T09:07:55.969Z</time></trkpt><trkpt lat="43.70224534003985" lon="3.694241205751222"><ele>205.99999999999997</ele><time>2026-04-28T09:07:58.969Z</time></trkpt><trkpt lat="43.70223285632359" lon="3.6943292447258536"><ele>206.0</ele><time>2026-04-28T09:08:00.969Z</time></trkpt><trkpt lat="43.70222082730264" lon="3.6944167589040364"><ele>206.0</ele><time>2026-04-28T09:08:02.969Z</time></trkpt><trkpt lat="43.7022049480678" lon="3.6945016939580335"><ele>206.0</ele><time>2026-04-28T09:08:04.969Z</time></trkpt><trkpt lat="43.70220336014833" lon="3.694589942745242"><ele>206.0</ele><time>2026-04-28T09:08:06.969Z</time></trkpt><trkpt lat="43.70220353715547" lon="3.694679834075966"><ele>205.99999999999997</ele><time>2026-04-28T09:08:08.969Z</time></trkpt><trkpt lat="43.70219560780785" lon="3.6947751594856806"><ele>206.0</ele><time>2026-04-28T09:08:10.969Z</time></trkpt><trkpt lat="43.70219590580568" lon="3.694875334708227"><ele>206.20000000000002</ele><time>2026-04-28T09:08:12.969Z</time></trkpt><trkpt lat="43.70220073628592" lon="3.6950017772501216"><ele>206.4</ele><time>2026-04-28T09:08:14.969Z</time></trkpt><trkpt lat="43.70221821661117" lon="3.695117726034769"><ele>206.6</ele><time>2026-04-28T09:08:16.969Z</time></trkpt><trkpt lat="43.702220680661895" lon="3.6952516755095988"><ele>206.8</ele><time>2026-04-28T09:08:18.969Z</time></trkpt><trkpt lat="43.70222115472818" lon="3.695413542972573"><ele>207.0</ele><time>2026-04-28T09:08:20.969Z</time></trkpt><trkpt lat="43.70221208840547" lon="3.6955007519805814"><ele>206.5</ele><time>2026-04-28T09:08:21.969Z</time></trkpt><trkpt lat="43.70220318439356" lon="3.6955918832083494"><ele>206.0</ele><time>2026-04-28T09:08:22.969Z</time></trkpt><trkpt lat="43.70219321263738" lon="3.6956929335017445"><ele>205.5</ele><time>2026-04-28T09:08:23.969Z</time></trkpt><trkpt lat="43.702172920559754" lon="3.6957963053815743"><ele>205.0</ele><time>2026-04-28T09:08:24.969Z</time></trkpt><trkpt lat="43.702152138845555" lon="3.695903007729896"><ele>204.5</ele><time>2026-04-28T09:08:25.969Z</time></trkpt><trkpt lat="43.702128167589265" lon="3.6960082222609625"><ele>204.0</ele><time>2026-04-28T09:08:26.969Z</time></trkpt><trkpt lat="43.70209606113347" lon="3.6961365517606217"><ele>203.66666666666666</ele><time>2026-04-28T09:08:27.969Z</time></trkpt><trkpt lat="43.70207949580049" lon="3.696259913691586"><ele>203.33333333333331</ele><time>2026-04-28T09:08:28.969Z</time></trkpt><trkpt lat="43.70208796304323" lon="3.6963635530665506"><ele>203.0</ele><time>2026-04-28T09:08:29.969Z</time></trkpt><trkpt lat="43.70208831652047" lon="3.6964940341156103"><ele>202.66666666666666</ele><time>2026-04-28T09:08:31.969Z</time></trkpt><trkpt lat="43.70204110462721" lon="3.6965743467939505"><ele>202.33333333333331</ele><time>2026-04-28T09:08:33.969Z</time></trkpt><trkpt lat="43.70197382280153" lon="3.6965923631873494"><ele>202.0</ele><time>2026-04-28T09:08:35.969Z</time></trkpt><trkpt lat="43.70191299619438" lon="3.6966838641170003"><ele>202.0</ele><time>2026-04-28T09:08:40.969Z</time></trkpt><trkpt lat="43.70187717026829" lon="3.6967883899373493"><ele>202.0</ele><time>2026-04-28T09:08:43.969Z</time></trkpt><trkpt lat="43.70184001000879" lon="3.696866560497616"><ele>202.0</ele><time>2026-04-28T09:08:45.969Z</time></trkpt><trkpt lat="43.70179392502979" lon="3.696930555464139"><ele>202.0</ele><time>2026-04-28T09:08:47.969Z</time></trkpt><trkpt lat="43.701754431843845" lon="3.6970045710750585"><ele>202.0</ele><time>2026-04-28T09:08:49.969Z</time></trkpt><trkpt lat="43.7017051913392" lon="3.6970723776742394"><ele>202.0</ele><time>2026-04-28T09:08:51.969Z</time></trkpt><trkpt lat="43.701653268862806" lon="3.697129878806871"><ele>202.0</ele><time>2026-04-28T09:08:53.969Z</time></trkpt><trkpt lat="43.70159634251545" lon="3.69723004353184"><ele>201.49999999999997</ele><time>2026-04-28T09:08:56.969Z</time></trkpt><trkpt lat="43.70155183232077" lon="3.697293701157385"><ele>201.0</ele><time>2026-04-28T09:08:58.969Z</time></trkpt><trkpt lat="43.701506614727386" lon="3.697362027457826"><ele>200.5</ele><time>2026-04-28T09:09:00.969Z</time></trkpt><trkpt lat="43.701473989578844" lon="3.6974478138619036"><ele>200.0</ele><time>2026-04-28T09:09:02.969Z</time></trkpt><trkpt lat="43.701435953814986" lon="3.697525365269935"><ele>199.49999999999997</ele><time>2026-04-28T09:09:04.969Z</time></trkpt><trkpt lat="43.70137132777928" lon="3.6976182763326"><ele>199.0</ele><time>2026-04-28T09:09:07.969Z</time></trkpt><trkpt lat="43.701304755349845" lon="3.6977145781897875"><ele>198.99999999999997</ele><time>2026-04-28T09:09:10.969Z</time></trkpt><trkpt lat="43.701251849268495" lon="3.6977745796156416"><ele>199.0</ele><time>2026-04-28T09:09:12.969Z</time></trkpt><trkpt lat="43.7011924858709" lon="3.6978545558778824"><ele>199.0</ele><time>2026-04-28T09:09:15.969Z</time></trkpt><trkpt lat="43.70113546438803" lon="3.697936538298671"><ele>199.0</ele><time>2026-04-28T09:09:17.969Z</time></trkpt><trkpt lat="43.70108094177983" lon="3.6980347750372404"><ele>198.99999999999997</ele><time>2026-04-28T09:09:20.97Z</time></trkpt><trkpt lat="43.701037862457824" lon="3.698134364637854"><ele>199.0</ele><time>2026-04-28T09:09:22.97Z</time></trkpt><trkpt lat="43.70098626984169" lon="3.698210312045133"><ele>198.99999999999997</ele><time>2026-04-28T09:09:24.97Z</time></trkpt><trkpt lat="43.70095908089274" lon="3.698302785227006"><ele>199.0</ele><time>2026-04-28T09:09:27.969Z</time></trkpt><trkpt lat="43.70090177608461" lon="3.6984114696330193"><ele>199.0</ele><time>2026-04-28T09:09:30.969Z</time></trkpt><trkpt lat="43.7008535590989" lon="3.6984698046309026"><ele>199.0</ele><time>2026-04-28T09:09:32.97Z</time></trkpt><trkpt lat="43.70079389427803" lon="3.6985030395647662"><ele>198.99999999999997</ele><time>2026-04-28T09:09:34.97Z</time></trkpt><trkpt lat="43.70072317725124" lon="3.698503710618073"><ele>199.0</ele><time>2026-04-28T09:09:36.97Z</time></trkpt><trkpt lat="43.700642728591326" lon="3.6985398458014154"><ele>198.66666666666666</ele><time>2026-04-28T09:09:39.97Z</time></trkpt><trkpt lat="43.700571238638" lon="3.6986160215385504"><ele>198.33333333333331</ele><time>2026-04-28T09:09:42.97Z</time></trkpt><trkpt lat="43.700530640994614" lon="3.6987225228155842"><ele>198.0</ele><time>2026-04-28T09:09:44.969Z</time></trkpt><trkpt lat="43.70046486119695" lon="3.698808258600614"><ele>197.66666666666669</ele><time>2026-04-28T09:09:46.969Z</time></trkpt><trkpt lat="43.70038934021615" lon="3.698833291215228"><ele>197.33333333333334</ele><time>2026-04-28T09:09:48.969Z</time></trkpt><trkpt lat="43.70031035876827" lon="3.6988035203050593"><ele>197.0</ele><time>2026-04-28T09:09:50.969Z</time></trkpt><trkpt lat="43.70025684970107" lon="3.698756584591655"><ele>196.71428571428572</ele><time>2026-04-28T09:09:52.969Z</time></trkpt><trkpt lat="43.70019461659624" lon="3.6987322879507"><ele>196.42857142857144</ele><time>2026-04-28T09:09:54.969Z</time></trkpt><trkpt lat="43.70013166686176" lon="3.6987285228378584"><ele>196.14285714285714</ele><time>2026-04-28T09:09:56.969Z</time></trkpt><trkpt lat="43.70005476872577" lon="3.698720156754572"><ele>195.85714285714286</ele><time>2026-04-28T09:09:58.969Z</time></trkpt><trkpt lat="43.69996504584561" lon="3.698718042947469"><ele>195.57142857142856</ele><time>2026-04-28T09:10:00.969Z</time></trkpt><trkpt lat="43.699898042960974" lon="3.6987194392670055"><ele>195.28571428571428</ele><time>2026-04-28T09:10:02.969Z</time></trkpt><trkpt lat="43.69983998913879" lon="3.698684629693917"><ele>195.0</ele><time>2026-04-28T09:10:04.969Z</time></trkpt><trkpt lat="43.699768559415176" lon="3.698634188019513"><ele>195.0</ele><time>2026-04-28T09:10:06.969Z</time></trkpt><trkpt lat="43.69968481157526" lon="3.698609549579396"><ele>195.0</ele><time>2026-04-28T09:10:08.969Z</time></trkpt><trkpt lat="43.69959835785626" lon="3.698543507208887"><ele>195.0</ele><time>2026-04-28T09:10:10.969Z</time></trkpt><trkpt lat="43.699500390935256" lon="3.698482686984758"><ele>195.0</ele><time>2026-04-28T09:10:12.969Z</time></trkpt><trkpt lat="43.699393330951644" lon="3.6984073877849224"><ele>195.0</ele><time>2026-04-28T09:10:14.969Z</time></trkpt><trkpt lat="43.69928342192685" lon="3.6983117228677767"><ele>194.4</ele><time>2026-04-28T09:10:16.969Z</time></trkpt><trkpt lat="43.699194521061926" lon="3.6981916206230956"><ele>193.8</ele><time>2026-04-28T09:10:18.969Z</time></trkpt><trkpt lat="43.69914223144813" lon="3.6980431516499284"><ele>193.2</ele><time>2026-04-28T09:10:20.969Z</time></trkpt><trkpt lat="43.69910449807625" lon="3.697956410559589"><ele>192.6</ele><time>2026-04-28T09:10:21.969Z</time></trkpt><trkpt lat="43.69899754389115" lon="3.6978551099377777"><ele>192.0</ele><time>2026-04-28T09:10:23.969Z</time></trkpt><trkpt lat="43.69889202743902" lon="3.697746614736972"><ele>192.0</ele><time>2026-04-28T09:10:25.969Z</time></trkpt><trkpt lat="43.698840087489494" lon="3.697681587721194"><ele>192.0</ele><time>2026-04-28T09:10:26.969Z</time></trkpt><trkpt lat="43.69879605769659" lon="3.697608721167155"><ele>192.0</ele><time>2026-04-28T09:10:27.969Z</time></trkpt><trkpt lat="43.69874447979279" lon="3.6975354536996203"><ele>192.0</ele><time>2026-04-28T09:10:28.969Z</time></trkpt><trkpt lat="43.69865282773527" lon="3.697447307283655"><ele>192.0</ele><time>2026-04-28T09:10:30.969Z</time></trkpt><trkpt lat="43.69857573430002" lon="3.6973941369039305"><ele>192.0</ele><time>2026-04-28T09:10:32.969Z</time></trkpt><trkpt lat="43.698513685666725" lon="3.69736196866955"><ele>190.5</ele><time>2026-04-28T09:10:33.969Z</time></trkpt><trkpt lat="43.6984348738836" lon="3.697279854335045"><ele>189.0</ele><time>2026-04-28T09:10:35.969Z</time></trkpt><trkpt lat="43.69836405583417" lon="3.6971964627653207"><ele>187.5</ele><time>2026-04-28T09:10:37.969Z</time></trkpt><trkpt lat="43.69832064675568" lon="3.69713098830724"><ele>186.0</ele><time>2026-04-28T09:10:39.969Z</time></trkpt><trkpt lat="43.698254350951935" lon="3.697075844186216"><ele>184.5</ele><time>2026-04-28T09:10:41.969Z</time></trkpt><trkpt lat="43.69818592211721" lon="3.697049158852034"><ele>183.0</ele><time>2026-04-28T09:10:43.969Z</time></trkpt><trkpt lat="43.698091176190786" lon="3.696999605838949"><ele>183.0</ele><time>2026-04-28T09:10:45.969Z</time></trkpt><trkpt lat="43.698010797161906" lon="3.696991311427084"><ele>183.0</ele><time>2026-04-28T09:10:47.969Z</time></trkpt><trkpt lat="43.69792576862661" lon="3.6969533016952663"><ele>183.0</ele><time>2026-04-28T09:10:49.969Z</time></trkpt><trkpt lat="43.697839306449545" lon="3.6968898518840536"><ele>183.0</ele><time>2026-04-28T09:10:51.969Z</time></trkpt><trkpt lat="43.69778007699593" lon="3.6967706659290496"><ele>183.0</ele><time>2026-04-28T09:10:53.969Z</time></trkpt><trkpt lat="43.697740953297796" lon="3.6966684652028703"><ele>182.83333333333334</ele><time>2026-04-28T09:10:55.969Z</time></trkpt><trkpt lat="43.69770837638242" lon="3.696567380034043"><ele>182.66666666666666</ele><time>2026-04-28T09:10:59.969Z</time></trkpt><trkpt lat="43.697699015532685" lon="3.6964524124190423"><ele>182.5</ele><time>2026-04-28T09:11:03.969Z</time></trkpt><trkpt lat="43.697724450098406" lon="3.6963576907414275"><ele>182.33333333333331</ele><time>2026-04-28T09:11:08.969Z</time></trkpt><trkpt lat="43.69777719616332" lon="3.696263772734856"><ele>182.16666666666666</ele><time>2026-04-28T09:11:11.969Z</time></trkpt><trkpt lat="43.69784246114344" lon="3.6961822771331674"><ele>182.0</ele><time>2026-04-28T09:11:14.969Z</time></trkpt><trkpt lat="43.697892826705086" lon="3.6961250418344576"><ele>181.66666666666666</ele><time>2026-04-28T09:11:16.969Z</time></trkpt><trkpt lat="43.697945126947914" lon="3.6960665810878934"><ele>181.33333333333331</ele><time>2026-04-28T09:11:18.969Z</time></trkpt><trkpt lat="43.69800136596433" lon="3.696017585814412"><ele>181.0</ele><time>2026-04-28T09:11:20.969Z</time></trkpt><trkpt lat="43.69805847415677" lon="3.6959543890830204"><ele>180.66666666666666</ele><time>2026-04-28T09:11:23.969Z</time></trkpt><trkpt lat="43.698114989843226" lon="3.6959060740620333"><ele>180.33333333333334</ele><time>2026-04-28T09:11:25.968Z</time></trkpt><trkpt lat="43.6981810989838" lon="3.6958265634556677"><ele>180.0</ele><time>2026-04-28T09:11:28.969Z</time></trkpt><trkpt lat="43.69824622820722" lon="3.695735687991773"><ele>180.0</ele><time>2026-04-28T09:11:31.97Z</time></trkpt><trkpt lat="43.69828964687093" lon="3.6956614100996235"><ele>180.0</ele><time>2026-04-28T09:11:33.97Z</time></trkpt><trkpt lat="43.698343767755844" lon="3.695565810958003"><ele>180.0</ele><time>2026-04-28T09:11:36.969Z</time></trkpt><trkpt lat="43.69838954454099" lon="3.6954748520565412"><ele>180.0</ele><time>2026-04-28T09:11:38.969Z</time></trkpt><trkpt lat="43.69843891617859" lon="3.695391107104605"><ele>180.0</ele><time>2026-04-28T09:11:40.97Z</time></trkpt><trkpt lat="43.69849409376526" lon="3.6953013645270567"><ele>180.0</ele><time>2026-04-28T09:11:43.97Z</time></trkpt><trkpt lat="43.69852878157066" lon="3.6951975333878497"><ele>180.0</ele><time>2026-04-28T09:11:45.97Z</time></trkpt><trkpt lat="43.69856089455048" lon="3.6951210026015264"><ele>180.0</ele><time>2026-04-28T09:11:47.97Z</time></trkpt><trkpt lat="43.69856988123696" lon="3.6950149372336445"><ele>180.0</ele><time>2026-04-28T09:11:50.97Z</time></trkpt><trkpt lat="43.69857770976463" lon="3.6949235778524576"><ele>180.0</ele><time>2026-04-28T09:11:53.97Z</time></trkpt><trkpt lat="43.69858929049705" lon="3.694812499363111"><ele>180.0</ele><time>2026-04-28T09:11:56.97Z</time></trkpt><trkpt lat="43.698573963600786" lon="3.694688468362336"><ele>180.0</ele><time>2026-04-28T09:11:59.97Z</time></trkpt><trkpt lat="43.698544729598446" lon="3.694596729164476"><ele>180.0</ele><time>2026-04-28T09:12:01.97Z</time></trkpt><trkpt lat="43.698510694411006" lon="3.694484547459372"><ele>180.0</ele><time>2026-04-28T09:12:04.97Z</time></trkpt><trkpt lat="43.69846756619265" lon="3.694406953898024"><ele>180.0</ele><time>2026-04-28T09:12:06.97Z</time></trkpt><trkpt lat="43.69842699862485" lon="3.6943398631127105"><ele>180.0</ele><time>2026-04-28T09:12:09.97Z</time></trkpt><trkpt lat="43.69837750512247" lon="3.6942751116852364"><ele>180.0</ele><time>2026-04-28T09:12:12.97Z</time></trkpt><trkpt lat="43.698312988562904" lon="3.6942316432350544"><ele>180.0</ele><time>2026-04-28T09:12:15.97Z</time></trkpt><trkpt lat="43.69825331424827" lon="3.6941681882864246"><ele>180.0</ele><time>2026-04-28T09:12:18.969Z</time></trkpt><trkpt lat="43.69818901069341" lon="3.6940961966564227"><ele>180.16666666666666</ele><time>2026-04-28T09:12:21.969Z</time></trkpt><trkpt lat="43.69810322458702" lon="3.694071338610436"><ele>180.33333333333334</ele><time>2026-04-28T09:12:24.969Z</time></trkpt><trkpt lat="43.698024756232535" lon="3.6940033336154827"><ele>180.5</ele><time>2026-04-28T09:12:27.969Z</time></trkpt><trkpt lat="43.69793543731206" lon="3.693951786639296"><ele>180.66666666666669</ele><time>2026-04-28T09:12:30.969Z</time></trkpt><trkpt lat="43.69787653086722" lon="3.69391662454915"><ele>180.83333333333334</ele><time>2026-04-28T09:12:32.969Z</time></trkpt><trkpt lat="43.69781396613847" lon="3.693891782808377"><ele>181.0</ele><time>2026-04-28T09:12:34.969Z</time></trkpt><trkpt lat="43.69773532853143" lon="3.6938247808301443"><ele>181.14285714285714</ele><time>2026-04-28T09:12:37.969Z</time></trkpt><trkpt lat="43.69767713824259" lon="3.6937866064048626"><ele>181.28571428571428</ele><time>2026-04-28T09:12:39.969Z</time></trkpt><trkpt lat="43.69761222846111" lon="3.6937254882818786"><ele>181.42857142857144</ele><time>2026-04-28T09:12:41.969Z</time></trkpt><trkpt lat="43.69757849727081" lon="3.6936487699815186"><ele>181.57142857142856</ele><time>2026-04-28T09:12:43.969Z</time></trkpt><trkpt lat="43.69753998901415" lon="3.693540928500443"><ele>181.71428571428572</ele><time>2026-04-28T09:12:46.969Z</time></trkpt><trkpt lat="43.69751839018621" lon="3.6934589375254014"><ele>181.85714285714286</ele><time>2026-04-28T09:12:48.969Z</time></trkpt><trkpt lat="43.69749019831936" lon="3.693365472450067"><ele>182.0</ele><time>2026-04-28T09:12:50.969Z</time></trkpt><trkpt lat="43.69745873027248" lon="3.6932340300679893"><ele>182.0</ele><time>2026-04-28T09:12:53.969Z</time></trkpt><trkpt lat="43.6974357664136" lon="3.6931410466022947"><ele>182.0</ele><time>2026-04-28T09:12:55.969Z</time></trkpt><trkpt lat="43.69742227794055" lon="3.693023583412673"><ele>182.0</ele><time>2026-04-28T09:12:58.969Z</time></trkpt><trkpt lat="43.697414745022975" lon="3.692930799639934"><ele>182.0</ele><time>2026-04-28T09:13:00.969Z</time></trkpt><trkpt lat="43.69741504141539" lon="3.6928089994318376"><ele>182.0</ele><time>2026-04-28T09:13:03.969Z</time></trkpt><trkpt lat="43.69741227598713" lon="3.692670301259436"><ele>182.0</ele><time>2026-04-28T09:13:05.969Z</time></trkpt><trkpt lat="43.697410778708544" lon="3.692564696066016"><ele>182.0</ele><time>2026-04-28T09:13:07.969Z</time></trkpt><trkpt lat="43.69738064786109" lon="3.692485521722999"><ele>182.0</ele><time>2026-04-28T09:13:09.969Z</time></trkpt><trkpt lat="43.697368159297575" lon="3.692386753170651"><ele>182.0</ele><time>2026-04-28T09:13:11.969Z</time></trkpt><trkpt lat="43.69734674909583" lon="3.692295371672391"><ele>182.0</ele><time>2026-04-28T09:13:14.969Z</time></trkpt><trkpt lat="43.69732523444096" lon="3.6921788592345606"><ele>182.0</ele><time>2026-04-28T09:13:17.969Z</time></trkpt><trkpt lat="43.69731268661097" lon="3.6920872207703397"><ele>182.0</ele><time>2026-04-28T09:13:19.969Z</time></trkpt><trkpt lat="43.69731945257837" lon="3.691938329931009"><ele>182.39999999999998</ele><time>2026-04-28T09:13:22.969Z</time></trkpt><trkpt lat="43.69730664995022" lon="3.691831387394639"><ele>182.79999999999998</ele><time>2026-04-28T09:13:24.969Z</time></trkpt><trkpt lat="43.69729730575645" lon="3.6916954952386742"><ele>183.2</ele><time>2026-04-28T09:13:27.969Z</time></trkpt><trkpt lat="43.69727477926219" lon="3.691561045469511"><ele>183.6</ele><time>2026-04-28T09:13:30.969Z</time></trkpt><trkpt lat="43.697271573758194" lon="3.691438586727265"><ele>184.0</ele><time>2026-04-28T09:13:32.969Z</time></trkpt><trkpt lat="43.697265750508265" lon="3.691302087498399"><ele>184.0</ele><time>2026-04-28T09:13:34.969Z</time></trkpt><trkpt lat="43.697259885357994" lon="3.691184144293867"><ele>184.0</ele><time>2026-04-28T09:13:36.97Z</time></trkpt><trkpt lat="43.69727205234187" lon="3.6910767095511976"><ele>184.0</ele><time>2026-04-28T09:13:38.97Z</time></trkpt><trkpt lat="43.69727496273427" lon="3.6909720089917126"><ele>184.0</ele><time>2026-04-28T09:13:40.969Z</time></trkpt><trkpt lat="43.697229456826506" lon="3.6908869222398266"><ele>184.0</ele><time>2026-04-28T09:13:43.969Z</time></trkpt><trkpt lat="43.69718120338648" lon="3.6907891758547207"><ele>184.0</ele><time>2026-04-28T09:13:46.969Z</time></trkpt><trkpt lat="43.69715581865155" lon="3.690685568843038"><ele>184.0</ele><time>2026-04-28T09:13:49.969Z</time></trkpt><trkpt lat="43.69711599990075" lon="3.690602922121282"><ele>184.0</ele><time>2026-04-28T09:13:51.969Z</time></trkpt><trkpt lat="43.69707310012984" lon="3.690485392366629"><ele>184.0</ele><time>2026-04-28T09:13:54.969Z</time></trkpt><trkpt lat="43.697066661962246" lon="3.6903870953131253"><ele>184.0</ele><time>2026-04-28T09:13:56.969Z</time></trkpt><trkpt lat="43.69703958640544" lon="3.6902449205565646"><ele>184.0</ele><time>2026-04-28T09:13:59.969Z</time></trkpt><trkpt lat="43.69701546619828" lon="3.6901556397954165"><ele>184.0</ele><time>2026-04-28T09:14:01.969Z</time></trkpt><trkpt lat="43.69699403531506" lon="3.690022460278568"><ele>184.0</ele><time>2026-04-28T09:14:03.969Z</time></trkpt><trkpt lat="43.696987035812796" lon="3.689908499637683"><ele>184.0</ele><time>2026-04-28T09:14:05.969Z</time></trkpt><trkpt lat="43.696979725001505" lon="3.6898165377762835"><ele>184.0</ele><time>2026-04-28T09:14:07.969Z</time></trkpt><trkpt lat="43.69695329146152" lon="3.6897027672327454"><ele>184.0</ele><time>2026-04-28T09:14:10.969Z</time></trkpt><trkpt lat="43.696919517089356" lon="3.689627241169083"><ele>184.0</ele><time>2026-04-28T09:14:12.969Z</time></trkpt><trkpt lat="43.69685111961837" lon="3.689570522423972"><ele>184.0</ele><time>2026-04-28T09:14:15.969Z</time></trkpt><trkpt lat="43.69678694914211" lon="3.6895320111225804"><ele>183.66666666666669</ele><time>2026-04-28T09:14:18.969Z</time></trkpt><trkpt lat="43.69672649927903" lon="3.6895050787738315"><ele>183.33333333333334</ele><time>2026-04-28T09:14:20.969Z</time></trkpt><trkpt lat="43.69665323920331" lon="3.689467138153724"><ele>183.0</ele><time>2026-04-28T09:14:22.969Z</time></trkpt><trkpt lat="43.69658077695895" lon="3.6894543427756403"><ele>182.66666666666666</ele><time>2026-04-28T09:14:24.969Z</time></trkpt><trkpt lat="43.69648445354362" lon="3.6894285295422002"><ele>182.33333333333331</ele><time>2026-04-28T09:14:27.969Z</time></trkpt><trkpt lat="43.69640043197996" lon="3.689391046080605"><ele>182.0</ele><time>2026-04-28T09:14:30.969Z</time></trkpt><trkpt lat="43.69631103472604" lon="3.689393741734971"><ele>182.0</ele><time>2026-04-28T09:14:33.969Z</time></trkpt><trkpt lat="43.69621854191077" lon="3.689386355795985"><ele>182.0</ele><time>2026-04-28T09:14:36.969Z</time></trkpt><trkpt lat="43.69615172637175" lon="3.6894207726948074"><ele>182.0</ele><time>2026-04-28T09:14:39.969Z</time></trkpt><trkpt lat="43.696090254781346" lon="3.689441819496111"><ele>182.0</ele><time>2026-04-28T09:14:41.969Z</time></trkpt><trkpt lat="43.69600761006043" lon="3.6894362196807693"><ele>182.0</ele><time>2026-04-28T09:14:43.969Z</time></trkpt><trkpt lat="43.69594177017008" lon="3.6894372610147173"><ele>182.0</ele><time>2026-04-28T09:14:45.969Z</time></trkpt><trkpt lat="43.69586062271397" lon="3.6894276015556566"><ele>182.5</ele><time>2026-04-28T09:14:47.969Z</time></trkpt><trkpt lat="43.695762254810234" lon="3.6894271555019094"><ele>183.0</ele><time>2026-04-28T09:14:49.969Z</time></trkpt><trkpt lat="43.695678062264314" lon="3.6894470747888417"><ele>183.5</ele><time>2026-04-28T09:14:51.969Z</time></trkpt><trkpt lat="43.69559151896724" lon="3.689462101401223"><ele>184.0</ele><time>2026-04-28T09:14:54.969Z</time></trkpt><trkpt lat="43.69551228632951" lon="3.689460876086311"><ele>184.5</ele><time>2026-04-28T09:14:56.969Z</time></trkpt><trkpt lat="43.695444274321765" lon="3.6894866539675215"><ele>185.0</ele><time>2026-04-28T09:14:58.969Z</time></trkpt><trkpt lat="43.69535418682714" lon="3.6895187092082145"><ele>185.0</ele><time>2026-04-28T09:15:01.969Z</time></trkpt><trkpt lat="43.69526404419089" lon="3.6895909440715604"><ele>185.0</ele><time>2026-04-28T09:15:04.969Z</time></trkpt><trkpt lat="43.69520093437579" lon="3.689629301218182"><ele>185.0</ele><time>2026-04-28T09:15:06.969Z</time></trkpt><trkpt lat="43.69516490751284" lon="3.6897024072393694"><ele>185.0</ele><time>2026-04-28T09:15:08.969Z</time></trkpt><trkpt lat="43.69511235477216" lon="3.6897854529399896"><ele>185.0</ele><time>2026-04-28T09:15:10.969Z</time></trkpt><trkpt lat="43.6950548892093" lon="3.689870790687691"><ele>185.0</ele><time>2026-04-28T09:15:12.969Z</time></trkpt><trkpt lat="43.69501205706533" lon="3.689939800943571"><ele>185.0</ele><time>2026-04-28T09:15:13.969Z</time></trkpt><trkpt lat="43.694931430793545" lon="3.690034720724437"><ele>185.0</ele><time>2026-04-28T09:15:15.969Z</time></trkpt><trkpt lat="43.69486137225964" lon="3.690098097827569"><ele>185.0</ele><time>2026-04-28T09:15:18.969Z</time></trkpt><trkpt lat="43.69478390257732" lon="3.6901638009926567"><ele>185.0</ele><time>2026-04-28T09:15:20.969Z</time></trkpt><trkpt lat="43.694716135882594" lon="3.6902311755527273"><ele>185.0</ele><time>2026-04-28T09:15:22.969Z</time></trkpt><trkpt lat="43.69466374343771" lon="3.6902811275638467"><ele>185.0</ele><time>2026-04-28T09:15:24.969Z</time></trkpt><trkpt lat="43.694616635346875" lon="3.6903511359631005"><ele>185.33333333333331</ele><time>2026-04-28T09:15:26.969Z</time></trkpt><trkpt lat="43.69455672685366" lon="3.6904341554719817"><ele>185.66666666666666</ele><time>2026-04-28T09:15:28.969Z</time></trkpt><trkpt lat="43.69452100633296" lon="3.690509245273353"><ele>186.0</ele><time>2026-04-28T09:15:30.969Z</time></trkpt><trkpt lat="43.69447110396678" lon="3.6906185887473337"><ele>186.33333333333334</ele><time>2026-04-28T09:15:33.969Z</time></trkpt><trkpt lat="43.69444082555268" lon="3.69069733431113"><ele>186.66666666666669</ele><time>2026-04-28T09:15:35.969Z</time></trkpt><trkpt lat="43.69441310391286" lon="3.690803177723007"><ele>187.0</ele><time>2026-04-28T09:15:38.97Z</time></trkpt><trkpt lat="43.69437435331777" lon="3.690887621298981"><ele>187.0</ele><time>2026-04-28T09:15:40.969Z</time></trkpt><trkpt lat="43.69433884718427" lon="3.6909708342977248"><ele>187.0</ele><time>2026-04-28T09:15:42.97Z</time></trkpt><trkpt lat="43.6943305325735" lon="3.6910729504481474"><ele>187.0</ele><time>2026-04-28T09:15:44.97Z</time></trkpt><trkpt lat="43.69429201534133" lon="3.691201570670154"><ele>187.0</ele><time>2026-04-28T09:15:46.97Z</time></trkpt><trkpt lat="43.69427379989178" lon="3.691291727846375"><ele>187.0</ele><time>2026-04-28T09:15:48.969Z</time></trkpt><trkpt lat="43.6942447237797" lon="3.691385030208181"><ele>187.0</ele><time>2026-04-28T09:15:50.97Z</time></trkpt><trkpt lat="43.6942125916873" lon="3.6914655709701156"><ele>187.33333333333334</ele><time>2026-04-28T09:15:52.969Z</time></trkpt><trkpt lat="43.694156053494474" lon="3.691522820663264"><ele>187.66666666666669</ele><time>2026-04-28T09:15:54.969Z</time></trkpt><trkpt lat="43.69408404103557" lon="3.691578699655128"><ele>188.0</ele><time>2026-04-28T09:15:56.969Z</time></trkpt><trkpt lat="43.69398985439793" lon="3.691605200121673"><ele>188.33333333333334</ele><time>2026-04-28T09:15:59.969Z</time></trkpt><trkpt lat="43.69393867151101" lon="3.6916586049050992"><ele>188.66666666666666</ele><time>2026-04-28T09:16:01.969Z</time></trkpt><trkpt lat="43.693879390235445" lon="3.691722059536384"><ele>189.0</ele><time>2026-04-28T09:16:03.969Z</time></trkpt><trkpt lat="43.69381127679151" lon="3.6917898263422155"><ele>189.0</ele><time>2026-04-28T09:16:05.969Z</time></trkpt><trkpt lat="43.693753956993596" lon="3.691836360319458"><ele>189.0</ele><time>2026-04-28T09:16:07.969Z</time></trkpt><trkpt lat="43.69366811198002" lon="3.691864114635023"><ele>189.0</ele><time>2026-04-28T09:16:09.969Z</time></trkpt><trkpt lat="43.69358627433524" lon="3.6918874437552653"><ele>189.0</ele><time>2026-04-28T09:16:11.969Z</time></trkpt><trkpt lat="43.69350284269913" lon="3.6919173798368243"><ele>189.0</ele><time>2026-04-28T09:16:14.969Z</time></trkpt><trkpt lat="43.69343895006863" lon="3.6919399478818846"><ele>189.0</ele><time>2026-04-28T09:16:16.969Z</time></trkpt><trkpt lat="43.69338552670694" lon="3.692006734652218"><ele>189.0</ele><time>2026-04-28T09:16:18.969Z</time></trkpt><trkpt lat="43.69332599132196" lon="3.69210244053262"><ele>189.0</ele><time>2026-04-28T09:16:20.969Z</time></trkpt><trkpt lat="43.693268286645015" lon="3.692211050561862"><ele>189.0</ele><time>2026-04-28T09:16:22.969Z</time></trkpt><trkpt lat="43.69324622350018" lon="3.692298531559831"><ele>189.0</ele><time>2026-04-28T09:16:24.969Z</time></trkpt><trkpt lat="43.69320917381275" lon="3.692368975569403"><ele>189.0</ele><time>2026-04-28T09:16:26.969Z</time></trkpt><trkpt lat="43.69313588575165" lon="3.6924261971510313"><ele>189.0</ele><time>2026-04-28T09:16:28.969Z</time></trkpt><trkpt lat="43.693041855293345" lon="3.692455748477281"><ele>189.0</ele><time>2026-04-28T09:16:30.969Z</time></trkpt><trkpt lat="43.692952542917304" lon="3.69246291512312"><ele>189.0</ele><time>2026-04-28T09:16:32.969Z</time></trkpt><trkpt lat="43.692884273254165" lon="3.692437415602855"><ele>189.0</ele><time>2026-04-28T09:16:34.969Z</time></trkpt><trkpt lat="43.69281575997817" lon="3.6924537489595006"><ele>189.0</ele><time>2026-04-28T09:16:37.969Z</time></trkpt><trkpt lat="43.69269196015225" lon="3.692519357427533"><ele>189.0</ele><time>2026-04-28T09:16:53.969Z</time></trkpt><trkpt lat="43.69261893112174" lon="3.6925530390689723"><ele>189.0</ele><time>2026-04-28T09:16:57.969Z</time></trkpt><trkpt lat="43.69255142034288" lon="3.6925786420613376"><ele>189.33333333333334</ele><time>2026-04-28T09:16:59.968Z</time></trkpt><trkpt lat="43.692479691802255" lon="3.692636254022682"><ele>189.66666666666666</ele><time>2026-04-28T09:17:02.968Z</time></trkpt><trkpt lat="43.69243225923414" lon="3.6926980605793784"><ele>190.0</ele><time>2026-04-28T09:17:04.968Z</time></trkpt><trkpt lat="43.692386928134916" lon="3.6927827022596986"><ele>190.33333333333331</ele><time>2026-04-28T09:17:06.968Z</time></trkpt><trkpt lat="43.69234207042276" lon="3.6928515742832415"><ele>190.66666666666666</ele><time>2026-04-28T09:17:08.968Z</time></trkpt><trkpt lat="43.692290959289274" lon="3.6929504464349923"><ele>191.0</ele><time>2026-04-28T09:17:11.968Z</time></trkpt><trkpt lat="43.69222035162145" lon="3.6929884052038067"><ele>191.33333333333331</ele><time>2026-04-28T09:17:13.968Z</time></trkpt><trkpt lat="43.69214902153274" lon="3.693000003291888"><ele>191.66666666666666</ele><time>2026-04-28T09:17:15.968Z</time></trkpt><trkpt lat="43.69208666154474" lon="3.6930251711463264"><ele>192.0</ele><time>2026-04-28T09:17:17.968Z</time></trkpt><trkpt lat="43.69199407367608" lon="3.69304349447028"><ele>192.33333333333331</ele><time>2026-04-28T09:17:20.968Z</time></trkpt><trkpt lat="43.69193228672667" lon="3.6930624151856044"><ele>192.66666666666666</ele><time>2026-04-28T09:17:22.968Z</time></trkpt><trkpt lat="43.69186770746854" lon="3.6930706918370655"><ele>193.0</ele><time>2026-04-28T09:17:24.968Z</time></trkpt><trkpt lat="43.6917728181214" lon="3.693087011467048"><ele>193.33333333333331</ele><time>2026-04-28T09:17:27.968Z</time></trkpt><trkpt lat="43.69170889546573" lon="3.6931056003309592"><ele>193.66666666666666</ele><time>2026-04-28T09:17:29.968Z</time></trkpt><trkpt lat="43.69163197443268" lon="3.6931279170741287"><ele>194.0</ele><time>2026-04-28T09:17:32.968Z</time></trkpt><trkpt lat="43.69154014025594" lon="3.6931684526686435"><ele>194.33333333333331</ele><time>2026-04-28T09:17:35.968Z</time></trkpt><trkpt lat="43.69146127219762" lon="3.6931922044252663"><ele>194.66666666666666</ele><time>2026-04-28T09:17:37.968Z</time></trkpt><trkpt lat="43.69139254816449" lon="3.6931732622236595"><ele>195.0</ele><time>2026-04-28T09:17:39.968Z</time></trkpt><trkpt lat="43.69128915593831" lon="3.6931820060085405"><ele>195.0</ele><time>2026-04-28T09:17:42.968Z</time></trkpt><trkpt lat="43.6912140798358" lon="3.6931757951962525"><ele>195.0</ele><time>2026-04-28T09:17:44.97Z</time></trkpt><trkpt lat="43.69113224530463" lon="3.6931682066016345"><ele>195.0</ele><time>2026-04-28T09:17:46.969Z</time></trkpt><trkpt lat="43.6910372885348" lon="3.6931608029732845"><ele>195.0</ele><time>2026-04-28T09:17:48.97Z</time></trkpt><trkpt lat="43.690975092800585" lon="3.6931743753940935"><ele>195.0</ele><time>2026-04-28T09:17:50.97Z</time></trkpt><trkpt lat="43.69088052135969" lon="3.6931824642923985"><ele>195.0</ele><time>2026-04-28T09:17:52.97Z</time></trkpt><trkpt lat="43.690791356258266" lon="3.6931969324464085"><ele>195.16666666666666</ele><time>2026-04-28T09:17:55.97Z</time></trkpt><trkpt lat="43.690713070195045" lon="3.6932081309822578"><ele>195.33333333333331</ele><time>2026-04-28T09:17:58.97Z</time></trkpt><trkpt lat="43.69062979471141" lon="3.6932400981519904"><ele>195.5</ele><time>2026-04-28T09:18:01.97Z</time></trkpt><trkpt lat="43.690553307212305" lon="3.6932636429028607"><ele>195.66666666666666</ele><time>2026-04-28T09:18:04.97Z</time></trkpt><trkpt lat="43.69045991893119" lon="3.6933079714568056"><ele>195.83333333333331</ele><time>2026-04-28T09:18:07.97Z</time></trkpt><trkpt lat="43.69039128253114" lon="3.6933095383837884"><ele>196.0</ele><time>2026-04-28T09:18:09.97Z</time></trkpt><trkpt lat="43.690310048982845" lon="3.693351129406344"><ele>196.33333333333331</ele><time>2026-04-28T09:18:12.97Z</time></trkpt><trkpt lat="43.690235502044686" lon="3.6933763472938916"><ele>196.66666666666666</ele><time>2026-04-28T09:18:14.97Z</time></trkpt><trkpt lat="43.690157629147805" lon="3.6934097034257487"><ele>197.0</ele><time>2026-04-28T09:18:16.97Z</time></trkpt><trkpt lat="43.690071164337944" lon="3.693450381348079"><ele>197.33333333333331</ele><time>2026-04-28T09:18:18.97Z</time></trkpt><trkpt lat="43.689972916932476" lon="3.693481186769144"><ele>197.66666666666666</ele><time>2026-04-28T09:18:20.97Z</time></trkpt><trkpt lat="43.6898940194767" lon="3.6934970648876706"><ele>198.0</ele><time>2026-04-28T09:18:22.97Z</time></trkpt><trkpt lat="43.68979426121531" lon="3.6935313025546006"><ele>198.0</ele><time>2026-04-28T09:18:24.97Z</time></trkpt><trkpt lat="43.689698723260946" lon="3.693571920509705"><ele>198.0</ele><time>2026-04-28T09:18:26.97Z</time></trkpt><trkpt lat="43.689594511877004" lon="3.6935852225607557"><ele>198.0</ele><time>2026-04-28T09:18:28.97Z</time></trkpt><trkpt lat="43.689514745966186" lon="3.6935696731023997"><ele>198.0</ele><time>2026-04-28T09:18:30.97Z</time></trkpt><trkpt lat="43.68941850041486" lon="3.6935898938178915"><ele>198.0</ele><time>2026-04-28T09:18:32.97Z</time></trkpt><trkpt lat="43.68935124764714" lon="3.6935753563269094"><ele>197.60000000000002</ele><time>2026-04-28T09:18:33.97Z</time></trkpt><trkpt lat="43.68926186130292" lon="3.6935670791243367"><ele>197.20000000000002</ele><time>2026-04-28T09:18:35.97Z</time></trkpt><trkpt lat="43.68917523720357" lon="3.6935518744652636"><ele>196.8</ele><time>2026-04-28T09:18:37.97Z</time></trkpt><trkpt lat="43.68906835172376" lon="3.6935072779491067"><ele>196.4</ele><time>2026-04-28T09:18:39.97Z</time></trkpt><trkpt lat="43.68898182602055" lon="3.6934643977044117"><ele>196.0</ele><time>2026-04-28T09:18:41.969Z</time></trkpt><trkpt lat="43.68891095512409" lon="3.693465924275644"><ele>195.99999999999997</ele><time>2026-04-28T09:18:43.969Z</time></trkpt><trkpt lat="43.68883880027806" lon="3.693417837019922"><ele>196.0</ele><time>2026-04-28T09:18:45.969Z</time></trkpt><trkpt lat="43.68878310679855" lon="3.693336621481655"><ele>196.0</ele><time>2026-04-28T09:18:47.969Z</time></trkpt><trkpt lat="43.688793101567676" lon="3.6932455106914084"><ele>196.0</ele><time>2026-04-28T09:18:49.969Z</time></trkpt><trkpt lat="43.68880472981935" lon="3.693111515459542"><ele>195.99999999999997</ele><time>2026-04-28T09:18:52.969Z</time></trkpt><trkpt lat="43.688832690986395" lon="3.6930292040002226"><ele>196.0</ele><time>2026-04-28T09:18:54.969Z</time></trkpt><trkpt lat="43.68885370251316" lon="3.692900571822209"><ele>196.0</ele><time>2026-04-28T09:18:57.969Z</time></trkpt><trkpt lat="43.68885581912089" lon="3.69281025949343"><ele>196.0</ele><time>2026-04-28T09:19:00.969Z</time></trkpt><trkpt lat="43.68886545894442" lon="3.692721057032503"><ele>196.0</ele><time>2026-04-28T09:19:03.969Z</time></trkpt><trkpt lat="43.68887003798044" lon="3.6926305821731615"><ele>196.0</ele><time>2026-04-28T09:19:06.969Z</time></trkpt><trkpt lat="43.68886710613438" lon="3.692525994983016"><ele>196.0</ele><time>2026-04-28T09:19:09.969Z</time></trkpt><trkpt lat="43.68887804533251" lon="3.6924370376676263"><ele>196.0</ele><time>2026-04-28T09:19:11.969Z</time></trkpt><trkpt lat="43.68889347847375" lon="3.692329774831994"><ele>196.0</ele><time>2026-04-28T09:19:13.969Z</time></trkpt><trkpt lat="43.68890481482148" lon="3.6922368798668987"><ele>195.66666666666666</ele><time>2026-04-28T09:19:15.969Z</time></trkpt><trkpt lat="43.68892193094772" lon="3.692131976941064"><ele>195.33333333333331</ele><time>2026-04-28T09:19:17.969Z</time></trkpt><trkpt lat="43.68895176863272" lon="3.6920282163941933"><ele>195.0</ele><time>2026-04-28T09:19:19.969Z</time></trkpt><trkpt lat="43.688976391087834" lon="3.691940470538303"><ele>194.66666666666669</ele><time>2026-04-28T09:19:21.969Z</time></trkpt><trkpt lat="43.68899644411842" lon="3.6918351159205236"><ele>194.33333333333334</ele><time>2026-04-28T09:19:23.969Z</time></trkpt><trkpt lat="43.68901578253599" lon="3.6917470761124633"><ele>194.0</ele><time>2026-04-28T09:19:25.969Z</time></trkpt><trkpt lat="43.68903875144801" lon="3.6916417491765974"><ele>194.00000000000003</ele><time>2026-04-28T09:19:27.969Z</time></trkpt><trkpt lat="43.689071114043706" lon="3.691536752277014"><ele>194.0</ele><time>2026-04-28T09:19:29.969Z</time></trkpt><trkpt lat="43.6891030410586" lon="3.6914505670102455"><ele>194.0</ele><time>2026-04-28T09:19:31.969Z</time></trkpt><trkpt lat="43.68914268497255" lon="3.6913822715064155"><ele>194.0</ele><time>2026-04-28T09:19:32.969Z</time></trkpt><trkpt lat="43.68918801815117" lon="3.691318353484646"><ele>194.00000000000003</ele><time>2026-04-28T09:19:33.969Z</time></trkpt><trkpt lat="43.6892754259745" lon="3.691202455500101"><ele>194.0</ele><time>2026-04-28T09:19:35.969Z</time></trkpt><trkpt lat="43.68933426365157" lon="3.6911540742214273"><ele>193.16666666666669</ele><time>2026-04-28T09:19:36.969Z</time></trkpt><trkpt lat="43.68944874539193" lon="3.6911687785946317"><ele>192.33333333333334</ele><time>2026-04-28T09:19:37.969Z</time></trkpt><trkpt lat="43.689481027591405" lon="3.6910732896968477"><ele>191.5</ele><time>2026-04-28T09:19:38.969Z</time></trkpt><trkpt lat="43.68954468806253" lon="3.6910237287711607"><ele>190.66666666666669</ele><time>2026-04-28T09:19:39.969Z</time></trkpt><trkpt lat="43.689642666198154" lon="3.6909483603156814"><ele>189.83333333333334</ele><time>2026-04-28T09:19:41.969Z</time></trkpt><trkpt lat="43.68970482844516" lon="3.6909076788159574"><ele>189.0</ele><time>2026-04-28T09:19:42.969Z</time></trkpt><trkpt lat="43.68976249773628" lon="3.6908365004782806"><ele>188.33333333333334</ele><time>2026-04-28T09:19:43.969Z</time></trkpt><trkpt lat="43.68979719523668" lon="3.6907475926648297"><ele>187.66666666666666</ele><time>2026-04-28T09:19:44.969Z</time></trkpt><trkpt lat="43.68982455924042" lon="3.690667452959935"><ele>187.0</ele><time>2026-04-28T09:19:45.969Z</time></trkpt><trkpt lat="43.68984275347626" lon="3.690582892245092"><ele>186.33333333333331</ele><time>2026-04-28T09:19:46.969Z</time></trkpt><trkpt lat="43.689872655013865" lon="3.6904404307078384"><ele>185.66666666666666</ele><time>2026-04-28T09:19:48.969Z</time></trkpt><trkpt lat="43.68989315411119" lon="3.690261965197074"><ele>185.0</ele><time>2026-04-28T09:19:50.97Z</time></trkpt><trkpt lat="43.68988266803487" lon="3.690095137276861"><ele>183.8</ele><time>2026-04-28T09:19:52.969Z</time></trkpt><trkpt lat="43.68987263109953" lon="3.689996503773755"><ele>182.6</ele><time>2026-04-28T09:19:53.969Z</time></trkpt><trkpt lat="43.689845297739666" lon="3.6899137040854986"><ele>181.39999999999998</ele><time>2026-04-28T09:19:54.97Z</time></trkpt><trkpt lat="43.68979446180484" lon="3.68978373192483"><ele>180.2</ele><time>2026-04-28T09:19:56.969Z</time></trkpt><trkpt lat="43.6897416357584" lon="3.6896118437625507"><ele>179.0</ele><time>2026-04-28T09:19:58.969Z</time></trkpt><trkpt lat="43.68970542169382" lon="3.689445106326594"><ele>177.83333333333331</ele><time>2026-04-28T09:20:00.969Z</time></trkpt><trkpt lat="43.689732695055284" lon="3.6892893404263543"><ele>176.66666666666666</ele><time>2026-04-28T09:20:02.97Z</time></trkpt><trkpt lat="43.68972890006571" lon="3.6891993783841546"><ele>175.5</ele><time>2026-04-28T09:20:03.969Z</time></trkpt><trkpt lat="43.6897280313564" lon="3.6890963491072744"><ele>174.33333333333334</ele><time>2026-04-28T09:20:04.969Z</time></trkpt><trkpt lat="43.68969199237923" lon="3.688985314251306"><ele>173.16666666666669</ele><time>2026-04-28T09:20:06.968Z</time></trkpt><trkpt lat="43.6896516586466" lon="3.6888876077275907"><ele>172.0</ele><time>2026-04-28T09:20:09.968Z</time></trkpt><trkpt lat="43.68969956013277" lon="3.6888038071623837"><ele>172.00000000000003</ele><time>2026-04-28T09:20:13.968Z</time></trkpt><trkpt lat="43.68976754523371" lon="3.6887638198142487"><ele>172.0</ele><time>2026-04-28T09:20:16.968Z</time></trkpt><trkpt lat="43.68983833190795" lon="3.688756929899814"><ele>172.0</ele><time>2026-04-28T09:20:19.968Z</time></trkpt><trkpt lat="43.68990465785705" lon="3.6887707775702316"><ele>172.0</ele><time>2026-04-28T09:20:22.968Z</time></trkpt><trkpt lat="43.6899774854945" lon="3.6888078833085256"><ele>172.0</ele><time>2026-04-28T09:20:25.968Z</time></trkpt><trkpt lat="43.690035397866076" lon="3.6888665673475747"><ele>172.00000000000003</ele><time>2026-04-28T09:20:28.968Z</time></trkpt><trkpt lat="43.69009734775342" lon="3.6889164258834035"><ele>172.0</ele><time>2026-04-28T09:20:31.968Z</time></trkpt><trkpt lat="43.69016100816274" lon="3.688991713533258"><ele>172.33333333333334</ele><time>2026-04-28T09:20:33.968Z</time></trkpt><trkpt lat="43.69026285452105" lon="3.6890060902440602"><ele>172.66666666666669</ele><time>2026-04-28T09:20:36.968Z</time></trkpt><trkpt lat="43.6903353069899" lon="3.6890097138745555"><ele>173.0</ele><time>2026-04-28T09:20:38.968Z</time></trkpt><trkpt lat="43.690409543060746" lon="3.6890133135242236"><ele>173.33333333333334</ele><time>2026-04-28T09:20:40.968Z</time></trkpt><trkpt lat="43.69048080348826" lon="3.6890147004386624"><ele>173.66666666666666</ele><time>2026-04-28T09:20:42.968Z</time></trkpt><trkpt lat="43.69055123331126" lon="3.689002992803985"><ele>174.0</ele><time>2026-04-28T09:20:44.968Z</time></trkpt><trkpt lat="43.69061941927811" lon="3.689002446826639"><ele>174.0</ele><time>2026-04-28T09:20:46.968Z</time></trkpt><trkpt lat="43.69068469618547" lon="3.6890160032398334"><ele>174.0</ele><time>2026-04-28T09:20:49.968Z</time></trkpt><trkpt lat="43.690606534739494" lon="3.6890290944027493"><ele>174.0</ele><time>2026-04-28T09:21:16.968Z</time></trkpt><trkpt lat="43.690528043760956" lon="3.689042153416227"><ele>174.0</ele><time>2026-04-28T09:21:19.968Z</time></trkpt><trkpt lat="43.69044531061186" lon="3.689060948346491"><ele>174.0</ele><time>2026-04-28T09:21:22.968Z</time></trkpt><trkpt lat="43.690367643170205" lon="3.689078003614681"><ele>174.0</ele><time>2026-04-28T09:21:25.968Z</time></trkpt><trkpt lat="43.690289978983884" lon="3.6890622967245914"><ele>173.66666666666666</ele><time>2026-04-28T09:21:27.968Z</time></trkpt><trkpt lat="43.69020406131931" lon="3.689027452963398"><ele>173.33333333333334</ele><time>2026-04-28T09:21:30.968Z</time></trkpt><trkpt lat="43.69013020989996" lon="3.688972257123156"><ele>173.0</ele><time>2026-04-28T09:21:33.968Z</time></trkpt><trkpt lat="43.69006923902577" lon="3.6889186855890164"><ele>172.66666666666669</ele><time>2026-04-28T09:21:36.968Z</time></trkpt><trkpt lat="43.68999005959841" lon="3.6888552655807367"><ele>172.33333333333334</ele><time>2026-04-28T09:21:39.968Z</time></trkpt><trkpt lat="43.68992182205857" lon="3.688803213227563"><ele>172.0</ele><time>2026-04-28T09:21:44.968Z</time></trkpt><trkpt lat="43.69001288778809" lon="3.688834389099955"><ele>172.0</ele><time>2026-04-28T09:23:39.968Z</time></trkpt><trkpt lat="43.69007456060793" lon="3.688900785050887"><ele>172.0</ele><time>2026-04-28T09:23:43.968Z</time></trkpt><trkpt lat="43.69013780822983" lon="3.6889667453432295"><ele>172.0</ele><time>2026-04-28T09:23:47.968Z</time></trkpt><trkpt lat="43.69021620135784" lon="3.6890012443283116"><ele>172.0</ele><time>2026-04-28T09:23:50.968Z</time></trkpt><trkpt lat="43.69029753273176" lon="3.688994309477782"><ele>172.0</ele><time>2026-04-28T09:23:53.968Z</time></trkpt><trkpt lat="43.69037843893749" lon="3.6890108256149436"><ele>172.0</ele><time>2026-04-28T09:23:56.968Z</time></trkpt><trkpt lat="43.69047288963168" lon="3.6890044656598784"><ele>172.2857142857143</ele><time>2026-04-28T09:23:59.968Z</time></trkpt><trkpt lat="43.690567621598895" lon="3.6889833522705278"><ele>172.57142857142858</ele><time>2026-04-28T09:24:02.969Z</time></trkpt><trkpt lat="43.69063953470469" lon="3.6889756658246275"><ele>172.85714285714286</ele><time>2026-04-28T09:24:04.969Z</time></trkpt><trkpt lat="43.69071099370996" lon="3.6889581954188464"><ele>173.14285714285717</ele><time>2026-04-28T09:24:06.969Z</time></trkpt><trkpt lat="43.69077313351543" lon="3.6889442241204167"><ele>173.42857142857144</ele><time>2026-04-28T09:24:08.969Z</time></trkpt><trkpt lat="43.69083963444919" lon="3.688940347100753"><ele>173.71428571428572</ele><time>2026-04-28T09:24:10.969Z</time></trkpt><trkpt lat="43.690905703192946" lon="3.6889051542283267"><ele>174.0</ele><time>2026-04-28T09:24:12.969Z</time></trkpt><trkpt lat="43.69098035725766" lon="3.688883645407272"><ele>174.0</ele><time>2026-04-28T09:24:14.969Z</time></trkpt><trkpt lat="43.69104631841475" lon="3.688861370663484"><ele>174.0</ele><time>2026-04-28T09:24:16.969Z</time></trkpt><trkpt lat="43.69110829316165" lon="3.6888422901954083"><ele>174.0</ele><time>2026-04-28T09:24:18.969Z</time></trkpt><trkpt lat="43.69117250099175" lon="3.6888364596144756"><ele>174.0</ele><time>2026-04-28T09:24:20.969Z</time></trkpt><trkpt lat="43.69124082445589" lon="3.6888281207610767"><ele>174.0</ele><time>2026-04-28T09:24:22.969Z</time></trkpt><trkpt lat="43.69133462535094" lon="3.6888072955719298"><ele>174.0</ele><time>2026-04-28T09:24:25.969Z</time></trkpt><trkpt lat="43.691410270027816" lon="3.688787766284176"><ele>174.0</ele><time>2026-04-28T09:24:28.969Z</time></trkpt><trkpt lat="43.691411585749194" lon="3.6886963309767458"><ele>174.16666666666666</ele><time>2026-04-28T09:24:31.969Z</time></trkpt><trkpt lat="43.69136023061338" lon="3.688599386737854"><ele>174.33333333333334</ele><time>2026-04-28T09:24:36.969Z</time></trkpt><trkpt lat="43.69131326343187" lon="3.6885260677644873"><ele>174.5</ele><time>2026-04-28T09:24:39.969Z</time></trkpt><trkpt lat="43.69125466012072" lon="3.6884293564524864"><ele>174.66666666666669</ele><time>2026-04-28T09:24:43.969Z</time></trkpt><trkpt lat="43.69120063075142" lon="3.6883401462225067"><ele>174.83333333333334</ele><time>2026-04-28T09:24:46.969Z</time></trkpt><trkpt lat="43.69113126961332" lon="3.6882624743239476"><ele>175.0</ele><time>2026-04-28T09:24:49.969Z</time></trkpt><trkpt lat="43.69106764229771" lon="3.6882084861895295"><ele>174.0</ele><time>2026-04-28T09:24:52.969Z</time></trkpt><trkpt lat="43.690996735610724" lon="3.6881371053439453"><ele>173.0</ele><time>2026-04-28T09:24:55.969Z</time></trkpt><trkpt lat="43.690949129610516" lon="3.688062512180787"><ele>172.0</ele><time>2026-04-28T09:24:58.969Z</time></trkpt><trkpt lat="43.69090321537383" lon="3.6879637307361284"><ele>171.0</ele><time>2026-04-28T09:25:01.969Z</time></trkpt><trkpt lat="43.690835615328844" lon="3.687914253394852"><ele>170.0</ele><time>2026-04-28T09:25:05.969Z</time></trkpt><trkpt lat="43.690870621623" lon="3.687840391380046"><ele>169.0</ele><time>2026-04-28T09:25:29.968Z</time></trkpt><trkpt lat="43.69092495332303" lon="3.687772373871904"><ele>169.0</ele><time>2026-04-28T09:25:49.968Z</time></trkpt><trkpt lat="43.69094990181673" lon="3.687673239463148"><ele>169.0</ele><time>2026-04-28T09:26:15.969Z</time></trkpt><trkpt lat="43.69101172765223" lon="3.6876023802003504"><ele>169.0</ele><time>2026-04-28T09:26:20.968Z</time></trkpt><trkpt lat="43.69106071206162" lon="3.6875088266642173"><ele>169.0</ele><time>2026-04-28T09:26:24.968Z</time></trkpt><trkpt lat="43.691104201596794" lon="3.6874399235517847"><ele>169.0</ele><time>2026-04-28T09:26:27.968Z</time></trkpt><trkpt lat="43.69114298237695" lon="3.6873340376502846"><ele>169.0</ele><time>2026-04-28T09:26:31.968Z</time></trkpt><trkpt lat="43.691171705640876" lon="3.6872506587163296"><ele>169.0</ele><time>2026-04-28T09:26:34.968Z</time></trkpt><trkpt lat="43.691197570686455" lon="3.6871647983237366"><ele>169.0</ele><time>2026-04-28T09:26:37.968Z</time></trkpt><trkpt lat="43.691210173623325" lon="3.6870486333066506"><ele>169.0</ele><time>2026-04-28T09:26:42.968Z</time></trkpt><trkpt lat="43.691234843418485" lon="3.6869498938528578"><ele>169.0</ele><time>2026-04-28T09:26:47.968Z</time></trkpt><trkpt lat="43.6912652506865" lon="3.686858217367767"><ele>169.0</ele><time>2026-04-28T09:26:50.968Z</time></trkpt><trkpt lat="43.69126228820384" lon="3.6867389721089006"><ele>169.0</ele><time>2026-04-28T09:26:53.968Z</time></trkpt><trkpt lat="43.69128273484037" lon="3.6866390923816614"><ele>169.28571428571428</ele><time>2026-04-28T09:26:58.968Z</time></trkpt><trkpt lat="43.69128013468567" lon="3.686538900769814"><ele>169.57142857142856</ele><time>2026-04-28T09:27:02.968Z</time></trkpt><trkpt lat="43.69127284321839" lon="3.686445059857688"><ele>169.85714285714283</ele><time>2026-04-28T09:27:08.968Z</time></trkpt><trkpt lat="43.69128945722312" lon="3.686358665561221"><ele>170.14285714285714</ele><time>2026-04-28T09:27:15.968Z</time></trkpt><trkpt lat="43.691330837805054" lon="3.6862839941592083"><ele>170.42857142857142</ele><time>2026-04-28T09:27:18.968Z</time></trkpt><trkpt lat="43.69136978637134" lon="3.6861896556764018"><ele>170.7142857142857</ele><time>2026-04-28T09:27:22.968Z</time></trkpt><trkpt lat="43.691397234941356" lon="3.6860938838750954"><ele>171.0</ele><time>2026-04-28T09:28:08.967Z</time></trkpt><trkpt lat="43.691418864704985" lon="3.685987950789617"><ele>171.99999999999997</ele><time>2026-04-28T09:29:08.968Z</time></trkpt><trkpt lat="43.69144703289861" lon="3.6859037585903582"><ele>173.0</ele><time>2026-04-28T09:29:21.968Z</time></trkpt><trkpt lat="43.69146822646121" lon="3.6858205075413104"><ele>174.0</ele><time>2026-04-28T09:29:35.968Z</time></trkpt><trkpt lat="43.69148917255429" lon="3.685727371933636"><ele>175.0</ele><time>2026-04-28T09:29:50.968Z</time></trkpt><trkpt lat="43.69146362788054" lon="3.685644550064694"><ele>176.0</ele><time>2026-04-28T09:30:00.967Z</time></trkpt><trkpt lat="43.691468469072184" lon="3.6855469756890407"><ele>176.99999999999997</ele><time>2026-04-28T09:30:10.967Z</time></trkpt><trkpt lat="43.69144515252412" lon="3.6854555303548215"><ele>178.0</ele><time>2026-04-28T09:30:22.965Z</time></trkpt><trkpt lat="43.69139608724316" lon="3.6853657277553773"><ele>177.99999999999997</ele><time>2026-04-28T09:30:25.966Z</time></trkpt><trkpt lat="43.69138395546477" lon="3.68527252589736"><ele>178.0</ele><time>2026-04-28T09:30:28.965Z</time></trkpt><trkpt lat="43.691373415138365" lon="3.6851803381345385"><ele>178.0</ele><time>2026-04-28T09:30:30.965Z</time></trkpt><trkpt lat="43.69137714621313" lon="3.6850856469696365"><ele>178.0</ele><time>2026-04-28T09:30:32.965Z</time></trkpt><trkpt lat="43.69140383224972" lon="3.6850061063336077"><ele>178.0</ele><time>2026-04-28T09:30:35.965Z</time></trkpt><trkpt lat="43.691415568658904" lon="3.68491293624962"><ele>177.99999999999997</ele><time>2026-04-28T09:30:38.965Z</time></trkpt><trkpt lat="43.69144915405215" lon="3.6848129460217884"><ele>178.0</ele><time>2026-04-28T09:30:43.966Z</time></trkpt><trkpt lat="43.691453698619014" lon="3.684716832691118"><ele>178.7142857142857</ele><time>2026-04-28T09:30:52.966Z</time></trkpt><trkpt lat="43.69146915286982" lon="3.6846253221634764"><ele>179.42857142857142</ele><time>2026-04-28T09:31:06.967Z</time></trkpt><trkpt lat="43.69148291320163" lon="3.6845325433902003"><ele>180.14285714285714</ele><time>2026-04-28T09:31:15.967Z</time></trkpt><trkpt lat="43.69149036863895" lon="3.684444231679873"><ele>180.85714285714283</ele><time>2026-04-28T09:31:19.967Z</time></trkpt><trkpt lat="43.69150378134115" lon="3.684353385432225"><ele>181.57142857142858</ele><time>2026-04-28T09:32:03.966Z</time></trkpt><trkpt lat="43.69152816922613" lon="3.6842504493677954"><ele>182.28571428571428</ele><time>2026-04-28T09:32:08.966Z</time></trkpt><trkpt lat="43.69156818629664" lon="3.6841700763648726"><ele>183.0</ele><time>2026-04-28T09:32:13.966Z</time></trkpt><trkpt lat="43.691621916402624" lon="3.684099492182574"><ele>183.66666666666666</ele><time>2026-04-28T09:32:17.966Z</time></trkpt><trkpt lat="43.691673059794944" lon="3.6840171380805864"><ele>184.33333333333334</ele><time>2026-04-28T09:32:21.966Z</time></trkpt><trkpt lat="43.69172442830214" lon="3.683948643782013"><ele>185.0</ele><time>2026-04-28T09:32:24.966Z</time></trkpt><trkpt lat="43.6917830866906" lon="3.6838668571678386"><ele>185.66666666666669</ele><time>2026-04-28T09:32:28.965Z</time></trkpt><trkpt lat="43.691834316496234" lon="3.6837716544030514"><ele>186.33333333333334</ele><time>2026-04-28T09:32:31.966Z</time></trkpt><trkpt lat="43.691864211700484" lon="3.683682823927604"><ele>187.0</ele><time>2026-04-28T09:32:34.965Z</time></trkpt><trkpt lat="43.69190147326899" lon="3.6835815483075445"><ele>186.33333333333334</ele><time>2026-04-28T09:32:37.965Z</time></trkpt><trkpt lat="43.6919242435427" lon="3.6834710082967517"><ele>185.66666666666669</ele><time>2026-04-28T09:32:40.966Z</time></trkpt><trkpt lat="43.69193785377471" lon="3.6833440230078596"><ele>185.0</ele><time>2026-04-28T09:32:43.966Z</time></trkpt><trkpt lat="43.69195767894923" lon="3.683239650368546"><ele>184.33333333333334</ele><time>2026-04-28T09:32:46.966Z</time></trkpt><trkpt lat="43.691971749910195" lon="3.6831203367642456"><ele>183.66666666666666</ele><time>2026-04-28T09:32:49.966Z</time></trkpt><trkpt lat="43.6919975888641" lon="3.6830212042260637"><ele>183.0</ele><time>2026-04-28T09:32:52.966Z</time></trkpt><trkpt lat="43.692018348178095" lon="3.6829315173233965"><ele>183.0</ele><time>2026-04-28T09:32:54.966Z</time></trkpt><trkpt lat="43.69206944511345" lon="3.6828502917232524"><ele>183.0</ele><time>2026-04-28T09:32:57.966Z</time></trkpt><trkpt lat="43.692122183375126" lon="3.6827779370480527"><ele>183.0</ele><time>2026-04-28T09:33:00.965Z</time></trkpt><trkpt lat="43.69217373566197" lon="3.6826954033267003"><ele>183.0</ele><time>2026-04-28T09:33:03.965Z</time></trkpt><trkpt lat="43.69222780339649" lon="3.6825994945489513"><ele>183.0</ele><time>2026-04-28T09:33:06.965Z</time></trkpt><trkpt lat="43.692289101558" lon="3.6825060867502035"><ele>183.0</ele><time>2026-04-28T09:33:09.965Z</time></trkpt><trkpt lat="43.69234031221667" lon="3.682405929330755"><ele>183.83333333333334</ele><time>2026-04-28T09:33:12.965Z</time></trkpt><trkpt lat="43.692366682425586" lon="3.6823150954926325"><ele>184.66666666666666</ele><time>2026-04-28T09:33:15.965Z</time></trkpt><trkpt lat="43.6924118074155" lon="3.6822033254636732"><ele>185.5</ele><time>2026-04-28T09:33:18.965Z</time></trkpt><trkpt lat="43.69243367533486" lon="3.6821063089618082"><ele>186.33333333333331</ele><time>2026-04-28T09:33:21.965Z</time></trkpt><trkpt lat="43.69245701431637" lon="3.6819983677576276"><ele>187.16666666666666</ele><time>2026-04-28T09:33:24.965Z</time></trkpt><trkpt lat="43.692491540440706" lon="3.681892883537923"><ele>188.0</ele><time>2026-04-28T09:33:27.965Z</time></trkpt><trkpt lat="43.69252255236955" lon="3.6818149313198623"><ele>187.5</ele><time>2026-04-28T09:33:29.965Z</time></trkpt><trkpt lat="43.6925532676168" lon="3.681738261369586"><ele>187.0</ele><time>2026-04-28T09:33:31.965Z</time></trkpt><trkpt lat="43.69259468158188" lon="3.681639248455063"><ele>186.5</ele><time>2026-04-28T09:33:34.965Z</time></trkpt><trkpt lat="43.692633792490845" lon="3.6815454799033076"><ele>186.0</ele><time>2026-04-28T09:33:37.965Z</time></trkpt><trkpt lat="43.69268631789862" lon="3.681453823802515"><ele>185.5</ele><time>2026-04-28T09:33:40.965Z</time></trkpt><trkpt lat="43.69271981552501" lon="3.681367224413789"><ele>185.0</ele><time>2026-04-28T09:33:43.965Z</time></trkpt><trkpt lat="43.692764466183725" lon="3.6812799869263366"><ele>184.99999999999997</ele><time>2026-04-28T09:33:46.965Z</time></trkpt><trkpt lat="43.69281165100114" lon="3.681201049562774"><ele>185.0</ele><time>2026-04-28T09:33:49.965Z</time></trkpt><trkpt lat="43.69285716755916" lon="3.681114951215273"><ele>185.0</ele><time>2026-04-28T09:33:52.965Z</time></trkpt><trkpt lat="43.69289546102471" lon="3.6810341478141493"><ele>185.0</ele><time>2026-04-28T09:33:55.965Z</time></trkpt><trkpt lat="43.69292847610648" lon="3.680938319073014"><ele>185.0</ele><time>2026-04-28T09:33:58.965Z</time></trkpt><trkpt lat="43.692953338076144" lon="3.6808426588359073"><ele>184.99999999999997</ele><time>2026-04-28T09:34:01.965Z</time></trkpt><trkpt lat="43.69297679791083" lon="3.6807615871618333"><ele>185.0</ele><time>2026-04-28T09:34:04.965Z</time></trkpt><trkpt lat="43.69298698456969" lon="3.6806635243729726"><ele>185.66666666666666</ele><time>2026-04-28T09:34:07.965Z</time></trkpt><trkpt lat="43.693008891944466" lon="3.6805650439619835"><ele>186.33333333333331</ele><time>2026-04-28T09:34:10.965Z</time></trkpt><trkpt lat="43.69303284520875" lon="3.680475652536163"><ele>187.0</ele><time>2026-04-28T09:34:13.965Z</time></trkpt><trkpt lat="43.69307244209754" lon="3.68039403207644"><ele>187.66666666666666</ele><time>2026-04-28T09:34:16.965Z</time></trkpt><trkpt lat="43.69311070258278" lon="3.6803078161783"><ele>188.33333333333334</ele><time>2026-04-28T09:34:19.965Z</time></trkpt><trkpt lat="43.69314903628771" lon="3.6802181031651524"><ele>189.0</ele><time>2026-04-28T09:34:22.965Z</time></trkpt><trkpt lat="43.693219038157714" lon="3.6801414299363766"><ele>190.2</ele><time>2026-04-28T09:34:25.965Z</time></trkpt><trkpt lat="43.69329897252187" lon="3.6800669141259985"><ele>191.39999999999998</ele><time>2026-04-28T09:34:27.965Z</time></trkpt><trkpt lat="43.693371751567106" lon="3.679971395250896"><ele>192.6</ele><time>2026-04-28T09:34:29.965Z</time></trkpt><trkpt lat="43.69345150654105" lon="3.6798763576340288"><ele>193.8</ele><time>2026-04-28T09:34:31.965Z</time></trkpt><trkpt lat="43.69349873424845" lon="3.679760763729652"><ele>195.0</ele><time>2026-04-28T09:34:33.965Z</time></trkpt><trkpt lat="43.69354479529282" lon="3.6796251089106926"><ele>195.0</ele><time>2026-04-28T09:34:35.964Z</time></trkpt><trkpt lat="43.69358548715429" lon="3.679505866019262"><ele>195.0</ele><time>2026-04-28T09:34:37.964Z</time></trkpt><trkpt lat="43.6936571861276" lon="3.6793871984439943"><ele>195.0</ele><time>2026-04-28T09:34:39.964Z</time></trkpt><trkpt lat="43.693699631040786" lon="3.6793191868170783"><ele>195.0</ele><time>2026-04-28T09:34:41.965Z</time></trkpt><trkpt lat="43.69374944429811" lon="3.679233278883526"><ele>195.0</ele><time>2026-04-28T09:34:43.965Z</time></trkpt><trkpt lat="43.6937792063716" lon="3.6791420424476424"><ele>195.0</ele><time>2026-04-28T09:34:46.964Z</time></trkpt><trkpt lat="43.69381569679388" lon="3.6790687705277008"><ele>195.66666666666666</ele><time>2026-04-28T09:34:48.964Z</time></trkpt><trkpt lat="43.69385547792704" lon="3.678959225198512"><ele>196.33333333333331</ele><time>2026-04-28T09:34:51.964Z</time></trkpt><trkpt lat="43.693896288746735" lon="3.6788655155544197"><ele>197.0</ele><time>2026-04-28T09:34:54.964Z</time></trkpt><trkpt lat="43.693949772430486" lon="3.6787686360048806"><ele>197.66666666666666</ele><time>2026-04-28T09:34:58.964Z</time></trkpt><trkpt lat="43.69399416312406" lon="3.678674844301362"><ele>198.33333333333331</ele><time>2026-04-28T09:35:02.964Z</time></trkpt><trkpt lat="43.69403792030388" lon="3.678567681154768"><ele>199.0</ele><time>2026-04-28T09:35:05.964Z</time></trkpt><trkpt lat="43.69406640666741" lon="3.678484649866916"><ele>198.99999999999997</ele><time>2026-04-28T09:35:08.964Z</time></trkpt><trkpt lat="43.6940912780171" lon="3.6783901276253577"><ele>199.0</ele><time>2026-04-28T09:35:12.964Z</time></trkpt><trkpt lat="43.69413372164522" lon="3.678315125883457"><ele>199.0</ele><time>2026-04-28T09:35:15.964Z</time></trkpt><trkpt lat="43.69417382674362" lon="3.6782436861717778"><ele>199.0</ele><time>2026-04-28T09:35:19.964Z</time></trkpt><trkpt lat="43.69422671385814" lon="3.678145215874225"><ele>199.0</ele><time>2026-04-28T09:35:23.964Z</time></trkpt><trkpt lat="43.694270705978624" lon="3.678078984659993"><ele>198.99999999999997</ele><time>2026-04-28T09:35:27.964Z</time></trkpt><trkpt lat="43.69431410840287" lon="3.678011142479069"><ele>199.0</ele><time>2026-04-28T09:35:31.964Z</time></trkpt><trkpt lat="43.69435793392046" lon="3.677940457328793"><ele>198.99999999999997</ele><time>2026-04-28T09:35:36.964Z</time></trkpt><trkpt lat="43.6943971654073" lon="3.677869253399959"><ele>199.0</ele><time>2026-04-28T09:35:52.963Z</time></trkpt><trkpt lat="43.69445746705921" lon="3.677759872229528"><ele>199.0</ele><time>2026-04-28T09:36:15.963Z</time></trkpt><trkpt lat="43.69452576146166" lon="3.677728839736711"><ele>199.0</ele><time>2026-04-28T09:36:25.963Z</time></trkpt><trkpt lat="43.694600064557775" lon="3.6777011029799627"><ele>198.99999999999997</ele><time>2026-04-28T09:36:35.963Z</time></trkpt><trkpt lat="43.69464707370856" lon="3.6776382180523357"><ele>199.0</ele><time>2026-04-28T09:36:41.964Z</time></trkpt><trkpt lat="43.694652171522534" lon="3.6775378941316563"><ele>200.49999999999997</ele><time>2026-04-28T09:36:55.963Z</time></trkpt><trkpt lat="43.69465994690854" lon="3.677448016448536"><ele>202.0</ele><time>2026-04-28T09:36:59.963Z</time></trkpt><trkpt lat="43.69466690405227" lon="3.6773379226997807"><ele>203.5</ele><time>2026-04-28T09:37:03.963Z</time></trkpt><trkpt lat="43.69467261728393" lon="3.6772333457772324"><ele>205.0</ele><time>2026-04-28T09:37:07.963Z</time></trkpt><trkpt lat="43.69469335131149" lon="3.677131441292185"><ele>206.49999999999997</ele><time>2026-04-28T09:37:11.963Z</time></trkpt><trkpt lat="43.6947109990816" lon="3.677018356431099"><ele>208.0</ele><time>2026-04-28T09:37:15.963Z</time></trkpt><trkpt lat="43.694735536440284" lon="3.676923556949726"><ele>209.14285714285714</ele><time>2026-04-28T09:37:19.963Z</time></trkpt><trkpt lat="43.69475532266581" lon="3.676834108362528"><ele>210.2857142857143</ele><time>2026-04-28T09:37:24.963Z</time></trkpt><trkpt lat="43.69476531521708" lon="3.6767397487838345"><ele>211.42857142857144</ele><time>2026-04-28T09:37:29.963Z</time></trkpt><trkpt lat="43.69476434064625" lon="3.6766442173607374"><ele>212.57142857142856</ele><time>2026-04-28T09:37:34.963Z</time></trkpt><trkpt lat="43.69478338021627" lon="3.676552299538416"><ele>213.71428571428572</ele><time>2026-04-28T09:37:38.963Z</time></trkpt><trkpt lat="43.69480021983747" lon="3.6764555850925444"><ele>214.85714285714286</ele><time>2026-04-28T09:37:42.963Z</time></trkpt><trkpt lat="43.69481796991982" lon="3.676367242665241"><ele>216.0</ele><time>2026-04-28T09:37:46.963Z</time></trkpt><trkpt lat="43.69483869375364" lon="3.676281900500947"><ele>216.0</ele><time>2026-04-28T09:37:49.963Z</time></trkpt><trkpt lat="43.69486178466558" lon="3.6761889858984147"><ele>216.0</ele><time>2026-04-28T09:37:53.963Z</time></trkpt><trkpt lat="43.694902544693285" lon="3.6760951770814407"><ele>216.0</ele><time>2026-04-28T09:37:58.963Z</time></trkpt><trkpt lat="43.69495684564853" lon="3.6760186882857333"><ele>216.0</ele><time>2026-04-28T09:38:02.963Z</time></trkpt><trkpt lat="43.69501556604858" lon="3.6759786421906395"><ele>216.0</ele><time>2026-04-28T09:38:06.963Z</time></trkpt><trkpt lat="43.695083599117524" lon="3.6759629914613647"><ele>216.0</ele><time>2026-04-28T09:38:10.963Z</time></trkpt><trkpt lat="43.695165100451675" lon="3.6759594111548712"><ele>216.0</ele><time>2026-04-28T09:38:15.963Z</time></trkpt><trkpt lat="43.695237873307704" lon="3.6759798569433553"><ele>217.28571428571428</ele><time>2026-04-28T09:38:19.962Z</time></trkpt><trkpt lat="43.69531318836195" lon="3.6759993497735453"><ele>218.57142857142856</ele><time>2026-04-28T09:38:23.962Z</time></trkpt><trkpt lat="43.69539382415392" lon="3.67601156455387"><ele>219.8571428571429</ele><time>2026-04-28T09:38:27.962Z</time></trkpt><trkpt lat="43.69546435467616" lon="3.675985629232219"><ele>221.14285714285717</ele><time>2026-04-28T09:38:31.962Z</time></trkpt><trkpt lat="43.695422640784415" lon="3.675901542761178"><ele>222.42857142857144</ele><time>2026-04-28T09:38:37.962Z</time></trkpt><trkpt lat="43.695346282732224" lon="3.6758776781775078"><ele>223.71428571428575</ele><time>2026-04-28T09:38:42.962Z</time></trkpt><trkpt lat="43.695287416289744" lon="3.6758388122536316"><ele>225.00000000000003</ele><time>2026-04-28T09:38:46.962Z</time></trkpt><trkpt lat="43.695240374729764" lon="3.675755418545835"><ele>225.00000000000003</ele><time>2026-04-28T09:38:51.962Z</time></trkpt><trkpt lat="43.695193408852695" lon="3.6756797942407125"><ele>225.0</ele><time>2026-04-28T09:38:56.962Z</time></trkpt><trkpt lat="43.69516641881542" lon="3.6755905261286417"><ele>225.00000000000003</ele><time>2026-04-28T09:39:01.962Z</time></trkpt><trkpt lat="43.69517273623071" lon="3.6754822225135357"><ele>225.00000000000003</ele><time>2026-04-28T09:39:06.961Z</time></trkpt><trkpt lat="43.69518366425596" lon="3.6753943854325075"><ele>225.0</ele><time>2026-04-28T09:39:10.961Z</time></trkpt><trkpt lat="43.69518462627674" lon="3.6752993468862227"><ele>225.00000000000003</ele><time>2026-04-28T09:39:14.961Z</time></trkpt><trkpt lat="43.69518995763734" lon="3.6752015868807706"><ele>225.00000000000003</ele><time>2026-04-28T09:39:18.961Z</time></trkpt><trkpt lat="43.69519825042142" lon="3.6750882574941506"><ele>226.14285714285717</ele><time>2026-04-28T09:39:23.961Z</time></trkpt><trkpt lat="43.69522001690434" lon="3.674983144314502"><ele>227.28571428571428</ele><time>2026-04-28T09:39:28.961Z</time></trkpt><trkpt lat="43.695268694906694" lon="3.674923878496448"><ele>228.42857142857144</ele><time>2026-04-28T09:39:33.961Z</time></trkpt><trkpt lat="43.69533120789969" lon="3.6748752917810648"><ele>229.57142857142858</ele><time>2026-04-28T09:39:37.961Z</time></trkpt><trkpt lat="43.69538757051621" lon="3.674829346647955"><ele>230.71428571428572</ele><time>2026-04-28T09:39:40.961Z</time></trkpt><trkpt lat="43.69545568185186" lon="3.674789252086935"><ele>231.85714285714286</ele><time>2026-04-28T09:39:44.961Z</time></trkpt><trkpt lat="43.69552797178956" lon="3.6747623491850563"><ele>233.0</ele><time>2026-04-28T09:39:48.961Z</time></trkpt><trkpt lat="43.69559603311261" lon="3.674730088385633"><ele>233.66666666666669</ele><time>2026-04-28T09:39:53.961Z</time></trkpt><trkpt lat="43.695657192873384" lon="3.674689308244396"><ele>234.33333333333334</ele><time>2026-04-28T09:39:57.961Z</time></trkpt><trkpt lat="43.69558984039014" lon="3.6746352988709963"><ele>235.0</ele><time>2026-04-28T09:40:04.961Z</time></trkpt><trkpt lat="43.695514247824676" lon="3.67465279793447"><ele>235.66666666666669</ele><time>2026-04-28T09:40:07.961Z</time></trkpt><trkpt lat="43.695415996864355" lon="3.6746683455404603"><ele>236.33333333333334</ele><time>2026-04-28T09:40:10.961Z</time></trkpt><trkpt lat="43.695343421148166" lon="3.6746765047790784"><ele>237.0</ele><time>2026-04-28T09:40:12.961Z</time></trkpt><trkpt lat="43.69526548319197" lon="3.6746837220252115"><ele>236.2</ele><time>2026-04-28T09:40:14.961Z</time></trkpt><trkpt lat="43.69518253488345" lon="3.674716676992037"><ele>235.39999999999998</ele><time>2026-04-28T09:40:16.961Z</time></trkpt><trkpt lat="43.695088493997844" lon="3.674733452535996"><ele>234.60000000000002</ele><time>2026-04-28T09:40:18.961Z</time></trkpt><trkpt lat="43.69499008239236" lon="3.6747368604230544"><ele>233.8</ele><time>2026-04-28T09:40:20.961Z</time></trkpt><trkpt lat="43.694907149947426" lon="3.6746788716157033"><ele>233.0</ele><time>2026-04-28T09:40:23.961Z</time></trkpt><trkpt lat="43.69485135749978" lon="3.6745973801466776"><ele>233.00000000000003</ele><time>2026-04-28T09:40:26.961Z</time></trkpt><trkpt lat="43.694793452723786" lon="3.6745408766393886"><ele>233.0</ele><time>2026-04-28T09:40:28.961Z</time></trkpt><trkpt lat="43.69473100462013" lon="3.6745008592689477"><ele>233.0</ele><time>2026-04-28T09:40:32.961Z</time></trkpt><trkpt lat="43.69465956677842" lon="3.6744541186752064"><ele>233.0</ele><time>2026-04-28T09:40:35.961Z</time></trkpt><trkpt lat="43.694596870191575" lon="3.674395371305225"><ele>233.00000000000003</ele><time>2026-04-28T09:40:37.961Z</time></trkpt><trkpt lat="43.69452401284135" lon="3.6743512470406605"><ele>233.0</ele><time>2026-04-28T09:40:39.961Z</time></trkpt><trkpt lat="43.69445154562307" lon="3.674310263664226"><ele>232.66666666666669</ele><time>2026-04-28T09:40:41.961Z</time></trkpt><trkpt lat="43.69438671896257" lon="3.674263876848063"><ele>232.33333333333334</ele><time>2026-04-28T09:40:43.961Z</time></trkpt><trkpt lat="43.69432514030127" lon="3.6742114677173308"><ele>232.0</ele><time>2026-04-28T09:40:46.961Z</time></trkpt><trkpt lat="43.69427502326046" lon="3.67413636075417"><ele>231.66666666666669</ele><time>2026-04-28T09:40:48.961Z</time></trkpt><trkpt lat="43.6942230169234" lon="3.6740362866156477"><ele>231.33333333333334</ele><time>2026-04-28T09:40:50.96Z</time></trkpt><trkpt lat="43.69415428214747" lon="3.6739278586160844"><ele>231.0</ele><time>2026-04-28T09:40:52.96Z</time></trkpt><trkpt lat="43.69410500161569" lon="3.6737913287792"><ele>231.0</ele><time>2026-04-28T09:40:54.961Z</time></trkpt><trkpt lat="43.6940540361378" lon="3.6736571760168326"><ele>231.00000000000003</ele><time>2026-04-28T09:40:56.96Z</time></trkpt><trkpt lat="43.693997893624335" lon="3.673514028005832"><ele>231.00000000000003</ele><time>2026-04-28T09:40:58.961Z</time></trkpt><trkpt lat="43.69393997448397" lon="3.6733999586608155"><ele>231.0</ele><time>2026-04-28T09:41:00.961Z</time></trkpt><trkpt lat="43.69388935597995" lon="3.6732851974415937"><ele>231.0</ele><time>2026-04-28T09:41:02.96Z</time></trkpt><trkpt lat="43.69385366278898" lon="3.6731829859654876"><ele>230.0</ele><time>2026-04-28T09:41:04.96Z</time></trkpt><trkpt lat="43.69380900354042" lon="3.673081926766221"><ele>229.00000000000003</ele><time>2026-04-28T09:41:06.96Z</time></trkpt><trkpt lat="43.693768123913685" lon="3.6729512540885296"><ele>228.00000000000003</ele><time>2026-04-28T09:41:08.96Z</time></trkpt><trkpt lat="43.69372113525276" lon="3.672784075730609"><ele>227.0</ele><time>2026-04-28T09:41:10.96Z</time></trkpt><trkpt lat="43.69366043697773" lon="3.6726671465000065"><ele>226.0</ele><time>2026-04-28T09:41:12.96Z</time></trkpt><trkpt lat="43.69362133836912" lon="3.672588964277047"><ele>223.8</ele><time>2026-04-28T09:41:13.96Z</time></trkpt><trkpt lat="43.69358011686466" lon="3.672507483508792"><ele>221.60000000000002</ele><time>2026-04-28T09:41:14.96Z</time></trkpt><trkpt lat="43.693536870360866" lon="3.6724145713552763"><ele>219.4</ele><time>2026-04-28T09:41:15.96Z</time></trkpt><trkpt lat="43.69349857836717" lon="3.672334044868243"><ele>217.2</ele><time>2026-04-28T09:41:16.96Z</time></trkpt><trkpt lat="43.6934254313794" lon="3.6721571231527115"><ele>215.0</ele><time>2026-04-28T09:41:18.96Z</time></trkpt><trkpt lat="43.69337626993793" lon="3.6720506032479663"><ele>215.00000000000003</ele><time>2026-04-28T09:41:19.96Z</time></trkpt><trkpt lat="43.693339036318825" lon="3.6719457461628076"><ele>215.0</ele><time>2026-04-28T09:41:20.96Z</time></trkpt><trkpt lat="43.69330406099669" lon="3.671846819984954"><ele>215.0</ele><time>2026-04-28T09:41:21.96Z</time></trkpt><trkpt lat="43.693267998849215" lon="3.6717463018466368"><ele>215.0</ele><time>2026-04-28T09:41:22.96Z</time></trkpt><trkpt lat="43.69323352400327" lon="3.671653199776776"><ele>215.00000000000003</ele><time>2026-04-28T09:41:23.96Z</time></trkpt><trkpt lat="43.69320617265009" lon="3.671568212944101"><ele>215.0</ele><time>2026-04-28T09:41:24.96Z</time></trkpt><trkpt lat="43.69317755632413" lon="3.671469713244128"><ele>214.0</ele><time>2026-04-28T09:41:25.96Z</time></trkpt><trkpt lat="43.6931508769574" lon="3.671371406526672"><ele>213.0</ele><time>2026-04-28T09:41:26.96Z</time></trkpt><trkpt lat="43.693091468043036" lon="3.6712211534458983"><ele>212.0</ele><time>2026-04-28T09:41:28.96Z</time></trkpt><trkpt lat="43.69302621081906" lon="3.67109657789097"><ele>211.0</ele><time>2026-04-28T09:41:30.96Z</time></trkpt><trkpt lat="43.69297122619325" lon="3.6710109697783886"><ele>210.0</ele><time>2026-04-28T09:41:33.96Z</time></trkpt><trkpt lat="43.69293359368076" lon="3.6709334527026263"><ele>210.0</ele><time>2026-04-28T09:41:36.96Z</time></trkpt><trkpt lat="43.69287452371927" lon="3.6708564108958366"><ele>210.0</ele><time>2026-04-28T09:41:40.96Z</time></trkpt><trkpt lat="43.69296310960418" lon="3.670886263583798"><ele>210.0</ele><time>2026-04-28T09:42:05.959Z</time></trkpt><trkpt lat="43.69301895340617" lon="3.670970111391239"><ele>210.0</ele><time>2026-04-28T09:42:08.959Z</time></trkpt><trkpt lat="43.69306821226484" lon="3.6710715682942956"><ele>210.0</ele><time>2026-04-28T09:42:11.959Z</time></trkpt><trkpt lat="43.69310780148358" lon="3.6711960398271013"><ele>210.0</ele><time>2026-04-28T09:42:14.959Z</time></trkpt><trkpt lat="43.69313125953711" lon="3.6712899581940897"><ele>210.0</ele><time>2026-04-28T09:42:16.959Z</time></trkpt><trkpt lat="43.693154370533065" lon="3.6713758663699663"><ele>210.0</ele><time>2026-04-28T09:42:18.959Z</time></trkpt><trkpt lat="43.69318158703881" lon="3.6714755045625718"><ele>210.0</ele><time>2026-04-28T09:42:20.959Z</time></trkpt><trkpt lat="43.69320446503091" lon="3.671559420914986"><ele>210.0</ele><time>2026-04-28T09:42:22.959Z</time></trkpt><trkpt lat="43.69324449509614" lon="3.671681470834595"><ele>210.0</ele><time>2026-04-28T09:42:25.959Z</time></trkpt><trkpt lat="43.69322301722758" lon="3.6717656908794263"><ele>210.0</ele><time>2026-04-28T09:42:28.959Z</time></trkpt><trkpt lat="43.693137642644196" lon="3.671790902914191"><ele>210.0</ele><time>2026-04-28T09:42:31.959Z</time></trkpt><trkpt lat="43.69305709751061" lon="3.671837325835023"><ele>210.0</ele><time>2026-04-28T09:42:34.959Z</time></trkpt><trkpt lat="43.69300410451941" lon="3.671894804478044"><ele>210.0</ele><time>2026-04-28T09:42:37.959Z</time></trkpt><trkpt lat="43.692971655367714" lon="3.6719797749847864"><ele>210.0</ele><time>2026-04-28T09:42:40.959Z</time></trkpt><trkpt lat="43.69293542199305" lon="3.6720714628847873"><ele>210.0</ele><time>2026-04-28T09:42:43.959Z</time></trkpt><trkpt lat="43.692891644709185" lon="3.6721478409132344"><ele>210.0</ele><time>2026-04-28T09:42:46.959Z</time></trkpt><trkpt lat="43.6928511950878" lon="3.67226095663908"><ele>210.83333333333334</ele><time>2026-04-28T09:42:49.959Z</time></trkpt><trkpt lat="43.6928097019849" lon="3.672373294206778"><ele>211.66666666666669</ele><time>2026-04-28T09:42:52.959Z</time></trkpt><trkpt lat="43.69277370586244" lon="3.6724472623430713"><ele>212.5</ele><time>2026-04-28T09:42:54.96Z</time></trkpt><trkpt lat="43.69271926572262" lon="3.6725485424415822"><ele>213.33333333333334</ele><time>2026-04-28T09:42:57.96Z</time></trkpt><trkpt lat="43.69268335160491" lon="3.6726561905766455"><ele>214.16666666666669</ele><time>2026-04-28T09:43:00.96Z</time></trkpt><trkpt lat="43.692637928936726" lon="3.672730213486118"><ele>215.0</ele><time>2026-04-28T09:43:02.96Z</time></trkpt><trkpt lat="43.692585940375444" lon="3.6728030819643385"><ele>215.7142857142857</ele><time>2026-04-28T09:43:05.96Z</time></trkpt><trkpt lat="43.692557502289205" lon="3.6728869842739127"><ele>216.42857142857144</ele><time>2026-04-28T09:43:08.96Z</time></trkpt><trkpt lat="43.69251824213493" lon="3.6729594137247146"><ele>217.14285714285714</ele><time>2026-04-28T09:43:11.96Z</time></trkpt><trkpt lat="43.69248055712811" lon="3.673029929667317"><ele>217.85714285714283</ele><time>2026-04-28T09:43:13.96Z</time></trkpt><trkpt lat="43.69244401366766" lon="3.673121353011013"><ele>218.57142857142856</ele><time>2026-04-28T09:43:16.96Z</time></trkpt><trkpt lat="43.6924230005666" lon="3.6732150673274653"><ele>219.28571428571428</ele><time>2026-04-28T09:43:19.96Z</time></trkpt><trkpt lat="43.69243289921959" lon="3.6733350815068375"><ele>220.0</ele><time>2026-04-28T09:43:22.96Z</time></trkpt><trkpt lat="43.69240110994345" lon="3.6734229728197874"><ele>219.99999999999997</ele><time>2026-04-28T09:43:25.96Z</time></trkpt><trkpt lat="43.6923698564849" lon="3.673537813112246"><ele>220.0</ele><time>2026-04-28T09:43:29.96Z</time></trkpt><trkpt lat="43.69232308649794" lon="3.6736338860163484"><ele>220.0</ele><time>2026-04-28T09:43:32.959Z</time></trkpt><trkpt lat="43.692288839491866" lon="3.673734505740792"><ele>220.0</ele><time>2026-04-28T09:43:35.959Z</time></trkpt><trkpt lat="43.692243891081624" lon="3.673844153605026"><ele>219.99999999999997</ele><time>2026-04-28T09:43:39.959Z</time></trkpt><trkpt lat="43.69222762251767" lon="3.673932323042048"><ele>220.0</ele><time>2026-04-28T09:43:41.959Z</time></trkpt><trkpt lat="43.692217952230486" lon="3.674020159866746"><ele>220.85714285714283</ele><time>2026-04-28T09:43:43.959Z</time></trkpt><trkpt lat="43.69220813146069" lon="3.674106500473933"><ele>221.71428571428572</ele><time>2026-04-28T09:43:45.959Z</time></trkpt><trkpt lat="43.69220083382477" lon="3.674193639041239"><ele>222.57142857142856</ele><time>2026-04-28T09:43:47.959Z</time></trkpt><trkpt lat="43.692235499502246" lon="3.6742818398883816"><ele>223.42857142857142</ele><time>2026-04-28T09:43:50.959Z</time></trkpt><trkpt lat="43.69229635663521" lon="3.6743047551830226"><ele>224.28571428571428</ele><time>2026-04-28T09:43:53.959Z</time></trkpt><trkpt lat="43.69237740551072" lon="3.6743241419475994"><ele>225.14285714285714</ele><time>2026-04-28T09:43:57.959Z</time></trkpt><trkpt lat="43.69243476918581" lon="3.6743617214288125"><ele>226.0</ele><time>2026-04-28T09:44:00.959Z</time></trkpt><trkpt lat="43.69249676754791" lon="3.6743866826785094"><ele>225.99999999999997</ele><time>2026-04-28T09:44:03.959Z</time></trkpt><trkpt lat="43.69257241969998" lon="3.6744183849380243"><ele>226.0</ele><time>2026-04-28T09:44:06.959Z</time></trkpt><trkpt lat="43.692648860851506" lon="3.674477397641332"><ele>226.0</ele><time>2026-04-28T09:44:10.959Z</time></trkpt><trkpt lat="43.69272575874925" lon="3.674537664024199"><ele>226.0</ele><time>2026-04-28T09:44:14.959Z</time></trkpt><trkpt lat="43.69278187944998" lon="3.674604919548867"><ele>225.99999999999997</ele><time>2026-04-28T09:44:17.959Z</time></trkpt><trkpt lat="43.69279594580997" lon="3.6747107497014224"><ele>226.0</ele><time>2026-04-28T09:44:21.959Z</time></trkpt><trkpt lat="43.69274516308085" lon="3.674788573704428"><ele>226.99999999999997</ele><time>2026-04-28T09:44:24.959Z</time></trkpt><trkpt lat="43.69267804296249" lon="3.6748643027393046"><ele>228.0</ele><time>2026-04-28T09:44:27.959Z</time></trkpt><trkpt lat="43.69262784234263" lon="3.6749333341823904"><ele>229.0</ele><time>2026-04-28T09:44:30.959Z</time></trkpt><trkpt lat="43.692582671819366" lon="3.6750002125056866"><ele>230.0</ele><time>2026-04-28T09:44:33.959Z</time></trkpt><trkpt lat="43.69255004655553" lon="3.675083823081921"><ele>230.99999999999997</ele><time>2026-04-28T09:44:36.959Z</time></trkpt><trkpt lat="43.692494964533864" lon="3.675175022550137"><ele>232.0</ele><time>2026-04-28T09:44:39.959Z</time></trkpt><trkpt lat="43.69241055313234" lon="3.675181099163471"><ele>231.99999999999997</ele><time>2026-04-28T09:44:42.959Z</time></trkpt><trkpt lat="43.692321358291565" lon="3.6751882386377153"><ele>232.0</ele><time>2026-04-28T09:44:45.959Z</time></trkpt><trkpt lat="43.69225430692414" lon="3.6752003797755677"><ele>232.0</ele><time>2026-04-28T09:44:48.959Z</time></trkpt><trkpt lat="43.69217877181258" lon="3.6752213667991707"><ele>232.0</ele><time>2026-04-28T09:44:52.959Z</time></trkpt><trkpt lat="43.69210333290164" lon="3.675262853988229"><ele>231.99999999999997</ele><time>2026-04-28T09:44:55.959Z</time></trkpt><trkpt lat="43.69203286434642" lon="3.6752976787951153"><ele>232.0</ele><time>2026-04-28T09:45:21.959Z</time></trkpt><trkpt lat="43.691961104538116" lon="3.675280205509417"><ele>232.42857142857144</ele><time>2026-04-28T09:45:54.959Z</time></trkpt><trkpt lat="43.69188740860355" lon="3.6752605254805784"><ele>232.85714285714286</ele><time>2026-04-28T09:45:58.959Z</time></trkpt><trkpt lat="43.6918238667439" lon="3.6752871838205197"><ele>233.28571428571428</ele><time>2026-04-28T09:46:01.959Z</time></trkpt><trkpt lat="43.69175500889482" lon="3.6752796839919144"><ele>233.71428571428572</ele><time>2026-04-28T09:46:05.958Z</time></trkpt><trkpt lat="43.691686125705196" lon="3.675271617003673"><ele>234.1428571428571</ele><time>2026-04-28T09:46:09.958Z</time></trkpt><trkpt lat="43.69162397670023" lon="3.6752491584675497"><ele>234.57142857142856</ele><time>2026-04-28T09:46:13.958Z</time></trkpt><trkpt lat="43.69155789849824" lon="3.675186725510425"><ele>235.0</ele><time>2026-04-28T09:46:16.959Z</time></trkpt><trkpt lat="43.691482304497626" lon="3.675137593118996"><ele>235.0</ele><time>2026-04-28T09:46:20.961Z</time></trkpt><trkpt lat="43.69139738055313" lon="3.6750921238364804"><ele>234.99999999999997</ele><time>2026-04-28T09:46:24.962Z</time></trkpt><trkpt lat="43.69133385579626" lon="3.675061719753814"><ele>235.0</ele><time>2026-04-28T09:46:27.963Z</time></trkpt><trkpt lat="43.69127695088796" lon="3.6750190604836526"><ele>235.0</ele><time>2026-04-28T09:46:30.963Z</time></trkpt><trkpt lat="43.69121341539478" lon="3.6749854071073043"><ele>234.99999999999997</ele><time>2026-04-28T09:46:33.964Z</time></trkpt><trkpt lat="43.691147818943406" lon="3.6749304750554637"><ele>235.0</ele><time>2026-04-28T09:46:36.964Z</time></trkpt><trkpt lat="43.69109313148275" lon="3.6748776340672675"><ele>235.0</ele><time>2026-04-28T09:46:38.964Z</time></trkpt><trkpt lat="43.69103635940159" lon="3.674817764999777"><ele>236.33333333333331</ele><time>2026-04-28T09:46:41.965Z</time></trkpt><trkpt lat="43.690977880496696" lon="3.6747605839088595"><ele>237.66666666666666</ele><time>2026-04-28T09:46:44.965Z</time></trkpt><trkpt lat="43.69090147592294" lon="3.6746877771190265"><ele>239.0</ele><time>2026-04-28T09:46:47.965Z</time></trkpt><trkpt lat="43.69083069166548" lon="3.6746257319681543"><ele>240.33333333333331</ele><time>2026-04-28T09:46:50.965Z</time></trkpt><trkpt lat="43.69076967454089" lon="3.674570497448912"><ele>241.66666666666666</ele><time>2026-04-28T09:46:52.965Z</time></trkpt><trkpt lat="43.6906793469874" lon="3.674506818577499"><ele>243.0</ele><time>2026-04-28T09:46:55.965Z</time></trkpt><trkpt lat="43.69061835578152" lon="3.674451449243075"><ele>242.66666666666666</ele><time>2026-04-28T09:46:57.965Z</time></trkpt><trkpt lat="43.69054177216211" lon="3.674403886406355"><ele>242.33333333333331</ele><time>2026-04-28T09:46:59.965Z</time></trkpt><trkpt lat="43.69046585045677" lon="3.674352648506227"><ele>242.0</ele><time>2026-04-28T09:47:01.965Z</time></trkpt><trkpt lat="43.69040035620103" lon="3.6742830952995056"><ele>241.66666666666666</ele><time>2026-04-28T09:47:03.965Z</time></trkpt><trkpt lat="43.69032918679871" lon="3.6742436919434462"><ele>241.33333333333331</ele><time>2026-04-28T09:47:05.965Z</time></trkpt><trkpt lat="43.69027470194084" lon="3.674195700486628"><ele>241.0</ele><time>2026-04-28T09:47:07.966Z</time></trkpt><trkpt lat="43.690195640689055" lon="3.674173789864266"><ele>240.99999999999997</ele><time>2026-04-28T09:47:09.966Z</time></trkpt><trkpt lat="43.690115312616456" lon="3.6741192327552263"><ele>241.0</ele><time>2026-04-28T09:47:11.966Z</time></trkpt><trkpt lat="43.690022351970896" lon="3.67406709682252"><ele>241.0</ele><time>2026-04-28T09:47:13.967Z</time></trkpt><trkpt lat="43.68996364653908" lon="3.674031895804729"><ele>241.0</ele><time>2026-04-28T09:47:14.967Z</time></trkpt><trkpt lat="43.6898930656267" lon="3.674007688802313"><ele>240.99999999999997</ele><time>2026-04-28T09:47:15.967Z</time></trkpt><trkpt lat="43.68978135032855" lon="3.6739540889832307"><ele>241.0</ele><time>2026-04-28T09:47:17.967Z</time></trkpt><trkpt lat="43.68970072080012" lon="3.673863577450196"><ele>240.99999999999997</ele><time>2026-04-28T09:47:19.966Z</time></trkpt><trkpt lat="43.689653666272825" lon="3.673775073187071"><ele>241.0</ele><time>2026-04-28T09:47:21.966Z</time></trkpt><trkpt lat="43.68959780414584" lon="3.6737118572346246"><ele>241.0</ele><time>2026-04-28T09:47:23.966Z</time></trkpt><trkpt lat="43.68953407675506" lon="3.673639224408021"><ele>241.0</ele><time>2026-04-28T09:47:25.966Z</time></trkpt><trkpt lat="43.68946021616121" lon="3.6736164851727446"><ele>240.99999999999997</ele><time>2026-04-28T09:47:27.966Z</time></trkpt><trkpt lat="43.68936798958537" lon="3.6736247351496116"><ele>241.0</ele><time>2026-04-28T09:47:29.966Z</time></trkpt><trkpt lat="43.689291848626375" lon="3.6736187822106365"><ele>239.66666666666666</ele><time>2026-04-28T09:47:32.966Z</time></trkpt><trkpt lat="43.689214490538646" lon="3.673563969456347"><ele>238.33333333333331</ele><time>2026-04-28T09:47:34.966Z</time></trkpt><trkpt lat="43.68915159122634" lon="3.6734580011525213"><ele>237.0</ele><time>2026-04-28T09:47:37.966Z</time></trkpt><trkpt lat="43.68908722560931" lon="3.6733691138838895"><ele>235.66666666666669</ele><time>2026-04-28T09:47:39.966Z</time></trkpt><trkpt lat="43.68903480137631" lon="3.673314866648737"><ele>234.33333333333334</ele><time>2026-04-28T09:47:41.966Z</time></trkpt><trkpt lat="43.688972731711836" lon="3.673238746012195"><ele>233.0</ele><time>2026-04-28T09:47:43.966Z</time></trkpt><trkpt lat="43.68891374194956" lon="3.673202846161862"><ele>233.00000000000003</ele><time>2026-04-28T09:47:45.966Z</time></trkpt><trkpt lat="43.68882995933338" lon="3.6731543184947837"><ele>233.0</ele><time>2026-04-28T09:47:48.966Z</time></trkpt><trkpt lat="43.688752909616525" lon="3.6731062720149628"><ele>233.0</ele><time>2026-04-28T09:47:51.966Z</time></trkpt><trkpt lat="43.68866738373884" lon="3.6730644424544834"><ele>233.0</ele><time>2026-04-28T09:47:54.966Z</time></trkpt><trkpt lat="43.6885891983126" lon="3.6730571332991504"><ele>233.00000000000003</ele><time>2026-04-28T09:47:57.966Z</time></trkpt><trkpt lat="43.68852207762331" lon="3.673029931643572"><ele>233.0</ele><time>2026-04-28T09:47:59.966Z</time></trkpt><trkpt lat="43.688442488031875" lon="3.6730143016537817"><ele>233.83333333333334</ele><time>2026-04-28T09:48:02.966Z</time></trkpt><trkpt lat="43.68836462910774" lon="3.673018856646419"><ele>234.66666666666669</ele><time>2026-04-28T09:48:04.966Z</time></trkpt><trkpt lat="43.68829878888848" lon="3.67300672955845"><ele>235.5</ele><time>2026-04-28T09:48:06.966Z</time></trkpt><trkpt lat="43.68822457330492" lon="3.6729807746568115"><ele>236.33333333333331</ele><time>2026-04-28T09:48:08.966Z</time></trkpt><trkpt lat="43.68815142602984" lon="3.6729328494184372"><ele>237.16666666666666</ele><time>2026-04-28T09:48:11.966Z</time></trkpt><trkpt lat="43.68806056270189" lon="3.6729064588788902"><ele>238.0</ele><time>2026-04-28T09:48:14.966Z</time></trkpt><trkpt lat="43.68798460443027" lon="3.672876497019189"><ele>238.0</ele><time>2026-04-28T09:48:16.966Z</time></trkpt><trkpt lat="43.68791176936261" lon="3.6728771240882185"><ele>238.0</ele><time>2026-04-28T09:48:18.966Z</time></trkpt><trkpt lat="43.687837289546295" lon="3.6728772004930836"><ele>238.0</ele><time>2026-04-28T09:48:20.966Z</time></trkpt><trkpt lat="43.68775701249688" lon="3.6728987910566073"><ele>238.0</ele><time>2026-04-28T09:48:23.966Z</time></trkpt><trkpt lat="43.687686637669756" lon="3.6728994239630164"><ele>238.0</ele><time>2026-04-28T09:48:25.966Z</time></trkpt><trkpt lat="43.687616164197586" lon="3.672881407838737"><ele>238.0</ele><time>2026-04-28T09:48:28.966Z</time></trkpt><trkpt lat="43.68754283277949" lon="3.672860439929067"><ele>238.0</ele><time>2026-04-28T09:48:32.966Z</time></trkpt><trkpt lat="43.687468780719335" lon="3.672861460240702"><ele>237.83333333333331</ele><time>2026-04-28T09:48:36.966Z</time></trkpt><trkpt lat="43.68740603574436" lon="3.672869580982672"><ele>237.66666666666666</ele><time>2026-04-28T09:48:39.966Z</time></trkpt><trkpt lat="43.687340709308565" lon="3.6728302643554525"><ele>237.5</ele><time>2026-04-28T09:48:43.966Z</time></trkpt><trkpt lat="43.68725127522386" lon="3.672780225483116"><ele>237.33333333333331</ele><time>2026-04-28T09:49:04.966Z</time></trkpt><trkpt lat="43.68718431873772" lon="3.6727640374074806"><ele>237.16666666666666</ele><time>2026-04-28T09:49:07.966Z</time></trkpt><trkpt lat="43.687108833502386" lon="3.672721973905461"><ele>237.0</ele><time>2026-04-28T09:49:11.966Z</time></trkpt><trkpt lat="43.68704762970222" lon="3.6726764672712626"><ele>236.99999999999997</ele><time>2026-04-28T09:49:14.966Z</time></trkpt><trkpt lat="43.68697945557862" lon="3.672647954608968"><ele>237.0</ele><time>2026-04-28T09:49:17.966Z</time></trkpt><trkpt lat="43.686905043163165" lon="3.672578542602274"><ele>236.99999999999997</ele><time>2026-04-28T09:49:20.966Z</time></trkpt><trkpt lat="43.68683989381846" lon="3.6725595589222486"><ele>236.99999999999997</ele><time>2026-04-28T09:49:23.966Z</time></trkpt><trkpt lat="43.686777704064156" lon="3.6724881383614987"><ele>237.0</ele><time>2026-04-28T09:49:26.966Z</time></trkpt><trkpt lat="43.68671944180625" lon="3.6724505457470373"><ele>236.99999999999997</ele><time>2026-04-28T09:49:29.966Z</time></trkpt><trkpt lat="43.68664985257684" lon="3.672410222939748"><ele>236.99999999999997</ele><time>2026-04-28T09:49:33.966Z</time></trkpt><trkpt lat="43.68663880360483" lon="3.6723233012939978"><ele>237.71428571428567</ele><time>2026-04-28T09:49:36.966Z</time></trkpt><trkpt lat="43.68665704866537" lon="3.672237942511068"><ele>238.42857142857142</ele><time>2026-04-28T09:49:40.966Z</time></trkpt><trkpt lat="43.68668951940819" lon="3.6721548790389074"><ele>239.1428571428571</ele><time>2026-04-28T09:49:44.966Z</time></trkpt><trkpt lat="43.68672336455087" lon="3.6720690554850446"><ele>239.85714285714283</ele><time>2026-04-28T09:49:47.966Z</time></trkpt><trkpt lat="43.68675393247504" lon="3.671968339413732"><ele>240.57142857142856</ele><time>2026-04-28T09:49:50.966Z</time></trkpt><trkpt lat="43.68679407941172" lon="3.671875101482149"><ele>241.28571428571428</ele><time>2026-04-28T09:49:53.966Z</time></trkpt><trkpt lat="43.68683837527781" lon="3.6718022553612464"><ele>242.0</ele><time>2026-04-28T09:49:55.966Z</time></trkpt><trkpt lat="43.68687413668394" lon="3.671720397729744"><ele>242.16666666666669</ele><time>2026-04-28T09:49:57.966Z</time></trkpt><trkpt lat="43.6869068419875" lon="3.6716049313686043"><ele>242.33333333333334</ele><time>2026-04-28T09:49:59.966Z</time></trkpt><trkpt lat="43.686939832356266" lon="3.671480766331284"><ele>242.5</ele><time>2026-04-28T09:50:01.966Z</time></trkpt><trkpt lat="43.68696335949518" lon="3.671398431731931"><ele>242.66666666666669</ele><time>2026-04-28T09:50:02.966Z</time></trkpt><trkpt lat="43.687031111870475" lon="3.671269392666051"><ele>242.83333333333334</ele><time>2026-04-28T09:50:04.966Z</time></trkpt><trkpt lat="43.68705057543179" lon="3.6711856466581985"><ele>243.0</ele><time>2026-04-28T09:50:05.966Z</time></trkpt><trkpt lat="43.68708517538496" lon="3.6710892625799585"><ele>240.4</ele><time>2026-04-28T09:50:06.966Z</time></trkpt><trkpt lat="43.68712819344961" lon="3.671008007593503"><ele>237.8</ele><time>2026-04-28T09:50:07.966Z</time></trkpt><trkpt lat="43.68720332477101" lon="3.6708541313840963"><ele>235.2</ele><time>2026-04-28T09:50:09.966Z</time></trkpt><trkpt lat="43.68724509924558" lon="3.6707161478229766"><ele>232.6</ele><time>2026-04-28T09:50:11.966Z</time></trkpt><trkpt lat="43.68731888343835" lon="3.6706001493447147"><ele>230.0</ele><time>2026-04-28T09:50:13.966Z</time></trkpt><trkpt lat="43.68737067329719" lon="3.670523462189786"><ele>230.0</ele><time>2026-04-28T09:50:15.966Z</time></trkpt><trkpt lat="43.68739542719755" lon="3.6704393097833803"><ele>230.0</ele><time>2026-04-28T09:50:17.966Z</time></trkpt><trkpt lat="43.687436358219095" lon="3.670282668344655"><ele>230.0</ele><time>2026-04-28T09:50:19.966Z</time></trkpt><trkpt lat="43.68746580496506" lon="3.6701809453556113"><ele>230.0</ele><time>2026-04-28T09:50:20.966Z</time></trkpt><trkpt lat="43.68749356317514" lon="3.6700275565092735"><ele>230.0</ele><time>2026-04-28T09:50:22.966Z</time></trkpt><trkpt lat="43.68752008948191" lon="3.669937736915538"><ele>229.50000000000003</ele><time>2026-04-28T09:50:23.966Z</time></trkpt><trkpt lat="43.68754538162833" lon="3.669852855846805"><ele>229.0</ele><time>2026-04-28T09:50:24.966Z</time></trkpt><trkpt lat="43.687578922908784" lon="3.6697399335449985"><ele>228.5</ele><time>2026-04-28T09:50:26.966Z</time></trkpt><trkpt lat="43.687610418391884" lon="3.6696583850027564"><ele>228.0</ele><time>2026-04-28T09:50:27.966Z</time></trkpt><trkpt lat="43.68764184505978" lon="3.669525431579073"><ele>227.50000000000003</ele><time>2026-04-28T09:50:29.966Z</time></trkpt><trkpt lat="43.68766662787714" lon="3.6694205925079113"><ele>227.0</ele><time>2026-04-28T09:50:31.966Z</time></trkpt><trkpt lat="43.687695382667314" lon="3.669306013281471"><ele>226.0</ele><time>2026-04-28T09:50:33.966Z</time></trkpt><trkpt lat="43.68774302765607" lon="3.6691889684442316"><ele>225.0</ele><time>2026-04-28T09:50:35.966Z</time></trkpt><trkpt lat="43.68781141674785" lon="3.6690902633795295"><ele>224.0</ele><time>2026-04-28T09:50:37.966Z</time></trkpt><trkpt lat="43.68786419439324" lon="3.66899145613835"><ele>223.0</ele><time>2026-04-28T09:50:39.966Z</time></trkpt><trkpt lat="43.68790371336891" lon="3.6688576315832435"><ele>222.0</ele><time>2026-04-28T09:50:41.965Z</time></trkpt><trkpt lat="43.68793717925236" lon="3.6687445707276773"><ele>221.6</ele><time>2026-04-28T09:50:43.965Z</time></trkpt><trkpt lat="43.687999963558454" lon="3.668640159026523"><ele>221.2</ele><time>2026-04-28T09:50:45.965Z</time></trkpt><trkpt lat="43.688072403675264" lon="3.6685068380513446"><ele>220.8</ele><time>2026-04-28T09:50:47.965Z</time></trkpt><trkpt lat="43.68814584641672" lon="3.668387112392284"><ele>220.4</ele><time>2026-04-28T09:50:49.965Z</time></trkpt><trkpt lat="43.68818868407233" lon="3.6682494297934594"><ele>220.0</ele><time>2026-04-28T09:50:51.965Z</time></trkpt><trkpt lat="43.688261464156966" lon="3.668112372971581"><ele>219.6</ele><time>2026-04-28T09:50:53.965Z</time></trkpt><trkpt lat="43.68833416301" lon="3.6679941461625756"><ele>219.2</ele><time>2026-04-28T09:50:55.965Z</time></trkpt><trkpt lat="43.688441155244256" lon="3.6678816006872803"><ele>218.8</ele><time>2026-04-28T09:50:57.965Z</time></trkpt><trkpt lat="43.688483684524336" lon="3.667812258889736"><ele>218.4</ele><time>2026-04-28T09:50:58.965Z</time></trkpt><trkpt lat="43.688554175506226" lon="3.6676949078784347"><ele>218.0</ele><time>2026-04-28T09:51:00.965Z</time></trkpt><trkpt lat="43.68859678898092" lon="3.667595518301019"><ele>216.83333333333334</ele><time>2026-04-28T09:51:02.965Z</time></trkpt><trkpt lat="43.688676767097746" lon="3.6674992445595773"><ele>215.66666666666669</ele><time>2026-04-28T09:51:04.965Z</time></trkpt><trkpt lat="43.68873612474096" lon="3.6674525471682666"><ele>214.5</ele><time>2026-04-28T09:51:05.965Z</time></trkpt><trkpt lat="43.68880540907342" lon="3.6674180219188415"><ele>213.33333333333331</ele><time>2026-04-28T09:51:07.965Z</time></trkpt><trkpt lat="43.68886577075673" lon="3.667366401124635"><ele>212.16666666666666</ele><time>2026-04-28T09:51:10.965Z</time></trkpt><trkpt lat="43.68891726366182" lon="3.667301821522784"><ele>211.0</ele><time>2026-04-28T09:51:13.965Z</time></trkpt><trkpt lat="43.68887106845497" lon="3.6672142804152923"><ele>211.0</ele><time>2026-04-28T09:51:16.965Z</time></trkpt><trkpt lat="43.68881260574747" lon="3.6671654318789235"><ele>211.0</ele><time>2026-04-28T09:51:20.966Z</time></trkpt><trkpt lat="43.68876057722319" lon="3.6670960019698233"><ele>211.0</ele><time>2026-04-28T09:51:23.966Z</time></trkpt><trkpt lat="43.688734250561076" lon="3.6670096532162173"><ele>211.0</ele><time>2026-04-28T09:51:26.966Z</time></trkpt><trkpt lat="43.68867615277766" lon="3.6669181167974587"><ele>211.0</ele><time>2026-04-28T09:51:29.965Z</time></trkpt><trkpt lat="43.688617504990056" lon="3.6668660238068616"><ele>211.0</ele><time>2026-04-28T09:51:31.967Z</time></trkpt><trkpt lat="43.68856268424914" lon="3.6668085160481927"><ele>211.0</ele><time>2026-04-28T09:51:33.967Z</time></trkpt><trkpt lat="43.68848444024129" lon="3.666752902448253"><ele>210.33333333333331</ele><time>2026-04-28T09:51:36.967Z</time></trkpt><trkpt lat="43.68839875965133" lon="3.666697703711187"><ele>209.66666666666666</ele><time>2026-04-28T09:51:39.967Z</time></trkpt><trkpt lat="43.68833663766869" lon="3.66667159498665"><ele>209.0</ele><time>2026-04-28T09:51:41.967Z</time></trkpt><trkpt lat="43.688261453340324" lon="3.666637078506658"><ele>208.33333333333331</ele><time>2026-04-28T09:51:43.967Z</time></trkpt><trkpt lat="43.6881948614393" lon="3.6666080803615926"><ele>207.66666666666666</ele><time>2026-04-28T09:51:45.967Z</time></trkpt><trkpt lat="43.688123645101896" lon="3.6665539299606396"><ele>207.0</ele><time>2026-04-28T09:51:47.967Z</time></trkpt><trkpt lat="43.688053441635205" lon="3.666508589111686"><ele>207.0</ele><time>2026-04-28T09:51:49.967Z</time></trkpt><trkpt lat="43.687969917893845" lon="3.666445711501059"><ele>207.0</ele><time>2026-04-28T09:51:51.967Z</time></trkpt><trkpt lat="43.687883341276105" lon="3.666344106829514"><ele>207.0</ele><time>2026-04-28T09:51:53.966Z</time></trkpt><trkpt lat="43.68778492755768" lon="3.6662483349079578"><ele>207.0</ele><time>2026-04-28T09:51:55.966Z</time></trkpt><trkpt lat="43.68769891587534" lon="3.6661322055288514"><ele>207.0</ele><time>2026-04-28T09:51:57.966Z</time></trkpt><trkpt lat="43.687645491513464" lon="3.666023108575117"><ele>207.0</ele><time>2026-04-28T09:51:59.966Z</time></trkpt><trkpt lat="43.687577507066386" lon="3.666022392579693"><ele>207.0</ele><time>2026-04-28T09:52:01.966Z</time></trkpt><trkpt lat="43.68751456786053" lon="3.666085664913343"><ele>207.0</ele><time>2026-04-28T09:52:05.966Z</time></trkpt><trkpt lat="43.68745451565507" lon="3.666154090986204"><ele>207.0</ele><time>2026-04-28T09:52:08.966Z</time></trkpt><trkpt lat="43.6873927405529" lon="3.6662435239495776"><ele>207.0</ele><time>2026-04-28T09:52:11.966Z</time></trkpt><trkpt lat="43.68732287214315" lon="3.6663287925462194"><ele>207.0</ele><time>2026-04-28T09:52:14.966Z</time></trkpt><trkpt lat="43.68727246333973" lon="3.6663921536392854"><ele>207.33333333333334</ele><time>2026-04-28T09:52:16.966Z</time></trkpt><trkpt lat="43.68721746576489" lon="3.666486170714135"><ele>207.66666666666669</ele><time>2026-04-28T09:52:19.966Z</time></trkpt><trkpt lat="43.687175658699104" lon="3.6665729553868815"><ele>208.0</ele><time>2026-04-28T09:52:21.966Z</time></trkpt><trkpt lat="43.68711466397334" lon="3.666671940438934"><ele>208.33333333333334</ele><time>2026-04-28T09:52:24.966Z</time></trkpt><trkpt lat="43.68707135142063" lon="3.666786585853939"><ele>208.66666666666669</ele><time>2026-04-28T09:52:27.966Z</time></trkpt><trkpt lat="43.68703519306941" lon="3.6668616492095842"><ele>209.0</ele><time>2026-04-28T09:52:29.966Z</time></trkpt><trkpt lat="43.68699802571497" lon="3.6669452029809277"><ele>209.66666666666669</ele><time>2026-04-28T09:52:31.966Z</time></trkpt><trkpt lat="43.6869603681103" lon="3.667032368919035"><ele>210.33333333333334</ele><time>2026-04-28T09:52:33.966Z</time></trkpt><trkpt lat="43.68691428502789" lon="3.6671131098676923"><ele>211.0</ele><time>2026-04-28T09:52:35.966Z</time></trkpt><trkpt lat="43.68685133308427" lon="3.6671715023179847"><ele>211.66666666666669</ele><time>2026-04-28T09:52:37.966Z</time></trkpt><trkpt lat="43.68679104551883" lon="3.667199984265712"><ele>212.33333333333334</ele><time>2026-04-28T09:52:39.966Z</time></trkpt><trkpt lat="43.6867220125568" lon="3.667239427915914"><ele>213.0</ele><time>2026-04-28T09:52:41.966Z</time></trkpt><trkpt lat="43.686643534206475" lon="3.6673229312558386"><ele>213.14285714285714</ele><time>2026-04-28T09:52:44.966Z</time></trkpt><trkpt lat="43.686596700599225" lon="3.6673911124482936"><ele>213.28571428571428</ele><time>2026-04-28T09:52:46.966Z</time></trkpt><trkpt lat="43.68653171146636" lon="3.667477443303835"><ele>213.42857142857144</ele><time>2026-04-28T09:52:49.966Z</time></trkpt><trkpt lat="43.68648101036515" lon="3.667551662161822"><ele>213.57142857142856</ele><time>2026-04-28T09:52:52.966Z</time></trkpt><trkpt lat="43.68643962849904" lon="3.6676413964954997"><ele>213.71428571428572</ele><time>2026-04-28T09:52:55.966Z</time></trkpt><trkpt lat="43.68639483429388" lon="3.6677138677160213"><ele>213.85714285714286</ele><time>2026-04-28T09:52:58.966Z</time></trkpt><trkpt lat="43.68634537879568" lon="3.6677781438295134"><ele>214.0</ele><time>2026-04-28T09:53:00.966Z</time></trkpt><trkpt lat="43.68628471800984" lon="3.6678305094226027"><ele>214.66666666666666</ele><time>2026-04-28T09:53:02.966Z</time></trkpt><trkpt lat="43.68623256293815" lon="3.667899320867663"><ele>215.33333333333331</ele><time>2026-04-28T09:53:05.966Z</time></trkpt><trkpt lat="43.68616798470867" lon="3.6679910899454335"><ele>216.0</ele><time>2026-04-28T09:53:08.966Z</time></trkpt><trkpt lat="43.686101393084336" lon="3.6680495703927414"><ele>216.66666666666669</ele><time>2026-04-28T09:53:11.966Z</time></trkpt><trkpt lat="43.68604235283927" lon="3.6681328106150484"><ele>217.33333333333334</ele><time>2026-04-28T09:53:14.966Z</time></trkpt><trkpt lat="43.68597988834731" lon="3.668224226142794"><ele>218.0</ele><time>2026-04-28T09:53:17.966Z</time></trkpt><trkpt lat="43.68592292240513" lon="3.6682812496188464"><ele>218.33333333333334</ele><time>2026-04-28T09:53:19.966Z</time></trkpt><trkpt lat="43.68587107959168" lon="3.6683476297135456"><ele>218.66666666666669</ele><time>2026-04-28T09:53:21.966Z</time></trkpt><trkpt lat="43.68582507318596" lon="3.6684403807756323"><ele>219.0</ele><time>2026-04-28T09:53:24.966Z</time></trkpt><trkpt lat="43.685759133502316" lon="3.6685330267131473"><ele>219.33333333333331</ele><time>2026-04-28T09:53:28.965Z</time></trkpt><trkpt lat="43.685695628520484" lon="3.668547418494904"><ele>219.66666666666666</ele><time>2026-04-28T09:53:31.966Z</time></trkpt><trkpt lat="43.68562576630869" lon="3.6685531508470106"><ele>220.0</ele><time>2026-04-28T09:53:36.966Z</time></trkpt><trkpt lat="43.68555020259578" lon="3.6685915083957013"><ele>219.99999999999997</ele><time>2026-04-28T09:54:21.965Z</time></trkpt><trkpt lat="43.685469032278675" lon="3.6685687658938364"><ele>220.0</ele><time>2026-04-28T09:54:26.965Z</time></trkpt><trkpt lat="43.68539481562521" lon="3.668557285795852"><ele>220.0</ele><time>2026-04-28T09:54:29.965Z</time></trkpt><trkpt lat="43.685310568455556" lon="3.6685293717932015"><ele>220.0</ele><time>2026-04-28T09:54:32.965Z</time></trkpt><trkpt lat="43.68522601912661" lon="3.6685004399419205"><ele>219.99999999999997</ele><time>2026-04-28T09:54:34.965Z</time></trkpt><trkpt lat="43.685149101083994" lon="3.6684563510365953"><ele>220.0</ele><time>2026-04-28T09:54:36.965Z</time></trkpt><trkpt lat="43.685067629417226" lon="3.668365615486543"><ele>219.99999999999997</ele><time>2026-04-28T09:54:38.965Z</time></trkpt><trkpt lat="43.68498199156984" lon="3.6683051002603517"><ele>220.0</ele><time>2026-04-28T09:54:41.965Z</time></trkpt><trkpt lat="43.68492923333429" lon="3.668238186224962"><ele>220.0</ele><time>2026-04-28T09:54:43.965Z</time></trkpt><trkpt lat="43.68488057678401" lon="3.6681749816213434"><ele>220.0</ele><time>2026-04-28T09:54:45.965Z</time></trkpt><trkpt lat="43.68481512186237" lon="3.6681025828671348"><ele>219.99999999999997</ele><time>2026-04-28T09:54:48.965Z</time></trkpt><trkpt lat="43.68475796220724" lon="3.6680356513768757"><ele>220.0</ele><time>2026-04-28T09:54:51.965Z</time></trkpt><trkpt lat="43.68470033644723" lon="3.6679717769404445"><ele>219.99999999999997</ele><time>2026-04-28T09:54:53.965Z</time></trkpt><trkpt lat="43.684642632064204" lon="3.667905668940982"><ele>220.0</ele><time>2026-04-28T09:54:56.965Z</time></trkpt><trkpt lat="43.684583736574425" lon="3.667834898468273"><ele>220.0</ele><time>2026-04-28T09:54:58.965Z</time></trkpt><trkpt lat="43.68452849025688" lon="3.6677839726460015"><ele>220.0</ele><time>2026-04-28T09:55:00.965Z</time></trkpt><trkpt lat="43.684460774188025" lon="3.667731304317361"><ele>219.99999999999997</ele><time>2026-04-28T09:55:02.965Z</time></trkpt><trkpt lat="43.6843795536102" lon="3.6676748636193137"><ele>220.0</ele><time>2026-04-28T09:55:05.965Z</time></trkpt><trkpt lat="43.68429473601744" lon="3.667609562881097"><ele>219.99999999999997</ele><time>2026-04-28T09:55:08.965Z</time></trkpt><trkpt lat="43.684208098335226" lon="3.6675768687404022"><ele>220.0</ele><time>2026-04-28T09:55:10.965Z</time></trkpt><trkpt lat="43.68413071840258" lon="3.6675727701319376"><ele>220.0</ele><time>2026-04-28T09:55:12.965Z</time></trkpt><trkpt lat="43.68405139600157" lon="3.667563251268513"><ele>220.0</ele><time>2026-04-28T09:55:14.965Z</time></trkpt><trkpt lat="43.68400328650414" lon="3.667488194509426"><ele>219.99999999999997</ele><time>2026-04-28T09:55:16.965Z</time></trkpt><trkpt lat="43.68396933982553" lon="3.6673659724159435"><ele>220.0</ele><time>2026-04-28T09:55:18.965Z</time></trkpt><trkpt lat="43.683928913369186" lon="3.6672411947835237"><ele>219.99999999999997</ele><time>2026-04-28T09:55:20.965Z</time></trkpt><trkpt lat="43.68391846231905" lon="3.667144374940133"><ele>220.0</ele><time>2026-04-28T09:55:22.965Z</time></trkpt><trkpt lat="43.68388790613261" lon="3.667058239683988"><ele>220.0</ele><time>2026-04-28T09:55:24.965Z</time></trkpt><trkpt lat="43.68383020627359" lon="3.6669728934769177"><ele>220.0</ele><time>2026-04-28T09:55:26.965Z</time></trkpt><trkpt lat="43.683740087716444" lon="3.6669496454365857"><ele>219.99999999999997</ele><time>2026-04-28T09:55:28.965Z</time></trkpt><trkpt lat="43.68364609064531" lon="3.6669192333385348"><ele>220.0</ele><time>2026-04-28T09:55:31.965Z</time></trkpt><trkpt lat="43.683552005886646" lon="3.666917029054168"><ele>219.99999999999997</ele><time>2026-04-28T09:55:34.966Z</time></trkpt><trkpt lat="43.68348217794497" lon="3.6669291188271407"><ele>220.0</ele><time>2026-04-28T09:55:36.966Z</time></trkpt><trkpt lat="43.683392731346885" lon="3.666957023806467"><ele>220.0</ele><time>2026-04-28T09:55:39.966Z</time></trkpt><trkpt lat="43.68331208338433" lon="3.666965608880362"><ele>220.0</ele><time>2026-04-28T09:55:42.966Z</time></trkpt><trkpt lat="43.68322778417559" lon="3.6669584112355036"><ele>219.99999999999997</ele><time>2026-04-28T09:55:45.966Z</time></trkpt><trkpt lat="43.683161310096956" lon="3.6669556555340925"><ele>220.0</ele><time>2026-04-28T09:55:47.966Z</time></trkpt><trkpt lat="43.68309898682919" lon="3.6669266790069974"><ele>220.66666666666666</ele><time>2026-04-28T09:55:49.966Z</time></trkpt><trkpt lat="43.683026205479386" lon="3.666944247790326"><ele>221.33333333333331</ele><time>2026-04-28T09:55:51.966Z</time></trkpt><trkpt lat="43.68293212295174" lon="3.666933823726821"><ele>222.0</ele><time>2026-04-28T09:55:54.966Z</time></trkpt><trkpt lat="43.68285130342021" lon="3.666932513764225"><ele>222.66666666666669</ele><time>2026-04-28T09:55:57.966Z</time></trkpt><trkpt lat="43.68276862337122" lon="3.666921175701925"><ele>223.33333333333334</ele><time>2026-04-28T09:56:00.966Z</time></trkpt><trkpt lat="43.682682733225356" lon="3.6669536842329165"><ele>224.0</ele><time>2026-04-28T09:56:03.966Z</time></trkpt><trkpt lat="43.68260245252584" lon="3.6669627146290487"><ele>224.00000000000003</ele><time>2026-04-28T09:56:06.966Z</time></trkpt><trkpt lat="43.68250834625285" lon="3.6669738363218984"><ele>224.0</ele><time>2026-04-28T09:56:09.966Z</time></trkpt><trkpt lat="43.68242216533955" lon="3.6669827113249918"><ele>224.0</ele><time>2026-04-28T09:56:12.966Z</time></trkpt><trkpt lat="43.68234321530846" lon="3.6669938038478267"><ele>224.0</ele><time>2026-04-28T09:56:15.966Z</time></trkpt><trkpt lat="43.68227905451798" lon="3.6669882211297247"><ele>224.00000000000003</ele><time>2026-04-28T09:56:18.966Z</time></trkpt><trkpt lat="43.68220120724874" lon="3.6670013062954085"><ele>224.0</ele><time>2026-04-28T09:56:21.966Z</time></trkpt><trkpt lat="43.6821312638337" lon="3.6670017432838624"><ele>224.00000000000003</ele><time>2026-04-28T09:56:23.966Z</time></trkpt><trkpt lat="43.68206303153083" lon="3.6669897608670614"><ele>224.0</ele><time>2026-04-28T09:56:25.966Z</time></trkpt><trkpt lat="43.681961205712945" lon="3.666946235095711"><ele>224.0</ele><time>2026-04-28T09:56:27.966Z</time></trkpt><trkpt lat="43.68187101416646" lon="3.6669196332476046"><ele>224.0</ele><time>2026-04-28T09:56:29.966Z</time></trkpt><trkpt lat="43.68181253576" lon="3.666887008425151"><ele>224.00000000000003</ele><time>2026-04-28T09:56:34.966Z</time></trkpt><trkpt lat="43.681739587336445" lon="3.6668613111289172"><ele>224.0</ele><time>2026-04-28T09:56:45.965Z</time></trkpt><trkpt lat="43.68173908947532" lon="3.666768069431555"><ele>223.57142857142858</ele><time>2026-04-28T09:56:56.965Z</time></trkpt><trkpt lat="43.68177944464712" lon="3.666693853953132"><ele>223.14285714285714</ele><time>2026-04-28T09:56:59.965Z</time></trkpt><trkpt lat="43.68181323836493" lon="3.6666149902435605"><ele>222.71428571428572</ele><time>2026-04-28T09:57:03.965Z</time></trkpt><trkpt lat="43.68184761650952" lon="3.6665257764296766"><ele>222.28571428571428</ele><time>2026-04-28T09:57:09.965Z</time></trkpt><trkpt lat="43.68188458233656" lon="3.6664500389373074"><ele>221.85714285714286</ele><time>2026-04-28T09:57:13.965Z</time></trkpt><trkpt lat="43.68193430171318" lon="3.6663596468879835"><ele>221.42857142857144</ele><time>2026-04-28T09:57:17.965Z</time></trkpt><trkpt lat="43.68197779505114" lon="3.6662883612631947"><ele>221.0</ele><time>2026-04-28T09:57:19.965Z</time></trkpt><trkpt lat="43.68201773871289" lon="3.6662144996941355"><ele>220.60000000000002</ele><time>2026-04-28T09:57:21.965Z</time></trkpt><trkpt lat="43.68208876307915" lon="3.666134970224136"><ele>220.20000000000002</ele><time>2026-04-28T09:57:23.965Z</time></trkpt><trkpt lat="43.68216939692034" lon="3.6660784754546563"><ele>219.79999999999998</ele><time>2026-04-28T09:57:25.965Z</time></trkpt><trkpt lat="43.68226287410437" lon="3.6660333900991864"><ele>219.39999999999998</ele><time>2026-04-28T09:57:27.965Z</time></trkpt><trkpt lat="43.682343074630346" lon="3.6659809206196843"><ele>219.0</ele><time>2026-04-28T09:57:29.965Z</time></trkpt><trkpt lat="43.68244104045938" lon="3.6659322325194617"><ele>218.66666666666666</ele><time>2026-04-28T09:57:31.965Z</time></trkpt><trkpt lat="43.6825278974899" lon="3.6658557729519208"><ele>218.33333333333331</ele><time>2026-04-28T09:57:33.965Z</time></trkpt><trkpt lat="43.68258538517048" lon="3.6658008290815576"><ele>218.0</ele><time>2026-04-28T09:57:34.965Z</time></trkpt><trkpt lat="43.68267086996066" lon="3.665776228281752"><ele>217.66666666666666</ele><time>2026-04-28T09:57:36.966Z</time></trkpt><trkpt lat="43.682753439867106" lon="3.6657447141063715"><ele>217.33333333333331</ele><time>2026-04-28T09:57:39.966Z</time></trkpt><trkpt lat="43.68284395665883" lon="3.6656941227399003"><ele>217.0</ele><time>2026-04-28T09:57:41.966Z</time></trkpt><trkpt lat="43.68293224367305" lon="3.665637228983605"><ele>216.0</ele><time>2026-04-28T09:57:43.965Z</time></trkpt><trkpt lat="43.6830184829981" lon="3.665591384039048"><ele>215.0</ele><time>2026-04-28T09:57:45.965Z</time></trkpt><trkpt lat="43.6831090357795" lon="3.6655551259340426"><ele>214.0</ele><time>2026-04-28T09:57:47.965Z</time></trkpt><trkpt lat="43.68317776394481" lon="3.665520088859491"><ele>213.0</ele><time>2026-04-28T09:57:49.965Z</time></trkpt><trkpt lat="43.683278794469196" lon="3.665463927613035"><ele>212.0</ele><time>2026-04-28T09:57:51.965Z</time></trkpt><trkpt lat="43.683364737822075" lon="3.6654261620514625"><ele>212.0</ele><time>2026-04-28T09:57:53.965Z</time></trkpt><trkpt lat="43.6834628637813" lon="3.665410318911738"><ele>212.0</ele><time>2026-04-28T09:57:55.965Z</time></trkpt><trkpt lat="43.683551508081244" lon="3.665409279534695"><ele>212.0</ele><time>2026-04-28T09:57:57.965Z</time></trkpt><trkpt lat="43.6836419638907" lon="3.6654130552424236"><ele>212.0</ele><time>2026-04-28T09:57:59.965Z</time></trkpt><trkpt lat="43.68373118770145" lon="3.6654215905200798"><ele>212.0</ele><time>2026-04-28T09:58:01.965Z</time></trkpt><trkpt lat="43.68382356596828" lon="3.665415212520875"><ele>211.8</ele><time>2026-04-28T09:58:03.965Z</time></trkpt><trkpt lat="43.683926965679284" lon="3.6654420979848084"><ele>211.6</ele><time>2026-04-28T09:58:05.965Z</time></trkpt><trkpt lat="43.684028803317894" lon="3.6654620223906775"><ele>211.4</ele><time>2026-04-28T09:58:07.965Z</time></trkpt><trkpt lat="43.684138614147976" lon="3.6654790597601377"><ele>211.20000000000002</ele><time>2026-04-28T09:58:09.965Z</time></trkpt><trkpt lat="43.6842384699211" lon="3.6654654150107953"><ele>211.0</ele><time>2026-04-28T09:58:11.965Z</time></trkpt><trkpt lat="43.68432570369726" lon="3.665441376749278"><ele>210.99999999999997</ele><time>2026-04-28T09:58:13.965Z</time></trkpt><trkpt lat="43.68440229986501" lon="3.6654247848455594"><ele>211.0</ele><time>2026-04-28T09:58:15.965Z</time></trkpt><trkpt lat="43.684467538914824" lon="3.6653687665518633"><ele>211.0</ele><time>2026-04-28T09:58:17.965Z</time></trkpt><trkpt lat="43.684498251376105" lon="3.665291751543521"><ele>211.0</ele><time>2026-04-28T09:58:20.965Z</time></trkpt><trkpt lat="43.68455610018834" lon="3.665227196477618"><ele>210.99999999999997</ele><time>2026-04-28T09:58:24.965Z</time></trkpt><trkpt lat="43.68462603617326" lon="3.665175250995292"><ele>211.0</ele><time>2026-04-28T09:58:27.965Z</time></trkpt><trkpt lat="43.684694311324684" lon="3.665106465704659"><ele>209.99999999999997</ele><time>2026-04-28T09:58:30.965Z</time></trkpt><trkpt lat="43.68473051554282" lon="3.6650232059298533"><ele>209.0</ele><time>2026-04-28T09:58:32.965Z</time></trkpt><trkpt lat="43.68472634091428" lon="3.664919511559907"><ele>208.0</ele><time>2026-04-28T09:58:35.965Z</time></trkpt><trkpt lat="43.684742801308126" lon="3.6648090975365273"><ele>207.0</ele><time>2026-04-28T09:58:37.965Z</time></trkpt><trkpt lat="43.684761119037034" lon="3.6647071845089254"><ele>205.99999999999997</ele><time>2026-04-28T09:58:40.965Z</time></trkpt><trkpt lat="43.68479224251615" lon="3.6646070871324437"><ele>205.0</ele><time>2026-04-28T09:58:43.965Z</time></trkpt><trkpt lat="43.68475430164886" lon="3.664504525904279"><ele>205.0</ele><time>2026-04-28T09:58:46.965Z</time></trkpt><trkpt lat="43.68469450143686" lon="3.664446366578599"><ele>205.0</ele><time>2026-04-28T09:58:48.965Z</time></trkpt><trkpt lat="43.68464353671094" lon="3.6643906616548847"><ele>205.0</ele><time>2026-04-28T09:58:51.965Z</time></trkpt><trkpt lat="43.68458913451655" lon="3.664336217591016"><ele>205.0</ele><time>2026-04-28T09:58:53.965Z</time></trkpt><trkpt lat="43.68452679926319" lon="3.6642807117285465"><ele>205.0</ele><time>2026-04-28T09:58:56.965Z</time></trkpt><trkpt lat="43.68447318995073" lon="3.6642282022790207"><ele>205.0</ele><time>2026-04-28T09:58:58.965Z</time></trkpt><trkpt lat="43.68441063296938" lon="3.664177086165947"><ele>205.0</ele><time>2026-04-28T09:59:00.965Z</time></trkpt><trkpt lat="43.68435055733691" lon="3.664125831984819"><ele>205.16666666666666</ele><time>2026-04-28T09:59:02.965Z</time></trkpt><trkpt lat="43.68426478019697" lon="3.6640789201872583"><ele>205.33333333333331</ele><time>2026-04-28T09:59:05.965Z</time></trkpt><trkpt lat="43.68417126801485" lon="3.6640292146942306"><ele>205.5</ele><time>2026-04-28T09:59:08.965Z</time></trkpt><trkpt lat="43.68408849254834" lon="3.6639807896238854"><ele>205.66666666666669</ele><time>2026-04-28T09:59:11.965Z</time></trkpt><trkpt lat="43.684025439003236" lon="3.6639337361307773"><ele>205.83333333333334</ele><time>2026-04-28T09:59:13.965Z</time></trkpt><trkpt lat="43.68395422777973" lon="3.6638995829991545"><ele>206.0</ele><time>2026-04-28T09:59:15.965Z</time></trkpt><trkpt lat="43.68388479218139" lon="3.6638768957685435"><ele>206.00000000000003</ele><time>2026-04-28T09:59:17.965Z</time></trkpt><trkpt lat="43.68382419182206" lon="3.6638420413396147"><ele>206.0</ele><time>2026-04-28T09:59:19.965Z</time></trkpt><trkpt lat="43.68374021062171" lon="3.663825868889049"><ele>206.0</ele><time>2026-04-28T09:59:22.965Z</time></trkpt><trkpt lat="43.683659231650005" lon="3.6638017520273944"><ele>206.0</ele><time>2026-04-28T09:59:25.965Z</time></trkpt><trkpt lat="43.68358913654139" lon="3.6637891992495004"><ele>206.00000000000003</ele><time>2026-04-28T09:59:27.965Z</time></trkpt><trkpt lat="43.683504522632695" lon="3.6637827201805293"><ele>206.0</ele><time>2026-04-28T09:59:30.965Z</time></trkpt><trkpt lat="43.683440808668884" lon="3.663778315929284"><ele>206.50000000000003</ele><time>2026-04-28T09:59:32.965Z</time></trkpt><trkpt lat="43.683345127287176" lon="3.663760334061056"><ele>207.0</ele><time>2026-04-28T09:59:35.964Z</time></trkpt><trkpt lat="43.68328335727707" lon="3.663740130451338"><ele>207.5</ele><time>2026-04-28T09:59:37.964Z</time></trkpt><trkpt lat="43.68318442194566" lon="3.663728179796982"><ele>208.0</ele><time>2026-04-28T09:59:40.964Z</time></trkpt><trkpt lat="43.68312073895649" lon="3.663712476774856"><ele>208.50000000000003</ele><time>2026-04-28T09:59:42.964Z</time></trkpt><trkpt lat="43.68303151290791" lon="3.663695586285808"><ele>209.0</ele><time>2026-04-28T09:59:45.965Z</time></trkpt><trkpt lat="43.68295677414045" lon="3.663689236503958"><ele>209.00000000000003</ele><time>2026-04-28T09:59:48.964Z</time></trkpt><trkpt lat="43.68287861212242" lon="3.663696307369707"><ele>209.0</ele><time>2026-04-28T09:59:51.964Z</time></trkpt><trkpt lat="43.682805333109116" lon="3.663684858139596"><ele>209.0</ele><time>2026-04-28T09:59:53.965Z</time></trkpt><trkpt lat="43.68274343378034" lon="3.6636540335447743"><ele>209.0</ele><time>2026-04-28T09:59:55.964Z</time></trkpt><trkpt lat="43.68267574247229" lon="3.663625098877074"><ele>209.00000000000003</ele><time>2026-04-28T09:59:57.964Z</time></trkpt><trkpt lat="43.68260581137484" lon="3.6635676184439223"><ele>209.0</ele><time>2026-04-28T09:59:59.964Z</time></trkpt><trkpt lat="43.68254140631729" lon="3.663499137216596"><ele>208.83333333333334</ele><time>2026-04-28T10:00:01.964Z</time></trkpt><trkpt lat="43.68248639838758" lon="3.6634433061228417"><ele>208.66666666666669</ele><time>2026-04-28T10:00:03.964Z</time></trkpt><trkpt lat="43.682397687931406" lon="3.6633779063851186"><ele>208.5</ele><time>2026-04-28T10:00:06.964Z</time></trkpt><trkpt lat="43.68233048330257" lon="3.6633082912636334"><ele>208.33333333333331</ele><time>2026-04-28T10:00:09.964Z</time></trkpt><trkpt lat="43.682272880959985" lon="3.6632546747028343"><ele>208.16666666666666</ele><time>2026-04-28T10:00:12.964Z</time></trkpt><trkpt lat="43.68222338879128" lon="3.66313516411792"><ele>208.0</ele><time>2026-04-28T10:00:15.964Z</time></trkpt><trkpt lat="43.68216643386412" lon="3.6630468450758675"><ele>207.99999999999997</ele><time>2026-04-28T10:00:18.964Z</time></trkpt><trkpt lat="43.68212492067204" lon="3.662973112959132"><ele>208.0</ele><time>2026-04-28T10:00:20.964Z</time></trkpt><trkpt lat="43.68206969961842" lon="3.662863646243403"><ele>208.0</ele><time>2026-04-28T10:00:23.964Z</time></trkpt><trkpt lat="43.6820059768963" lon="3.662777636666562"><ele>208.0</ele><time>2026-04-28T10:00:26.964Z</time></trkpt><trkpt lat="43.68197239924908" lon="3.662695475001578"><ele>207.99999999999997</ele><time>2026-04-28T10:00:29.964Z</time></trkpt><trkpt lat="43.68192845221565" lon="3.6626112101616113"><ele>208.0</ele><time>2026-04-28T10:00:31.964Z</time></trkpt><trkpt lat="43.681854582174836" lon="3.6625258217985017"><ele>208.99999999999997</ele><time>2026-04-28T10:00:34.964Z</time></trkpt><trkpt lat="43.68178498226619" lon="3.66244919114827"><ele>210.0</ele><time>2026-04-28T10:00:37.964Z</time></trkpt><trkpt lat="43.68173947608191" lon="3.662372887458419"><ele>211.0</ele><time>2026-04-28T10:00:40.964Z</time></trkpt><trkpt lat="43.68168786271113" lon="3.6623127220508387"><ele>212.0</ele><time>2026-04-28T10:00:42.964Z</time></trkpt><trkpt lat="43.6816271564428" lon="3.662256033583113"><ele>212.99999999999997</ele><time>2026-04-28T10:00:44.964Z</time></trkpt><trkpt lat="43.68155929796942" lon="3.662160138216153"><ele>214.0</ele><time>2026-04-28T10:00:47.964Z</time></trkpt><trkpt lat="43.68147846360626" lon="3.6620813461302673"><ele>213.99999999999997</ele><time>2026-04-28T10:00:50.964Z</time></trkpt><trkpt lat="43.681417029138586" lon="3.6620064061890716"><ele>214.0</ele><time>2026-04-28T10:00:53.964Z</time></trkpt><trkpt lat="43.68134140583632" lon="3.661954840383734"><ele>214.0</ele><time>2026-04-28T10:00:56.964Z</time></trkpt><trkpt lat="43.68127801224122" lon="3.6619158471599924"><ele>214.0</ele><time>2026-04-28T10:00:59.964Z</time></trkpt><trkpt lat="43.68121582498145" lon="3.661876568525176"><ele>213.99999999999997</ele><time>2026-04-28T10:01:01.963Z</time></trkpt><trkpt lat="43.68115748555442" lon="3.661830014379487"><ele>214.0</ele><time>2026-04-28T10:01:04.963Z</time></trkpt><trkpt lat="43.681080168056226" lon="3.6617847661773193"><ele>214.16666666666666</ele><time>2026-04-28T10:01:07.963Z</time></trkpt><trkpt lat="43.68101667978092" lon="3.6617207661826736"><ele>214.33333333333331</ele><time>2026-04-28T10:01:10.963Z</time></trkpt><trkpt lat="43.68093688395638" lon="3.6616624369976316"><ele>214.5</ele><time>2026-04-28T10:01:13.963Z</time></trkpt><trkpt lat="43.680878440929966" lon="3.6616287139378794"><ele>214.66666666666669</ele><time>2026-04-28T10:01:15.963Z</time></trkpt><trkpt lat="43.68080087892233" lon="3.661579279604155"><ele>214.83333333333334</ele><time>2026-04-28T10:01:18.963Z</time></trkpt><trkpt lat="43.68074661447569" lon="3.6615310865702972"><ele>215.0</ele><time>2026-04-28T10:01:20.963Z</time></trkpt><trkpt lat="43.680679857592224" lon="3.661496061441572"><ele>215.00000000000003</ele><time>2026-04-28T10:01:23.963Z</time></trkpt><trkpt lat="43.68059701056485" lon="3.6614627738487306"><ele>215.0</ele><time>2026-04-28T10:01:26.963Z</time></trkpt><trkpt lat="43.6805005062187" lon="3.66143448934455"><ele>215.0</ele><time>2026-04-28T10:01:29.963Z</time></trkpt><trkpt lat="43.680435238971704" lon="3.661407677833285"><ele>215.0</ele><time>2026-04-28T10:01:31.963Z</time></trkpt><trkpt lat="43.68037028211588" lon="3.6613836182245416"><ele>215.00000000000003</ele><time>2026-04-28T10:01:33.963Z</time></trkpt><trkpt lat="43.68029512214347" lon="3.6613408888477696"><ele>215.0</ele><time>2026-04-28T10:01:36.963Z</time></trkpt><trkpt lat="43.68023177054968" lon="3.6613343285516606"><ele>215.14285714285714</ele><time>2026-04-28T10:01:38.963Z</time></trkpt><trkpt lat="43.680155619461374" lon="3.6613305271449383"><ele>215.2857142857143</ele><time>2026-04-28T10:01:41.963Z</time></trkpt><trkpt lat="43.68009104706293" lon="3.661347037028012"><ele>215.42857142857144</ele><time>2026-04-28T10:01:43.963Z</time></trkpt><trkpt lat="43.68000149057481" lon="3.661346769807451"><ele>215.57142857142856</ele><time>2026-04-28T10:01:46.963Z</time></trkpt><trkpt lat="43.679938179033236" lon="3.6613163640714212"><ele>215.71428571428572</ele><time>2026-04-28T10:01:49.964Z</time></trkpt><trkpt lat="43.67989055281809" lon="3.661234058921935"><ele>215.85714285714286</ele><time>2026-04-28T10:01:53.964Z</time></trkpt><trkpt lat="43.67984701487708" lon="3.661170520448873"><ele>216.0</ele><time>2026-04-28T10:01:58.964Z</time></trkpt><trkpt lat="43.679857880605454" lon="3.661258085523037"><ele>216.0</ele><time>2026-04-28T10:02:09.964Z</time></trkpt><trkpt lat="43.67987690862077" lon="3.661345245254521"><ele>216.0</ele><time>2026-04-28T10:02:13.964Z</time></trkpt><trkpt lat="43.67981328698799" lon="3.6613680360654706"><ele>216.0</ele><time>2026-04-28T10:02:16.965Z</time></trkpt><trkpt lat="43.679740854851566" lon="3.6613762791307587"><ele>216.0</ele><time>2026-04-28T10:02:19.967Z</time></trkpt><trkpt lat="43.67965850650723" lon="3.661382453191886"><ele>216.0</ele><time>2026-04-28T10:02:22.968Z</time></trkpt><trkpt lat="43.67959376734916" lon="3.661405664899363"><ele>216.0</ele><time>2026-04-28T10:02:24.968Z</time></trkpt><trkpt lat="43.67949895987976" lon="3.661440729063346"><ele>216.5</ele><time>2026-04-28T10:02:26.969Z</time></trkpt><trkpt lat="43.67943101308513" lon="3.6614849538290297"><ele>217.0</ele><time>2026-04-28T10:02:28.969Z</time></trkpt><trkpt lat="43.679351082340396" lon="3.6615301729670375"><ele>217.5</ele><time>2026-04-28T10:02:30.97Z</time></trkpt><trkpt lat="43.67925505094494" lon="3.661569551762176"><ele>218.0</ele><time>2026-04-28T10:02:32.97Z</time></trkpt><trkpt lat="43.67915113258597" lon="3.6616170509655626"><ele>218.5</ele><time>2026-04-28T10:02:35.971Z</time></trkpt><trkpt lat="43.679083153680736" lon="3.661639663625116"><ele>219.0</ele><time>2026-04-28T10:02:37.971Z</time></trkpt><trkpt lat="43.6790070335603" lon="3.6616645838450723"><ele>219.0</ele><time>2026-04-28T10:02:39.971Z</time></trkpt><trkpt lat="43.678922887872275" lon="3.6617005073623288"><ele>219.0</ele><time>2026-04-28T10:02:41.971Z</time></trkpt><trkpt lat="43.678850530373204" lon="3.6617231783078363"><ele>219.0</ele><time>2026-04-28T10:02:43.972Z</time></trkpt><trkpt lat="43.67876088831529" lon="3.6617707488198312"><ele>219.0</ele><time>2026-04-28T10:02:45.972Z</time></trkpt><trkpt lat="43.67865752777748" lon="3.661772278743962"><ele>219.0</ele><time>2026-04-28T10:02:47.972Z</time></trkpt><trkpt lat="43.67858647896781" lon="3.661837858940993"><ele>219.0</ele><time>2026-04-28T10:02:49.972Z</time></trkpt><trkpt lat="43.678521410927374" lon="3.661850509222161"><ele>218.66666666666666</ele><time>2026-04-28T10:02:51.972Z</time></trkpt><trkpt lat="43.678447967255465" lon="3.661895685840627"><ele>218.33333333333331</ele><time>2026-04-28T10:02:53.972Z</time></trkpt><trkpt lat="43.67836644935337" lon="3.661896134494153"><ele>218.0</ele><time>2026-04-28T10:02:55.972Z</time></trkpt><trkpt lat="43.67829111877083" lon="3.6618963716438784"><ele>217.66666666666666</ele><time>2026-04-28T10:02:57.972Z</time></trkpt><trkpt lat="43.678205999438795" lon="3.6619172379000844"><ele>217.33333333333331</ele><time>2026-04-28T10:02:59.972Z</time></trkpt><trkpt lat="43.67811649267919" lon="3.6619583964796574"><ele>217.0</ele><time>2026-04-28T10:03:01.972Z</time></trkpt><trkpt lat="43.678012806868075" lon="3.6620081428776654"><ele>216.99999999999997</ele><time>2026-04-28T10:03:03.972Z</time></trkpt><trkpt lat="43.67796144198212" lon="3.662063576106382"><ele>217.0</ele><time>2026-04-28T10:03:04.972Z</time></trkpt><trkpt lat="43.677917534209925" lon="3.6621361286992045"><ele>217.0</ele><time>2026-04-28T10:03:05.973Z</time></trkpt><trkpt lat="43.67789130811064" lon="3.66221557071176"><ele>217.0</ele><time>2026-04-28T10:03:06.973Z</time></trkpt><trkpt lat="43.67787305330918" lon="3.6623043991779753"><ele>216.99999999999997</ele><time>2026-04-28T10:03:07.973Z</time></trkpt><trkpt lat="43.677828091479206" lon="3.662443491045391"><ele>217.0</ele><time>2026-04-28T10:03:09.973Z</time></trkpt><trkpt lat="43.677766610886266" lon="3.6625793540818443"><ele>217.16666666666666</ele><time>2026-04-28T10:03:11.973Z</time></trkpt><trkpt lat="43.677729082203264" lon="3.6626738925902598"><ele>217.33333333333331</ele><time>2026-04-28T10:03:13.973Z</time></trkpt><trkpt lat="43.67770313984948" lon="3.6627677851002165"><ele>217.5</ele><time>2026-04-28T10:03:15.973Z</time></trkpt><trkpt lat="43.677673544499136" lon="3.6628628540338677"><ele>217.66666666666669</ele><time>2026-04-28T10:03:17.973Z</time></trkpt><trkpt lat="43.67765779652582" lon="3.662973623514306"><ele>217.83333333333334</ele><time>2026-04-28T10:03:20.973Z</time></trkpt><trkpt lat="43.67764298291821" lon="3.663083739357898"><ele>218.0</ele><time>2026-04-28T10:03:22.973Z</time></trkpt><trkpt lat="43.677644309078445" lon="3.663182156708998"><ele>218.00000000000003</ele><time>2026-04-28T10:03:24.973Z</time></trkpt><trkpt lat="43.67763038615832" lon="3.663289261918934"><ele>218.0</ele><time>2026-04-28T10:03:26.973Z</time></trkpt><trkpt lat="43.67763089373779" lon="3.6633817805810214"><ele>218.0</ele><time>2026-04-28T10:03:28.973Z</time></trkpt><trkpt lat="43.677627173596775" lon="3.6634930410304003"><ele>218.0</ele><time>2026-04-28T10:03:30.973Z</time></trkpt><trkpt lat="43.677627768903015" lon="3.663619986503679"><ele>218.00000000000003</ele><time>2026-04-28T10:03:32.973Z</time></trkpt><trkpt lat="43.67763606585911" lon="3.6637376161964013"><ele>218.0</ele><time>2026-04-28T10:03:34.973Z</time></trkpt><trkpt lat="43.67763768751163" lon="3.6638356844335234"><ele>218.71428571428572</ele><time>2026-04-28T10:03:36.973Z</time></trkpt><trkpt lat="43.6776473398901" lon="3.6639280475047546"><ele>219.42857142857144</ele><time>2026-04-28T10:03:38.973Z</time></trkpt><trkpt lat="43.677657193703396" lon="3.6640141602721057"><ele>220.14285714285714</ele><time>2026-04-28T10:03:40.973Z</time></trkpt><trkpt lat="43.67767035624973" lon="3.66410653297296"><ele>220.85714285714286</ele><time>2026-04-28T10:03:42.973Z</time></trkpt><trkpt lat="43.677672387560065" lon="3.6641955846691134"><ele>221.57142857142856</ele><time>2026-04-28T10:03:44.973Z</time></trkpt><trkpt lat="43.67770113325296" lon="3.6643337445210107"><ele>222.28571428571428</ele><time>2026-04-28T10:03:47.973Z</time></trkpt><trkpt lat="43.677710027477026" lon="3.664430349936036"><ele>223.0</ele><time>2026-04-28T10:03:49.973Z</time></trkpt><trkpt lat="43.67773379503556" lon="3.664537325993998"><ele>223.99999999999997</ele><time>2026-04-28T10:03:52.973Z</time></trkpt><trkpt lat="43.67776368432329" lon="3.6646530648139386"><ele>225.0</ele><time>2026-04-28T10:03:55.973Z</time></trkpt><trkpt lat="43.67778787819936" lon="3.664785005492499"><ele>226.0</ele><time>2026-04-28T10:03:58.974Z</time></trkpt><trkpt lat="43.677818542659644" lon="3.6648997099853307"><ele>227.0</ele><time>2026-04-28T10:04:01.974Z</time></trkpt><trkpt lat="43.67783187305571" lon="3.6650232564015677"><ele>227.99999999999997</ele><time>2026-04-28T10:04:05.974Z</time></trkpt><trkpt lat="43.67785401573353" lon="3.6651297005048002"><ele>229.0</ele><time>2026-04-28T10:04:09.973Z</time></trkpt><trkpt lat="43.67787589590491" lon="3.6652482563833626"><ele>229.83333333333331</ele><time>2026-04-28T10:04:12.973Z</time></trkpt><trkpt lat="43.67788769331621" lon="3.6653741751641924"><ele>230.66666666666666</ele><time>2026-04-28T10:04:15.973Z</time></trkpt><trkpt lat="43.67788701937205" lon="3.665461726306412"><ele>231.5</ele><time>2026-04-28T10:04:17.973Z</time></trkpt><trkpt lat="43.67788641892691" lon="3.6655614120289584"><ele>232.33333333333331</ele><time>2026-04-28T10:04:20.973Z</time></trkpt><trkpt lat="43.67787531195375" lon="3.6656607668574304"><ele>233.16666666666666</ele><time>2026-04-28T10:04:22.973Z</time></trkpt><trkpt lat="43.67786846324104" lon="3.6657790309860396"><ele>234.0</ele><time>2026-04-28T10:04:25.973Z</time></trkpt><trkpt lat="43.67787885659581" lon="3.6658904768451386"><ele>234.0</ele><time>2026-04-28T10:04:28.973Z</time></trkpt><trkpt lat="43.677883248503775" lon="3.6660120135171974"><ele>234.0</ele><time>2026-04-28T10:04:31.973Z</time></trkpt><trkpt lat="43.67787802178849" lon="3.666111648360701"><ele>234.0</ele><time>2026-04-28T10:04:33.973Z</time></trkpt><trkpt lat="43.67789452657643" lon="3.6662377290785133"><ele>234.0</ele><time>2026-04-28T10:04:36.973Z</time></trkpt><trkpt lat="43.67789195131285" lon="3.666362097712254"><ele>234.0</ele><time>2026-04-28T10:04:39.973Z</time></trkpt><trkpt lat="43.677872374142424" lon="3.6664573619804246"><ele>234.0</ele><time>2026-04-28T10:04:41.973Z</time></trkpt><trkpt lat="43.67786430446985" lon="3.666553453507776"><ele>234.5</ele><time>2026-04-28T10:04:43.973Z</time></trkpt><trkpt lat="43.677875453482024" lon="3.666681986000431"><ele>235.0</ele><time>2026-04-28T10:04:46.973Z</time></trkpt><trkpt lat="43.67787794024281" lon="3.6667981855062797"><ele>235.5</ele><time>2026-04-28T10:04:48.973Z</time></trkpt><trkpt lat="43.677879448022054" lon="3.6668964497570156"><ele>236.0</ele><time>2026-04-28T10:04:50.973Z</time></trkpt><trkpt lat="43.67788191339457" lon="3.6670003299945173"><ele>236.5</ele><time>2026-04-28T10:04:53.973Z</time></trkpt><trkpt lat="43.67788262757896" lon="3.6670937068662144"><ele>237.0</ele><time>2026-04-28T10:04:55.973Z</time></trkpt><trkpt lat="43.67788446457897" lon="3.6671974158948366"><ele>237.33333333333334</ele><time>2026-04-28T10:04:58.973Z</time></trkpt><trkpt lat="43.67788936639272" lon="3.66730380689845"><ele>237.66666666666669</ele><time>2026-04-28T10:05:13.973Z</time></trkpt><trkpt lat="43.677807173692486" lon="3.6673606891766264"><ele>238.0</ele><time>2026-04-28T10:07:46.972Z</time></trkpt><trkpt lat="43.677726056688876" lon="3.6673035124090547"><ele>238.33333333333334</ele><time>2026-04-28T10:07:48.972Z</time></trkpt><trkpt lat="43.67766920630541" lon="3.6672599381513327"><ele>238.66666666666669</ele><time>2026-04-28T10:07:49.972Z</time></trkpt><trkpt lat="43.677574626360126" lon="3.6672252541563775"><ele>239.0</ele><time>2026-04-28T10:07:51.972Z</time></trkpt><trkpt lat="43.67750489058447" lon="3.6671666261466744"><ele>239.33333333333334</ele><time>2026-04-28T10:07:54.972Z</time></trkpt><trkpt lat="43.67744110500565" lon="3.6670968620000135"><ele>239.66666666666669</ele><time>2026-04-28T10:07:57.972Z</time></trkpt><trkpt lat="43.67737315286071" lon="3.6670622376933384"><ele>240.0</ele><time>2026-04-28T10:08:00.972Z</time></trkpt><trkpt lat="43.67729121908785" lon="3.6669972567800593"><ele>240.33333333333331</ele><time>2026-04-28T10:08:03.972Z</time></trkpt><trkpt lat="43.67723419088608" lon="3.6669541277425086"><ele>240.66666666666666</ele><time>2026-04-28T10:08:05.971Z</time></trkpt><trkpt lat="43.677163803795914" lon="3.6668932936271172"><ele>241.0</ele><time>2026-04-28T10:08:08.971Z</time></trkpt><trkpt lat="43.677081085849125" lon="3.666839818370851"><ele>241.0</ele><time>2026-04-28T10:08:11.97Z</time></trkpt><trkpt lat="43.677025424738915" lon="3.6667972645368163"><ele>241.00000000000003</ele><time>2026-04-28T10:08:16.97Z</time></trkpt><trkpt lat="43.67703420655557" lon="3.6668843154850275"><ele>241.0</ele><time>2026-04-28T10:09:23.97Z</time></trkpt><trkpt lat="43.677000727183795" lon="3.6669730673385326"><ele>241.0</ele><time>2026-04-28T10:09:41.97Z</time></trkpt><trkpt lat="43.67695175178378" lon="3.6670539471806056"><ele>241.00000000000003</ele><time>2026-04-28T10:09:47.97Z</time></trkpt><trkpt lat="43.67691821783578" lon="3.6671354086740813"><ele>241.0</ele><time>2026-04-28T10:09:52.97Z</time></trkpt><trkpt lat="43.67688395494046" lon="3.667216282007936"><ele>241.0</ele><time>2026-04-28T10:09:57.97Z</time></trkpt><trkpt lat="43.676850768687544" lon="3.6672965884562663"><ele>241.85714285714286</ele><time>2026-04-28T10:10:02.97Z</time></trkpt><trkpt lat="43.676821666626864" lon="3.667376833328347"><ele>242.71428571428572</ele><time>2026-04-28T10:10:06.97Z</time></trkpt><trkpt lat="43.67679588021252" lon="3.6674606613414786"><ele>243.57142857142858</ele><time>2026-04-28T10:10:10.97Z</time></trkpt><trkpt lat="43.67677792168654" lon="3.6675564333789654"><ele>244.42857142857144</ele><time>2026-04-28T10:10:14.969Z</time></trkpt><trkpt lat="43.676748701523834" lon="3.6676587802611"><ele>245.28571428571428</ele><time>2026-04-28T10:10:18.969Z</time></trkpt><trkpt lat="43.67672039512074" lon="3.667760694013973"><ele>246.14285714285717</ele><time>2026-04-28T10:10:23.968Z</time></trkpt><trkpt lat="43.676677250993734" lon="3.6678567120955066"><ele>247.0</ele><time>2026-04-28T10:10:27.969Z</time></trkpt><trkpt lat="43.67664215816851" lon="3.6679425040158664"><ele>247.85714285714286</ele><time>2026-04-28T10:10:31.969Z</time></trkpt><trkpt lat="43.67661784612753" lon="3.6680295266891645"><ele>248.71428571428572</ele><time>2026-04-28T10:10:35.969Z</time></trkpt><trkpt lat="43.676594252604254" lon="3.668115069123842"><ele>249.57142857142858</ele><time>2026-04-28T10:10:39.969Z</time></trkpt><trkpt lat="43.67657476969062" lon="3.668201008371763"><ele>250.42857142857144</ele><time>2026-04-28T10:10:42.969Z</time></trkpt><trkpt lat="43.67655317413845" lon="3.668298714046081"><ele>251.28571428571428</ele><time>2026-04-28T10:10:45.969Z</time></trkpt><trkpt lat="43.67651792134752" lon="3.668392210784614"><ele>252.14285714285717</ele><time>2026-04-28T10:10:49.969Z</time></trkpt><trkpt lat="43.67647910697123" lon="3.6684846301382508"><ele>253.00000000000003</ele><time>2026-04-28T10:10:53.969Z</time></trkpt><trkpt lat="43.67643459896801" lon="3.668575076840765"><ele>254.16666666666666</ele><time>2026-04-28T10:10:56.969Z</time></trkpt><trkpt lat="43.676405096465565" lon="3.6686835020918878"><ele>255.33333333333331</ele><time>2026-04-28T10:10:59.969Z</time></trkpt><trkpt lat="43.67635856457758" lon="3.6687671787047735"><ele>256.5</ele><time>2026-04-28T10:11:01.969Z</time></trkpt><trkpt lat="43.67632353292103" lon="3.668871002491053"><ele>257.6666666666667</ele><time>2026-04-28T10:11:03.969Z</time></trkpt><trkpt lat="43.676304806869936" lon="3.668974038574113"><ele>258.83333333333337</ele><time>2026-04-28T10:11:06.969Z</time></trkpt><trkpt lat="43.67627295641508" lon="3.6690741149587094"><ele>260.0</ele><time>2026-04-28T10:11:08.969Z</time></trkpt><trkpt lat="43.676236721840134" lon="3.6691805615181137"><ele>260.00000000000006</ele><time>2026-04-28T10:11:11.969Z</time></trkpt><trkpt lat="43.67620829503587" lon="3.6692641298400455"><ele>260.0</ele><time>2026-04-28T10:11:13.969Z</time></trkpt><trkpt lat="43.676177833820034" lon="3.6693431927053304"><ele>260.0</ele><time>2026-04-28T10:11:16.969Z</time></trkpt><trkpt lat="43.67614949329428" lon="3.669466993418403"><ele>260.0</ele><time>2026-04-28T10:11:19.969Z</time></trkpt><trkpt lat="43.67612963611496" lon="3.669552278669564"><ele>260.0</ele><time>2026-04-28T10:11:21.969Z</time></trkpt><trkpt lat="43.67609557064156" lon="3.6696410162873394"><ele>260.00000000000006</ele><time>2026-04-28T10:11:23.969Z</time></trkpt><trkpt lat="43.67605215190519" lon="3.6697204708738584"><ele>260.0</ele><time>2026-04-28T10:11:25.969Z</time></trkpt><trkpt lat="43.67604078844458" lon="3.6698147966503276"><ele>260.1666666666667</ele><time>2026-04-28T10:11:27.969Z</time></trkpt><trkpt lat="43.6760221887432" lon="3.669928371954516"><ele>260.33333333333337</ele><time>2026-04-28T10:11:30.969Z</time></trkpt><trkpt lat="43.676025437756884" lon="3.6700271015726496"><ele>260.5</ele><time>2026-04-28T10:11:33.969Z</time></trkpt><trkpt lat="43.67602719590443" lon="3.6701357817763025"><ele>260.6666666666667</ele><time>2026-04-28T10:11:36.969Z</time></trkpt><trkpt lat="43.676026056868885" lon="3.670253773781034"><ele>260.8333333333333</ele><time>2026-04-28T10:11:40.969Z</time></trkpt><trkpt lat="43.67602978843209" lon="3.670349353928522"><ele>261.0</ele><time>2026-04-28T10:11:43.969Z</time></trkpt><trkpt lat="43.67604011955523" lon="3.6704549366519807"><ele>261.0</ele><time>2026-04-28T10:11:47.968Z</time></trkpt><trkpt lat="43.676050748648876" lon="3.670544287766906"><ele>261.0</ele><time>2026-04-28T10:11:50.968Z</time></trkpt><trkpt lat="43.67604920712056" lon="3.6706475683685085"><ele>261.0</ele><time>2026-04-28T10:11:54.968Z</time></trkpt><trkpt lat="43.6760356035723" lon="3.6707550422289144"><ele>261.0</ele><time>2026-04-28T10:11:58.968Z</time></trkpt><trkpt lat="43.675994079546825" lon="3.670823413181494"><ele>261.0</ele><time>2026-04-28T10:12:00.968Z</time></trkpt><trkpt lat="43.67593990187112" lon="3.6708974003699617"><ele>261.0</ele><time>2026-04-28T10:12:04.968Z</time></trkpt><trkpt lat="43.67589002860985" lon="3.6709877365257597"><ele>261.0</ele><time>2026-04-28T10:12:08.968Z</time></trkpt><trkpt lat="43.67583953204963" lon="3.6710815677073385"><ele>262.14285714285717</ele><time>2026-04-28T10:12:12.968Z</time></trkpt><trkpt lat="43.675807488554696" lon="3.671168386576745"><ele>263.2857142857143</ele><time>2026-04-28T10:12:17.969Z</time></trkpt><trkpt lat="43.67578419787438" lon="3.671265990783163"><ele>264.42857142857144</ele><time>2026-04-28T10:12:21.969Z</time></trkpt><trkpt lat="43.675782212729196" lon="3.6713578168882397"><ele>265.57142857142856</ele><time>2026-04-28T10:12:25.969Z</time></trkpt><trkpt lat="43.6757643547314" lon="3.671441677745165"><ele>266.7142857142857</ele><time>2026-04-28T10:12:29.969Z</time></trkpt><trkpt lat="43.67576338277745" lon="3.6715584867124433"><ele>267.8571428571429</ele><time>2026-04-28T10:12:33.969Z</time></trkpt><trkpt lat="43.67573951911979" lon="3.6716426899616494"><ele>269.0</ele><time>2026-04-28T10:12:37.969Z</time></trkpt><trkpt lat="43.67571009029532" lon="3.6717536650112343"><ele>269.0</ele><time>2026-04-28T10:12:41.969Z</time></trkpt><trkpt lat="43.67569107003714" lon="3.6718368685109195"><ele>269.0</ele><time>2026-04-28T10:12:44.969Z</time></trkpt><trkpt lat="43.675660806430514" lon="3.6719284408033586"><ele>269.0</ele><time>2026-04-28T10:12:47.969Z</time></trkpt><trkpt lat="43.6756157466518" lon="3.6720001699925877"><ele>269.0</ele><time>2026-04-28T10:12:51.969Z</time></trkpt><trkpt lat="43.6755820754452" lon="3.6720960465512476"><ele>269.0</ele><time>2026-04-28T10:12:54.969Z</time></trkpt><trkpt lat="43.67555346829144" lon="3.6722001348676767"><ele>269.0</ele><time>2026-04-28T10:12:57.969Z</time></trkpt><trkpt lat="43.675543528150804" lon="3.672318943775536"><ele>269.0</ele><time>2026-04-28T10:13:00.969Z</time></trkpt><trkpt lat="43.67551844306237" lon="3.6724278936075305"><ele>269.14285714285717</ele><time>2026-04-28T10:13:03.969Z</time></trkpt><trkpt lat="43.675465657777366" lon="3.6725198970178434"><ele>269.28571428571433</ele><time>2026-04-28T10:13:06.969Z</time></trkpt><trkpt lat="43.67542645574538" lon="3.672591581316754"><ele>269.42857142857144</ele><time>2026-04-28T10:13:08.969Z</time></trkpt><trkpt lat="43.675404772678704" lon="3.6726778740743833"><ele>269.57142857142856</ele><time>2026-04-28T10:13:11.969Z</time></trkpt><trkpt lat="43.67536556397011" lon="3.67275454187516"><ele>269.71428571428567</ele><time>2026-04-28T10:13:13.969Z</time></trkpt><trkpt lat="43.67532772176881" lon="3.6728609543565254"><ele>269.85714285714283</ele><time>2026-04-28T10:13:16.969Z</time></trkpt><trkpt lat="43.675296992319495" lon="3.6729508680863296"><ele>270.0</ele><time>2026-04-28T10:13:18.969Z</time></trkpt><trkpt lat="43.67526454453371" lon="3.6730354487711114"><ele>270.0</ele><time>2026-04-28T10:13:20.969Z</time></trkpt><trkpt lat="43.675231560612396" lon="3.673120850943671"><ele>270.0</ele><time>2026-04-28T10:13:23.969Z</time></trkpt><trkpt lat="43.675193042091145" lon="3.6732091133236557"><ele>270.0</ele><time>2026-04-28T10:13:25.969Z</time></trkpt><trkpt lat="43.67514760252574" lon="3.673306541609369"><ele>270.0</ele><time>2026-04-28T10:13:28.969Z</time></trkpt><trkpt lat="43.67510245013425" lon="3.6734106049522786"><ele>270.0</ele><time>2026-04-28T10:13:31.969Z</time></trkpt><trkpt lat="43.675070614682234" lon="3.673496157606446"><ele>270.0</ele><time>2026-04-28T10:13:33.969Z</time></trkpt><trkpt lat="43.67502651773564" lon="3.6735944879681504"><ele>271.1666666666667</ele><time>2026-04-28T10:13:36.969Z</time></trkpt><trkpt lat="43.67499252464778" lon="3.673670979192747"><ele>272.3333333333333</ele><time>2026-04-28T10:13:39.969Z</time></trkpt><trkpt lat="43.6749625267039" lon="3.6737690875117837"><ele>273.5</ele><time>2026-04-28T10:13:42.969Z</time></trkpt><trkpt lat="43.67494984013749" lon="3.6738771958640957"><ele>274.66666666666663</ele><time>2026-04-28T10:13:45.969Z</time></trkpt><trkpt lat="43.67493783064541" lon="3.673988373255172"><ele>275.8333333333333</ele><time>2026-04-28T10:13:48.968Z</time></trkpt><trkpt lat="43.67493404011855" lon="3.6741000454615342"><ele>277.0</ele><time>2026-04-28T10:13:52.968Z</time></trkpt><trkpt lat="43.6749271672114" lon="3.6741921343572987"><ele>277.0</ele><time>2026-04-28T10:13:55.968Z</time></trkpt><trkpt lat="43.67488479646049" lon="3.674296014501444"><ele>277.0</ele><time>2026-04-28T10:13:59.968Z</time></trkpt><trkpt lat="43.67487619108195" lon="3.6744091046064726"><ele>277.0</ele><time>2026-04-28T10:14:01.968Z</time></trkpt><trkpt lat="43.674857837386455" lon="3.6745096393268164"><ele>277.0</ele><time>2026-04-28T10:14:04.968Z</time></trkpt><trkpt lat="43.674825523521754" lon="3.674600231505494"><ele>277.0</ele><time>2026-04-28T10:14:07.968Z</time></trkpt><trkpt lat="43.674774933248486" lon="3.6746674854430146"><ele>277.0</ele><time>2026-04-28T10:14:10.968Z</time></trkpt><trkpt lat="43.67472317207466" lon="3.6747231453891076"><ele>277.0</ele><time>2026-04-28T10:14:13.968Z</time></trkpt><trkpt lat="43.674661871985165" lon="3.6747817398106988"><ele>277.0</ele><time>2026-04-28T10:14:16.968Z</time></trkpt><trkpt lat="43.674602624251065" lon="3.674847754863703"><ele>277.0</ele><time>2026-04-28T10:14:19.968Z</time></trkpt><trkpt lat="43.67453719784027" lon="3.674899124196881"><ele>277.0</ele><time>2026-04-28T10:14:22.968Z</time></trkpt><trkpt lat="43.67446893531708" lon="3.6749350248873913"><ele>277.0</ele><time>2026-04-28T10:14:25.969Z</time></trkpt><trkpt lat="43.67440562494044" lon="3.674962968577386"><ele>277.0</ele><time>2026-04-28T10:14:28.969Z</time></trkpt><trkpt lat="43.67434472464518" lon="3.6749935162483767"><ele>277.0</ele><time>2026-04-28T10:14:31.968Z</time></trkpt><trkpt lat="43.674280030039625" lon="3.674954438124439"><ele>277.0</ele><time>2026-04-28T10:14:34.969Z</time></trkpt><trkpt lat="43.674269854702715" lon="3.674822142218462"><ele>277.0</ele><time>2026-04-28T10:14:37.969Z</time></trkpt><trkpt lat="43.67425131964027" lon="3.674696357177341"><ele>277.0</ele><time>2026-04-28T10:14:40.969Z</time></trkpt><trkpt lat="43.67423404372931" lon="3.674587816574917"><ele>277.0</ele><time>2026-04-28T10:14:42.969Z</time></trkpt><trkpt lat="43.67421355333879" lon="3.6744635889871735"><ele>277.0</ele><time>2026-04-28T10:14:44.969Z</time></trkpt><trkpt lat="43.67417682607637" lon="3.6743108057946228"><ele>276.0</ele><time>2026-04-28T10:14:46.969Z</time></trkpt><trkpt lat="43.67413585762465" lon="3.674167498005977"><ele>275.0</ele><time>2026-04-28T10:14:48.969Z</time></trkpt><trkpt lat="43.674074570345645" lon="3.6740943709656726"><ele>274.0</ele><time>2026-04-28T10:14:50.969Z</time></trkpt><trkpt lat="43.67402662222186" lon="3.6739854924204516"><ele>273.0</ele><time>2026-04-28T10:14:52.969Z</time></trkpt><trkpt lat="43.673979514524014" lon="3.6738814766537295"><ele>272.0</ele><time>2026-04-28T10:14:54.969Z</time></trkpt><trkpt lat="43.67396081848832" lon="3.673742279786414"><ele>272.0</ele><time>2026-04-28T10:14:57.969Z</time></trkpt><trkpt lat="43.67395182887842" lon="3.673643229417219"><ele>272.0</ele><time>2026-04-28T10:14:59.969Z</time></trkpt><trkpt lat="43.67392953232762" lon="3.6735147334847795"><ele>272.0</ele><time>2026-04-28T10:15:01.969Z</time></trkpt><trkpt lat="43.67390942521311" lon="3.673388835486972"><ele>272.0</ele><time>2026-04-28T10:15:03.969Z</time></trkpt><trkpt lat="43.67388399136275" lon="3.6732812697439496"><ele>272.0</ele><time>2026-04-28T10:15:05.969Z</time></trkpt><trkpt lat="43.673864286251" lon="3.6731747307171614"><ele>272.0</ele><time>2026-04-28T10:15:07.969Z</time></trkpt><trkpt lat="43.67385750347984" lon="3.6730827367134733"><ele>271.6666666666667</ele><time>2026-04-28T10:15:09.969Z</time></trkpt><trkpt lat="43.673864748526185" lon="3.6729740799778257"><ele>271.33333333333337</ele><time>2026-04-28T10:15:11.969Z</time></trkpt><trkpt lat="43.67386412173997" lon="3.672859606419936"><ele>271.0</ele><time>2026-04-28T10:15:13.969Z</time></trkpt><trkpt lat="43.67387945705521" lon="3.67269776659952"><ele>270.6666666666667</ele><time>2026-04-28T10:15:15.969Z</time></trkpt><trkpt lat="43.673895031477834" lon="3.672581269521392"><ele>270.3333333333333</ele><time>2026-04-28T10:15:17.968Z</time></trkpt><trkpt lat="43.67390416695456" lon="3.6724904170206822"><ele>270.0</ele><time>2026-04-28T10:15:18.968Z</time></trkpt><trkpt lat="43.67391630229798" lon="3.672402400077914"><ele>269.3333333333333</ele><time>2026-04-28T10:15:19.968Z</time></trkpt><trkpt lat="43.67391578095015" lon="3.672243549340952"><ele>268.6666666666667</ele><time>2026-04-28T10:15:21.968Z</time></trkpt><trkpt lat="43.67393145900682" lon="3.6721516090622597"><ele>268.0</ele><time>2026-04-28T10:15:22.968Z</time></trkpt><trkpt lat="43.67393975837602" lon="3.6720579772540347"><ele>267.33333333333337</ele><time>2026-04-28T10:15:23.968Z</time></trkpt><trkpt lat="43.67394274601918" lon="3.671968716755121"><ele>266.6666666666667</ele><time>2026-04-28T10:15:24.968Z</time></trkpt><trkpt lat="43.673919575274454" lon="3.6718153177994783"><ele>266.0</ele><time>2026-04-28T10:15:26.968Z</time></trkpt><trkpt lat="43.67389077654357" lon="3.671663178456723"><ele>265.2</ele><time>2026-04-28T10:15:28.968Z</time></trkpt><trkpt lat="43.67389647508875" lon="3.6715618067503453"><ele>264.40000000000003</ele><time>2026-04-28T10:15:29.968Z</time></trkpt><trkpt lat="43.6738911867198" lon="3.671384590314327"><ele>263.6</ele><time>2026-04-28T10:15:31.968Z</time></trkpt><trkpt lat="43.67390605255133" lon="3.671236747904515"><ele>262.8</ele><time>2026-04-28T10:15:33.968Z</time></trkpt><trkpt lat="43.673947750021" lon="3.671105145821978"><ele>262.0</ele><time>2026-04-28T10:15:35.968Z</time></trkpt><trkpt lat="43.67397405215401" lon="3.671006564781156"><ele>261.66666666666663</ele><time>2026-04-28T10:15:36.968Z</time></trkpt><trkpt lat="43.67399789064357" lon="3.670916074934942"><ele>261.3333333333333</ele><time>2026-04-28T10:15:37.968Z</time></trkpt><trkpt lat="43.67401662897837" lon="3.670832599075791"><ele>261.0</ele><time>2026-04-28T10:15:38.968Z</time></trkpt><trkpt lat="43.6740034694983" lon="3.670707412606146"><ele>260.6666666666667</ele><time>2026-04-28T10:15:40.968Z</time></trkpt><trkpt lat="43.673933639145154" lon="3.670607718664556"><ele>260.33333333333337</ele><time>2026-04-28T10:15:42.968Z</time></trkpt><trkpt lat="43.673875745069" lon="3.670567475464173"><ele>260.0</ele><time>2026-04-28T10:15:44.968Z</time></trkpt><trkpt lat="43.6738255346168" lon="3.6704585161807786"><ele>260.0</ele><time>2026-04-28T10:15:47.968Z</time></trkpt><trkpt lat="43.67383731765559" lon="3.6703500666446125"><ele>260.0</ele><time>2026-04-28T10:15:50.968Z</time></trkpt><trkpt lat="43.67384446100002" lon="3.6702240650091014"><ele>260.0</ele><time>2026-04-28T10:15:53.968Z</time></trkpt><trkpt lat="43.67381238448729" lon="3.670143885018695"><ele>260.0</ele><time>2026-04-28T10:15:56.968Z</time></trkpt><trkpt lat="43.67377950989023" lon="3.67002721570394"><ele>260.0</ele><time>2026-04-28T10:15:59.968Z</time></trkpt><trkpt lat="43.673764415822575" lon="3.669928832439471"><ele>260.0</ele><time>2026-04-28T10:16:02.968Z</time></trkpt><trkpt lat="43.67374346624249" lon="3.6698250080570047"><ele>259.5</ele><time>2026-04-28T10:16:04.968Z</time></trkpt><trkpt lat="43.67371859227443" lon="3.669709288074608"><ele>259.0</ele><time>2026-04-28T10:16:07.968Z</time></trkpt><trkpt lat="43.67370449450444" lon="3.6696047553708455"><ele>258.5</ele><time>2026-04-28T10:16:09.968Z</time></trkpt><trkpt lat="43.673695089196315" lon="3.6695023960096234"><ele>258.0</ele><time>2026-04-28T10:16:11.968Z</time></trkpt><trkpt lat="43.67367382185581" lon="3.6693673024118354"><ele>257.5</ele><time>2026-04-28T10:16:13.968Z</time></trkpt><trkpt lat="43.67365192412826" lon="3.669241259338605"><ele>257.0</ele><time>2026-04-28T10:16:15.968Z</time></trkpt><trkpt lat="43.67362550142224" lon="3.669094722518351"><ele>256.33333333333337</ele><time>2026-04-28T10:16:17.968Z</time></trkpt><trkpt lat="43.67362415747717" lon="3.6689540068015902"><ele>255.66666666666669</ele><time>2026-04-28T10:16:19.968Z</time></trkpt><trkpt lat="43.67361906563342" lon="3.668803942642586"><ele>255.0</ele><time>2026-04-28T10:16:21.968Z</time></trkpt><trkpt lat="43.673593146128326" lon="3.6686864444705267"><ele>254.33333333333331</ele><time>2026-04-28T10:16:23.968Z</time></trkpt><trkpt lat="43.673560570574786" lon="3.6685980362623285"><ele>253.66666666666666</ele><time>2026-04-28T10:16:25.968Z</time></trkpt><trkpt lat="43.67352743523466" lon="3.6685020594632873"><ele>253.0</ele><time>2026-04-28T10:16:27.968Z</time></trkpt><trkpt lat="43.673481005095255" lon="3.6683702488347567"><ele>252.8</ele><time>2026-04-28T10:16:29.969Z</time></trkpt><trkpt lat="43.67340861261347" lon="3.66824475907984"><ele>252.60000000000002</ele><time>2026-04-28T10:16:31.969Z</time></trkpt><trkpt lat="43.673377801035784" lon="3.6681685844989484"><ele>252.39999999999998</ele><time>2026-04-28T10:16:32.969Z</time></trkpt><trkpt lat="43.673345698686376" lon="3.6680229319949262"><ele>252.2</ele><time>2026-04-28T10:16:34.969Z</time></trkpt><trkpt lat="43.67329187459708" lon="3.66786381264608"><ele>252.0</ele><time>2026-04-28T10:16:36.969Z</time></trkpt><trkpt lat="43.67325638411663" lon="3.667769934478479"><ele>251.66666666666666</ele><time>2026-04-28T10:16:37.969Z</time></trkpt><trkpt lat="43.67323653157947" lon="3.667686883267357"><ele>251.33333333333331</ele><time>2026-04-28T10:16:38.969Z</time></trkpt><trkpt lat="43.673204444913225" lon="3.667598871548548"><ele>251.0</ele><time>2026-04-28T10:16:39.969Z</time></trkpt><trkpt lat="43.67314388631651" lon="3.6675276183332413"><ele>250.66666666666666</ele><time>2026-04-28T10:16:40.969Z</time></trkpt><trkpt lat="43.67306600819572" lon="3.667421268646049"><ele>250.33333333333331</ele><time>2026-04-28T10:16:42.969Z</time></trkpt><trkpt lat="43.67295421472784" lon="3.667354158139852"><ele>250.0</ele><time>2026-04-28T10:16:44.969Z</time></trkpt><trkpt lat="43.67285982243611" lon="3.6673288178587433"><ele>248.8</ele><time>2026-04-28T10:16:46.969Z</time></trkpt><trkpt lat="43.6727223505211" lon="3.667237454338148"><ele>247.6</ele><time>2026-04-28T10:16:48.969Z</time></trkpt><trkpt lat="43.672627729043256" lon="3.667232958869902"><ele>246.39999999999998</ele><time>2026-04-28T10:16:50.969Z</time></trkpt><trkpt lat="43.672564682101594" lon="3.6671947003874994"><ele>245.2</ele><time>2026-04-28T10:16:51.969Z</time></trkpt><trkpt lat="43.67247433057644" lon="3.6670855431274108"><ele>244.0</ele><time>2026-04-28T10:16:53.969Z</time></trkpt><trkpt lat="43.67240156804013" lon="3.6669640185922914"><ele>243.2</ele><time>2026-04-28T10:16:55.969Z</time></trkpt><trkpt lat="43.672365066382" lon="3.6668798586670124"><ele>242.39999999999998</ele><time>2026-04-28T10:16:56.969Z</time></trkpt><trkpt lat="43.672310189575136" lon="3.6667965651902557"><ele>241.6</ele><time>2026-04-28T10:16:57.969Z</time></trkpt><trkpt lat="43.67222978952074" lon="3.666740537017161"><ele>240.8</ele><time>2026-04-28T10:16:59.969Z</time></trkpt><trkpt lat="43.67215555983088" lon="3.6666605931530496"><ele>240.0</ele><time>2026-04-28T10:17:01.969Z</time></trkpt><trkpt lat="43.67206830492713" lon="3.6665347095889307"><ele>240.0</ele><time>2026-04-28T10:17:03.969Z</time></trkpt><trkpt lat="43.6720197394979" lon="3.6664118038462306"><ele>240.0</ele><time>2026-04-28T10:17:05.969Z</time></trkpt><trkpt lat="43.67200545582194" lon="3.666322460619388"><ele>240.0</ele><time>2026-04-28T10:17:06.969Z</time></trkpt><trkpt lat="43.67198739110968" lon="3.6662303562993377"><ele>240.0</ele><time>2026-04-28T10:17:07.969Z</time></trkpt><trkpt lat="43.671931158540964" lon="3.666088088542058"><ele>240.0</ele><time>2026-04-28T10:17:09.969Z</time></trkpt><trkpt lat="43.67190447939445" lon="3.665979186748698"><ele>240.0</ele><time>2026-04-28T10:17:11.969Z</time></trkpt><trkpt lat="43.67186333774378" lon="3.6658745622631086"><ele>238.83333333333334</ele><time>2026-04-28T10:17:13.969Z</time></trkpt><trkpt lat="43.67182774475776" lon="3.6657854406346115"><ele>237.66666666666669</ele><time>2026-04-28T10:17:14.969Z</time></trkpt><trkpt lat="43.671785476821654" lon="3.6656922894460244"><ele>236.5</ele><time>2026-04-28T10:17:15.969Z</time></trkpt><trkpt lat="43.67174915560014" lon="3.6656169397466583"><ele>235.33333333333334</ele><time>2026-04-28T10:17:16.969Z</time></trkpt><trkpt lat="43.67169227360807" lon="3.6654942513427753"><ele>234.16666666666669</ele><time>2026-04-28T10:17:18.969Z</time></trkpt><trkpt lat="43.671642965454616" lon="3.6653806302305223"><ele>233.0</ele><time>2026-04-28T10:17:20.969Z</time></trkpt><trkpt lat="43.67157472111758" lon="3.665285645132886"><ele>232.83333333333334</ele><time>2026-04-28T10:17:22.969Z</time></trkpt><trkpt lat="43.671520570661535" lon="3.6652107555507247"><ele>232.66666666666669</ele><time>2026-04-28T10:17:24.969Z</time></trkpt><trkpt lat="43.67147817023013" lon="3.6651287280201927"><ele>232.5</ele><time>2026-04-28T10:17:26.969Z</time></trkpt><trkpt lat="43.671427338963234" lon="3.6650566460345173"><ele>232.33333333333331</ele><time>2026-04-28T10:17:28.969Z</time></trkpt><trkpt lat="43.671377324198694" lon="3.6649856081269885"><ele>232.16666666666666</ele><time>2026-04-28T10:17:30.969Z</time></trkpt><trkpt lat="43.67133108538559" lon="3.664905690298289"><ele>232.0</ele><time>2026-04-28T10:17:32.969Z</time></trkpt><trkpt lat="43.6712486236904" lon="3.6648075280091326"><ele>232.0</ele><time>2026-04-28T10:17:34.969Z</time></trkpt><trkpt lat="43.6711741811962" lon="3.664713138778269"><ele>232.0</ele><time>2026-04-28T10:17:36.969Z</time></trkpt><trkpt lat="43.67111908805146" lon="3.6646677857056806"><ele>232.0</ele><time>2026-04-28T10:17:37.969Z</time></trkpt><trkpt lat="43.67104310695053" lon="3.6646007869703263"><ele>232.0</ele><time>2026-04-28T10:17:39.969Z</time></trkpt><trkpt lat="43.67097680667004" lon="3.6645359806629925"><ele>232.0</ele><time>2026-04-28T10:17:41.969Z</time></trkpt><trkpt lat="43.670874141210895" lon="3.6644455343193156"><ele>230.99999999999997</ele><time>2026-04-28T10:17:43.969Z</time></trkpt><trkpt lat="43.67078130848334" lon="3.6643472864780087"><ele>230.0</ele><time>2026-04-28T10:17:45.969Z</time></trkpt><trkpt lat="43.67072822764918" lon="3.664294400829159"><ele>229.0</ele><time>2026-04-28T10:17:46.969Z</time></trkpt><trkpt lat="43.67066182331593" lon="3.6642416653654566"><ele>228.0</ele><time>2026-04-28T10:17:48.969Z</time></trkpt><trkpt lat="43.67057816331774" lon="3.664143324354894"><ele>226.99999999999997</ele><time>2026-04-28T10:17:50.969Z</time></trkpt><trkpt lat="43.670509751788444" lon="3.6641212944967947"><ele>226.0</ele><time>2026-04-28T10:17:52.969Z</time></trkpt><trkpt lat="43.67045773470501" lon="3.664049626664213"><ele>225.99999999999997</ele><time>2026-04-28T10:17:54.969Z</time></trkpt><trkpt lat="43.67038334970505" lon="3.663953977476408"><ele>226.0</ele><time>2026-04-28T10:17:56.969Z</time></trkpt><trkpt lat="43.67033142873151" lon="3.663880741515563"><ele>226.0</ele><time>2026-04-28T10:17:59.969Z</time></trkpt><trkpt lat="43.67026798841509" lon="3.6638255740912604"><ele>226.0</ele><time>2026-04-28T10:18:02.969Z</time></trkpt><trkpt lat="43.67019504002489" lon="3.663795339060242"><ele>225.99999999999997</ele><time>2026-04-28T10:18:05.969Z</time></trkpt><trkpt lat="43.67013394525234" lon="3.6638280372263017"><ele>226.0</ele><time>2026-04-28T10:18:08.969Z</time></trkpt><trkpt lat="43.670081884687555" lon="3.6638953865334725"><ele>225.2857142857143</ele><time>2026-04-28T10:18:11.969Z</time></trkpt><trkpt lat="43.670018941991316" lon="3.663960274839122"><ele>224.57142857142856</ele><time>2026-04-28T10:18:14.969Z</time></trkpt><trkpt lat="43.66994873557143" lon="3.6639945155736067"><ele>223.85714285714286</ele><time>2026-04-28T10:18:16.969Z</time></trkpt><trkpt lat="43.66988061997229" lon="3.6640072361370577"><ele>223.14285714285717</ele><time>2026-04-28T10:18:18.969Z</time></trkpt><trkpt lat="43.66981169878254" lon="3.6640056523660247"><ele>222.42857142857144</ele><time>2026-04-28T10:18:21.969Z</time></trkpt><trkpt lat="43.66975005631871" lon="3.66403071221176"><ele>221.71428571428572</ele><time>2026-04-28T10:18:27.969Z</time></trkpt><trkpt lat="43.669674990493725" lon="3.6640766975000223"><ele>221.0</ele><time>2026-04-28T10:18:41.97Z</time></trkpt><trkpt lat="43.66960468734487" lon="3.6640504264381497"><ele>221.00000000000003</ele><time>2026-04-28T10:18:51.97Z</time></trkpt><trkpt lat="43.66953467735179" lon="3.663994492859974"><ele>221.0</ele><time>2026-04-28T10:18:56.97Z</time></trkpt><trkpt lat="43.66949359402873" lon="3.6639241677048715"><ele>221.0</ele><time>2026-04-28T10:19:00.97Z</time></trkpt><trkpt lat="43.66943907213094" lon="3.6638436819441753"><ele>221.0</ele><time>2026-04-28T10:19:04.97Z</time></trkpt><trkpt lat="43.669388618760074" lon="3.6637848986835446"><ele>221.00000000000003</ele><time>2026-04-28T10:19:07.97Z</time></trkpt><trkpt lat="43.66931865597159" lon="3.6637344782907966"><ele>221.0</ele><time>2026-04-28T10:19:10.97Z</time></trkpt><trkpt lat="43.669232155773614" lon="3.6637014519749713"><ele>221.33333333333334</ele><time>2026-04-28T10:19:13.97Z</time></trkpt><trkpt lat="43.669148158715096" lon="3.663679261946836"><ele>221.66666666666669</ele><time>2026-04-28T10:19:16.97Z</time></trkpt><trkpt lat="43.66907872261707" lon="3.6636624193369416"><ele>222.0</ele><time>2026-04-28T10:19:19.97Z</time></trkpt><trkpt lat="43.66900094189634" lon="3.6636632953477126"><ele>222.33333333333331</ele><time>2026-04-28T10:19:22.97Z</time></trkpt><trkpt lat="43.668929828852505" lon="3.663662297456566"><ele>222.66666666666666</ele><time>2026-04-28T10:19:25.97Z</time></trkpt><trkpt lat="43.66886199224584" lon="3.663681021125751"><ele>223.0</ele><time>2026-04-28T10:19:28.97Z</time></trkpt><trkpt lat="43.66877652727054" lon="3.6636754036886034"><ele>222.99999999999997</ele><time>2026-04-28T10:19:31.97Z</time></trkpt><trkpt lat="43.66869997096098" lon="3.663714781485443"><ele>223.0</ele><time>2026-04-28T10:19:34.97Z</time></trkpt><trkpt lat="43.66860990559664" lon="3.6637486314118175"><ele>223.0</ele><time>2026-04-28T10:19:37.969Z</time></trkpt><trkpt lat="43.66852209076267" lon="3.6637578004545692"><ele>223.0</ele><time>2026-04-28T10:19:40.969Z</time></trkpt><trkpt lat="43.66843642105733" lon="3.663760552431127"><ele>222.99999999999997</ele><time>2026-04-28T10:19:43.969Z</time></trkpt><trkpt lat="43.66837127576806" lon="3.663778034491185"><ele>223.0</ele><time>2026-04-28T10:19:45.969Z</time></trkpt><trkpt lat="43.6683059896683" lon="3.663789430456783"><ele>223.49999999999997</ele><time>2026-04-28T10:19:48.969Z</time></trkpt><trkpt lat="43.66822136482179" lon="3.6638049354079136"><ele>224.0</ele><time>2026-04-28T10:19:51.969Z</time></trkpt><trkpt lat="43.66812274189949" lon="3.6637949265637357"><ele>224.5</ele><time>2026-04-28T10:19:54.969Z</time></trkpt><trkpt lat="43.66804224891516" lon="3.663793567058359"><ele>225.0</ele><time>2026-04-28T10:19:56.969Z</time></trkpt><trkpt lat="43.66796777400468" lon="3.66377765498504"><ele>225.49999999999997</ele><time>2026-04-28T10:19:58.969Z</time></trkpt><trkpt lat="43.66788907903645" lon="3.6637448514920377"><ele>226.0</ele><time>2026-04-28T10:20:00.969Z</time></trkpt><trkpt lat="43.66779715943946" lon="3.6637304222992433"><ele>225.20000000000002</ele><time>2026-04-28T10:20:02.969Z</time></trkpt><trkpt lat="43.66771390641524" lon="3.6636914182459206"><ele>224.40000000000003</ele><time>2026-04-28T10:20:04.969Z</time></trkpt><trkpt lat="43.6676441906718" lon="3.663672993341336"><ele>223.6</ele><time>2026-04-28T10:20:05.969Z</time></trkpt><trkpt lat="43.66750120199094" lon="3.6636549110106555"><ele>222.8</ele><time>2026-04-28T10:20:07.969Z</time></trkpt><trkpt lat="43.66743006788381" lon="3.6636529610563775"><ele>222.0</ele><time>2026-04-28T10:20:08.969Z</time></trkpt><trkpt lat="43.667316197232516" lon="3.663649499825502"><ele>222.0</ele><time>2026-04-28T10:20:10.969Z</time></trkpt><trkpt lat="43.6672172278218" lon="3.6636260772277773"><ele>222.0</ele><time>2026-04-28T10:20:12.969Z</time></trkpt><trkpt lat="43.66714004177372" lon="3.663624856477629"><ele>222.0</ele><time>2026-04-28T10:20:13.969Z</time></trkpt><trkpt lat="43.667040858699835" lon="3.6635885281359584"><ele>222.0</ele><time>2026-04-28T10:20:15.969Z</time></trkpt><trkpt lat="43.66695518310475" lon="3.663601860089526"><ele>222.0</ele><time>2026-04-28T10:20:18.969Z</time></trkpt><trkpt lat="43.666847994436445" lon="3.663577538886137"><ele>221.33333333333334</ele><time>2026-04-28T10:20:27.969Z</time></trkpt><trkpt lat="43.66676853919136" lon="3.663572484506346"><ele>220.66666666666669</ele><time>2026-04-28T10:20:31.969Z</time></trkpt><trkpt lat="43.66668873343354" lon="3.6635671601689173"><ele>220.0</ele><time>2026-04-28T10:20:35.969Z</time></trkpt><trkpt lat="43.66661146310587" lon="3.66357480410093"><ele>219.33333333333334</ele><time>2026-04-28T10:20:38.969Z</time></trkpt><trkpt lat="43.66652169483689" lon="3.6635951094460193"><ele>218.66666666666669</ele><time>2026-04-28T10:20:40.971Z</time></trkpt><trkpt lat="43.666430910613805" lon="3.663611057157777"><ele>218.0</ele><time>2026-04-28T10:20:42.97Z</time></trkpt><trkpt lat="43.66630267577886" lon="3.6635906183589118"><ele>218.00000000000003</ele><time>2026-04-28T10:20:44.969Z</time></trkpt><trkpt lat="43.666235475290236" lon="3.6635263794585846"><ele>218.0</ele><time>2026-04-28T10:20:46.97Z</time></trkpt><trkpt lat="43.66617306882798" lon="3.663494795406351"><ele>218.0</ele><time>2026-04-28T10:20:48.97Z</time></trkpt><trkpt lat="43.666093473148514" lon="3.6634417654047433"><ele>218.0</ele><time>2026-04-28T10:20:51.97Z</time></trkpt><trkpt lat="43.666025458099156" lon="3.663408614663463"><ele>218.00000000000003</ele><time>2026-04-28T10:20:53.97Z</time></trkpt><trkpt lat="43.66594826763912" lon="3.6633802713766532"><ele>218.0</ele><time>2026-04-28T10:20:56.97Z</time></trkpt><trkpt lat="43.6658862408648" lon="3.663353176601276"><ele>217.66666666666669</ele><time>2026-04-28T10:20:58.97Z</time></trkpt><trkpt lat="43.665822028791965" lon="3.663329346998856"><ele>217.33333333333334</ele><time>2026-04-28T10:21:00.97Z</time></trkpt><trkpt lat="43.66575478139241" lon="3.663308388578217"><ele>217.0</ele><time>2026-04-28T10:21:02.97Z</time></trkpt><trkpt lat="43.66569105894871" lon="3.663288211264342"><ele>216.66666666666669</ele><time>2026-04-28T10:21:04.97Z</time></trkpt><trkpt lat="43.66560393532356" lon="3.663251852124854"><ele>216.33333333333334</ele><time>2026-04-28T10:21:07.97Z</time></trkpt><trkpt lat="43.66554055685902" lon="3.6632357887161717"><ele>216.0</ele><time>2026-04-28T10:21:09.97Z</time></trkpt><trkpt lat="43.665450710214415" lon="3.6631822529805462"><ele>216.0</ele><time>2026-04-28T10:21:12.97Z</time></trkpt><trkpt lat="43.6653426264371" lon="3.6631676303413365"><ele>216.0</ele><time>2026-04-28T10:21:15.97Z</time></trkpt><trkpt lat="43.66527282379701" lon="3.6631511906323437"><ele>216.0</ele><time>2026-04-28T10:21:17.97Z</time></trkpt><trkpt lat="43.665198367085374" lon="3.6631398843180887"><ele>216.0</ele><time>2026-04-28T10:21:19.97Z</time></trkpt><trkpt lat="43.66512494098394" lon="3.6631202202603377"><ele>216.0</ele><time>2026-04-28T10:21:21.97Z</time></trkpt><trkpt lat="43.665044646937694" lon="3.663095623109239"><ele>216.0</ele><time>2026-04-28T10:21:23.97Z</time></trkpt><trkpt lat="43.66497303828061" lon="3.6630691919572445"><ele>216.4</ele><time>2026-04-28T10:21:25.97Z</time></trkpt><trkpt lat="43.66489037811789" lon="3.6630335616201273"><ele>216.8</ele><time>2026-04-28T10:21:27.97Z</time></trkpt><trkpt lat="43.66478809551924" lon="3.663013145792137"><ele>217.20000000000002</ele><time>2026-04-28T10:21:29.97Z</time></trkpt><trkpt lat="43.664711239045516" lon="3.6630175106151284"><ele>217.60000000000002</ele><time>2026-04-28T10:21:31.97Z</time></trkpt><trkpt lat="43.66460865547396" lon="3.6629702960285817"><ele>218.0</ele><time>2026-04-28T10:21:33.97Z</time></trkpt><trkpt lat="43.66452268058119" lon="3.6629135476254775"><ele>218.0</ele><time>2026-04-28T10:21:35.97Z</time></trkpt><trkpt lat="43.664455436371426" lon="3.662853374410098"><ele>218.0</ele><time>2026-04-28T10:21:36.97Z</time></trkpt><trkpt lat="43.66438548170875" lon="3.66284685580225"><ele>218.0</ele><time>2026-04-28T10:21:37.97Z</time></trkpt><trkpt lat="43.6643151533513" lon="3.662839530947395"><ele>218.0</ele><time>2026-04-28T10:21:38.97Z</time></trkpt><trkpt lat="43.66424640951384" lon="3.6628403018079068"><ele>218.0</ele><time>2026-04-28T10:21:39.97Z</time></trkpt><trkpt lat="43.6641562262235" lon="3.662843954703901"><ele>218.0</ele><time>2026-04-28T10:21:41.97Z</time></trkpt><trkpt lat="43.66408705385514" lon="3.66283809369861"><ele>218.0</ele><time>2026-04-28T10:21:45.97Z</time></trkpt><trkpt lat="43.66403298314305" lon="3.662899280476317"><ele>217.33333333333334</ele><time>2026-04-28T10:21:48.97Z</time></trkpt><trkpt lat="43.66399575776333" lon="3.6629990420726126"><ele>216.66666666666669</ele><time>2026-04-28T10:21:52.97Z</time></trkpt><trkpt lat="43.66395324486141" lon="3.663088011089916"><ele>216.0</ele><time>2026-04-28T10:21:55.97Z</time></trkpt><trkpt lat="43.663919100307226" lon="3.663174451704107"><ele>215.33333333333331</ele><time>2026-04-28T10:21:58.97Z</time></trkpt><trkpt lat="43.663908889326024" lon="3.66327006492655"><ele>214.66666666666666</ele><time>2026-04-28T10:22:01.97Z</time></trkpt><trkpt lat="43.66392049638967" lon="3.6633880661418914"><ele>214.0</ele><time>2026-04-28T10:22:05.97Z</time></trkpt><trkpt lat="43.66390980163949" lon="3.663499649057813"><ele>214.66666666666666</ele><time>2026-04-28T10:22:08.97Z</time></trkpt><trkpt lat="43.663902918901165" lon="3.663642206482572"><ele>215.33333333333331</ele><time>2026-04-28T10:22:12.97Z</time></trkpt><trkpt lat="43.663898132188244" lon="3.663746206182313"><ele>216.0</ele><time>2026-04-28T10:22:15.97Z</time></trkpt><trkpt lat="43.663895524096354" lon="3.6638705485493754"><ele>216.66666666666669</ele><time>2026-04-28T10:22:18.97Z</time></trkpt><trkpt lat="43.66391049908421" lon="3.6639598600624956"><ele>217.33333333333334</ele><time>2026-04-28T10:22:21.97Z</time></trkpt><trkpt lat="43.663908732169894" lon="3.6640586458847046"><ele>218.0</ele><time>2026-04-28T10:22:24.97Z</time></trkpt><trkpt lat="43.66392922368327" lon="3.664157923754285"><ele>218.00000000000003</ele><time>2026-04-28T10:22:27.97Z</time></trkpt><trkpt lat="43.66396385426168" lon="3.6642390681253096"><ele>218.0</ele><time>2026-04-28T10:22:30.97Z</time></trkpt><trkpt lat="43.66399817443971" lon="3.664346600963844"><ele>218.0</ele><time>2026-04-28T10:22:33.97Z</time></trkpt><trkpt lat="43.664024638424756" lon="3.664448882590537"><ele>218.0</ele><time>2026-04-28T10:22:36.97Z</time></trkpt><trkpt lat="43.664037470595915" lon="3.664564456426112"><ele>218.00000000000003</ele><time>2026-04-28T10:22:39.97Z</time></trkpt><trkpt lat="43.6640658790645" lon="3.6646910873886793"><ele>218.0</ele><time>2026-04-28T10:22:42.97Z</time></trkpt><trkpt lat="43.664080652850174" lon="3.664800800641347"><ele>218.66666666666669</ele><time>2026-04-28T10:22:45.97Z</time></trkpt><trkpt lat="43.66407692104244" lon="3.6649280968542044"><ele>219.33333333333334</ele><time>2026-04-28T10:22:48.971Z</time></trkpt><trkpt lat="43.664088576383115" lon="3.6650347287746645"><ele>220.0</ele><time>2026-04-28T10:22:51.97Z</time></trkpt><trkpt lat="43.664097881610196" lon="3.665162260067438"><ele>220.66666666666669</ele><time>2026-04-28T10:22:54.97Z</time></trkpt><trkpt lat="43.66405622880731" lon="3.6652594231239073"><ele>221.33333333333334</ele><time>2026-04-28T10:22:57.971Z</time></trkpt><trkpt lat="43.664004340666324" lon="3.6653551649110696"><ele>222.0</ele><time>2026-04-28T10:23:01.97Z</time></trkpt><trkpt lat="43.663961975495035" lon="3.665440665036162"><ele>222.83333333333334</ele><time>2026-04-28T10:23:03.97Z</time></trkpt><trkpt lat="43.66391969153074" lon="3.6655369699894393"><ele>223.66666666666669</ele><time>2026-04-28T10:23:06.97Z</time></trkpt><trkpt lat="43.66389489227159" lon="3.665619983376596"><ele>224.5</ele><time>2026-04-28T10:23:08.97Z</time></trkpt><trkpt lat="43.663834743479114" lon="3.665660678143351"><ele>225.33333333333334</ele><time>2026-04-28T10:23:10.97Z</time></trkpt><trkpt lat="43.66376677667877" lon="3.665746349512411"><ele>226.16666666666669</ele><time>2026-04-28T10:23:13.97Z</time></trkpt><trkpt lat="43.66369728562113" lon="3.6658057954764622"><ele>227.0</ele><time>2026-04-28T10:23:16.97Z</time></trkpt><trkpt lat="43.66362957127677" lon="3.665857667838857"><ele>228.16666666666669</ele><time>2026-04-28T10:23:19.97Z</time></trkpt><trkpt lat="43.66354865074548" lon="3.665900742496839"><ele>229.33333333333334</ele><time>2026-04-28T10:23:22.97Z</time></trkpt><trkpt lat="43.66348801644782" lon="3.6659536024127934"><ele>230.5</ele><time>2026-04-28T10:23:24.97Z</time></trkpt><trkpt lat="43.66340931162563" lon="3.6660211927859963"><ele>231.66666666666669</ele><time>2026-04-28T10:23:27.97Z</time></trkpt><trkpt lat="43.66333725629423" lon="3.666058162081787"><ele>232.83333333333334</ele><time>2026-04-28T10:23:29.97Z</time></trkpt><trkpt lat="43.66325563002148" lon="3.666073330713605"><ele>234.0</ele><time>2026-04-28T10:23:31.97Z</time></trkpt><trkpt lat="43.66317509560689" lon="3.6661007179871987"><ele>234.83333333333334</ele><time>2026-04-28T10:23:33.97Z</time></trkpt><trkpt lat="43.66310384041878" lon="3.6661342172318045"><ele>235.66666666666669</ele><time>2026-04-28T10:23:35.97Z</time></trkpt><trkpt lat="43.6630400748155" lon="3.6661712086718237"><ele>236.5</ele><time>2026-04-28T10:23:37.97Z</time></trkpt><trkpt lat="43.6629619676332" lon="3.666163122795021"><ele>237.33333333333334</ele><time>2026-04-28T10:23:39.97Z</time></trkpt><trkpt lat="43.66287599314811" lon="3.6661620604150573"><ele>238.16666666666669</ele><time>2026-04-28T10:23:41.97Z</time></trkpt><trkpt lat="43.66279160557155" lon="3.666157937154708"><ele>239.0</ele><time>2026-04-28T10:23:43.97Z</time></trkpt><trkpt lat="43.66269762664256" lon="3.6661573360680144"><ele>239.16666666666669</ele><time>2026-04-28T10:23:45.97Z</time></trkpt><trkpt lat="43.66261063557687" lon="3.6661429684168256"><ele>239.33333333333334</ele><time>2026-04-28T10:23:47.97Z</time></trkpt><trkpt lat="43.662525477664474" lon="3.666129919264464"><ele>239.5</ele><time>2026-04-28T10:23:49.97Z</time></trkpt><trkpt lat="43.66245051761304" lon="3.666109017015935"><ele>239.66666666666669</ele><time>2026-04-28T10:23:51.97Z</time></trkpt><trkpt lat="43.662376241025285" lon="3.666101229582289"><ele>239.83333333333334</ele><time>2026-04-28T10:23:53.97Z</time></trkpt><trkpt lat="43.66229686170945" lon="3.6660806943287296"><ele>240.0</ele><time>2026-04-28T10:23:55.97Z</time></trkpt><trkpt lat="43.66221204155358" lon="3.666082290794661"><ele>240.0</ele><time>2026-04-28T10:23:57.97Z</time></trkpt><trkpt lat="43.66209947648312" lon="3.6660255082656015"><ele>240.0</ele><time>2026-04-28T10:24:00.97Z</time></trkpt><trkpt lat="43.66202052238817" lon="3.665959390117683"><ele>240.0</ele><time>2026-04-28T10:24:02.97Z</time></trkpt><trkpt lat="43.661927882465044" lon="3.665930753442417"><ele>240.0</ele><time>2026-04-28T10:24:04.97Z</time></trkpt><trkpt lat="43.661845389154635" lon="3.6658963038355554"><ele>240.0</ele><time>2026-04-28T10:24:06.97Z</time></trkpt><trkpt lat="43.661787603892044" lon="3.6658519491621857"><ele>239.8</ele><time>2026-04-28T10:24:08.97Z</time></trkpt><trkpt lat="43.661713051250544" lon="3.6657873942676393"><ele>239.6</ele><time>2026-04-28T10:24:11.97Z</time></trkpt><trkpt lat="43.66165475905949" lon="3.6657316197777283"><ele>239.39999999999998</ele><time>2026-04-28T10:24:14.97Z</time></trkpt><trkpt lat="43.661524747466395" lon="3.665644075467566"><ele>239.2</ele><time>2026-04-28T10:24:29.97Z</time></trkpt><trkpt lat="43.6614741929384" lon="3.665591715291424"><ele>239.0</ele><time>2026-04-28T10:26:22.971Z</time></trkpt><trkpt lat="43.661407045490705" lon="3.665520409553502"><ele>239.00000000000003</ele><time>2026-04-28T10:26:27.971Z</time></trkpt><trkpt lat="43.66135026602991" lon="3.6654630736925577"><ele>239.0</ele><time>2026-04-28T10:26:30.971Z</time></trkpt><trkpt lat="43.66128880155961" lon="3.665392574507285"><ele>239.0</ele><time>2026-04-28T10:26:33.971Z</time></trkpt><trkpt lat="43.6612302861725" lon="3.6653484336832407"><ele>239.0</ele><time>2026-04-28T10:26:35.971Z</time></trkpt><trkpt lat="43.66114010257957" lon="3.665330631983837"><ele>239.00000000000003</ele><time>2026-04-28T10:26:38.971Z</time></trkpt><trkpt lat="43.661068584589394" lon="3.6652998363023754"><ele>239.0</ele><time>2026-04-28T10:26:40.971Z</time></trkpt><trkpt lat="43.66095859830202" lon="3.6652688259740964"><ele>238.33333333333334</ele><time>2026-04-28T10:26:42.971Z</time></trkpt><trkpt lat="43.660864617500664" lon="3.6652339214286265"><ele>237.66666666666669</ele><time>2026-04-28T10:26:44.971Z</time></trkpt><trkpt lat="43.66079153823696" lon="3.6652361834789717"><ele>237.0</ele><time>2026-04-28T10:26:46.971Z</time></trkpt><trkpt lat="43.6607263115253" lon="3.6652460571532237"><ele>236.33333333333331</ele><time>2026-04-28T10:26:48.971Z</time></trkpt><trkpt lat="43.66064693758237" lon="3.6652642254856374"><ele>235.66666666666666</ele><time>2026-04-28T10:26:50.971Z</time></trkpt><trkpt lat="43.66055694986496" lon="3.6652715513436025"><ele>235.0</ele><time>2026-04-28T10:26:52.971Z</time></trkpt><trkpt lat="43.66046515866595" lon="3.665291619200308"><ele>234.99999999999997</ele><time>2026-04-28T10:26:54.971Z</time></trkpt><trkpt lat="43.66039521746092" lon="3.665300580495944"><ele>235.0</ele><time>2026-04-28T10:26:55.971Z</time></trkpt><trkpt lat="43.66031355633042" lon="3.6653053804032907"><ele>235.0</ele><time>2026-04-28T10:26:57.971Z</time></trkpt><trkpt lat="43.66020417901324" lon="3.6652832264723156"><ele>235.0</ele><time>2026-04-28T10:26:59.971Z</time></trkpt><trkpt lat="43.66012793806334" lon="3.6652350321968084"><ele>234.99999999999997</ele><time>2026-04-28T10:27:01.973Z</time></trkpt><trkpt lat="43.6600394532418" lon="3.6651662765233572"><ele>235.0</ele><time>2026-04-28T10:27:03.972Z</time></trkpt><trkpt lat="43.65996305506532" lon="3.665125208302479"><ele>233.99999999999997</ele><time>2026-04-28T10:27:05.972Z</time></trkpt><trkpt lat="43.65988594210702" lon="3.6650798720745374"><ele>233.0</ele><time>2026-04-28T10:27:07.972Z</time></trkpt><trkpt lat="43.65978723101854" lon="3.6650090283179884"><ele>232.0</ele><time>2026-04-28T10:27:09.972Z</time></trkpt><trkpt lat="43.659724761996245" lon="3.664991152240923"><ele>231.0</ele><time>2026-04-28T10:27:10.972Z</time></trkpt><trkpt lat="43.65965627681509" lon="3.6649900477164232"><ele>229.99999999999997</ele><time>2026-04-28T10:27:12.972Z</time></trkpt><trkpt lat="43.65956611118686" lon="3.664961382233741"><ele>229.0</ele><time>2026-04-28T10:27:14.972Z</time></trkpt><trkpt lat="43.65949369093686" lon="3.664966410267186"><ele>229.0</ele><time>2026-04-28T10:27:17.972Z</time></trkpt><trkpt lat="43.659424701371634" lon="3.6649726971732233"><ele>229.0</ele><time>2026-04-28T10:27:20.972Z</time></trkpt><trkpt lat="43.65935443559551" lon="3.6649808063433587"><ele>229.0</ele><time>2026-04-28T10:27:23.972Z</time></trkpt><trkpt lat="43.6592914672423" lon="3.6649954330765886"><ele>229.0</ele><time>2026-04-28T10:27:26.972Z</time></trkpt><trkpt lat="43.65927151195765" lon="3.6650807240357826"><ele>229.0</ele><time>2026-04-28T10:27:30.972Z</time></trkpt><trkpt lat="43.65924427158628" lon="3.6651853016521967"><ele>229.0</ele><time>2026-04-28T10:27:33.972Z</time></trkpt><trkpt lat="43.65923418666147" lon="3.6652796522091937"><ele>229.0</ele><time>2026-04-28T10:27:36.972Z</time></trkpt><trkpt lat="43.65921006389186" lon="3.6653759449927845"><ele>228.99999999999997</ele><time>2026-04-28T10:27:39.972Z</time></trkpt><trkpt lat="43.6592073033476" lon="3.6654747217004147"><ele>229.0</ele><time>2026-04-28T10:27:43.972Z</time></trkpt><trkpt lat="43.65919659491336" lon="3.665584806168742"><ele>229.0</ele><time>2026-04-28T10:27:46.972Z</time></trkpt><trkpt lat="43.65917902163692" lon="3.6656964792744637"><ele>229.0</ele><time>2026-04-28T10:27:50.971Z</time></trkpt><trkpt lat="43.65915834854864" lon="3.6657956470007904"><ele>228.99999999999997</ele><time>2026-04-28T10:27:55.971Z</time></trkpt><trkpt lat="43.65918419575997" lon="3.6658848427988358"><ele>229.0</ele><time>2026-04-28T10:28:00.971Z</time></trkpt><trkpt lat="43.65920792222285" lon="3.6659967438091003"><ele>229.0</ele><time>2026-04-28T10:28:04.971Z</time></trkpt><trkpt lat="43.65923180860924" lon="3.6660960952982613"><ele>229.0</ele><time>2026-04-28T10:28:08.971Z</time></trkpt><trkpt lat="43.65925147353378" lon="3.6662053894911337"><ele>229.0</ele><time>2026-04-28T10:28:11.971Z</time></trkpt><trkpt lat="43.6592719272874" lon="3.66629556602548"><ele>229.0</ele><time>2026-04-28T10:28:14.971Z</time></trkpt><trkpt lat="43.659303043285284" lon="3.666394053468507"><ele>229.0</ele><time>2026-04-28T10:28:18.971Z</time></trkpt><trkpt lat="43.65932639343389" lon="3.666487015321568"><ele>229.0</ele><time>2026-04-28T10:28:23.971Z</time></trkpt><trkpt lat="43.65935159621474" lon="3.666569176742781"><ele>229.0</ele><time>2026-04-28T10:28:30.971Z</time></trkpt><trkpt lat="43.65937930687145" lon="3.666649116010023"><ele>229.33333333333331</ele><time>2026-04-28T10:28:39.971Z</time></trkpt><trkpt lat="43.659420958377346" lon="3.6667258249658374"><ele>229.66666666666666</ele><time>2026-04-28T10:28:49.971Z</time></trkpt><trkpt lat="43.659474594941074" lon="3.6668034902426725"><ele>230.0</ele><time>2026-04-28T10:28:58.971Z</time></trkpt><trkpt lat="43.65954377270713" lon="3.6668381578294866"><ele>230.33333333333331</ele><time>2026-04-28T10:29:04.973Z</time></trkpt><trkpt lat="43.65961962271366" lon="3.6668861481825807"><ele>230.66666666666666</ele><time>2026-04-28T10:29:08.972Z</time></trkpt><trkpt lat="43.6596691703248" lon="3.666976860520861"><ele>231.0</ele><time>2026-04-28T10:29:12.972Z</time></trkpt><trkpt lat="43.65971277494381" lon="3.6670455603099663"><ele>231.66666666666666</ele><time>2026-04-28T10:29:15.973Z</time></trkpt><trkpt lat="43.65974272591512" lon="3.667148606003951"><ele>232.33333333333331</ele><time>2026-04-28T10:29:18.973Z</time></trkpt><trkpt lat="43.659774406013824" lon="3.667228179613968"><ele>233.0</ele><time>2026-04-28T10:29:21.973Z</time></trkpt><trkpt lat="43.65979211625274" lon="3.667352285901033"><ele>233.66666666666666</ele><time>2026-04-28T10:29:25.973Z</time></trkpt><trkpt lat="43.65981733751566" lon="3.667463146449587"><ele>234.33333333333331</ele><time>2026-04-28T10:29:28.973Z</time></trkpt><trkpt lat="43.65982905678425" lon="3.667556191805786"><ele>235.0</ele><time>2026-04-28T10:29:31.973Z</time></trkpt><trkpt lat="43.659851641387" lon="3.6676606404405043"><ele>234.99999999999997</ele><time>2026-04-28T10:29:34.973Z</time></trkpt><trkpt lat="43.659869549963375" lon="3.667765773608139"><ele>235.0</ele><time>2026-04-28T10:29:37.973Z</time></trkpt><trkpt lat="43.65988875694614" lon="3.6678870254363014"><ele>235.0</ele><time>2026-04-28T10:29:41.973Z</time></trkpt><trkpt lat="43.65991089908656" lon="3.6679836209617127"><ele>235.0</ele><time>2026-04-28T10:29:45.973Z</time></trkpt><trkpt lat="43.659933227056165" lon="3.6680881910187684"><ele>234.99999999999997</ele><time>2026-04-28T10:29:49.973Z</time></trkpt><trkpt lat="43.65994062407618" lon="3.668180670437137"><ele>235.0</ele><time>2026-04-28T10:29:53.973Z</time></trkpt><trkpt lat="43.65997377741141" lon="3.6682782205105715"><ele>235.66666666666666</ele><time>2026-04-28T10:29:57.973Z</time></trkpt><trkpt lat="43.659995041564166" lon="3.668368846085"><ele>236.33333333333331</ele><time>2026-04-28T10:30:00.973Z</time></trkpt><trkpt lat="43.65999428555745" lon="3.6684666836549162"><ele>237.0</ele><time>2026-04-28T10:30:03.973Z</time></trkpt><trkpt lat="43.66000854080123" lon="3.668570588069219"><ele>237.66666666666669</ele><time>2026-04-28T10:30:07.973Z</time></trkpt><trkpt lat="43.66004170851711" lon="3.6686913612475904"><ele>238.33333333333334</ele><time>2026-04-28T10:30:11.973Z</time></trkpt><trkpt lat="43.66006854765074" lon="3.6687871639927763"><ele>239.0</ele><time>2026-04-28T10:30:15.973Z</time></trkpt><trkpt lat="43.66008924106687" lon="3.6688801935692874"><ele>239.50000000000003</ele><time>2026-04-28T10:30:19.973Z</time></trkpt><trkpt lat="43.66011339873866" lon="3.6689962219627503"><ele>240.0</ele><time>2026-04-28T10:30:23.973Z</time></trkpt><trkpt lat="43.66014352563011" lon="3.669088397823294"><ele>240.5</ele><time>2026-04-28T10:30:27.973Z</time></trkpt><trkpt lat="43.66016923934343" lon="3.6692054343937874"><ele>241.0</ele><time>2026-04-28T10:30:31.973Z</time></trkpt><trkpt lat="43.66019305683063" lon="3.6692946804462396"><ele>241.50000000000003</ele><time>2026-04-28T10:30:35.973Z</time></trkpt><trkpt lat="43.66022756867957" lon="3.6693697743039184"><ele>242.0</ele><time>2026-04-28T10:30:39.973Z</time></trkpt><trkpt lat="43.660301711368085" lon="3.669596550158251"><ele>242.42857142857142</ele><time>2026-04-28T10:31:05.973Z</time></trkpt><trkpt lat="43.66031905590667" lon="3.669694967350433"><ele>242.85714285714283</ele><time>2026-04-28T10:31:10.973Z</time></trkpt><trkpt lat="43.66032378438953" lon="3.6697997785424543"><ele>243.28571428571428</ele><time>2026-04-28T10:31:15.973Z</time></trkpt><trkpt lat="43.66030692381881" lon="3.6698925785140823"><ele>243.71428571428572</ele><time>2026-04-28T10:31:19.974Z</time></trkpt><trkpt lat="43.6602853048604" lon="3.6699785557488775"><ele>244.14285714285714</ele><time>2026-04-28T10:31:22.974Z</time></trkpt><trkpt lat="43.660275495052844" lon="3.6700645382986474"><ele>244.57142857142856</ele><time>2026-04-28T10:31:25.973Z</time></trkpt><trkpt lat="43.660253557011295" lon="3.6701714807001093"><ele>245.0</ele><time>2026-04-28T10:31:29.973Z</time></trkpt><trkpt lat="43.66024064352725" lon="3.670279472837428"><ele>245.0</ele><time>2026-04-28T10:31:32.973Z</time></trkpt><trkpt lat="43.660234226594234" lon="3.670368933992285"><ele>245.0</ele><time>2026-04-28T10:31:36.973Z</time></trkpt><trkpt lat="43.66021857542443" lon="3.6704635215513375"><ele>245.0</ele><time>2026-04-28T10:31:39.973Z</time></trkpt><trkpt lat="43.66021060507452" lon="3.6705578356641895"><ele>245.0</ele><time>2026-04-28T10:31:43.973Z</time></trkpt><trkpt lat="43.66020466325308" lon="3.6706464193280253"><ele>245.0</ele><time>2026-04-28T10:31:46.973Z</time></trkpt><trkpt lat="43.66019492599832" lon="3.6707463680808594"><ele>245.0</ele><time>2026-04-28T10:31:49.973Z</time></trkpt><trkpt lat="43.660188279625096" lon="3.670864067430852"><ele>245.0</ele><time>2026-04-28T10:31:53.973Z</time></trkpt><trkpt lat="43.660170219279834" lon="3.6709770703212277"><ele>245.00000000000003</ele><time>2026-04-28T10:31:57.973Z</time></trkpt><trkpt lat="43.66016563253114" lon="3.6710766644098145"><ele>245.0</ele><time>2026-04-28T10:32:01.973Z</time></trkpt><trkpt lat="43.660152446591475" lon="3.671183708436348"><ele>245.0</ele><time>2026-04-28T10:32:05.973Z</time></trkpt><trkpt lat="43.66013953389375" lon="3.671299228360178"><ele>245.0</ele><time>2026-04-28T10:32:09.973Z</time></trkpt><trkpt lat="43.66012723430509" lon="3.671395416114747"><ele>245.00000000000003</ele><time>2026-04-28T10:32:13.973Z</time></trkpt><trkpt lat="43.66011378860572" lon="3.671492126077001"><ele>245.0</ele><time>2026-04-28T10:32:16.973Z</time></trkpt><trkpt lat="43.66010934719086" lon="3.671609066238387"><ele>245.28571428571428</ele><time>2026-04-28T10:32:19.973Z</time></trkpt><trkpt lat="43.66008197470913" lon="3.671688414558356"><ele>245.57142857142856</ele><time>2026-04-28T10:32:22.973Z</time></trkpt><trkpt lat="43.66007396837918" lon="3.671781357365576"><ele>245.85714285714286</ele><time>2026-04-28T10:32:25.973Z</time></trkpt><trkpt lat="43.660070361406824" lon="3.6718943079054913"><ele>246.14285714285714</ele><time>2026-04-28T10:32:28.973Z</time></trkpt><trkpt lat="43.66006258443139" lon="3.672005680944944"><ele>246.42857142857142</ele><time>2026-04-28T10:32:31.973Z</time></trkpt><trkpt lat="43.66002840787539" lon="3.672090823480604"><ele>246.71428571428572</ele><time>2026-04-28T10:32:33.973Z</time></trkpt><trkpt lat="43.65997921449052" lon="3.6721557896402897"><ele>247.0</ele><time>2026-04-28T10:32:36.973Z</time></trkpt><trkpt lat="43.65995381219746" lon="3.6722403681657987"><ele>247.33333333333331</ele><time>2026-04-28T10:32:42.973Z</time></trkpt><trkpt lat="43.65991689141973" lon="3.672332527143414"><ele>247.66666666666666</ele><time>2026-04-28T10:32:48.973Z</time></trkpt><trkpt lat="43.659885673984874" lon="3.6724118829586696"><ele>248.0</ele><time>2026-04-28T10:32:57.973Z</time></trkpt><trkpt lat="43.65985901841158" lon="3.6725150182946207"><ele>248.33333333333331</ele><time>2026-04-28T10:33:00.973Z</time></trkpt><trkpt lat="43.65979668033261" lon="3.6725964320958746"><ele>248.66666666666666</ele><time>2026-04-28T10:33:03.973Z</time></trkpt><trkpt lat="43.6597665548199" lon="3.672683528214442"><ele>249.0</ele><time>2026-04-28T10:33:06.973Z</time></trkpt><trkpt lat="43.659712220707895" lon="3.6727554811365573"><ele>249.83333333333334</ele><time>2026-04-28T10:33:09.973Z</time></trkpt><trkpt lat="43.65966149300382" lon="3.6728524714142843"><ele>250.66666666666669</ele><time>2026-04-28T10:33:13.973Z</time></trkpt><trkpt lat="43.65960473563596" lon="3.6729265672102662"><ele>251.5</ele><time>2026-04-28T10:33:16.974Z</time></trkpt><trkpt lat="43.65955418950239" lon="3.6730112517344837"><ele>252.33333333333334</ele><time>2026-04-28T10:33:21.974Z</time></trkpt><trkpt lat="43.659480162167995" lon="3.673049623980947"><ele>253.16666666666669</ele><time>2026-04-28T10:33:24.974Z</time></trkpt><trkpt lat="43.65941501392166" lon="3.673104239206118"><ele>254.0</ele><time>2026-04-28T10:33:27.974Z</time></trkpt><trkpt lat="43.65933499279386" lon="3.6731227918598592"><ele>255.83333333333334</ele><time>2026-04-28T10:33:30.974Z</time></trkpt><trkpt lat="43.659249146451614" lon="3.673133037478308"><ele>257.6666666666667</ele><time>2026-04-28T10:33:33.974Z</time></trkpt><trkpt lat="43.6591708439747" lon="3.6731240611500113"><ele>259.5</ele><time>2026-04-28T10:33:36.974Z</time></trkpt><trkpt lat="43.65910052876406" lon="3.673140843284326"><ele>261.3333333333333</ele><time>2026-04-28T10:33:38.974Z</time></trkpt><trkpt lat="43.659014036650454" lon="3.6731710435811826"><ele>263.16666666666663</ele><time>2026-04-28T10:33:41.974Z</time></trkpt><trkpt lat="43.658947179248514" lon="3.6731939583713773"><ele>265.0</ele><time>2026-04-28T10:33:44.974Z</time></trkpt><trkpt lat="43.658859867872025" lon="3.6732346254732375"><ele>265.0</ele><time>2026-04-28T10:33:47.974Z</time></trkpt><trkpt lat="43.658770306100266" lon="3.6732409721418255"><ele>265.0</ele><time>2026-04-28T10:33:50.974Z</time></trkpt><trkpt lat="43.658700302994816" lon="3.6732406265961206"><ele>265.0</ele><time>2026-04-28T10:33:52.974Z</time></trkpt><trkpt lat="43.65862700166026" lon="3.673275950260192"><ele>265.0</ele><time>2026-04-28T10:33:55.974Z</time></trkpt><trkpt lat="43.658590305090186" lon="3.6733575736200303"><ele>265.0</ele><time>2026-04-28T10:33:58.974Z</time></trkpt><trkpt lat="43.658483864010144" lon="3.6734465504684204"><ele>265.0</ele><time>2026-04-28T10:36:15.973Z</time></trkpt><trkpt lat="43.65842041016431" lon="3.6734867727627467"><ele>265.2857142857143</ele><time>2026-04-28T10:36:57.973Z</time></trkpt><trkpt lat="43.65834475638582" lon="3.67347977415952"><ele>265.57142857142856</ele><time>2026-04-28T10:37:03.973Z</time></trkpt><trkpt lat="43.65826440786254" lon="3.673478824509333"><ele>265.8571428571429</ele><time>2026-04-28T10:37:08.973Z</time></trkpt><trkpt lat="43.65819903550299" lon="3.6734886727159184"><ele>266.1428571428571</ele><time>2026-04-28T10:37:11.973Z</time></trkpt><trkpt lat="43.65812365735097" lon="3.6734915987331074"><ele>266.42857142857144</ele><time>2026-04-28T10:37:14.973Z</time></trkpt><trkpt lat="43.658055396613825" lon="3.67344954281349"><ele>266.7142857142857</ele><time>2026-04-28T10:37:16.973Z</time></trkpt><trkpt lat="43.65798945077593" lon="3.673468889037992"><ele>267.0</ele><time>2026-04-28T10:37:18.973Z</time></trkpt><trkpt lat="43.65790636374049" lon="3.673463999937872"><ele>267.0</ele><time>2026-04-28T10:37:21.973Z</time></trkpt><trkpt lat="43.65783182628009" lon="3.6734404265286953"><ele>267.0</ele><time>2026-04-28T10:37:24.973Z</time></trkpt><trkpt lat="43.65775385844622" lon="3.673413809224371"><ele>267.0</ele><time>2026-04-28T10:37:27.973Z</time></trkpt><trkpt lat="43.657683088304964" lon="3.6733747598014324"><ele>267.0</ele><time>2026-04-28T10:37:31.975Z</time></trkpt><trkpt lat="43.65761283966811" lon="3.6733586936325664"><ele>267.0</ele><time>2026-04-28T10:37:33.975Z</time></trkpt><trkpt lat="43.65754140102877" lon="3.6732996829554816"><ele>267.0</ele><time>2026-04-28T10:37:37.975Z</time></trkpt><trkpt lat="43.65744737605853" lon="3.673289277383979"><ele>265.8333333333333</ele><time>2026-04-28T10:37:39.975Z</time></trkpt><trkpt lat="43.65736886458411" lon="3.6733033851671606"><ele>264.6666666666667</ele><time>2026-04-28T10:37:41.975Z</time></trkpt><trkpt lat="43.65729341283686" lon="3.673322537499361"><ele>263.5</ele><time>2026-04-28T10:37:43.975Z</time></trkpt><trkpt lat="43.6572263325305" lon="3.6733107935053892"><ele>262.33333333333337</ele><time>2026-04-28T10:37:44.975Z</time></trkpt><trkpt lat="43.65715691099424" lon="3.6732103113103762"><ele>261.1666666666667</ele><time>2026-04-28T10:37:47.975Z</time></trkpt><trkpt lat="43.6571000685515" lon="3.6731618655780336"><ele>260.0</ele><time>2026-04-28T10:37:49.975Z</time></trkpt><trkpt lat="43.65705068617356" lon="3.6730797327537252"><ele>260.0</ele><time>2026-04-28T10:37:51.975Z</time></trkpt><trkpt lat="43.65700288846546" lon="3.6730217651186625"><ele>260.0</ele><time>2026-04-28T10:37:53.975Z</time></trkpt><trkpt lat="43.6569450746181" lon="3.672954663734854"><ele>260.0</ele><time>2026-04-28T10:37:55.975Z</time></trkpt><trkpt lat="43.65687338021373" lon="3.6728541421785796"><ele>260.0</ele><time>2026-04-28T10:37:58.975Z</time></trkpt><trkpt lat="43.6568312021544" lon="3.6727789127296537"><ele>260.0</ele><time>2026-04-28T10:38:00.975Z</time></trkpt><trkpt lat="43.656776106850295" lon="3.672695728559516"><ele>260.0</ele><time>2026-04-28T10:38:03.975Z</time></trkpt><trkpt lat="43.656699021832566" lon="3.672610088285726"><ele>258.33333333333337</ele><time>2026-04-28T10:38:05.975Z</time></trkpt><trkpt lat="43.656642496843496" lon="3.672526323730175"><ele>256.6666666666667</ele><time>2026-04-28T10:38:08.975Z</time></trkpt><trkpt lat="43.65638973434196" lon="3.672185463887249"><ele>255.0</ele><time>2026-04-28T10:38:10.974Z</time></trkpt><trkpt lat="43.656328524855354" lon="3.672124834264536"><ele>255.0</ele><time>2026-04-28T10:38:12.974Z</time></trkpt><trkpt lat="43.656267686424805" lon="3.6720619072228873"><ele>255.00000000000003</ele><time>2026-04-28T10:38:14.974Z</time></trkpt><trkpt lat="43.65620675510722" lon="3.6720148788812055"><ele>255.0</ele><time>2026-04-28T10:38:16.974Z</time></trkpt><trkpt lat="43.65614196821098" lon="3.6719620883427204"><ele>255.0</ele><time>2026-04-28T10:38:18.974Z</time></trkpt><trkpt lat="43.65608051951493" lon="3.671925732422891"><ele>255.00000000000003</ele><time>2026-04-28T10:38:20.974Z</time></trkpt><trkpt lat="43.65601716212392" lon="3.6718897979565126"><ele>255.0</ele><time>2026-04-28T10:38:22.974Z</time></trkpt><trkpt lat="43.65593486435021" lon="3.6718470111589454"><ele>255.0</ele><time>2026-04-28T10:38:25.974Z</time></trkpt><trkpt lat="43.65585333641842" lon="3.6717938483794454"><ele>254.16666666666666</ele><time>2026-04-28T10:38:27.974Z</time></trkpt><trkpt lat="43.655778710496655" lon="3.671732850513749"><ele>253.33333333333331</ele><time>2026-04-28T10:38:30.974Z</time></trkpt><trkpt lat="43.65571321317728" lon="3.6717206760394685"><ele>252.5</ele><time>2026-04-28T10:38:37.974Z</time></trkpt><trkpt lat="43.65563838674174" lon="3.6716794681836284"><ele>251.66666666666666</ele><time>2026-04-28T10:38:40.974Z</time></trkpt><trkpt lat="43.65556830530541" lon="3.671628109138227"><ele>250.83333333333331</ele><time>2026-04-28T10:38:43.974Z</time></trkpt><trkpt lat="43.65549370383036" lon="3.671583871152925"><ele>250.0</ele><time>2026-04-28T10:38:46.974Z</time></trkpt><trkpt lat="43.655416836630295" lon="3.6715437549664527"><ele>249.99999999999997</ele><time>2026-04-28T10:38:48.974Z</time></trkpt><trkpt lat="43.65534866854268" lon="3.6715149259414144"><ele>250.0</ele><time>2026-04-28T10:38:50.974Z</time></trkpt><trkpt lat="43.6552614463472" lon="3.671477088848507"><ele>250.0</ele><time>2026-04-28T10:38:53.974Z</time></trkpt><trkpt lat="43.65519814396662" lon="3.6714439489399218"><ele>250.0</ele><time>2026-04-28T10:38:56.974Z</time></trkpt><trkpt lat="43.65510497592977" lon="3.671427137695403"><ele>249.99999999999997</ele><time>2026-04-28T10:38:59.974Z</time></trkpt><trkpt lat="43.65503918995518" lon="3.671436182084719"><ele>250.0</ele><time>2026-04-28T10:39:01.974Z</time></trkpt><trkpt lat="43.65496042562618" lon="3.6714756596396576"><ele>250.33333333333331</ele><time>2026-04-28T10:39:04.974Z</time></trkpt><trkpt lat="43.6548917362127" lon="3.671523826308368"><ele>250.66666666666666</ele><time>2026-04-28T10:39:07.974Z</time></trkpt><trkpt lat="43.65483537485391" lon="3.6715640104162675"><ele>251.0</ele><time>2026-04-28T10:39:09.974Z</time></trkpt><trkpt lat="43.65476663134107" lon="3.6716323314058603"><ele>251.33333333333331</ele><time>2026-04-28T10:39:12.974Z</time></trkpt><trkpt lat="43.654693702395335" lon="3.6717157848521387"><ele>251.66666666666666</ele><time>2026-04-28T10:39:15.974Z</time></trkpt><trkpt lat="43.65463493264969" lon="3.671792233029345"><ele>252.0</ele><time>2026-04-28T10:39:18.974Z</time></trkpt><trkpt lat="43.654567843626594" lon="3.6718574110253765"><ele>252.0</ele><time>2026-04-28T10:39:21.974Z</time></trkpt><trkpt lat="43.65448749713154" lon="3.6718925700974294"><ele>252.0</ele><time>2026-04-28T10:39:24.974Z</time></trkpt><trkpt lat="43.654417561619766" lon="3.671964726926872"><ele>252.0</ele><time>2026-04-28T10:39:27.974Z</time></trkpt><trkpt lat="43.65436647364214" lon="3.6720441491242073"><ele>252.0</ele><time>2026-04-28T10:39:30.974Z</time></trkpt><trkpt lat="43.654337146201804" lon="3.6721302123106003"><ele>252.0</ele><time>2026-04-28T10:39:33.974Z</time></trkpt><trkpt lat="43.65431629495173" lon="3.6722147993854617"><ele>252.0</ele><time>2026-04-28T10:39:36.975Z</time></trkpt><trkpt lat="43.654287946496254" lon="3.6723124406706034"><ele>252.33333333333334</ele><time>2026-04-28T10:39:41.976Z</time></trkpt><trkpt lat="43.65427724687942" lon="3.672399171452711"><ele>252.66666666666669</ele><time>2026-04-28T10:39:45.976Z</time></trkpt><trkpt lat="43.65424554431147" lon="3.6724873129981246"><ele>253.0</ele><time>2026-04-28T10:39:48.976Z</time></trkpt><trkpt lat="43.654234642893364" lon="3.672603611567667"><ele>253.33333333333334</ele><time>2026-04-28T10:39:51.976Z</time></trkpt><trkpt lat="43.6542000164347" lon="3.6727174742393216"><ele>253.66666666666669</ele><time>2026-04-28T10:39:54.976Z</time></trkpt><trkpt lat="43.65416529969166" lon="3.6728379520862315"><ele>254.0</ele><time>2026-04-28T10:39:57.976Z</time></trkpt><trkpt lat="43.65414555690399" lon="3.6729407259511464"><ele>254.16666666666669</ele><time>2026-04-28T10:39:59.976Z</time></trkpt><trkpt lat="43.65411244169565" lon="3.673067279105358"><ele>254.33333333333334</ele><time>2026-04-28T10:40:01.976Z</time></trkpt><trkpt lat="43.654089381921274" lon="3.673176578514186"><ele>254.5</ele><time>2026-04-28T10:40:03.976Z</time></trkpt><trkpt lat="43.654064510622675" lon="3.673297272082873"><ele>254.66666666666669</ele><time>2026-04-28T10:40:05.976Z</time></trkpt><trkpt lat="43.654051015334275" lon="3.6733984528510604"><ele>254.83333333333334</ele><time>2026-04-28T10:40:07.976Z</time></trkpt><trkpt lat="43.65402339008185" lon="3.6735286044422444"><ele>255.0</ele><time>2026-04-28T10:40:09.976Z</time></trkpt><trkpt lat="43.65398833753921" lon="3.6736657822942904"><ele>255.4</ele><time>2026-04-28T10:40:11.976Z</time></trkpt><trkpt lat="43.65396326348616" lon="3.673758063712917"><ele>255.8</ele><time>2026-04-28T10:40:13.975Z</time></trkpt><trkpt lat="43.65391929910995" lon="3.673892133812992"><ele>256.2</ele><time>2026-04-28T10:40:15.975Z</time></trkpt><trkpt lat="43.653866443498536" lon="3.6740478015893365"><ele>256.6</ele><time>2026-04-28T10:40:17.975Z</time></trkpt><trkpt lat="43.653828047278004" lon="3.674157622119217"><ele>257.0</ele><time>2026-04-28T10:40:19.975Z</time></trkpt><trkpt lat="43.65379375060877" lon="3.674316375394144"><ele>257.4</ele><time>2026-04-28T10:40:21.975Z</time></trkpt><trkpt lat="43.65375798934656" lon="3.6744450370023065"><ele>257.79999999999995</ele><time>2026-04-28T10:40:23.975Z</time></trkpt><trkpt lat="43.6537094609737" lon="3.6745653635436493"><ele>258.2</ele><time>2026-04-28T10:40:25.975Z</time></trkpt><trkpt lat="43.653686457077214" lon="3.6746737060305636"><ele>258.59999999999997</ele><time>2026-04-28T10:40:27.975Z</time></trkpt><trkpt lat="43.653657439904585" lon="3.6748137279498825"><ele>259.0</ele><time>2026-04-28T10:40:29.975Z</time></trkpt><trkpt lat="43.65364547087875" lon="3.6749011032488617"><ele>259.0</ele><time>2026-04-28T10:40:30.975Z</time></trkpt><trkpt lat="43.65362898745389" lon="3.6750679189041757"><ele>259.0</ele><time>2026-04-28T10:40:32.975Z</time></trkpt><trkpt lat="43.653630866675385" lon="3.675163524809674"><ele>259.0</ele><time>2026-04-28T10:40:33.975Z</time></trkpt><trkpt lat="43.65361656053332" lon="3.675301435951921"><ele>259.0</ele><time>2026-04-28T10:40:35.975Z</time></trkpt><trkpt lat="43.653618450735706" lon="3.675462944135863"><ele>259.0</ele><time>2026-04-28T10:40:37.975Z</time></trkpt><trkpt lat="43.65360503813376" lon="3.6755910001340353"><ele>258.16666666666663</ele><time>2026-04-28T10:40:39.975Z</time></trkpt><trkpt lat="43.653601595238875" lon="3.675705644969629"><ele>257.3333333333333</ele><time>2026-04-28T10:40:41.975Z</time></trkpt><trkpt lat="43.65357482741574" lon="3.6758347608002233"><ele>256.5</ele><time>2026-04-28T10:40:43.975Z</time></trkpt><trkpt lat="43.653551501492814" lon="3.6759220958808068"><ele>255.66666666666669</ele><time>2026-04-28T10:40:44.975Z</time></trkpt><trkpt lat="43.65354564371004" lon="3.676009843089432"><ele>254.83333333333334</ele><time>2026-04-28T10:40:45.975Z</time></trkpt><trkpt lat="43.65353153925697" lon="3.6761232018243586"><ele>254.0</ele><time>2026-04-28T10:40:47.975Z</time></trkpt><trkpt lat="43.653546619870475" lon="3.676215405005598"><ele>254.00000000000003</ele><time>2026-04-28T10:40:51.975Z</time></trkpt><trkpt lat="43.65354094239841" lon="3.676307939183654"><ele>254.0</ele><time>2026-04-28T10:40:56.975Z</time></trkpt><trkpt lat="43.65350332245889" lon="3.6763820791754123"><ele>254.0</ele><time>2026-04-28T10:41:07.975Z</time></trkpt><trkpt lat="43.65344597657861" lon="3.6764213669088357"><ele>254.0</ele><time>2026-04-28T10:41:10.975Z</time></trkpt><trkpt lat="43.65337290065138" lon="3.676401514896624"><ele>254.00000000000003</ele><time>2026-04-28T10:41:13.975Z</time></trkpt><trkpt lat="43.653304705508035" lon="3.6763131756142102"><ele>254.0</ele><time>2026-04-28T10:41:15.975Z</time></trkpt><trkpt lat="43.65325071762004" lon="3.676220622538033"><ele>254.00000000000003</ele><time>2026-04-28T10:41:17.975Z</time></trkpt><trkpt lat="43.65323583415265" lon="3.676121467024679"><ele>254.0</ele><time>2026-04-28T10:41:19.975Z</time></trkpt><trkpt lat="43.65318992101187" lon="3.6760494193714037"><ele>254.0</ele><time>2026-04-28T10:41:21.975Z</time></trkpt><trkpt lat="43.65313444821693" lon="3.6759464087600673"><ele>254.0</ele><time>2026-04-28T10:41:24.975Z</time></trkpt><trkpt lat="43.65308919233107" lon="3.6758784242589444"><ele>254.00000000000003</ele><time>2026-04-28T10:41:25.975Z</time></trkpt><trkpt lat="43.65301026275516" lon="3.67576972333093"><ele>254.0</ele><time>2026-04-28T10:41:27.975Z</time></trkpt><trkpt lat="43.65297700751639" lon="3.67565537216686"><ele>253.0</ele><time>2026-04-28T10:41:29.975Z</time></trkpt><trkpt lat="43.65290017878605" lon="3.6754812779847628"><ele>251.99999999999997</ele><time>2026-04-28T10:41:31.975Z</time></trkpt><trkpt lat="43.65284942849167" lon="3.675399175520112"><ele>250.99999999999997</ele><time>2026-04-28T10:41:32.975Z</time></trkpt><trkpt lat="43.652762045376065" lon="3.6752670940703367"><ele>250.0</ele><time>2026-04-28T10:41:34.975Z</time></trkpt><trkpt lat="43.65272691845756" lon="3.675189511910979"><ele>249.0</ele><time>2026-04-28T10:41:35.975Z</time></trkpt><trkpt lat="43.652683911925166" lon="3.6751085442947646"><ele>247.79999999999998</ele><time>2026-04-28T10:41:36.975Z</time></trkpt><trkpt lat="43.65259336103708" lon="3.6749720362116443"><ele>246.59999999999997</ele><time>2026-04-28T10:41:38.975Z</time></trkpt><trkpt lat="43.652512165981506" lon="3.6748291941782933"><ele>245.4</ele><time>2026-04-28T10:41:40.976Z</time></trkpt><trkpt lat="43.652459934925005" lon="3.67473447954168"><ele>244.2</ele><time>2026-04-28T10:41:41.976Z</time></trkpt><trkpt lat="43.6524055897114" lon="3.674649447567295"><ele>243.0</ele><time>2026-04-28T10:41:42.976Z</time></trkpt><trkpt lat="43.65237665280987" lon="3.674542228362849"><ele>243.0</ele><time>2026-04-28T10:41:43.976Z</time></trkpt><trkpt lat="43.65234173898634" lon="3.6744638047012135"><ele>243.0</ele><time>2026-04-28T10:41:44.976Z</time></trkpt><trkpt lat="43.652302001917135" lon="3.674362882908572"><ele>243.0</ele><time>2026-04-28T10:41:45.976Z</time></trkpt><trkpt lat="43.65227779734225" lon="3.6742745080472057"><ele>243.0</ele><time>2026-04-28T10:41:46.977Z</time></trkpt><trkpt lat="43.65226374704711" lon="3.674182686302853"><ele>243.0</ele><time>2026-04-28T10:41:47.977Z</time></trkpt><trkpt lat="43.652236681256966" lon="3.674061980499242"><ele>243.0</ele><time>2026-04-28T10:41:48.977Z</time></trkpt><trkpt lat="43.65220440594656" lon="3.673945147790644"><ele>243.0</ele><time>2026-04-28T10:41:49.976Z</time></trkpt><trkpt lat="43.652159316050074" lon="3.6738422080200346"><ele>243.0</ele><time>2026-04-28T10:41:50.976Z</time></trkpt><trkpt lat="43.65205608179322" lon="3.673714671458468"><ele>243.0</ele><time>2026-04-28T10:41:52.977Z</time></trkpt><trkpt lat="43.651976678296485" lon="3.673609741424415"><ele>243.0</ele><time>2026-04-28T10:41:54.977Z</time></trkpt><trkpt lat="43.651902505223546" lon="3.673616883062689"><ele>243.0</ele><time>2026-04-28T10:41:56.977Z</time></trkpt><trkpt lat="43.65186523452283" lon="3.673530751981"><ele>242.16666666666666</ele><time>2026-04-28T10:41:59.977Z</time></trkpt><trkpt lat="43.651816283295354" lon="3.673466940258177"><ele>241.33333333333331</ele><time>2026-04-28T10:42:02.977Z</time></trkpt><trkpt lat="43.65176710829988" lon="3.6733597740461956"><ele>240.5</ele><time>2026-04-28T10:42:05.977Z</time></trkpt><trkpt lat="43.651747113130476" lon="3.673258790725157"><ele>239.66666666666666</ele><time>2026-04-28T10:42:07.977Z</time></trkpt><trkpt lat="43.65171742140604" lon="3.673157184335277"><ele>238.83333333333331</ele><time>2026-04-28T10:42:09.976Z</time></trkpt><trkpt lat="43.65172343717053" lon="3.67305471730903"><ele>238.0</ele><time>2026-04-28T10:42:11.976Z</time></trkpt><trkpt lat="43.65173121021781" lon="3.6729651580781373"><ele>238.0</ele><time>2026-04-28T10:42:12.976Z</time></trkpt><trkpt lat="43.65174862294583" lon="3.672865625079575"><ele>238.0</ele><time>2026-04-28T10:42:13.976Z</time></trkpt><trkpt lat="43.651757329820676" lon="3.672724207400429"><ele>238.0</ele><time>2026-04-28T10:42:15.976Z</time></trkpt><trkpt lat="43.65178400479952" lon="3.672604440300747"><ele>238.0</ele><time>2026-04-28T10:42:17.976Z</time></trkpt><trkpt lat="43.65180755259554" lon="3.6725128011167696"><ele>238.0</ele><time>2026-04-28T10:42:18.976Z</time></trkpt><trkpt lat="43.651810454337785" lon="3.6723359054422113"><ele>237.42857142857144</ele><time>2026-04-28T10:42:20.976Z</time></trkpt><trkpt lat="43.65180593291569" lon="3.6722328359684973"><ele>236.85714285714286</ele><time>2026-04-28T10:42:21.976Z</time></trkpt><trkpt lat="43.65180633554775" lon="3.672135807758398"><ele>236.28571428571428</ele><time>2026-04-28T10:42:22.976Z</time></trkpt><trkpt lat="43.65178113117224" lon="3.6720473704046914"><ele>235.71428571428572</ele><time>2026-04-28T10:42:23.976Z</time></trkpt><trkpt lat="43.65175193363436" lon="3.671941759655852"><ele>235.14285714285717</ele><time>2026-04-28T10:42:24.976Z</time></trkpt><trkpt lat="43.65171175652348" lon="3.6718436422147116"><ele>234.57142857142858</ele><time>2026-04-28T10:42:25.976Z</time></trkpt><trkpt lat="43.651673786948926" lon="3.671773181046292"><ele>234.0</ele><time>2026-04-28T10:42:26.976Z</time></trkpt><trkpt lat="43.65163222023948" lon="3.6716927671995654"><ele>233.39999999999998</ele><time>2026-04-28T10:42:27.976Z</time></trkpt><trkpt lat="43.65158229134231" lon="3.6716156945458662"><ele>232.79999999999998</ele><time>2026-04-28T10:42:28.976Z</time></trkpt><trkpt lat="43.65154973409161" lon="3.6715382697235732"><ele>232.20000000000002</ele><time>2026-04-28T10:42:29.976Z</time></trkpt><trkpt lat="43.65149112739077" lon="3.6714153249327874"><ele>231.60000000000002</ele><time>2026-04-28T10:42:31.976Z</time></trkpt><trkpt lat="43.65143861653458" lon="3.6713211666342986"><ele>231.0</ele><time>2026-04-28T10:42:33.976Z</time></trkpt><trkpt lat="43.65134907474603" lon="3.6711871475091513"><ele>231.0</ele><time>2026-04-28T10:42:35.976Z</time></trkpt><trkpt lat="43.65130280895694" lon="3.671125247410514"><ele>231.0</ele><time>2026-04-28T10:42:36.976Z</time></trkpt><trkpt lat="43.65123947068466" lon="3.6710156651973005"><ele>231.0</ele><time>2026-04-28T10:42:38.976Z</time></trkpt><trkpt lat="43.6511917609632" lon="3.6709298152367964"><ele>231.0</ele><time>2026-04-28T10:42:39.976Z</time></trkpt><trkpt lat="43.65113608247453" lon="3.6708617333331564"><ele>231.0</ele><time>2026-04-28T10:42:40.976Z</time></trkpt><trkpt lat="43.6510590566948" lon="3.670771210408394"><ele>231.0</ele><time>2026-04-28T10:42:42.976Z</time></trkpt><trkpt lat="43.65100676107495" lon="3.6707140501025983"><ele>230.4</ele><time>2026-04-28T10:42:43.976Z</time></trkpt><trkpt lat="43.65096220694657" lon="3.6706321557993817"><ele>229.8</ele><time>2026-04-28T10:42:44.976Z</time></trkpt><trkpt lat="43.65089670854214" lon="3.670515443524439"><ele>229.20000000000002</ele><time>2026-04-28T10:42:46.976Z</time></trkpt><trkpt lat="43.65083722614162" lon="3.6704508256622783"><ele>228.60000000000002</ele><time>2026-04-28T10:42:47.976Z</time></trkpt><trkpt lat="43.650767954750506" lon="3.6703968158956406"><ele>228.0</ele><time>2026-04-28T10:42:48.976Z</time></trkpt><trkpt lat="43.650654442280015" lon="3.6703864163715028"><ele>228.0</ele><time>2026-04-28T10:42:50.976Z</time></trkpt><trkpt lat="43.65056422667211" lon="3.6704016531965284"><ele>228.0</ele><time>2026-04-28T10:42:52.976Z</time></trkpt><trkpt lat="43.65048759838304" lon="3.670420894131323"><ele>228.0</ele><time>2026-04-28T10:42:55.976Z</time></trkpt><trkpt lat="43.650422811653236" lon="3.670407292586304"><ele>228.0</ele><time>2026-04-28T10:42:57.976Z</time></trkpt><trkpt lat="43.65035048664761" lon="3.6703695012862325"><ele>228.0</ele><time>2026-04-28T10:43:00.976Z</time></trkpt><trkpt lat="43.65028660426126" lon="3.670352545954377"><ele>228.0</ele><time>2026-04-28T10:43:03.976Z</time></trkpt><trkpt lat="43.6502090496766" lon="3.6703378426364353"><ele>228.5</ele><time>2026-04-28T10:43:06.976Z</time></trkpt><trkpt lat="43.65013551583186" lon="3.6703301569664912"><ele>229.0</ele><time>2026-04-28T10:43:09.976Z</time></trkpt><trkpt lat="43.65006338195673" lon="3.670352417124714"><ele>229.5</ele><time>2026-04-28T10:43:12.976Z</time></trkpt><trkpt lat="43.64998069688396" lon="3.6703734753044004"><ele>230.0</ele><time>2026-04-28T10:43:15.976Z</time></trkpt><trkpt lat="43.6498958158507" lon="3.670411016218971"><ele>230.5</ele><time>2026-04-28T10:43:18.976Z</time></trkpt><trkpt lat="43.64982240258814" lon="3.670438996722405"><ele>231.0</ele><time>2026-04-28T10:43:20.976Z</time></trkpt><trkpt lat="43.64974354597511" lon="3.6704917870092557"><ele>231.0</ele><time>2026-04-28T10:43:23.976Z</time></trkpt><trkpt lat="43.64965716288643" lon="3.670521124731785"><ele>231.0</ele><time>2026-04-28T10:43:26.976Z</time></trkpt><trkpt lat="43.649592371205145" lon="3.670564803618741"><ele>231.0</ele><time>2026-04-28T10:43:29.976Z</time></trkpt><trkpt lat="43.64951844834572" lon="3.670631594543937"><ele>231.0</ele><time>2026-04-28T10:43:32.976Z</time></trkpt><trkpt lat="43.64944806851256" lon="3.6706805942117198"><ele>231.0</ele><time>2026-04-28T10:43:34.976Z</time></trkpt><trkpt lat="43.64938490475019" lon="3.670759705916534"><ele>231.0</ele><time>2026-04-28T10:43:37.976Z</time></trkpt><trkpt lat="43.64933719799777" lon="3.670829528850707"><ele>232.33333333333334</ele><time>2026-04-28T10:43:39.976Z</time></trkpt><trkpt lat="43.64928737098043" lon="3.670941204601213"><ele>233.66666666666669</ele><time>2026-04-28T10:43:42.976Z</time></trkpt><trkpt lat="43.649239034640225" lon="3.6710480571694952"><ele>235.0</ele><time>2026-04-28T10:43:45.976Z</time></trkpt><trkpt lat="43.64919524516522" lon="3.6711450604782963"><ele>236.33333333333334</ele><time>2026-04-28T10:43:48.977Z</time></trkpt><trkpt lat="43.64917457106203" lon="3.671262083405478"><ele>237.66666666666669</ele><time>2026-04-28T10:43:52.977Z</time></trkpt><trkpt lat="43.64913172087126" lon="3.6713508347479906"><ele>239.0</ele><time>2026-04-28T10:43:55.978Z</time></trkpt><trkpt lat="43.64907405002691" lon="3.671385973604634"><ele>239.66666666666669</ele><time>2026-04-28T10:43:57.977Z</time></trkpt><trkpt lat="43.64900690444032" lon="3.671405721901432"><ele>240.33333333333334</ele><time>2026-04-28T10:43:59.977Z</time></trkpt><trkpt lat="43.64894535898853" lon="3.671383305773225"><ele>241.0</ele><time>2026-04-28T10:44:01.977Z</time></trkpt><trkpt lat="43.64886220601306" lon="3.671422561440276"><ele>241.66666666666669</ele><time>2026-04-28T10:44:04.977Z</time></trkpt><trkpt lat="43.64874649093459" lon="3.671463013688043"><ele>242.33333333333334</ele><time>2026-04-28T10:44:07.977Z</time></trkpt><trkpt lat="43.648681768119374" lon="3.6714753241274205"><ele>243.0</ele><time>2026-04-28T10:44:09.977Z</time></trkpt><trkpt lat="43.64861065264144" lon="3.6714895554225357"><ele>243.28571428571428</ele><time>2026-04-28T10:44:12.977Z</time></trkpt><trkpt lat="43.64854594739976" lon="3.671510171987812"><ele>243.57142857142858</ele><time>2026-04-28T10:45:05.977Z</time></trkpt><trkpt lat="43.64847279504947" lon="3.6715323124274053"><ele>243.85714285714286</ele><time>2026-04-28T10:45:10.977Z</time></trkpt><trkpt lat="43.648408146635454" lon="3.6715779629056264"><ele>244.14285714285714</ele><time>2026-04-28T10:45:15.977Z</time></trkpt><trkpt lat="43.648348935314914" lon="3.671637195194708"><ele>244.42857142857144</ele><time>2026-04-28T10:45:18.977Z</time></trkpt><trkpt lat="43.64828756508097" lon="3.671684623506969"><ele>244.71428571428572</ele><time>2026-04-28T10:45:22.977Z</time></trkpt><trkpt lat="43.64821124826919" lon="3.671731517992499"><ele>245.0</ele><time>2026-04-28T10:45:26.977Z</time></trkpt><trkpt lat="43.64814129038337" lon="3.671769145173745"><ele>245.0</ele><time>2026-04-28T10:45:29.977Z</time></trkpt><trkpt lat="43.64805957311815" lon="3.671779954679639"><ele>245.0</ele><time>2026-04-28T10:45:31.977Z</time></trkpt><trkpt lat="43.647950602229265" lon="3.671785498369847"><ele>245.0</ele><time>2026-04-28T10:45:33.977Z</time></trkpt><trkpt lat="43.64784567560492" lon="3.671807208251579"><ele>245.0</ele><time>2026-04-28T10:45:35.977Z</time></trkpt><trkpt lat="43.64773476729049" lon="3.671815407747422"><ele>245.0</ele><time>2026-04-28T10:45:37.977Z</time></trkpt><trkpt lat="43.64767026748052" lon="3.671816459092717"><ele>244.33333333333334</ele><time>2026-04-28T10:45:38.977Z</time></trkpt><trkpt lat="43.64756300233213" lon="3.671833096788366"><ele>243.66666666666669</ele><time>2026-04-28T10:45:40.977Z</time></trkpt><trkpt lat="43.647499978136956" lon="3.6718405450842697"><ele>243.0</ele><time>2026-04-28T10:45:41.977Z</time></trkpt><trkpt lat="43.647430345062155" lon="3.671842998439858"><ele>242.33333333333331</ele><time>2026-04-28T10:45:42.977Z</time></trkpt><trkpt lat="43.64734132995695" lon="3.6718432092720694"><ele>241.66666666666666</ele><time>2026-04-28T10:45:44.976Z</time></trkpt><trkpt lat="43.647274361281895" lon="3.671877680789389"><ele>241.0</ele><time>2026-04-28T10:45:47.976Z</time></trkpt><trkpt lat="43.64721849796114" lon="3.6719499611949753"><ele>241.0</ele><time>2026-04-28T10:45:50.976Z</time></trkpt><trkpt lat="43.6471674002669" lon="3.6720450975634904"><ele>241.00000000000003</ele><time>2026-04-28T10:45:53.978Z</time></trkpt><trkpt lat="43.64711782822494" lon="3.6721047571528196"><ele>241.0</ele><time>2026-04-28T10:45:55.978Z</time></trkpt><trkpt lat="43.64707499091269" lon="3.6721928348689223"><ele>241.0</ele><time>2026-04-28T10:45:57.977Z</time></trkpt><trkpt lat="43.64703517061417" lon="3.6722692772024996"><ele>241.00000000000003</ele><time>2026-04-28T10:45:59.977Z</time></trkpt><trkpt lat="43.646994519383746" lon="3.672344253679986"><ele>241.0</ele><time>2026-04-28T10:46:01.978Z</time></trkpt><trkpt lat="43.64696099998275" lon="3.67243994190118"><ele>241.0</ele><time>2026-04-28T10:46:05.978Z</time></trkpt><trkpt lat="43.64693736699901" lon="3.6725293398527055"><ele>241.16666666666666</ele><time>2026-04-28T10:46:08.978Z</time></trkpt><trkpt lat="43.64691707423449" lon="3.6726173384307064"><ele>241.33333333333331</ele><time>2026-04-28T10:46:11.978Z</time></trkpt><trkpt lat="43.646889142331474" lon="3.6727098641315257"><ele>241.5</ele><time>2026-04-28T10:46:13.978Z</time></trkpt><trkpt lat="43.6468333496764" lon="3.6727948833131627"><ele>241.66666666666669</ele><time>2026-04-28T10:46:16.978Z</time></trkpt><trkpt lat="43.64678490120348" lon="3.6728574553827857"><ele>241.83333333333334</ele><time>2026-04-28T10:46:18.978Z</time></trkpt><trkpt lat="43.64674225432331" lon="3.672959210495483"><ele>242.0</ele><time>2026-04-28T10:46:20.978Z</time></trkpt><trkpt lat="43.64670598258255" lon="3.673061607039133"><ele>242.0</ele><time>2026-04-28T10:46:23.978Z</time></trkpt><trkpt lat="43.646692988490045" lon="3.673148101797028"><ele>241.99999999999997</ele><time>2026-04-28T10:46:26.978Z</time></trkpt><trkpt lat="43.64665814518253" lon="3.6732440772230204"><ele>242.0</ele><time>2026-04-28T10:46:30.978Z</time></trkpt><trkpt lat="43.64661649712284" lon="3.673315192923802"><ele>242.0</ele><time>2026-04-28T10:46:35.977Z</time></trkpt><trkpt lat="43.646573396074935" lon="3.6733866742518106"><ele>241.99999999999997</ele><time>2026-04-28T10:46:43.977Z</time></trkpt><trkpt lat="43.64650796410187" lon="3.6734839076156565"><ele>242.0</ele><time>2026-04-28T10:47:53.977Z</time></trkpt><trkpt lat="43.64654076362234" lon="3.6734065594782703"><ele>242.0</ele><time>2026-04-28T10:48:28.978Z</time></trkpt><trkpt lat="43.64657487738613" lon="3.673320157235392"><ele>242.0</ele><time>2026-04-28T10:48:34.978Z</time></trkpt><trkpt lat="43.64661577882315" lon="3.673388827167479"><ele>241.99999999999997</ele><time>2026-04-28T10:48:47.978Z</time></trkpt><trkpt lat="43.64662204720972" lon="3.6734822034523766"><ele>242.0</ele><time>2026-04-28T10:48:52.978Z</time></trkpt><trkpt lat="43.646602139440446" lon="3.6735679569227444"><ele>242.0</ele><time>2026-04-28T10:48:57.978Z</time></trkpt><trkpt lat="43.64656910278446" lon="3.6736647355171366"><ele>241.99999999999997</ele><time>2026-04-28T10:49:00.978Z</time></trkpt><trkpt lat="43.646557944374415" lon="3.673754976018235"><ele>242.0</ele><time>2026-04-28T10:49:04.978Z</time></trkpt><trkpt lat="43.64653868033168" lon="3.6738459658778635"><ele>242.0</ele><time>2026-04-28T10:49:08.978Z</time></trkpt><trkpt lat="43.64653633322893" lon="3.6739493965789074"><ele>242.42857142857142</ele><time>2026-04-28T10:49:12.978Z</time></trkpt><trkpt lat="43.646521286627056" lon="3.6740542451143097"><ele>242.85714285714283</ele><time>2026-04-28T10:49:16.978Z</time></trkpt><trkpt lat="43.64651103583566" lon="3.6741519369396087"><ele>243.28571428571428</ele><time>2026-04-28T10:49:19.978Z</time></trkpt><trkpt lat="43.64651114677629" lon="3.6742537491890475"><ele>243.71428571428572</ele><time>2026-04-28T10:49:22.978Z</time></trkpt><trkpt lat="43.64649656186057" lon="3.674360156091865"><ele>244.14285714285714</ele><time>2026-04-28T10:49:26.978Z</time></trkpt><trkpt lat="43.64651033213886" lon="3.674470805929441"><ele>244.57142857142856</ele><time>2026-04-28T10:49:30.978Z</time></trkpt><trkpt lat="43.64651413915385" lon="3.6745634041925777"><ele>245.0</ele><time>2026-04-28T10:49:34.977Z</time></trkpt><trkpt lat="43.64650225197289" lon="3.674653472998582"><ele>245.57142857142856</ele><time>2026-04-28T10:49:37.977Z</time></trkpt><trkpt lat="43.646504427958504" lon="3.674745232790916"><ele>246.14285714285714</ele><time>2026-04-28T10:49:40.977Z</time></trkpt><trkpt lat="43.646459731627374" lon="3.674846903000254"><ele>246.71428571428572</ele><time>2026-04-28T10:49:44.977Z</time></trkpt><trkpt lat="43.646420419816316" lon="3.674919748020102"><ele>247.28571428571428</ele><time>2026-04-28T10:49:48.977Z</time></trkpt><trkpt lat="43.64638305512721" lon="3.67502165443526"><ele>247.85714285714283</ele><time>2026-04-28T10:49:51.977Z</time></trkpt><trkpt lat="43.64633935088731" lon="3.675110112483135"><ele>248.42857142857142</ele><time>2026-04-28T10:49:54.977Z</time></trkpt><trkpt lat="43.64630122189541" lon="3.6751913982399356"><ele>249.0</ele><time>2026-04-28T10:49:57.977Z</time></trkpt><trkpt lat="43.646261909190365" lon="3.675278261836308"><ele>249.7142857142857</ele><time>2026-04-28T10:50:00.977Z</time></trkpt><trkpt lat="43.64622117280914" lon="3.6753646644010276"><ele>250.4285714285714</ele><time>2026-04-28T10:50:03.979Z</time></trkpt><trkpt lat="43.646193870803515" lon="3.6754556866929824"><ele>251.14285714285714</ele><time>2026-04-28T10:50:06.98Z</time></trkpt><trkpt lat="43.64616670068533" lon="3.6755376238417563"><ele>251.85714285714283</ele><time>2026-04-28T10:50:09.979Z</time></trkpt><trkpt lat="43.6461450563752" lon="3.6756217687873467"><ele>252.57142857142856</ele><time>2026-04-28T10:50:12.98Z</time></trkpt><trkpt lat="43.64613939769014" lon="3.6757276127441942"><ele>253.28571428571428</ele><time>2026-04-28T10:50:15.979Z</time></trkpt><trkpt lat="43.646165930519565" lon="3.6758102524340943"><ele>254.0</ele><time>2026-04-28T10:50:19.978Z</time></trkpt><trkpt lat="43.6461912493963" lon="3.6758923485409496"><ele>254.00000000000003</ele><time>2026-04-28T10:50:23.978Z</time></trkpt><trkpt lat="43.64622356499119" lon="3.6759674836890426"><ele>254.0</ele><time>2026-04-28T10:50:26.978Z</time></trkpt><trkpt lat="43.64624701029099" lon="3.6760505073617273"><ele>254.0</ele><time>2026-04-28T10:50:29.978Z</time></trkpt><trkpt lat="43.64631458490114" lon="3.676193397376351"><ele>254.0</ele><time>2026-04-28T10:50:58.978Z</time></trkpt><trkpt lat="43.646387953294884" lon="3.6761742468955756"><ele>254.00000000000003</ele><time>2026-04-28T10:51:01.978Z</time></trkpt><trkpt lat="43.646466007091306" lon="3.6761566034794115"><ele>254.0</ele><time>2026-04-28T10:51:05.978Z</time></trkpt><trkpt lat="43.64655275839118" lon="3.676143095076479"><ele>254.0</ele><time>2026-04-28T10:51:08.978Z</time></trkpt><trkpt lat="43.64663530906811" lon="3.6761216164441115"><ele>254.0</ele><time>2026-04-28T10:51:11.978Z</time></trkpt><trkpt lat="43.64670519981153" lon="3.6761065881283748"><ele>254.0</ele><time>2026-04-28T10:51:14.978Z</time></trkpt><trkpt lat="43.64677150051498" lon="3.6760889108673656"><ele>254.0</ele><time>2026-04-28T10:51:17.978Z</time></trkpt><trkpt lat="43.646849437811596" lon="3.6760574817501084"><ele>254.0</ele><time>2026-04-28T10:51:21.978Z</time></trkpt><trkpt lat="43.64690948745338" lon="3.6760294724889677"><ele>254.0</ele><time>2026-04-28T10:51:24.978Z</time></trkpt><trkpt lat="43.64697974457225" lon="3.676037995270001"><ele>254.0</ele><time>2026-04-28T10:51:28.978Z</time></trkpt><trkpt lat="43.64699559508783" lon="3.676129565351321"><ele>255.16666666666669</ele><time>2026-04-28T10:51:33.978Z</time></trkpt><trkpt lat="43.64696960375892" lon="3.676212504030939"><ele>256.33333333333337</ele><time>2026-04-28T10:51:39.978Z</time></trkpt><trkpt lat="43.646975942511894" lon="3.676313683842466"><ele>257.5</ele><time>2026-04-28T10:51:45.978Z</time></trkpt><trkpt lat="43.646975777893644" lon="3.6764181865102707"><ele>258.6666666666667</ele><time>2026-04-28T10:51:50.978Z</time></trkpt><trkpt lat="43.64696355899061" lon="3.676530280830349"><ele>259.8333333333333</ele><time>2026-04-28T10:51:54.978Z</time></trkpt><trkpt lat="43.64693802614207" lon="3.6766378747437565"><ele>261.0</ele><time>2026-04-28T10:51:59.978Z</time></trkpt><trkpt lat="43.64694364995083" lon="3.676754252715581"><ele>261.0</ele><time>2026-04-28T10:52:03.978Z</time></trkpt><trkpt lat="43.646935587891434" lon="3.6768460751727408"><ele>261.0</ele><time>2026-04-28T10:52:06.978Z</time></trkpt><trkpt lat="43.64694818091019" lon="3.676954817931477"><ele>261.0</ele><time>2026-04-28T10:52:10.979Z</time></trkpt><trkpt lat="43.64693502527856" lon="3.6770571863134873"><ele>261.0</ele><time>2026-04-28T10:52:14.979Z</time></trkpt><trkpt lat="43.646875135809005" lon="3.677141942612023"><ele>261.0</ele><time>2026-04-28T10:52:18.979Z</time></trkpt><trkpt lat="43.646865728614635" lon="3.677245181493782"><ele>261.0</ele><time>2026-04-28T10:52:23.98Z</time></trkpt><trkpt lat="43.64685583378961" lon="3.6773380210288087"><ele>261.57142857142856</ele><time>2026-04-28T10:52:27.98Z</time></trkpt><trkpt lat="43.64684726438765" lon="3.677448556208203"><ele>262.1428571428571</ele><time>2026-04-28T10:52:31.979Z</time></trkpt><trkpt lat="43.64682746490237" lon="3.6775345720792902"><ele>262.71428571428567</ele><time>2026-04-28T10:52:33.979Z</time></trkpt><trkpt lat="43.64683180839367" lon="3.6776505249121283"><ele>263.2857142857143</ele><time>2026-04-28T10:52:38.979Z</time></trkpt><trkpt lat="43.64680038286227" lon="3.6777272418147886"><ele>263.85714285714283</ele><time>2026-04-28T10:52:41.979Z</time></trkpt><trkpt lat="43.64675496162336" lon="3.677815098340692"><ele>264.4285714285714</ele><time>2026-04-28T10:52:44.979Z</time></trkpt><trkpt lat="43.64673075289753" lon="3.6779155252271662"><ele>265.0</ele><time>2026-04-28T10:52:48.979Z</time></trkpt><trkpt lat="43.64667519174344" lon="3.6779767513921433"><ele>265.1428571428571</ele><time>2026-04-28T10:52:51.979Z</time></trkpt><trkpt lat="43.646675844514135" lon="3.67806690297047"><ele>265.2857142857143</ele><time>2026-04-28T10:52:54.979Z</time></trkpt><trkpt lat="43.646697422927346" lon="3.6781575945763705"><ele>265.42857142857144</ele><time>2026-04-28T10:52:57.979Z</time></trkpt><trkpt lat="43.64671720253019" lon="3.6782615779421395"><ele>265.57142857142856</ele><time>2026-04-28T10:53:01.979Z</time></trkpt><trkpt lat="43.646714439405876" lon="3.678354123382201"><ele>265.7142857142857</ele><time>2026-04-28T10:53:04.979Z</time></trkpt><trkpt lat="43.64672955837957" lon="3.678442022507571"><ele>265.85714285714283</ele><time>2026-04-28T10:53:09.979Z</time></trkpt><trkpt lat="43.646717351965194" lon="3.6785360537453813"><ele>266.0</ele><time>2026-04-28T10:53:13.979Z</time></trkpt><trkpt lat="43.646719927551075" lon="3.67863219338444"><ele>266.0</ele><time>2026-04-28T10:53:17.979Z</time></trkpt><trkpt lat="43.64672189775192" lon="3.6787311455403873"><ele>266.0</ele><time>2026-04-28T10:53:21.979Z</time></trkpt><trkpt lat="43.64671726271687" lon="3.678829685435883"><ele>266.0</ele><time>2026-04-28T10:53:25.979Z</time></trkpt><trkpt lat="43.6467062164067" lon="3.678930473800757"><ele>266.0</ele><time>2026-04-28T10:53:29.979Z</time></trkpt><trkpt lat="43.64667677932233" lon="3.6790239394521485"><ele>266.0</ele><time>2026-04-28T10:53:34.979Z</time></trkpt><trkpt lat="43.646610638143244" lon="3.679075399712456"><ele>266.0</ele><time>2026-04-28T10:53:37.979Z</time></trkpt><trkpt lat="43.646559594247144" lon="3.679146177376505"><ele>266.0</ele><time>2026-04-28T10:53:40.979Z</time></trkpt><trkpt lat="43.646601827518225" lon="3.679231646179529"><ele>266.0</ele><time>2026-04-28T10:53:45.979Z</time></trkpt><trkpt lat="43.64661461325058" lon="3.6793328834620573"><ele>266.0</ele><time>2026-04-28T10:53:49.979Z</time></trkpt><trkpt lat="43.64663175942917" lon="3.679427026182109"><ele>266.0</ele><time>2026-04-28T10:53:54.979Z</time></trkpt><trkpt lat="43.64660419129308" lon="3.6795070459143773"><ele>266.0</ele><time>2026-04-28T10:53:58.979Z</time></trkpt><trkpt lat="43.64657673512491" lon="3.67963177249892"><ele>266.0</ele><time>2026-04-28T10:54:02.979Z</time></trkpt><trkpt lat="43.64654398424119" lon="3.679719896375523"><ele>266.0</ele><time>2026-04-28T10:54:12.979Z</time></trkpt><trkpt lat="43.646471685787276" lon="3.679734145320118"><ele>266.0</ele><time>2026-04-28T10:54:17.98Z</time></trkpt><trkpt lat="43.6464086304861" lon="3.6797312720195094"><ele>263.6666666666667</ele><time>2026-04-28T10:54:20.98Z</time></trkpt><trkpt lat="43.64634090588851" lon="3.6797281653680756"><ele>261.33333333333337</ele><time>2026-04-28T10:54:23.98Z</time></trkpt><trkpt lat="43.64626491384794" lon="3.679684869942876"><ele>259.0</ele><time>2026-04-28T10:54:26.98Z</time></trkpt><trkpt lat="43.646171611394934" lon="3.6796429950734804"><ele>256.6666666666667</ele><time>2026-04-28T10:54:29.98Z</time></trkpt><trkpt lat="43.64608601061894" lon="3.6796318314555743"><ele>254.33333333333334</ele><time>2026-04-28T10:54:32.98Z</time></trkpt><trkpt lat="43.64601079598683" lon="3.6796242302083533"><ele>252.0</ele><time>2026-04-28T10:54:34.98Z</time></trkpt><trkpt lat="43.64592600931078" lon="3.679602830300649"><ele>250.2</ele><time>2026-04-28T10:54:36.98Z</time></trkpt><trkpt lat="43.64585523877223" lon="3.6795637115364723"><ele>248.39999999999998</ele><time>2026-04-28T10:54:38.98Z</time></trkpt><trkpt lat="43.64575548249489" lon="3.6795378938868755"><ele>246.60000000000002</ele><time>2026-04-28T10:54:41.98Z</time></trkpt><trkpt lat="43.64566531503855" lon="3.679550411469921"><ele>244.8</ele><time>2026-04-28T10:54:43.98Z</time></trkpt><trkpt lat="43.64555736635757" lon="3.6795578760461334"><ele>243.0</ele><time>2026-04-28T10:54:45.98Z</time></trkpt><trkpt lat="43.645460807400255" lon="3.6795863349874764"><ele>243.0</ele><time>2026-04-28T10:54:47.98Z</time></trkpt><trkpt lat="43.64535471292271" lon="3.6796120091387725"><ele>243.0</ele><time>2026-04-28T10:54:49.98Z</time></trkpt><trkpt lat="43.64526612260252" lon="3.679586549568528"><ele>243.0</ele><time>2026-04-28T10:54:51.98Z</time></trkpt><trkpt lat="43.645171241530534" lon="3.6796179146635724"><ele>243.0</ele><time>2026-04-28T10:54:53.98Z</time></trkpt><trkpt lat="43.6450942750719" lon="3.6796204187757966"><ele>243.0</ele><time>2026-04-28T10:54:55.98Z</time></trkpt><trkpt lat="43.6450227026485" lon="3.6796363748823375"><ele>243.0</ele><time>2026-04-28T10:54:58.98Z</time></trkpt><trkpt lat="43.64495200821254" lon="3.6796465430830314"><ele>242.33333333333334</ele><time>2026-04-28T10:55:00.98Z</time></trkpt><trkpt lat="43.64488045106546" lon="3.679627479657587"><ele>241.66666666666669</ele><time>2026-04-28T10:55:02.98Z</time></trkpt><trkpt lat="43.644790066633824" lon="3.6796210370874536"><ele>241.0</ele><time>2026-04-28T10:55:05.98Z</time></trkpt><trkpt lat="43.64470880722076" lon="3.6796410934888084"><ele>240.33333333333334</ele><time>2026-04-28T10:55:07.98Z</time></trkpt><trkpt lat="43.64462987106312" lon="3.679676916682274"><ele>239.66666666666669</ele><time>2026-04-28T10:55:09.979Z</time></trkpt><trkpt lat="43.644555013437845" lon="3.6796786601407736"><ele>239.0</ele><time>2026-04-28T10:55:11.979Z</time></trkpt><trkpt lat="43.64448038404762" lon="3.6796587367522844"><ele>239.28571428571433</ele><time>2026-04-28T10:55:24.979Z</time></trkpt><trkpt lat="43.644403407629405" lon="3.6796803425879667"><ele>239.57142857142858</ele><time>2026-04-28T10:55:28.979Z</time></trkpt><trkpt lat="43.64433273583327" lon="3.6796819962225347"><ele>239.8571428571429</ele><time>2026-04-28T10:55:31.979Z</time></trkpt><trkpt lat="43.64425524362799" lon="3.679680084213332"><ele>240.14285714285717</ele><time>2026-04-28T10:55:34.979Z</time></trkpt><trkpt lat="43.644188864370214" lon="3.6796757746231337"><ele>240.42857142857144</ele><time>2026-04-28T10:55:37.979Z</time></trkpt><trkpt lat="43.64411138717872" lon="3.679687190857514"><ele>240.71428571428572</ele><time>2026-04-28T10:55:40.979Z</time></trkpt><trkpt lat="43.644044477608226" lon="3.6796635622005476"><ele>241.0</ele><time>2026-04-28T10:55:44.979Z</time></trkpt><trkpt lat="43.64396801251043" lon="3.6796209334154444"><ele>240.99999999999997</ele><time>2026-04-28T10:55:48.979Z</time></trkpt><trkpt lat="43.643889983160534" lon="3.6795791458057256"><ele>241.0</ele><time>2026-04-28T10:55:52.979Z</time></trkpt><trkpt lat="43.64382585333845" lon="3.679543390078296"><ele>241.0</ele><time>2026-04-28T10:55:55.979Z</time></trkpt><trkpt lat="43.64374611835361" lon="3.6794802483447078"><ele>241.0</ele><time>2026-04-28T10:55:59.979Z</time></trkpt><trkpt lat="43.64367348888003" lon="3.679417009592335"><ele>240.99999999999997</ele><time>2026-04-28T10:56:02.979Z</time></trkpt><trkpt lat="43.643586290411555" lon="3.6793568973137747"><ele>241.0</ele><time>2026-04-28T10:56:39.981Z</time></trkpt><trkpt lat="43.64350685068484" lon="3.6793716470611226"><ele>243.33333333333331</ele><time>2026-04-28T10:56:43.981Z</time></trkpt><trkpt lat="43.64343829223953" lon="3.6793495499060764"><ele>245.66666666666666</ele><time>2026-04-28T10:56:46.981Z</time></trkpt><trkpt lat="43.64336518286895" lon="3.6793319643820523"><ele>248.0</ele><time>2026-04-28T10:56:49.981Z</time></trkpt><trkpt lat="43.643293816641496" lon="3.6793131708195554"><ele>250.33333333333331</ele><time>2026-04-28T10:56:52.981Z</time></trkpt><trkpt lat="43.64322037542883" lon="3.67930690273993"><ele>252.66666666666666</ele><time>2026-04-28T10:56:55.981Z</time></trkpt><trkpt lat="43.643129620443204" lon="3.679271797735762"><ele>255.0</ele><time>2026-04-28T10:56:58.981Z</time></trkpt><trkpt lat="43.64304262129892" lon="3.6792293702376226"><ele>255.0</ele><time>2026-04-28T10:57:01.981Z</time></trkpt><trkpt lat="43.642970029543214" lon="3.679202152350282"><ele>255.0</ele><time>2026-04-28T10:57:04.981Z</time></trkpt><trkpt lat="43.642907339320885" lon="3.6791596083807288"><ele>255.0</ele><time>2026-04-28T10:57:06.981Z</time></trkpt><trkpt lat="43.64282844606712" lon="3.6791230409004108"><ele>255.0</ele><time>2026-04-28T10:57:09.981Z</time></trkpt><trkpt lat="43.64276988640448" lon="3.679068160201124"><ele>255.0</ele><time>2026-04-28T10:57:12.981Z</time></trkpt><trkpt lat="43.64270704007203" lon="3.6790359224824942"><ele>255.0</ele><time>2026-04-28T10:57:14.981Z</time></trkpt><trkpt lat="43.64263198013485" lon="3.6789843961736577"><ele>254.83333333333334</ele><time>2026-04-28T10:57:17.981Z</time></trkpt><trkpt lat="43.642569741360255" lon="3.6789523586109323"><ele>254.66666666666669</ele><time>2026-04-28T10:57:19.981Z</time></trkpt><trkpt lat="43.64248888647559" lon="3.678913306983432"><ele>254.5</ele><time>2026-04-28T10:57:22.981Z</time></trkpt><trkpt lat="43.642415936079104" lon="3.6788645666555766"><ele>254.33333333333334</ele><time>2026-04-28T10:57:25.981Z</time></trkpt><trkpt lat="43.642356277655544" lon="3.6788200066368453"><ele>254.16666666666669</ele><time>2026-04-28T10:57:27.981Z</time></trkpt><trkpt lat="43.64226921595802" lon="3.6787720362588727"><ele>254.0</ele><time>2026-04-28T10:57:30.981Z</time></trkpt><trkpt lat="43.64217725065021" lon="3.678768535321356"><ele>254.00000000000003</ele><time>2026-04-28T10:57:33.981Z</time></trkpt><trkpt lat="43.642114138013916" lon="3.6787397592193125"><ele>254.0</ele><time>2026-04-28T10:57:35.981Z</time></trkpt><trkpt lat="43.64203013164006" lon="3.6787077669568053"><ele>254.0</ele><time>2026-04-28T10:57:38.981Z</time></trkpt><trkpt lat="43.641954842409724" lon="3.678638600912607"><ele>254.0</ele><time>2026-04-28T10:57:41.981Z</time></trkpt><trkpt lat="43.641874760453135" lon="3.6786143717283384"><ele>254.00000000000003</ele><time>2026-04-28T10:57:44.981Z</time></trkpt><trkpt lat="43.64177890680626" lon="3.678569024469699"><ele>254.0</ele><time>2026-04-28T10:57:47.981Z</time></trkpt><trkpt lat="43.641688578102354" lon="3.6785324027024133"><ele>255.28571428571428</ele><time>2026-04-28T10:57:50.981Z</time></trkpt><trkpt lat="43.64162448472358" lon="3.6785060921373534"><ele>256.57142857142856</ele><time>2026-04-28T10:57:52.981Z</time></trkpt><trkpt lat="43.641535322791356" lon="3.67845860069237"><ele>257.85714285714283</ele><time>2026-04-28T10:57:55.981Z</time></trkpt><trkpt lat="43.64147837211297" lon="3.67839672220868"><ele>259.1428571428571</ele><time>2026-04-28T10:57:57.981Z</time></trkpt><trkpt lat="43.64142152571592" lon="3.678338245644871"><ele>260.4285714285714</ele><time>2026-04-28T10:57:59.981Z</time></trkpt><trkpt lat="43.64136631740271" lon="3.678287011899412"><ele>261.7142857142857</ele><time>2026-04-28T10:58:01.981Z</time></trkpt><trkpt lat="43.64130442991675" lon="3.6782411702972846"><ele>263.0</ele><time>2026-04-28T10:58:04.981Z</time></trkpt><trkpt lat="43.64124353543492" lon="3.6781876235363904"><ele>263.0</ele><time>2026-04-28T10:58:07.98Z</time></trkpt><trkpt lat="43.64117801648232" lon="3.6781522482387534"><ele>263.0</ele><time>2026-04-28T10:58:09.98Z</time></trkpt><trkpt lat="43.64108952242475" lon="3.678101151591298"><ele>263.0</ele><time>2026-04-28T10:58:12.98Z</time></trkpt><trkpt lat="43.641042474478006" lon="3.6780378117784154"><ele>263.0</ele><time>2026-04-28T10:58:14.98Z</time></trkpt><trkpt lat="43.640988000931394" lon="3.6779528699434194"><ele>263.0</ele><time>2026-04-28T10:58:17.98Z</time></trkpt><trkpt lat="43.640936437454435" lon="3.6778552153172615"><ele>263.0</ele><time>2026-04-28T10:58:20.98Z</time></trkpt><trkpt lat="43.640885217055796" lon="3.677802464881672"><ele>263.33333333333337</ele><time>2026-04-28T10:58:22.98Z</time></trkpt><trkpt lat="43.64082338383777" lon="3.6777045347204695"><ele>263.6666666666667</ele><time>2026-04-28T10:58:25.98Z</time></trkpt><trkpt lat="43.64077684769327" lon="3.677611882549462"><ele>264.0</ele><time>2026-04-28T10:58:27.981Z</time></trkpt><trkpt lat="43.640729858037105" lon="3.6775013128405325"><ele>264.3333333333333</ele><time>2026-04-28T10:58:30.981Z</time></trkpt><trkpt lat="43.640689041138906" lon="3.677428421694154"><ele>264.66666666666663</ele><time>2026-04-28T10:58:32.981Z</time></trkpt><trkpt lat="43.64063568620445" lon="3.6773530257235234"><ele>265.0</ele><time>2026-04-28T10:58:35.981Z</time></trkpt><trkpt lat="43.6405969076736" lon="3.6772797658447045"><ele>265.0</ele><time>2026-04-28T10:58:37.982Z</time></trkpt><trkpt lat="43.640539786694575" lon="3.67718556281588"><ele>265.0</ele><time>2026-04-28T10:58:40.982Z</time></trkpt><trkpt lat="43.64048512165895" lon="3.6770850462299607"><ele>265.0</ele><time>2026-04-28T10:58:43.982Z</time></trkpt><trkpt lat="43.640430830370896" lon="3.6770360614152118"><ele>265.0</ele><time>2026-04-28T10:58:45.982Z</time></trkpt><trkpt lat="43.640391808013405" lon="3.676941015261914"><ele>265.0</ele><time>2026-04-28T10:58:47.982Z</time></trkpt><trkpt lat="43.64034967203855" lon="3.676851354487745"><ele>265.0</ele><time>2026-04-28T10:58:49.982Z</time></trkpt><trkpt lat="43.64031346771639" lon="3.6767758930727"><ele>265.3333333333333</ele><time>2026-04-28T10:58:51.982Z</time></trkpt><trkpt lat="43.64025965571366" lon="3.676661393127189"><ele>265.66666666666663</ele><time>2026-04-28T10:58:54.982Z</time></trkpt><trkpt lat="43.640219653046444" lon="3.676564070406911"><ele>266.0</ele><time>2026-04-28T10:58:56.982Z</time></trkpt><trkpt lat="43.640194355124805" lon="3.6764829873303886"><ele>266.3333333333333</ele><time>2026-04-28T10:58:58.982Z</time></trkpt><trkpt lat="43.64016620780145" lon="3.6763998269019678"><ele>266.6666666666667</ele><time>2026-04-28T10:59:00.982Z</time></trkpt><trkpt lat="43.640091396133215" lon="3.6763448930625993"><ele>267.0</ele><time>2026-04-28T10:59:03.982Z</time></trkpt><trkpt lat="43.64002541295449" lon="3.676341341559993"><ele>267.0</ele><time>2026-04-28T10:59:05.982Z</time></trkpt><trkpt lat="43.63991792147097" lon="3.676373824938973"><ele>267.0</ele><time>2026-04-28T10:59:08.982Z</time></trkpt><trkpt lat="43.639837510497365" lon="3.67640207199107"><ele>267.0</ele><time>2026-04-28T10:59:10.982Z</time></trkpt><trkpt lat="43.6397617636485" lon="3.676426795908808"><ele>267.0</ele><time>2026-04-28T10:59:12.982Z</time></trkpt><trkpt lat="43.63969208069166" lon="3.676457165196977"><ele>267.0</ele><time>2026-04-28T10:59:14.982Z</time></trkpt><trkpt lat="43.63961926213203" lon="3.676491712942974"><ele>267.0</ele><time>2026-04-28T10:59:16.982Z</time></trkpt><trkpt lat="43.639543500000606" lon="3.6765151755446697"><ele>267.00000000000006</ele><time>2026-04-28T10:59:18.982Z</time></trkpt><trkpt lat="43.639481557256275" lon="3.676549737040578"><ele>267.0</ele><time>2026-04-28T10:59:20.982Z</time></trkpt><trkpt lat="43.63941646697507" lon="3.6765806892603377"><ele>267.0</ele><time>2026-04-28T10:59:22.982Z</time></trkpt><trkpt lat="43.63934636799595" lon="3.676584062797287"><ele>267.0</ele><time>2026-04-28T10:59:24.982Z</time></trkpt><trkpt lat="43.63926582912285" lon="3.676621492253398"><ele>267.0</ele><time>2026-04-28T10:59:27.982Z</time></trkpt><trkpt lat="43.63920301305587" lon="3.6766453628276907"><ele>267.00000000000006</ele><time>2026-04-28T10:59:30.982Z</time></trkpt><trkpt lat="43.639126501563844" lon="3.6766614300872438"><ele>267.0</ele><time>2026-04-28T10:59:33.982Z</time></trkpt><trkpt lat="43.63904556489919" lon="3.67667710289456"><ele>266.8571428571429</ele><time>2026-04-28T10:59:36.982Z</time></trkpt><trkpt lat="43.63899553104931" lon="3.6767564030202218"><ele>266.7142857142857</ele><time>2026-04-28T10:59:39.982Z</time></trkpt><trkpt lat="43.63893449452473" lon="3.676795468140799"><ele>266.57142857142856</ele><time>2026-04-28T10:59:41.982Z</time></trkpt><trkpt lat="43.6388706569051" lon="3.676848947921994"><ele>266.42857142857144</ele><time>2026-04-28T10:59:44.982Z</time></trkpt><trkpt lat="43.63881360168097" lon="3.6769178669911784"><ele>266.2857142857143</ele><time>2026-04-28T10:59:47.982Z</time></trkpt><trkpt lat="43.638732507003475" lon="3.676962781500897"><ele>266.14285714285717</ele><time>2026-04-28T10:59:50.982Z</time></trkpt><trkpt lat="43.63866576116245" lon="3.676968593555975"><ele>266.0</ele><time>2026-04-28T10:59:52.982Z</time></trkpt><trkpt lat="43.63858656540548" lon="3.676953321333667"><ele>265.83333333333337</ele><time>2026-04-28T10:59:55.982Z</time></trkpt><trkpt lat="43.638493571179986" lon="3.67695116547205"><ele>265.6666666666667</ele><time>2026-04-28T10:59:58.981Z</time></trkpt><trkpt lat="43.63840599837918" lon="3.6769342032561734"><ele>265.5</ele><time>2026-04-28T11:00:01.981Z</time></trkpt><trkpt lat="43.63831256705611" lon="3.6769342302481123"><ele>265.3333333333333</ele><time>2026-04-28T11:00:04.981Z</time></trkpt><trkpt lat="43.63822897702214" lon="3.6769251077303915"><ele>265.16666666666663</ele><time>2026-04-28T11:00:07.981Z</time></trkpt><trkpt lat="43.63815804255621" lon="3.6769247409552976"><ele>265.0</ele><time>2026-04-28T11:00:09.981Z</time></trkpt><trkpt lat="43.638084912356575" lon="3.6769034560002964"><ele>265.0</ele><time>2026-04-28T11:00:11.981Z</time></trkpt><trkpt lat="43.63801249008574" lon="3.6768933975637332"><ele>265.0</ele><time>2026-04-28T11:00:13.981Z</time></trkpt><trkpt lat="43.63793515283487" lon="3.6768930940352633"><ele>265.0</ele><time>2026-04-28T11:00:15.981Z</time></trkpt><trkpt lat="43.6378714544448" lon="3.676880641643973"><ele>265.0</ele><time>2026-04-28T11:00:17.981Z</time></trkpt><trkpt lat="43.63780304422873" lon="3.676864329401204"><ele>265.0</ele><time>2026-04-28T11:00:19.981Z</time></trkpt><trkpt lat="43.637712895310635" lon="3.676864570427198"><ele>265.0</ele><time>2026-04-28T11:00:22.981Z</time></trkpt><trkpt lat="43.637636157326874" lon="3.676869021054995"><ele>265.16666666666663</ele><time>2026-04-28T11:00:25.981Z</time></trkpt><trkpt lat="43.63756788764525" lon="3.6768763965960707"><ele>265.3333333333333</ele><time>2026-04-28T11:00:27.981Z</time></trkpt><trkpt lat="43.63748453039535" lon="3.676888920791796"><ele>265.5</ele><time>2026-04-28T11:00:30.981Z</time></trkpt><trkpt lat="43.63741384892487" lon="3.6768997474331115"><ele>265.6666666666667</ele><time>2026-04-28T11:00:32.981Z</time></trkpt><trkpt lat="43.637318821091505" lon="3.6769080681550252"><ele>265.83333333333337</ele><time>2026-04-28T11:00:35.982Z</time></trkpt><trkpt lat="43.63726183509042" lon="3.676970275652856"><ele>266.0</ele><time>2026-04-28T11:00:37.982Z</time></trkpt><trkpt lat="43.63718196794567" lon="3.6770321825563683"><ele>264.5</ele><time>2026-04-28T11:00:39.983Z</time></trkpt><trkpt lat="43.63709499000355" lon="3.677086110294463"><ele>263.0</ele><time>2026-04-28T11:00:41.982Z</time></trkpt><trkpt lat="43.637025197430646" lon="3.677144681253608"><ele>261.5</ele><time>2026-04-28T11:00:43.982Z</time></trkpt><trkpt lat="43.636955243810654" lon="3.6771990526845117"><ele>260.0</ele><time>2026-04-28T11:00:45.982Z</time></trkpt><trkpt lat="43.63686750321333" lon="3.6772663703636215"><ele>258.5</ele><time>2026-04-28T11:00:47.983Z</time></trkpt><trkpt lat="43.63680328454241" lon="3.6773321036590256"><ele>257.0</ele><time>2026-04-28T11:00:49.983Z</time></trkpt><trkpt lat="43.63674036710923" lon="3.6773761871495823"><ele>256.83333333333337</ele><time>2026-04-28T11:00:51.983Z</time></trkpt><trkpt lat="43.636672143642336" lon="3.6774141411092973"><ele>256.6666666666667</ele><time>2026-04-28T11:00:53.983Z</time></trkpt><trkpt lat="43.636597317904204" lon="3.6774670150111466"><ele>256.5</ele><time>2026-04-28T11:00:56.983Z</time></trkpt><trkpt lat="43.63651937373321" lon="3.6775163168886666"><ele>256.3333333333333</ele><time>2026-04-28T11:00:58.983Z</time></trkpt><trkpt lat="43.636454700347905" lon="3.6775895178697646"><ele>256.16666666666663</ele><time>2026-04-28T11:01:01.983Z</time></trkpt><trkpt lat="43.63635397542595" lon="3.6776728346938286"><ele>256.0</ele><time>2026-04-28T11:01:05.983Z</time></trkpt><trkpt lat="43.63627455834914" lon="3.677719651108504"><ele>255.99999999999997</ele><time>2026-04-28T11:01:07.983Z</time></trkpt><trkpt lat="43.63621247908323" lon="3.6777675029283157"><ele>256.0</ele><time>2026-04-28T11:01:09.983Z</time></trkpt><trkpt lat="43.63613310105402" lon="3.6777908102945363"><ele>256.0</ele><time>2026-04-28T11:01:12.983Z</time></trkpt><trkpt lat="43.6360740563218" lon="3.6778277739092347"><ele>256.0</ele><time>2026-04-28T11:01:14.983Z</time></trkpt><trkpt lat="43.635999924966605" lon="3.677847031282397"><ele>255.99999999999997</ele><time>2026-04-28T11:01:16.983Z</time></trkpt><trkpt lat="43.63588950831337" lon="3.6779340633474926"><ele>256.0</ele><time>2026-04-28T11:01:19.983Z</time></trkpt><trkpt lat="43.63580397877466" lon="3.6779730578365553"><ele>252.83333333333331</ele><time>2026-04-28T11:01:21.983Z</time></trkpt><trkpt lat="43.63570803052216" lon="3.678004896167993"><ele>249.66666666666666</ele><time>2026-04-28T11:01:23.982Z</time></trkpt><trkpt lat="43.63562208957383" lon="3.6780532113635993"><ele>246.5</ele><time>2026-04-28T11:01:25.982Z</time></trkpt><trkpt lat="43.63553601134989" lon="3.6780628632392554"><ele>243.33333333333331</ele><time>2026-04-28T11:01:27.982Z</time></trkpt><trkpt lat="43.63545163539513" lon="3.6781003122153972"><ele>240.16666666666666</ele><time>2026-04-28T11:01:30.982Z</time></trkpt><trkpt lat="43.63538741726993" lon="3.6781075516281936"><ele>237.0</ele><time>2026-04-28T11:01:32.982Z</time></trkpt><trkpt lat="43.63531043334797" lon="3.678148168166521"><ele>237.6</ele><time>2026-04-28T11:01:35.982Z</time></trkpt><trkpt lat="43.63522427127059" lon="3.6781954590935064"><ele>238.2</ele><time>2026-04-28T11:01:37.982Z</time></trkpt><trkpt lat="43.63514597588839" lon="3.6782317601008416"><ele>238.8</ele><time>2026-04-28T11:01:39.982Z</time></trkpt><trkpt lat="43.63505232405032" lon="3.678303137626939"><ele>239.4</ele><time>2026-04-28T11:01:41.982Z</time></trkpt><trkpt lat="43.63494675796201" lon="3.678345735254911"><ele>240.0</ele><time>2026-04-28T11:01:44.982Z</time></trkpt><trkpt lat="43.63488869276116" lon="3.6783874704930826"><ele>240.0</ele><time>2026-04-28T11:01:45.982Z</time></trkpt><trkpt lat="43.634818450556836" lon="3.6784311667201153"><ele>240.0</ele><time>2026-04-28T11:01:47.982Z</time></trkpt><trkpt lat="43.63474984897193" lon="3.6784629204411767"><ele>240.0</ele><time>2026-04-28T11:01:49.982Z</time></trkpt><trkpt lat="43.63463872304664" lon="3.6784859672165595"><ele>240.0</ele><time>2026-04-28T11:01:51.982Z</time></trkpt><trkpt lat="43.63456136213617" lon="3.6785149714171474"><ele>240.0</ele><time>2026-04-28T11:01:53.982Z</time></trkpt><trkpt lat="43.6344795601082" lon="3.6784944522660425"><ele>240.0</ele><time>2026-04-28T11:01:55.982Z</time></trkpt><trkpt lat="43.63439788941501" lon="3.6785004984209264"><ele>240.0</ele><time>2026-04-28T11:01:56.982Z</time></trkpt><trkpt lat="43.63434194684196" lon="3.6785408549259015"><ele>240.0</ele><time>2026-04-28T11:01:58.982Z</time></trkpt><trkpt lat="43.63426786297397" lon="3.6785773933646624"><ele>240.0</ele><time>2026-04-28T11:02:00.982Z</time></trkpt><trkpt lat="43.63420599244339" lon="3.678666728771053"><ele>240.0</ele><time>2026-04-28T11:02:03.982Z</time></trkpt><trkpt lat="43.634166070434254" lon="3.678767699481776"><ele>240.0</ele><time>2026-04-28T11:02:05.982Z</time></trkpt><trkpt lat="43.634115237793694" lon="3.6788973343829636"><ele>240.0</ele><time>2026-04-28T11:02:07.982Z</time></trkpt><trkpt lat="43.63408728630952" lon="3.6789941681467213"><ele>236.4</ele><time>2026-04-28T11:02:09.982Z</time></trkpt><trkpt lat="43.63404160907543" lon="3.679107325581081"><ele>232.8</ele><time>2026-04-28T11:02:11.982Z</time></trkpt><trkpt lat="43.63401018223189" lon="3.679245403770845"><ele>229.2</ele><time>2026-04-28T11:02:13.982Z</time></trkpt><trkpt lat="43.6339879189606" lon="3.6793460361356023"><ele>225.6</ele><time>2026-04-28T11:02:14.982Z</time></trkpt><trkpt lat="43.633910198558716" lon="3.679471889540343"><ele>222.0</ele><time>2026-04-28T11:02:16.982Z</time></trkpt><trkpt lat="43.633841090148856" lon="3.679578437225964"><ele>220.2</ele><time>2026-04-28T11:02:18.982Z</time></trkpt><trkpt lat="43.633777606637345" lon="3.679714684430606"><ele>218.39999999999998</ele><time>2026-04-28T11:02:20.982Z</time></trkpt><trkpt lat="43.63373452681382" lon="3.6798216450427117"><ele>216.60000000000002</ele><time>2026-04-28T11:02:23.982Z</time></trkpt><trkpt lat="43.63366832021667" lon="3.679916943861181"><ele>214.8</ele><time>2026-04-28T11:02:25.982Z</time></trkpt><trkpt lat="43.63361242960982" lon="3.679996530077699"><ele>213.0</ele><time>2026-04-28T11:02:27.982Z</time></trkpt><trkpt lat="43.63356811843396" lon="3.680075100296373"><ele>213.0</ele><time>2026-04-28T11:02:29.982Z</time></trkpt><trkpt lat="43.63349938474175" lon="3.6801372897335365"><ele>213.0</ele><time>2026-04-28T11:02:31.982Z</time></trkpt><trkpt lat="43.63342866755867" lon="3.6801913465562746"><ele>213.0</ele><time>2026-04-28T11:02:33.982Z</time></trkpt><trkpt lat="43.633367397388554" lon="3.6802447545840256"><ele>213.0</ele><time>2026-04-28T11:02:35.982Z</time></trkpt><trkpt lat="43.63331257825138" lon="3.6802945729046144"><ele>213.0</ele><time>2026-04-28T11:02:37.982Z</time></trkpt><trkpt lat="43.633258968135756" lon="3.680362635119021"><ele>213.0</ele><time>2026-04-28T11:02:39.983Z</time></trkpt><trkpt lat="43.63321913346316" lon="3.6804877651496075"><ele>211.16666666666666</ele><time>2026-04-28T11:02:42.983Z</time></trkpt><trkpt lat="43.63321050665947" lon="3.6805771751163827"><ele>209.33333333333331</ele><time>2026-04-28T11:02:44.983Z</time></trkpt><trkpt lat="43.63318374176373" lon="3.6807054023291856"><ele>207.5</ele><time>2026-04-28T11:02:47.983Z</time></trkpt><trkpt lat="43.6331239245949" lon="3.680773648184988"><ele>205.66666666666666</ele><time>2026-04-28T11:02:49.983Z</time></trkpt><trkpt lat="43.633062197066685" lon="3.6808246072914925"><ele>203.83333333333331</ele><time>2026-04-28T11:02:51.983Z</time></trkpt><trkpt lat="43.633027610955516" lon="3.6809739918210895"><ele>202.0</ele><time>2026-04-28T11:02:54.982Z</time></trkpt><trkpt lat="43.633007216114315" lon="3.6810819620726174"><ele>200.83333333333331</ele><time>2026-04-28T11:02:56.982Z</time></trkpt><trkpt lat="43.6329755217841" lon="3.681164042238493"><ele>199.66666666666666</ele><time>2026-04-28T11:02:58.982Z</time></trkpt><trkpt lat="43.6329517867597" lon="3.6812619561504567"><ele>198.5</ele><time>2026-04-28T11:03:00.982Z</time></trkpt><trkpt lat="43.63291521076364" lon="3.681336676589007"><ele>197.33333333333331</ele><time>2026-04-28T11:03:02.982Z</time></trkpt><trkpt lat="43.632901382691415" lon="3.6814889049062627"><ele>196.16666666666666</ele><time>2026-04-28T11:03:05.982Z</time></trkpt><trkpt lat="43.63288212561443" lon="3.6816042745264457"><ele>195.0</ele><time>2026-04-28T11:03:07.982Z</time></trkpt><trkpt lat="43.63289201025878" lon="3.6817173596545123"><ele>195.0</ele><time>2026-04-28T11:03:09.982Z</time></trkpt><trkpt lat="43.6328707720347" lon="3.6818026444298195"><ele>195.0</ele><time>2026-04-28T11:03:14.982Z</time></trkpt><trkpt lat="43.63285619851337" lon="3.68188816388848"><ele>195.0</ele><time>2026-04-28T11:03:25.982Z</time></trkpt><trkpt lat="43.63284451017805" lon="3.6819976370859684"><ele>195.0</ele><time>2026-04-28T11:04:18.982Z</time></trkpt><trkpt lat="43.63287591986183" lon="3.68210435075468"><ele>195.0</ele><time>2026-04-28T11:04:22.982Z</time></trkpt><trkpt lat="43.63294627045818" lon="3.6821278857866084"><ele>195.0</ele><time>2026-04-28T11:04:25.982Z</time></trkpt><trkpt lat="43.633022962150314" lon="3.6821346807221897"><ele>195.0</ele><time>2026-04-28T11:04:28.982Z</time></trkpt><trkpt lat="43.633089001912296" lon="3.682137109844002"><ele>195.0</ele><time>2026-04-28T11:04:31.982Z</time></trkpt><trkpt lat="43.63318193229653" lon="3.682136205467013"><ele>195.0</ele><time>2026-04-28T11:04:34.982Z</time></trkpt><trkpt lat="43.63326022004183" lon="3.682102186053032"><ele>195.0</ele><time>2026-04-28T11:04:37.982Z</time></trkpt><trkpt lat="43.63330005895432" lon="3.682003240818988"><ele>195.0</ele><time>2026-04-28T11:04:40.982Z</time></trkpt><trkpt lat="43.63333038250676" lon="3.681908434579374"><ele>195.0</ele><time>2026-04-28T11:04:44.982Z</time></trkpt><trkpt lat="43.63337976511561" lon="3.6818260184254616"><ele>195.0</ele><time>2026-04-28T11:04:47.984Z</time></trkpt><trkpt lat="43.63342450480023" lon="3.681754676060001"><ele>195.0</ele><time>2026-04-28T11:04:50.984Z</time></trkpt><trkpt lat="43.633472690388714" lon="3.681687364124554"><ele>195.0</ele><time>2026-04-28T11:04:55.984Z</time></trkpt><trkpt lat="43.63352824928545" lon="3.681638831760119"><ele>195.0</ele><time>2026-04-28T11:04:58.983Z</time></trkpt><trkpt lat="43.6336157267218" lon="3.681566176810481"><ele>195.0</ele><time>2026-04-28T11:05:01.983Z</time></trkpt><trkpt lat="43.63367899353379" lon="3.681530253900617"><ele>195.0</ele><time>2026-04-28T11:05:03.983Z</time></trkpt><trkpt lat="43.63374173288238" lon="3.6815089380754964"><ele>195.0</ele><time>2026-04-28T11:05:05.983Z</time></trkpt><trkpt lat="43.63383084755107" lon="3.681536075634454"><ele>193.16666666666666</ele><time>2026-04-28T11:05:07.983Z</time></trkpt><trkpt lat="43.63391108721056" lon="3.6815993502702478"><ele>191.33333333333334</ele><time>2026-04-28T11:05:09.983Z</time></trkpt><trkpt lat="43.63402655528664" lon="3.6816264624642923"><ele>189.5</ele><time>2026-04-28T11:05:11.983Z</time></trkpt><trkpt lat="43.634090540190726" lon="3.6816500849840934"><ele>187.66666666666669</ele><time>2026-04-28T11:05:12.983Z</time></trkpt><trkpt lat="43.634155337782474" lon="3.6816792856899667"><ele>185.83333333333334</ele><time>2026-04-28T11:05:13.983Z</time></trkpt><trkpt lat="43.63421886197143" lon="3.6817092417292585"><ele>184.0</ele><time>2026-04-28T11:05:14.983Z</time></trkpt><trkpt lat="43.6342828402969" lon="3.6817344312429383"><ele>184.0</ele><time>2026-04-28T11:05:15.983Z</time></trkpt><trkpt lat="43.63439658170952" lon="3.681765771636121"><ele>184.0</ele><time>2026-04-28T11:05:17.983Z</time></trkpt><trkpt lat="43.63447365305685" lon="3.681784731473272"><ele>184.0</ele><time>2026-04-28T11:05:18.983Z</time></trkpt><trkpt lat="43.63454111313636" lon="3.6817842827724876"><ele>184.0</ele><time>2026-04-28T11:05:19.983Z</time></trkpt><trkpt lat="43.634650945108106" lon="3.681806971107118"><ele>184.0</ele><time>2026-04-28T11:05:21.983Z</time></trkpt><trkpt lat="43.63473339585075" lon="3.681849807039627"><ele>183.16666666666669</ele><time>2026-04-28T11:05:23.983Z</time></trkpt><trkpt lat="43.634751680140006" lon="3.6819443071614315"><ele>182.33333333333334</ele><time>2026-04-28T11:05:25.983Z</time></trkpt><trkpt lat="43.634754017690376" lon="3.682038559189675"><ele>181.5</ele><time>2026-04-28T11:05:27.983Z</time></trkpt><trkpt lat="43.63474075329291" lon="3.682154191781768"><ele>180.66666666666666</ele><time>2026-04-28T11:05:29.983Z</time></trkpt><trkpt lat="43.63475443707447" lon="3.6822514287978434"><ele>179.83333333333331</ele><time>2026-04-28T11:05:31.983Z</time></trkpt><trkpt lat="43.63477425800856" lon="3.682359810429259"><ele>179.0</ele><time>2026-04-28T11:05:33.983Z</time></trkpt><trkpt lat="43.63477463390909" lon="3.682461841530398"><ele>179.0</ele><time>2026-04-28T11:05:35.983Z</time></trkpt><trkpt lat="43.63479550889306" lon="3.6825792650033633"><ele>179.0</ele><time>2026-04-28T11:05:38.983Z</time></trkpt><trkpt lat="43.634855469743485" lon="3.682653393050655"><ele>179.0</ele><time>2026-04-28T11:05:41.983Z</time></trkpt><trkpt lat="43.634933659629574" lon="3.6827198906301444"><ele>179.0</ele><time>2026-04-28T11:05:44.983Z</time></trkpt><trkpt lat="43.63501086349872" lon="3.6827668041961035"><ele>179.0</ele><time>2026-04-28T11:05:46.983Z</time></trkpt><trkpt lat="43.635080189732264" lon="3.682814946213357"><ele>179.0</ele><time>2026-04-28T11:05:49.983Z</time></trkpt><trkpt lat="43.6351520128882" lon="3.682863580852943"><ele>178.79999999999998</ele><time>2026-04-28T11:05:52.983Z</time></trkpt><trkpt lat="43.63521445042018" lon="3.6828765065603872"><ele>178.6</ele><time>2026-04-28T11:05:54.983Z</time></trkpt><trkpt lat="43.635360585907115" lon="3.6828998737448817"><ele>178.4</ele><time>2026-04-28T11:05:56.983Z</time></trkpt><trkpt lat="43.635428422577384" lon="3.682909732382063"><ele>178.2</ele><time>2026-04-28T11:05:57.983Z</time></trkpt><trkpt lat="43.635558036168526" lon="3.682924409965065"><ele>178.0</ele><time>2026-04-28T11:05:59.983Z</time></trkpt><trkpt lat="43.635630788717485" lon="3.6829167981208557"><ele>178.0</ele><time>2026-04-28T11:06:00.983Z</time></trkpt><trkpt lat="43.63574574096404" lon="3.68294250942604"><ele>178.0</ele><time>2026-04-28T11:06:02.983Z</time></trkpt><trkpt lat="43.63581205589053" lon="3.6829671067191057"><ele>178.0</ele><time>2026-04-28T11:06:03.983Z</time></trkpt><trkpt lat="43.635862846472875" lon="3.6830187639107113"><ele>178.0</ele><time>2026-04-28T11:06:04.983Z</time></trkpt><trkpt lat="43.63593985832036" lon="3.683060958911274"><ele>178.0</ele><time>2026-04-28T11:06:05.983Z</time></trkpt><trkpt lat="43.636019572397025" lon="3.683113802500617"><ele>178.0</ele><time>2026-04-28T11:06:06.983Z</time></trkpt><trkpt lat="43.636073630162066" lon="3.683171092068748"><ele>176.5</ele><time>2026-04-28T11:06:07.983Z</time></trkpt><trkpt lat="43.63617774680101" lon="3.683254713131431"><ele>175.0</ele><time>2026-04-28T11:06:09.983Z</time></trkpt><trkpt lat="43.636239206237164" lon="3.68331410411777"><ele>173.5</ele><time>2026-04-28T11:06:10.983Z</time></trkpt><trkpt lat="43.63630643919686" lon="3.683358869937473"><ele>172.0</ele><time>2026-04-28T11:06:11.983Z</time></trkpt><trkpt lat="43.63636861675904" lon="3.6834053682136116"><ele>170.5</ele><time>2026-04-28T11:06:12.983Z</time></trkpt><trkpt lat="43.636454453142576" lon="3.683467836025991"><ele>169.0</ele><time>2026-04-28T11:06:14.983Z</time></trkpt><trkpt lat="43.63653643963661" lon="3.683519199686363"><ele>169.0</ele><time>2026-04-28T11:06:18.983Z</time></trkpt><trkpt lat="43.63663804079245" lon="3.683535935335115"><ele>169.0</ele><time>2026-04-28T11:06:21.983Z</time></trkpt><trkpt lat="43.63671860871667" lon="3.6835934597722098"><ele>169.0</ele><time>2026-04-28T11:06:23.983Z</time></trkpt><trkpt lat="43.63677063386526" lon="3.6836829339324564"><ele>169.0</ele><time>2026-04-28T11:06:25.983Z</time></trkpt><trkpt lat="43.63684954886926" lon="3.683812414739322"><ele>169.0</ele><time>2026-04-28T11:06:28.983Z</time></trkpt><trkpt lat="43.63691291645312" lon="3.68390923855489"><ele>169.79999999999998</ele><time>2026-04-28T11:06:30.983Z</time></trkpt><trkpt lat="43.63695381300048" lon="3.684024055562527"><ele>170.6</ele><time>2026-04-28T11:06:32.983Z</time></trkpt><trkpt lat="43.63698737041712" lon="3.6841422942569633"><ele>171.4</ele><time>2026-04-28T11:06:34.983Z</time></trkpt><trkpt lat="43.63701815239522" lon="3.6842366172059875"><ele>172.2</ele><time>2026-04-28T11:06:36.983Z</time></trkpt><trkpt lat="43.63705157747733" lon="3.6843506702976567"><ele>173.0</ele><time>2026-04-28T11:06:38.983Z</time></trkpt><trkpt lat="43.63706482035725" lon="3.6844900768428888"><ele>173.83333333333331</ele><time>2026-04-28T11:06:40.983Z</time></trkpt><trkpt lat="43.6370540574505" lon="3.684637185150406"><ele>174.66666666666666</ele><time>2026-04-28T11:06:42.983Z</time></trkpt><trkpt lat="43.637061164959185" lon="3.684723916014446"><ele>175.5</ele><time>2026-04-28T11:06:43.983Z</time></trkpt><trkpt lat="43.63706806405132" lon="3.6848119616905963"><ele>176.33333333333334</ele><time>2026-04-28T11:06:44.983Z</time></trkpt><trkpt lat="43.63705966699406" lon="3.6849034421711413"><ele>177.16666666666669</ele><time>2026-04-28T11:06:45.983Z</time></trkpt><trkpt lat="43.63705156654464" lon="3.6850076426168195"><ele>178.0</ele><time>2026-04-28T11:06:46.983Z</time></trkpt><trkpt lat="43.63706236887638" lon="3.6851297278774386"><ele>178.0</ele><time>2026-04-28T11:06:47.983Z</time></trkpt><trkpt lat="43.6370552349304" lon="3.6852540033226275"><ele>178.0</ele><time>2026-04-28T11:06:48.983Z</time></trkpt><trkpt lat="43.63702929167186" lon="3.685367251893518"><ele>178.0</ele><time>2026-04-28T11:06:49.983Z</time></trkpt><trkpt lat="43.63699732675382" lon="3.685478624624085"><ele>178.0</ele><time>2026-04-28T11:06:50.983Z</time></trkpt><trkpt lat="43.63695354796847" lon="3.6855866495604315"><ele>178.0</ele><time>2026-04-28T11:06:51.985Z</time></trkpt><trkpt lat="43.636927432501665" lon="3.6857000582199753"><ele>178.0</ele><time>2026-04-28T11:06:52.984Z</time></trkpt><trkpt lat="43.63691828460937" lon="3.6858212689956606"><ele>177.0</ele><time>2026-04-28T11:06:53.984Z</time></trkpt><trkpt lat="43.63691694041848" lon="3.685940288743631"><ele>176.0</ele><time>2026-04-28T11:06:54.985Z</time></trkpt><trkpt lat="43.636954872390916" lon="3.686089816322849"><ele>175.0</ele><time>2026-04-28T11:06:55.985Z</time></trkpt><trkpt lat="43.63697491248658" lon="3.686231476388472"><ele>174.0</ele><time>2026-04-28T11:06:56.985Z</time></trkpt><trkpt lat="43.6369931859754" lon="3.6863601873185083"><ele>173.0</ele><time>2026-04-28T11:06:57.985Z</time></trkpt><trkpt lat="43.63699798409937" lon="3.6864706542972736"><ele>171.60000000000002</ele><time>2026-04-28T11:06:58.984Z</time></trkpt><trkpt lat="43.636994939223854" lon="3.686592467613509"><ele>170.20000000000002</ele><time>2026-04-28T11:06:59.984Z</time></trkpt><trkpt lat="43.63697827946313" lon="3.6867083984781686"><ele>168.8</ele><time>2026-04-28T11:07:00.985Z</time></trkpt><trkpt lat="43.6369609195872" lon="3.6867939710025666"><ele>167.4</ele><time>2026-04-28T11:07:01.984Z</time></trkpt><trkpt lat="43.63694373808122" lon="3.686919749544234"><ele>166.0</ele><time>2026-04-28T11:07:03.985Z</time></trkpt><trkpt lat="43.63695277292764" lon="3.6870875511948"><ele>163.85714285714286</ele><time>2026-04-28T11:07:05.985Z</time></trkpt><trkpt lat="43.63700078654428" lon="3.687147166390797"><ele>161.71428571428572</ele><time>2026-04-28T11:07:07.985Z</time></trkpt><trkpt lat="43.637073215786074" lon="3.6871948785628152"><ele>159.57142857142858</ele><time>2026-04-28T11:07:10.985Z</time></trkpt><trkpt lat="43.63712821592774" lon="3.6872608095060686"><ele>157.42857142857144</ele><time>2026-04-28T11:07:13.985Z</time></trkpt><trkpt lat="43.63720682614658" lon="3.687284087611085"><ele>155.28571428571428</ele><time>2026-04-28T11:07:16.985Z</time></trkpt><trkpt lat="43.637268493173124" lon="3.6873239232424315"><ele>153.14285714285717</ele><time>2026-04-28T11:07:18.985Z</time></trkpt><trkpt lat="43.63733274969785" lon="3.6873709117390114"><ele>151.0</ele><time>2026-04-28T11:07:20.985Z</time></trkpt><trkpt lat="43.637401051194324" lon="3.6874042743156754"><ele>151.00000000000003</ele><time>2026-04-28T11:07:22.985Z</time></trkpt><trkpt lat="43.63745730327712" lon="3.687465498279852"><ele>151.0</ele><time>2026-04-28T11:07:24.985Z</time></trkpt><trkpt lat="43.63752873561713" lon="3.687524259768831"><ele>151.0</ele><time>2026-04-28T11:07:27.985Z</time></trkpt><trkpt lat="43.63759327870953" lon="3.687575724439138"><ele>151.0</ele><time>2026-04-28T11:07:30.985Z</time></trkpt><trkpt lat="43.637659098163255" lon="3.687617113494974"><ele>151.0</ele><time>2026-04-28T11:07:32.985Z</time></trkpt><trkpt lat="43.63772420670517" lon="3.687667553607261"><ele>151.00000000000003</ele><time>2026-04-28T11:07:34.985Z</time></trkpt><trkpt lat="43.637786584789175" lon="3.6877116524615317"><ele>151.0</ele><time>2026-04-28T11:07:36.985Z</time></trkpt><trkpt lat="43.63786513146557" lon="3.6877641673831523"><ele>150.16666666666669</ele><time>2026-04-28T11:07:38.985Z</time></trkpt><trkpt lat="43.63794244696901" lon="3.687797405519124"><ele>149.33333333333334</ele><time>2026-04-28T11:07:40.985Z</time></trkpt><trkpt lat="43.63801953205783" lon="3.68786694289426"><ele>148.5</ele><time>2026-04-28T11:07:42.985Z</time></trkpt><trkpt lat="43.63810967552712" lon="3.687897616863096"><ele>147.66666666666666</ele><time>2026-04-28T11:07:44.985Z</time></trkpt><trkpt lat="43.6381891008781" lon="3.6878968993074155"><ele>146.83333333333331</ele><time>2026-04-28T11:07:46.985Z</time></trkpt><trkpt lat="43.63825838479146" lon="3.6879135718476017"><ele>146.0</ele><time>2026-04-28T11:07:48.985Z</time></trkpt><trkpt lat="43.63833618172513" lon="3.6879324958889907"><ele>146.0</ele><time>2026-04-28T11:07:50.985Z</time></trkpt><trkpt lat="43.63842371560284" lon="3.687953557176447"><ele>146.0</ele><time>2026-04-28T11:07:52.985Z</time></trkpt><trkpt lat="43.63851474480116" lon="3.6880003088043325"><ele>146.0</ele><time>2026-04-28T11:07:54.985Z</time></trkpt><trkpt lat="43.638590335581" lon="3.6879998613608143"><ele>146.0</ele><time>2026-04-28T11:07:56.985Z</time></trkpt><trkpt lat="43.63866829063409" lon="3.6880122544905163"><ele>146.0</ele><time>2026-04-28T11:07:58.985Z</time></trkpt><trkpt lat="43.6387421074868" lon="3.6880243744717456"><ele>146.0</ele><time>2026-04-28T11:08:00.985Z</time></trkpt><trkpt lat="43.63884422956313" lon="3.688032947708965"><ele>145.0</ele><time>2026-04-28T11:08:02.985Z</time></trkpt><trkpt lat="43.63895793331784" lon="3.6880416822674955"><ele>144.0</ele><time>2026-04-28T11:08:04.985Z</time></trkpt><trkpt lat="43.63906372668129" lon="3.6880600589803874"><ele>143.0</ele><time>2026-04-28T11:08:06.985Z</time></trkpt><trkpt lat="43.639153253906564" lon="3.688075197845825"><ele>142.0</ele><time>2026-04-28T11:08:08.985Z</time></trkpt><trkpt lat="43.63925067800647" lon="3.68808665345486"><ele>141.0</ele><time>2026-04-28T11:08:10.985Z</time></trkpt><trkpt lat="43.63933844811449" lon="3.6880907115525456"><ele>141.0</ele><time>2026-04-28T11:08:12.985Z</time></trkpt><trkpt lat="43.63942345250206" lon="3.6881086159215917"><ele>141.0</ele><time>2026-04-28T11:08:14.985Z</time></trkpt><trkpt lat="43.6395240841515" lon="3.6881222368982933"><ele>141.0</ele><time>2026-04-28T11:08:16.985Z</time></trkpt><trkpt lat="43.63962076290342" lon="3.6881349115326474"><ele>141.0</ele><time>2026-04-28T11:08:18.985Z</time></trkpt><trkpt lat="43.63970592657092" lon="3.6881140105563697"><ele>141.0</ele><time>2026-04-28T11:08:20.985Z</time></trkpt><trkpt lat="43.63978815357971" lon="3.688052991925209"><ele>142.16666666666666</ele><time>2026-04-28T11:08:22.985Z</time></trkpt><trkpt lat="43.639847523954444" lon="3.687969223670512"><ele>143.33333333333334</ele><time>2026-04-28T11:08:24.985Z</time></trkpt><trkpt lat="43.639896888803996" lon="3.687914331539839"><ele>144.5</ele><time>2026-04-28T11:08:26.985Z</time></trkpt><trkpt lat="43.639974986294646" lon="3.687941017618583"><ele>145.66666666666669</ele><time>2026-04-28T11:08:31.985Z</time></trkpt><trkpt lat="43.63997983316922" lon="3.6880367321836274"><ele>146.83333333333334</ele><time>2026-04-28T11:08:33.985Z</time></trkpt><trkpt lat="43.639988357047415" lon="3.688167004423931"><ele>148.0</ele><time>2026-04-28T11:08:36.985Z</time></trkpt><trkpt lat="43.64000512681972" lon="3.6882655376299347"><ele>148.0</ele><time>2026-04-28T11:08:38.985Z</time></trkpt><trkpt lat="43.640044910565024" lon="3.6883472068570184"><ele>148.0</ele><time>2026-04-28T11:08:40.984Z</time></trkpt><trkpt lat="43.64008538521167" lon="3.688438576107419"><ele>148.0</ele><time>2026-04-28T11:08:43.984Z</time></trkpt><trkpt lat="43.64011680649553" lon="3.6885814777683095"><ele>148.0</ele><time>2026-04-28T11:08:46.984Z</time></trkpt><trkpt lat="43.64013641891144" lon="3.6886664699567637"><ele>148.0</ele><time>2026-04-28T11:08:47.984Z</time></trkpt><trkpt lat="43.64014432039258" lon="3.688756994608226"><ele>148.0</ele><time>2026-04-28T11:08:48.984Z</time></trkpt><trkpt lat="43.640169191784985" lon="3.688925735006309"><ele>148.14285714285714</ele><time>2026-04-28T11:08:50.984Z</time></trkpt><trkpt lat="43.64018761341195" lon="3.6890134426830468"><ele>148.28571428571428</ele><time>2026-04-28T11:08:51.984Z</time></trkpt><trkpt lat="43.64021079989058" lon="3.6891059630251792"><ele>148.42857142857142</ele><time>2026-04-28T11:08:52.984Z</time></trkpt><trkpt lat="43.64023463679394" lon="3.6892010938858752"><ele>148.57142857142856</ele><time>2026-04-28T11:08:53.984Z</time></trkpt><trkpt lat="43.640273172520416" lon="3.689275481838075"><ele>148.7142857142857</ele><time>2026-04-28T11:08:54.984Z</time></trkpt><trkpt lat="43.640320774488" lon="3.6893676450342254"><ele>148.85714285714286</ele><time>2026-04-28T11:08:55.984Z</time></trkpt><trkpt lat="43.64036455688444" lon="3.6894540432754024"><ele>149.0</ele><time>2026-04-28T11:08:56.984Z</time></trkpt><trkpt lat="43.64041234920369" lon="3.689547133873735"><ele>147.33333333333331</ele><time>2026-04-28T11:08:57.986Z</time></trkpt><trkpt lat="43.64045562706923" lon="3.6896235036910388"><ele>145.66666666666666</ele><time>2026-04-28T11:08:58.985Z</time></trkpt><trkpt lat="43.6405139716698" lon="3.689697289455671"><ele>144.0</ele><time>2026-04-28T11:08:59.985Z</time></trkpt><trkpt lat="43.640573160867554" lon="3.689766929480496"><ele>142.33333333333334</ele><time>2026-04-28T11:09:00.986Z</time></trkpt><trkpt lat="43.640631084026005" lon="3.689830260653954"><ele>140.66666666666669</ele><time>2026-04-28T11:09:01.986Z</time></trkpt><trkpt lat="43.640691311640374" lon="3.689898061646237"><ele>139.0</ele><time>2026-04-28T11:09:02.986Z</time></trkpt><trkpt lat="43.6407486301473" lon="3.6899715632281285"><ele>139.0</ele><time>2026-04-28T11:09:03.985Z</time></trkpt><trkpt lat="43.640812476992416" lon="3.690039455087396"><ele>139.0</ele><time>2026-04-28T11:09:04.985Z</time></trkpt><trkpt lat="43.64087442092463" lon="3.690112969016402"><ele>139.0</ele><time>2026-04-28T11:09:05.985Z</time></trkpt><trkpt lat="43.64093210610755" lon="3.6901859752146238"><ele>139.0</ele><time>2026-04-28T11:09:06.985Z</time></trkpt><trkpt lat="43.640996023454335" lon="3.6902592640804697"><ele>139.0</ele><time>2026-04-28T11:09:07.985Z</time></trkpt><trkpt lat="43.641056635058796" lon="3.690335971750652"><ele>139.0</ele><time>2026-04-28T11:09:08.985Z</time></trkpt><trkpt lat="43.641116076440966" lon="3.690416201945347"><ele>138.71428571428572</ele><time>2026-04-28T11:09:09.985Z</time></trkpt><trkpt lat="43.64118048723328" lon="3.690492923068271"><ele>138.42857142857144</ele><time>2026-04-28T11:09:10.985Z</time></trkpt><trkpt lat="43.64123183818714" lon="3.6905580742851236"><ele>138.14285714285717</ele><time>2026-04-28T11:09:11.985Z</time></trkpt><trkpt lat="43.641278572621275" lon="3.690619537069977"><ele>137.85714285714286</ele><time>2026-04-28T11:09:12.985Z</time></trkpt><trkpt lat="43.64132885258497" lon="3.6906833033557347"><ele>137.57142857142858</ele><time>2026-04-28T11:09:13.985Z</time></trkpt><trkpt lat="43.641379687743736" lon="3.6907482394818127"><ele>137.2857142857143</ele><time>2026-04-28T11:09:14.985Z</time></trkpt><trkpt lat="43.641425801586" lon="3.6908202223640356"><ele>137.0</ele><time>2026-04-28T11:09:15.985Z</time></trkpt><trkpt lat="43.641472653523195" lon="3.6908915354060783"><ele>137.0</ele><time>2026-04-28T11:09:16.985Z</time></trkpt><trkpt lat="43.64151309000799" lon="3.690969180576422"><ele>137.0</ele><time>2026-04-28T11:09:17.985Z</time></trkpt><trkpt lat="43.64160136489531" lon="3.691099351888373"><ele>137.0</ele><time>2026-04-28T11:09:19.985Z</time></trkpt><trkpt lat="43.64164848803382" lon="3.6911677289849543"><ele>137.0</ele><time>2026-04-28T11:09:20.985Z</time></trkpt><trkpt lat="43.64169712813178" lon="3.6912316688347975"><ele>137.0</ele><time>2026-04-28T11:09:21.985Z</time></trkpt><trkpt lat="43.641749210751826" lon="3.6912857403611072"><ele>137.0</ele><time>2026-04-28T11:09:22.985Z</time></trkpt><trkpt lat="43.641803531319006" lon="3.6913382015179486"><ele>136.5</ele><time>2026-04-28T11:09:23.985Z</time></trkpt><trkpt lat="43.64185815124004" lon="3.6913895766297853"><ele>136.0</ele><time>2026-04-28T11:09:24.985Z</time></trkpt><trkpt lat="43.6419072090138" lon="3.6914489881962385"><ele>135.5</ele><time>2026-04-28T11:09:25.985Z</time></trkpt><trkpt lat="43.64195506782427" lon="3.691520971484108"><ele>135.0</ele><time>2026-04-28T11:09:26.985Z</time></trkpt><trkpt lat="43.64200706365853" lon="3.6916020732315475"><ele>134.5</ele><time>2026-04-28T11:09:27.985Z</time></trkpt><trkpt lat="43.642082717918925" lon="3.6917451057147197"><ele>134.0</ele><time>2026-04-28T11:09:29.985Z</time></trkpt><trkpt lat="43.6421278675697" lon="3.691821832538159"><ele>134.0</ele><time>2026-04-28T11:09:30.985Z</time></trkpt><trkpt lat="43.64217855231222" lon="3.6918884735135693"><ele>134.0</ele><time>2026-04-28T11:09:31.985Z</time></trkpt><trkpt lat="43.64223016143568" lon="3.691954929510574"><ele>134.0</ele><time>2026-04-28T11:09:32.985Z</time></trkpt><trkpt lat="43.64228166556703" lon="3.692022543150402"><ele>134.0</ele><time>2026-04-28T11:09:33.985Z</time></trkpt><trkpt lat="43.64235460973463" lon="3.6921132790434323"><ele>134.0</ele><time>2026-04-28T11:09:35.985Z</time></trkpt><trkpt lat="43.64242615184359" lon="3.6921860926308327"><ele>134.0</ele><time>2026-04-28T11:09:38.985Z</time></trkpt><trkpt lat="43.642487508138274" lon="3.6922567219429725"><ele>133.5</ele><time>2026-04-28T11:09:43.985Z</time></trkpt><trkpt lat="43.64254264727806" lon="3.6923136170181374"><ele>133.0</ele><time>2026-04-28T11:09:46.985Z</time></trkpt><trkpt lat="43.6426208264768" lon="3.692365642214026"><ele>132.5</ele><time>2026-04-28T11:09:49.985Z</time></trkpt><trkpt lat="43.64268826288156" lon="3.692406643675557"><ele>132.0</ele><time>2026-04-28T11:09:51.985Z</time></trkpt><trkpt lat="43.642755590215394" lon="3.692457867717658"><ele>131.5</ele><time>2026-04-28T11:09:53.985Z</time></trkpt><trkpt lat="43.64282630955463" lon="3.6925058161762045"><ele>131.0</ele><time>2026-04-28T11:09:55.985Z</time></trkpt><trkpt lat="43.64290221093474" lon="3.6925629911707354"><ele>131.0</ele><time>2026-04-28T11:09:57.985Z</time></trkpt><trkpt lat="43.64297338744059" lon="3.6926060164199415"><ele>131.0</ele><time>2026-04-28T11:09:59.985Z</time></trkpt><trkpt lat="43.643043638562624" lon="3.6926594849298953"><ele>131.0</ele><time>2026-04-28T11:10:01.985Z</time></trkpt><trkpt lat="43.64311311384494" lon="3.6927313923834655"><ele>131.0</ele><time>2026-04-28T11:10:03.985Z</time></trkpt><trkpt lat="43.6431844496905" lon="3.6928049443570616"><ele>131.0</ele><time>2026-04-28T11:10:05.985Z</time></trkpt><trkpt lat="43.6432772386186" lon="3.6928807622253967"><ele>131.0</ele><time>2026-04-28T11:10:07.985Z</time></trkpt><trkpt lat="43.643357468228885" lon="3.6929541631575495"><ele>130.8</ele><time>2026-04-28T11:10:09.985Z</time></trkpt><trkpt lat="43.643421494017126" lon="3.693021379244654"><ele>130.6</ele><time>2026-04-28T11:10:11.985Z</time></trkpt><trkpt lat="43.64349367736182" lon="3.6931162826565833"><ele>130.4</ele><time>2026-04-28T11:10:13.985Z</time></trkpt><trkpt lat="43.64356771620003" lon="3.693185086779514"><ele>130.2</ele><time>2026-04-28T11:10:15.985Z</time></trkpt><trkpt lat="43.643652728260726" lon="3.693265161378559"><ele>130.0</ele><time>2026-04-28T11:10:17.985Z</time></trkpt><trkpt lat="43.643728228895334" lon="3.69334708415325"><ele>130.0</ele><time>2026-04-28T11:10:19.985Z</time></trkpt><trkpt lat="43.64381310776966" lon="3.6934236504275337"><ele>130.0</ele><time>2026-04-28T11:10:21.985Z</time></trkpt><trkpt lat="43.64388865448793" lon="3.693495235698567"><ele>130.0</ele><time>2026-04-28T11:10:23.985Z</time></trkpt><trkpt lat="43.64396879285483" lon="3.693549955986672"><ele>130.0</ele><time>2026-04-28T11:10:25.985Z</time></trkpt><trkpt lat="43.64404379207387" lon="3.693613489969251"><ele>130.0</ele><time>2026-04-28T11:10:27.985Z</time></trkpt><trkpt lat="43.64410346516674" lon="3.693686327404199"><ele>128.83333333333334</ele><time>2026-04-28T11:10:29.985Z</time></trkpt><trkpt lat="43.64417318726138" lon="3.6937543452265014"><ele>127.66666666666667</ele><time>2026-04-28T11:10:31.985Z</time></trkpt><trkpt lat="43.64424414721305" lon="3.6938047155212916"><ele>126.5</ele><time>2026-04-28T11:10:33.985Z</time></trkpt><trkpt lat="43.64430879189595" lon="3.693855849406192"><ele>125.33333333333334</ele><time>2026-04-28T11:10:36.985Z</time></trkpt><trkpt lat="43.644288544211605" lon="3.693967396095174"><ele>124.16666666666667</ele><time>2026-04-28T11:10:39.985Z</time></trkpt><trkpt lat="43.6442440607385" lon="3.6940744596692623"><ele>123.0</ele><time>2026-04-28T11:10:41.984Z</time></trkpt><trkpt lat="43.64418877163759" lon="3.694182576097933"><ele>123.0</ele><time>2026-04-28T11:10:43.984Z</time></trkpt><trkpt lat="43.64414722728432" lon="3.694317058639457"><ele>123.00000000000001</ele><time>2026-04-28T11:10:45.984Z</time></trkpt><trkpt lat="43.644089135742576" lon="3.6944609429775896"><ele>123.00000000000001</ele><time>2026-04-28T11:10:47.984Z</time></trkpt><trkpt lat="43.64403076074512" lon="3.6946036779298352"><ele>123.0</ele><time>2026-04-28T11:10:49.984Z</time></trkpt><trkpt lat="43.643999618149174" lon="3.6946801299948078"><ele>123.0</ele><time>2026-04-28T11:10:50.984Z</time></trkpt><trkpt lat="43.64396527331181" lon="3.6947565583096926"><ele>122.66666666666667</ele><time>2026-04-28T11:10:51.984Z</time></trkpt><trkpt lat="43.643932496044634" lon="3.694832123488334"><ele>122.33333333333334</ele><time>2026-04-28T11:10:52.984Z</time></trkpt><trkpt lat="43.64389706961449" lon="3.694909875441235"><ele>122.0</ele><time>2026-04-28T11:10:53.984Z</time></trkpt><trkpt lat="43.64386443840408" lon="3.6949905984789297"><ele>121.66666666666667</ele><time>2026-04-28T11:10:54.984Z</time></trkpt><trkpt lat="43.643828494404744" lon="3.695067313234649"><ele>121.33333333333334</ele><time>2026-04-28T11:10:55.984Z</time></trkpt><trkpt lat="43.64379521320321" lon="3.6951460001018948"><ele>121.0</ele><time>2026-04-28T11:10:56.984Z</time></trkpt><trkpt lat="43.64372894830274" lon="3.695297840782459"><ele>121.0</ele><time>2026-04-28T11:10:58.984Z</time></trkpt><trkpt lat="43.643690947601236" lon="3.6953733181915607"><ele>121.0</ele><time>2026-04-28T11:10:59.984Z</time></trkpt><trkpt lat="43.643656290756255" lon="3.6954535458567674"><ele>121.0</ele><time>2026-04-28T11:11:00.984Z</time></trkpt><trkpt lat="43.643592258363675" lon="3.6956062677311032"><ele>121.0</ele><time>2026-04-28T11:11:02.984Z</time></trkpt><trkpt lat="43.643534003402245" lon="3.695734033531974"><ele>121.0</ele><time>2026-04-28T11:11:04.986Z</time></trkpt><trkpt lat="43.64347100145392" lon="3.6958529852465793"><ele>120.71428571428571</ele><time>2026-04-28T11:11:06.986Z</time></trkpt><trkpt lat="43.64344266519652" lon="3.6959331195836524"><ele>120.42857142857142</ele><time>2026-04-28T11:11:08.986Z</time></trkpt><trkpt lat="43.64338202333348" lon="3.69598345392816"><ele>120.14285714285714</ele><time>2026-04-28T11:11:11.986Z</time></trkpt><trkpt lat="43.643294339295494" lon="3.695990023255928"><ele>119.85714285714286</ele><time>2026-04-28T11:11:15.986Z</time></trkpt><trkpt lat="43.64323171535959" lon="3.6959705238808307"><ele>119.57142857142857</ele><time>2026-04-28T11:11:17.986Z</time></trkpt><trkpt lat="43.643151199220036" lon="3.6959514222917407"><ele>119.28571428571428</ele><time>2026-04-28T11:11:20.986Z</time></trkpt><trkpt lat="43.6430868199105" lon="3.6959318908847316"><ele>119.0</ele><time>2026-04-28T11:11:22.986Z</time></trkpt><trkpt lat="43.643025462849565" lon="3.6958757208615047"><ele>118.99999999999999</ele><time>2026-04-28T11:11:24.986Z</time></trkpt><trkpt lat="43.64296734403673" lon="3.6958207162797625"><ele>119.0</ele><time>2026-04-28T11:11:26.986Z</time></trkpt><trkpt lat="43.64291194713297" lon="3.6957470299842368"><ele>119.0</ele><time>2026-04-28T11:11:28.986Z</time></trkpt><trkpt lat="43.642817799886544" lon="3.6957934942571575"><ele>119.0</ele><time>2026-04-28T11:11:31.986Z</time></trkpt><trkpt lat="43.64272234262783" lon="3.6957922890181627"><ele>118.99999999999999</ele><time>2026-04-28T11:11:34.986Z</time></trkpt><trkpt lat="43.64265706625997" lon="3.695792901060435"><ele>119.0</ele><time>2026-04-28T11:11:36.986Z</time></trkpt><trkpt lat="43.6425829217782" lon="3.6957801377434674"><ele>118.66666666666666</ele><time>2026-04-28T11:11:38.986Z</time></trkpt><trkpt lat="43.64250163985594" lon="3.695752625099899"><ele>118.33333333333333</ele><time>2026-04-28T11:11:40.986Z</time></trkpt><trkpt lat="43.64242378322824" lon="3.6957221618872724"><ele>118.0</ele><time>2026-04-28T11:11:42.986Z</time></trkpt><trkpt lat="43.642348212412024" lon="3.6956959478164526"><ele>117.66666666666666</ele><time>2026-04-28T11:11:44.986Z</time></trkpt><trkpt lat="43.642265992909735" lon="3.6956746712915187"><ele>117.33333333333333</ele><time>2026-04-28T11:11:46.986Z</time></trkpt><trkpt lat="43.642193040470694" lon="3.6956415475209354"><ele>117.0</ele><time>2026-04-28T11:11:48.986Z</time></trkpt><trkpt lat="43.64212369473966" lon="3.695603440756972"><ele>117.0</ele><time>2026-04-28T11:11:50.986Z</time></trkpt><trkpt lat="43.642064055081526" lon="3.6955583507885"><ele>117.00000000000001</ele><time>2026-04-28T11:11:52.986Z</time></trkpt><trkpt lat="43.64199911967658" lon="3.695514919566867"><ele>117.0</ele><time>2026-04-28T11:11:54.986Z</time></trkpt><trkpt lat="43.64193734219906" lon="3.695486239905328"><ele>117.0</ele><time>2026-04-28T11:11:56.986Z</time></trkpt><trkpt lat="43.64185624339197" lon="3.6954529835229986"><ele>117.00000000000001</ele><time>2026-04-28T11:11:59.986Z</time></trkpt><trkpt lat="43.64179313717229" lon="3.69543332637266"><ele>117.0</ele><time>2026-04-28T11:12:01.986Z</time></trkpt><trkpt lat="43.641721583512805" lon="3.6954068986478688"><ele>117.0</ele><time>2026-04-28T11:12:03.986Z</time></trkpt><trkpt lat="43.641658928525906" lon="3.6953723386887782"><ele>117.83333333333333</ele><time>2026-04-28T11:12:05.986Z</time></trkpt><trkpt lat="43.641592864665526" lon="3.6953650381178846"><ele>118.66666666666666</ele><time>2026-04-28T11:12:07.986Z</time></trkpt><trkpt lat="43.64152813775629" lon="3.6953446640663117"><ele>119.5</ele><time>2026-04-28T11:12:09.986Z</time></trkpt><trkpt lat="43.641438476244794" lon="3.6953045258607022"><ele>120.33333333333333</ele><time>2026-04-28T11:12:12.986Z</time></trkpt><trkpt lat="43.64136728830813" lon="3.6952778773634543"><ele>121.16666666666666</ele><time>2026-04-28T11:12:15.986Z</time></trkpt><trkpt lat="43.64129989711899" lon="3.6952644086640154"><ele>122.0</ele><time>2026-04-28T11:12:19.986Z</time></trkpt><trkpt lat="43.64128938651932" lon="3.6953872341587326"><ele>122.0</ele><time>2026-04-28T11:12:23.986Z</time></trkpt><trkpt lat="43.64127046501445" lon="3.6954806867797356"><ele>122.0</ele><time>2026-04-28T11:12:26.986Z</time></trkpt><trkpt lat="43.64128557236502" lon="3.695579586728937"><ele>122.0</ele><time>2026-04-28T11:12:30.986Z</time></trkpt><trkpt lat="43.641277332114655" lon="3.6956989338847728"><ele>122.0</ele><time>2026-04-28T11:12:34.986Z</time></trkpt><trkpt lat="43.64121148793516" lon="3.695753660137223"><ele>122.0</ele><time>2026-04-28T11:12:37.986Z</time></trkpt></trkseg></trk></gpx>